<?xml version='1.0' encoding='UTF-8'?><gpx version="1.1" creator="JPX - https://github.com/jenetics/jpx" xmlns="http://www.topografix.com/GPX/1/1"><trk><trkseg><trkpt lat="41.17637616715266" lon="15.045941493515654"><ele>607.0</ele><time>2026-04-16T16:00:32.006Z</time></trkpt><trkpt lat="41.17645122591244" lon="15.04600082731887"><ele>607.0</ele><time>2026-04-16T16:00:40.004Z</time></trkpt><trkpt lat="41.17638883804416" lon="15.046066180479986"><ele>607.0</ele><time>2026-04-16T16:00:42.003Z</time></trkpt><trkpt lat="41.176234460234085" lon="15.046035870293817"><ele>607.0</ele><time>2026-04-16T16:00:44.002Z</time></trkpt><trkpt lat="41.176188169375514" lon="15.045903782075609"><ele>607.0</ele><time>2026-04-16T16:00:46.002Z</time></trkpt><trkpt lat="41.17615984116776" lon="15.045785998281008"><ele>607.8000000000001</ele><time>2026-04-16T16:00:47.002Z</time></trkpt><trkpt lat="41.17613993907191" lon="15.045657619120332"><ele>608.6</ele><time>2026-04-16T16:00:48.002Z</time></trkpt><trkpt lat="41.176118929443305" lon="15.045510045450209"><ele>609.4000000000001</ele><time>2026-04-16T16:00:49.002Z</time></trkpt><trkpt lat="41.176124152541654" lon="15.045389034119939"><ele>610.2</ele><time>2026-04-16T16:00:50.001Z</time></trkpt><trkpt lat="41.17614954208427" lon="15.045251064769234"><ele>611.0</ele><time>2026-04-16T16:00:51.001Z</time></trkpt><trkpt lat="41.176200869344136" lon="15.045115356220034"><ele>611.0</ele><time>2026-04-16T16:00:52.001Z</time></trkpt><trkpt lat="41.176248052602055" lon="15.045013485642425"><ele>611.0</ele><time>2026-04-16T16:00:53.001Z</time></trkpt><trkpt lat="41.17614311849414" lon="15.044939269344255"><ele>611.0</ele><time>2026-04-16T16:00:57Z</time></trkpt><trkpt lat="41.17608025306384" lon="15.044859802130555"><ele>611.0</ele><time>2026-04-16T16:00:58Z</time></trkpt><trkpt lat="41.17602379623475" lon="15.044787031202603"><ele>611.0</ele><time>2026-04-16T16:00:59Z</time></trkpt><trkpt lat="41.17597693865579" lon="15.044700618392591"><ele>612.6666666666666</ele><time>2026-04-16T16:01:01Z</time></trkpt><trkpt lat="41.17603479260632" lon="15.044527240155945"><ele>614.3333333333333</ele><time>2026-04-16T16:01:03Z</time></trkpt><trkpt lat="41.1760792054341" lon="15.044465142762965"><ele>616.0</ele><time>2026-04-16T16:01:04Z</time></trkpt><trkpt lat="41.1761509629468" lon="15.044436973727256"><ele>617.6666666666666</ele><time>2026-04-16T16:01:05Z</time></trkpt><trkpt lat="41.1762269533609" lon="15.044428153301828"><ele>619.3333333333334</ele><time>2026-04-16T16:01:06Z</time></trkpt><trkpt lat="41.17630635840136" lon="15.04441340089395"><ele>621.0</ele><time>2026-04-16T16:01:07Z</time></trkpt><trkpt lat="41.176379943790984" lon="15.044393241600197"><ele>621.0</ele><time>2026-04-16T16:01:08Z</time></trkpt><trkpt lat="41.17645723975685" lon="15.044378150913381"><ele>621.0</ele><time>2026-04-16T16:01:09Z</time></trkpt><trkpt lat="41.176535926702165" lon="15.044374529362344"><ele>621.0</ele><time>2026-04-16T16:01:09.999Z</time></trkpt><trkpt lat="41.17661940684437" lon="15.044355936176563"><ele>621.0</ele><time>2026-04-16T16:01:10.999Z</time></trkpt><trkpt lat="41.176704783548956" lon="15.044339991749105"><ele>621.0</ele><time>2026-04-16T16:01:11.999Z</time></trkpt><trkpt lat="41.176773114496136" lon="15.044309979754116"><ele>621.0</ele><time>2026-04-16T16:01:12.999Z</time></trkpt><trkpt lat="41.17684137351814" lon="15.04419333417803"><ele>618.3333333333334</ele><time>2026-04-16T16:01:14.999Z</time></trkpt><trkpt lat="41.17683854855813" lon="15.044097106591478"><ele>615.6666666666666</ele><time>2026-04-16T16:01:15.999Z</time></trkpt><trkpt lat="41.17682380993098" lon="15.044014662866765"><ele>613.0</ele><time>2026-04-16T16:01:16.999Z</time></trkpt><trkpt lat="41.1767946455004" lon="15.043893070501019"><ele>610.3333333333333</ele><time>2026-04-16T16:01:18.999Z</time></trkpt><trkpt lat="41.176728442481625" lon="15.043790098207932"><ele>607.6666666666666</ele><time>2026-04-16T16:01:20.999Z</time></trkpt><trkpt lat="41.17672916676634" lon="15.043679617086209"><ele>605.0</ele><time>2026-04-16T16:01:22.999Z</time></trkpt><trkpt lat="41.176800785301594" lon="15.043608747195979"><ele>605.0</ele><time>2026-04-16T16:01:24.999Z</time></trkpt><trkpt lat="41.176898937621495" lon="15.043610257202799"><ele>605.0</ele><time>2026-04-16T16:01:26.999Z</time></trkpt><trkpt lat="41.17701006795819" lon="15.043577038861281"><ele>605.0</ele><time>2026-04-16T16:01:28.999Z</time></trkpt><trkpt lat="41.17709581966181" lon="15.043529032616334"><ele>605.0</ele><time>2026-04-16T16:01:30.999Z</time></trkpt><trkpt lat="41.177191249221565" lon="15.04345820668475"><ele>605.0</ele><time>2026-04-16T16:01:32.999Z</time></trkpt><trkpt lat="41.177169890372085" lon="15.04335308126358"><ele>605.0</ele><time>2026-04-16T16:01:34.999Z</time></trkpt><trkpt lat="41.1771041789957" lon="15.043352158414177"><ele>605.0</ele><time>2026-04-16T16:01:35.999Z</time></trkpt><trkpt lat="41.1770367518154" lon="15.04338135812173"><ele>605.0</ele><time>2026-04-16T16:01:36.999Z</time></trkpt><trkpt lat="41.17696755832969" lon="15.043402059884256"><ele>605.0</ele><time>2026-04-16T16:01:37.999Z</time></trkpt><trkpt lat="41.17683784979859" lon="15.043374256673888"><ele>605.0</ele><time>2026-04-16T16:01:39.999Z</time></trkpt><trkpt lat="41.176743498758185" lon="15.043295376194045"><ele>600.0</ele><time>2026-04-16T16:01:41.998Z</time></trkpt><trkpt lat="41.176669769650324" lon="15.043223989890876"><ele>595.0</ele><time>2026-04-16T16:01:43.998Z</time></trkpt><trkpt lat="41.17660092764981" lon="15.043156840010472"><ele>590.0</ele><time>2026-04-16T16:01:45.998Z</time></trkpt><trkpt lat="41.17661742948548" lon="15.043067803081767"><ele>585.0</ele><time>2026-04-16T16:01:48.998Z</time></trkpt><trkpt lat="41.17669735712824" lon="15.04307653388505"><ele>580.0</ele><time>2026-04-16T16:01:50.998Z</time></trkpt><trkpt lat="41.1767640324293" lon="15.043050226864572"><ele>575.0</ele><time>2026-04-16T16:01:52.998Z</time></trkpt><trkpt lat="41.17682252457197" lon="15.04301872868051"><ele>575.0</ele><time>2026-04-16T16:01:53.998Z</time></trkpt><trkpt lat="41.17691073277856" lon="15.042948576322086"><ele>575.0</ele><time>2026-04-16T16:01:55.998Z</time></trkpt><trkpt lat="41.176993964734166" lon="15.042874155527123"><ele>575.0</ele><time>2026-04-16T16:01:57.998Z</time></trkpt><trkpt lat="41.17706261147411" lon="15.042791314348705"><ele>575.0</ele><time>2026-04-16T16:01:59.998Z</time></trkpt><trkpt lat="41.17711489267289" lon="15.042661556935467"><ele>575.0</ele><time>2026-04-16T16:02:01.998Z</time></trkpt><trkpt lat="41.17717414284833" lon="15.042539970433873"><ele>575.0</ele><time>2026-04-16T16:02:03.998Z</time></trkpt><trkpt lat="41.17723595016659" lon="15.042429260447797"><ele>575.0</ele><time>2026-04-16T16:02:05.998Z</time></trkpt><trkpt lat="41.17730725343333" lon="15.042395770193393"><ele>575.0</ele><time>2026-04-16T16:02:07.998Z</time></trkpt><trkpt lat="41.17724900363159" lon="15.042340329967596"><ele>575.0</ele><time>2026-04-16T16:02:10.998Z</time></trkpt><trkpt lat="41.17712855994243" lon="15.042457689501932"><ele>575.0</ele><time>2026-04-16T16:02:12.998Z</time></trkpt><trkpt lat="41.17706049383721" lon="15.04251850540771"><ele>575.0</ele><time>2026-04-16T16:02:13.998Z</time></trkpt><trkpt lat="41.17698907076929" lon="15.04250109281933"><ele>575.0</ele><time>2026-04-16T16:02:14.998Z</time></trkpt><trkpt lat="41.17691325441438" lon="15.042486491088932"><ele>575.0</ele><time>2026-04-16T16:02:15.998Z</time></trkpt><trkpt lat="41.17685167225431" lon="15.042437422798828"><ele>575.0</ele><time>2026-04-16T16:02:18.998Z</time></trkpt><trkpt lat="41.17677270636824" lon="15.042401456253707"><ele>575.0</ele><time>2026-04-16T16:02:20.998Z</time></trkpt><trkpt lat="41.1766823651463" lon="15.042411730858094"><ele>575.0</ele><time>2026-04-16T16:02:22.998Z</time></trkpt><trkpt lat="41.176595645297546" lon="15.042325922285027"><ele>573.4</ele><time>2026-04-16T16:02:24.999Z</time></trkpt><trkpt lat="41.176565297352084" lon="15.042192335643618"><ele>571.8</ele><time>2026-04-16T16:02:26.999Z</time></trkpt><trkpt lat="41.17644131810202" lon="15.042162693144041"><ele>570.2</ele><time>2026-04-16T16:02:29.999Z</time></trkpt><trkpt lat="41.17639334457454" lon="15.042088279712058"><ele>568.6</ele><time>2026-04-16T16:02:33.999Z</time></trkpt><trkpt lat="41.176396353606286" lon="15.041982512453918"><ele>567.0</ele><time>2026-04-16T16:02:35.999Z</time></trkpt><trkpt lat="41.17642114816464" lon="15.041789477706654"><ele>567.0</ele><time>2026-04-16T16:02:37.999Z</time></trkpt><trkpt lat="41.17644063370868" lon="15.041707422808232"><ele>567.0</ele><time>2026-04-16T16:02:38.999Z</time></trkpt><trkpt lat="41.176442437735545" lon="15.041621311387404"><ele>567.0</ele><time>2026-04-16T16:02:39.999Z</time></trkpt><trkpt lat="41.17641853592133" lon="15.041537554490503"><ele>567.0</ele><time>2026-04-16T16:02:40.999Z</time></trkpt><trkpt lat="41.17641099975987" lon="15.041404126195353"><ele>567.0</ele><time>2026-04-16T16:02:42.999Z</time></trkpt><trkpt lat="41.17642444639577" lon="15.041307685720144"><ele>567.0</ele><time>2026-04-16T16:02:43.999Z</time></trkpt><trkpt lat="41.17641114343546" lon="15.04122556911675"><ele>567.0</ele><time>2026-04-16T16:02:44.999Z</time></trkpt><trkpt lat="41.17640537414295" lon="15.041054769314144"><ele>563.8333333333334</ele><time>2026-04-16T16:02:46.999Z</time></trkpt><trkpt lat="41.17641242056483" lon="15.040969267553306"><ele>560.6666666666666</ele><time>2026-04-16T16:02:49.999Z</time></trkpt><trkpt lat="41.17645653255904" lon="15.040844059556635"><ele>557.5</ele><time>2026-04-16T16:02:53.999Z</time></trkpt><trkpt lat="41.17651073648775" lon="15.04076884923381"><ele>554.3333333333333</ele><time>2026-04-16T16:02:56.999Z</time></trkpt><trkpt lat="41.176506802844884" lon="15.040653885357182"><ele>551.1666666666666</ele><time>2026-04-16T16:02:57.999Z</time></trkpt><trkpt lat="41.17649329978349" lon="15.040527306386359"><ele>548.0</ele><time>2026-04-16T16:02:59.999Z</time></trkpt><trkpt lat="41.17646954346565" lon="15.040428979259246"><ele>544.6</ele><time>2026-04-16T16:03:02.999Z</time></trkpt><trkpt lat="41.1763871086082" lon="15.0402991153898"><ele>541.1999999999999</ele><time>2026-04-16T16:03:04.999Z</time></trkpt><trkpt lat="41.1764158154148" lon="15.040211422817526"><ele>537.8</ele><time>2026-04-16T16:03:09.999Z</time></trkpt><trkpt lat="41.17653715357695" lon="15.040286077053086"><ele>534.4</ele><time>2026-04-16T16:03:11.999Z</time></trkpt><trkpt lat="41.1765915443465" lon="15.04034778832438"><ele>531.0</ele><time>2026-04-16T16:03:12.999Z</time></trkpt><trkpt lat="41.17666633907596" lon="15.040383703349809"><ele>527.5</ele><time>2026-04-16T16:03:13.999Z</time></trkpt><trkpt lat="41.176729162742625" lon="15.0404400200792"><ele>524.0</ele><time>2026-04-16T16:03:14.999Z</time></trkpt><trkpt lat="41.176765052292765" lon="15.04050902506658"><ele>520.5</ele><time>2026-04-16T16:03:15.999Z</time></trkpt><trkpt lat="41.176876134110195" lon="15.040589858764541"><ele>517.0</ele><time>2026-04-16T16:03:17.999Z</time></trkpt><trkpt lat="41.17694403109846" lon="15.040596132722301"><ele>513.5</ele><time>2026-04-16T16:03:18.999Z</time></trkpt><trkpt lat="41.177017852211826" lon="15.040601902328792"><ele>510.0</ele><time>2026-04-16T16:03:19.999Z</time></trkpt><trkpt lat="41.17708840445826" lon="15.040635672131339"><ele>510.0</ele><time>2026-04-16T16:03:20.999Z</time></trkpt><trkpt lat="41.177195248918174" lon="15.040700214211551"><ele>510.0</ele><time>2026-04-16T16:03:21.999Z</time></trkpt><trkpt lat="41.17725170819096" lon="15.040767092946592"><ele>510.0</ele><time>2026-04-16T16:03:22.999Z</time></trkpt><trkpt lat="41.17731450351562" lon="15.040782326905196"><ele>510.0</ele><time>2026-04-16T16:03:23.999Z</time></trkpt><trkpt lat="41.177449526259196" lon="15.040751045667795"><ele>510.0</ele><time>2026-04-16T16:03:24.999Z</time></trkpt><trkpt lat="41.17752497208374" lon="15.040745767829012"><ele>515.0</ele><time>2026-04-16T16:03:25.999Z</time></trkpt><trkpt lat="41.17760901725764" lon="15.040811448431391"><ele>520.0</ele><time>2026-04-16T16:03:26.999Z</time></trkpt><trkpt lat="41.177714089529005" lon="15.040857943334855"><ele>525.0</ele><time>2026-04-16T16:03:27.999Z</time></trkpt><trkpt lat="41.17797446751748" lon="15.04085773211879"><ele>525.0</ele><time>2026-04-16T16:03:29.999Z</time></trkpt><trkpt lat="41.17809572887692" lon="15.04093932421899"><ele>525.0</ele><time>2026-04-16T16:03:30.999Z</time></trkpt><trkpt lat="41.17818814469258" lon="15.040963299095381"><ele>525.0</ele><time>2026-04-16T16:03:31.999Z</time></trkpt><trkpt lat="41.17826591386193" lon="15.040959947193157"><ele>525.0</ele><time>2026-04-16T16:03:33.999Z</time></trkpt><trkpt lat="41.17843972749194" lon="15.040774245023343"><ele>524.75</ele><time>2026-04-16T16:03:38.999Z</time></trkpt><trkpt lat="41.17850476694914" lon="15.040656786154502"><ele>524.5</ele><time>2026-04-16T16:03:39.999Z</time></trkpt><trkpt lat="41.17858578402297" lon="15.040527519070205"><ele>524.25</ele><time>2026-04-16T16:03:40.999Z</time></trkpt><trkpt lat="41.17866985432869" lon="15.040388182977903"><ele>524.0</ele><time>2026-04-16T16:03:41.999Z</time></trkpt><trkpt lat="41.17875929674413" lon="15.040250485436022"><ele>524.0</ele><time>2026-04-16T16:03:42.999Z</time></trkpt><trkpt lat="41.17885064864812" lon="15.040123322334633"><ele>524.0</ele><time>2026-04-16T16:03:43.999Z</time></trkpt><trkpt lat="41.17896424967182" lon="15.040042442236995"><ele>524.0</ele><time>2026-04-16T16:03:44.999Z</time></trkpt><trkpt lat="41.17908311292606" lon="15.039949261627001"><ele>524.0</ele><time>2026-04-16T16:03:45.999Z</time></trkpt><trkpt lat="41.17920575679095" lon="15.039840036179573"><ele>527.3333333333333</ele><time>2026-04-16T16:03:46.999Z</time></trkpt><trkpt lat="41.17933172720122" lon="15.039719089333182"><ele>530.6666666666666</ele><time>2026-04-16T16:03:47.999Z</time></trkpt><trkpt lat="41.17944647879567" lon="15.039601982979029"><ele>534.0</ele><time>2026-04-16T16:03:48.999Z</time></trkpt><trkpt lat="41.1795665632415" lon="15.039481639055328"><ele>534.0</ele><time>2026-04-16T16:03:49.999Z</time></trkpt><trkpt lat="41.17967315075567" lon="15.039384124625286"><ele>534.0</ele><time>2026-04-16T16:03:50.999Z</time></trkpt><trkpt lat="41.179739935494396" lon="15.039341234748992"><ele>534.0</ele><time>2026-04-16T16:03:51.999Z</time></trkpt><trkpt lat="41.17981931225259" lon="15.039357821570857"><ele>534.0</ele><time>2026-04-16T16:03:53.999Z</time></trkpt><trkpt lat="41.17988815518087" lon="15.03944397309041"><ele>534.0</ele><time>2026-04-16T16:03:55.999Z</time></trkpt><trkpt lat="41.18004177312904" lon="15.039460513611859"><ele>534.5</ele><time>2026-04-16T16:03:57.999Z</time></trkpt><trkpt lat="41.180147073202555" lon="15.039491714654362"><ele>535.0</ele><time>2026-04-16T16:03:58.999Z</time></trkpt><trkpt lat="41.18025261173122" lon="15.039537634547967"><ele>535.5</ele><time>2026-04-16T16:03:59.999Z</time></trkpt><trkpt lat="41.180367238577865" lon="15.039562000174165"><ele>536.0</ele><time>2026-04-16T16:04:00.999Z</time></trkpt><trkpt lat="41.18048199100147" lon="15.039546766568602"><ele>536.0</ele><time>2026-04-16T16:04:01.999Z</time></trkpt><trkpt lat="41.18062176711883" lon="15.039508822785487"><ele>536.0</ele><time>2026-04-16T16:04:02.999Z</time></trkpt><trkpt lat="41.18076051503771" lon="15.039476349876416"><ele>536.0</ele><time>2026-04-16T16:04:03.999Z</time></trkpt><trkpt lat="41.18091502282915" lon="15.03943473792525"><ele>536.0</ele><time>2026-04-16T16:04:04.999Z</time></trkpt><trkpt lat="41.18105285848099" lon="15.039406081198633"><ele>534.6666666666666</ele><time>2026-04-16T16:04:05.999Z</time></trkpt><trkpt lat="41.181174339799284" lon="15.03937957933946"><ele>533.3333333333333</ele><time>2026-04-16T16:04:06.999Z</time></trkpt><trkpt lat="41.18126065452694" lon="15.039341231775971"><ele>532.0</ele><time>2026-04-16T16:04:07.999Z</time></trkpt><trkpt lat="41.18131461115118" lon="15.039282805546254"><ele>530.6666666666666</ele><time>2026-04-16T16:04:08.999Z</time></trkpt><trkpt lat="41.18137154768647" lon="15.039210571038794"><ele>529.3333333333334</ele><time>2026-04-16T16:04:09.999Z</time></trkpt><trkpt lat="41.18141533268845" lon="15.039124700836384"><ele>528.0</ele><time>2026-04-16T16:04:10.999Z</time></trkpt><trkpt lat="41.18143302557874" lon="15.039009065644839"><ele>524.8</ele><time>2026-04-16T16:04:11.999Z</time></trkpt><trkpt lat="41.181433640532305" lon="15.038884902416669"><ele>521.5999999999999</ele><time>2026-04-16T16:04:12.998Z</time></trkpt><trkpt lat="41.18145107847163" lon="15.038780484558947"><ele>518.4000000000001</ele><time>2026-04-16T16:04:13.998Z</time></trkpt><trkpt lat="41.18149474080828" lon="15.038655001104004"><ele>515.2</ele><time>2026-04-16T16:04:14.998Z</time></trkpt><trkpt lat="41.18158396922601" lon="15.038531848673339"><ele>512.0</ele><time>2026-04-16T16:04:15.998Z</time></trkpt><trkpt lat="41.18167066226118" lon="15.038387193549534"><ele>507.25</ele><time>2026-04-16T16:04:16.998Z</time></trkpt><trkpt lat="41.181764765193556" lon="15.038241313397938"><ele>502.5</ele><time>2026-04-16T16:04:17.998Z</time></trkpt><trkpt lat="41.18187057922203" lon="15.038100217190614"><ele>497.75</ele><time>2026-04-16T16:04:18.998Z</time></trkpt><trkpt lat="41.18196880616997" lon="15.037947150492327"><ele>493.0</ele><time>2026-04-16T16:04:19.998Z</time></trkpt><trkpt lat="41.18206324723019" lon="15.03780835321139"><ele>493.0</ele><time>2026-04-16T16:04:20.998Z</time></trkpt><trkpt lat="41.182147731897075" lon="15.037676591384592"><ele>493.0</ele><time>2026-04-16T16:04:21.998Z</time></trkpt><trkpt lat="41.1822303721083" lon="15.03755919233382"><ele>493.0</ele><time>2026-04-16T16:04:22.998Z</time></trkpt><trkpt lat="41.182308821749395" lon="15.037456222830107"><ele>493.0</ele><time>2026-04-16T16:04:23.998Z</time></trkpt><trkpt lat="41.18239033385868" lon="15.03736777540364"><ele>492.6666666666667</ele><time>2026-04-16T16:04:24.998Z</time></trkpt><trkpt lat="41.182476351495886" lon="15.03730722161287"><ele>492.33333333333337</ele><time>2026-04-16T16:04:25.998Z</time></trkpt><trkpt lat="41.18256176772063" lon="15.037266041077173"><ele>492.0</ele><time>2026-04-16T16:04:26.998Z</time></trkpt><trkpt lat="41.18262037344565" lon="15.037218730550789"><ele>491.66666666666663</ele><time>2026-04-16T16:04:27.998Z</time></trkpt><trkpt lat="41.18266028249307" lon="15.037130596565428"><ele>491.3333333333333</ele><time>2026-04-16T16:04:28.998Z</time></trkpt><trkpt lat="41.182687800572246" lon="15.036994844788417"><ele>491.0</ele><time>2026-04-16T16:04:30Z</time></trkpt><trkpt lat="41.18271215757662" lon="15.036839571236639"><ele>491.0</ele><time>2026-04-16T16:04:31Z</time></trkpt><trkpt lat="41.182742741120975" lon="15.036685093471968"><ele>491.0</ele><time>2026-04-16T16:04:32Z</time></trkpt><trkpt lat="41.18277739397617" lon="15.036539721027177"><ele>491.0</ele><time>2026-04-16T16:04:33Z</time></trkpt><trkpt lat="41.18282078558381" lon="15.03638865530436"><ele>491.0</ele><time>2026-04-16T16:04:34Z</time></trkpt><trkpt lat="41.18288982354351" lon="15.036259430790128"><ele>486.0</ele><time>2026-04-16T16:04:35Z</time></trkpt><trkpt lat="41.182981808080136" lon="15.036127639058535"><ele>481.0</ele><time>2026-04-16T16:04:36Z</time></trkpt><trkpt lat="41.183085463141666" lon="15.035997985413367"><ele>476.0</ele><time>2026-04-16T16:04:37Z</time></trkpt><trkpt lat="41.18316632018974" lon="15.035871889773196"><ele>471.0</ele><time>2026-04-16T16:04:38Z</time></trkpt><trkpt lat="41.18322811955972" lon="15.035777132809159"><ele>470.5</ele><time>2026-04-16T16:04:39Z</time></trkpt><trkpt lat="41.18327963840232" lon="15.035688414287632"><ele>470.0</ele><time>2026-04-16T16:04:40Z</time></trkpt><trkpt lat="41.183314346746016" lon="15.035618394894724"><ele>469.5</ele><time>2026-04-16T16:04:41Z</time></trkpt><trkpt lat="41.183325327988065" lon="15.035523075371323"><ele>469.0</ele><time>2026-04-16T16:04:43Z</time></trkpt><trkpt lat="41.18326151807259" lon="15.035357605001014"><ele>468.5</ele><time>2026-04-16T16:04:45Z</time></trkpt><trkpt lat="41.18322129113823" lon="15.035252421887465"><ele>468.0</ele><time>2026-04-16T16:04:46Z</time></trkpt><trkpt lat="41.1832046436826" lon="15.035150201788912"><ele>468.0</ele><time>2026-04-16T16:04:47Z</time></trkpt><trkpt lat="41.18319086568792" lon="15.035058289338743"><ele>467.99999999999994</ele><time>2026-04-16T16:04:48Z</time></trkpt><trkpt lat="41.18321659050471" lon="15.034914686425052"><ele>467.99999999999994</ele><time>2026-04-16T16:04:50Z</time></trkpt><trkpt lat="41.183263424994266" lon="15.034774152523525"><ele>468.0</ele><time>2026-04-16T16:04:52Z</time></trkpt><trkpt lat="41.1833091261696" lon="15.03460852781295"><ele>468.0</ele><time>2026-04-16T16:04:54Z</time></trkpt><trkpt lat="41.18333459891526" lon="15.034527392583605"><ele>464.4</ele><time>2026-04-16T16:04:55Z</time></trkpt><trkpt lat="41.18336747359203" lon="15.034438443528673"><ele>460.79999999999995</ele><time>2026-04-16T16:04:56Z</time></trkpt><trkpt lat="41.183390807152236" lon="15.034353978784088"><ele>457.2</ele><time>2026-04-16T16:04:57Z</time></trkpt><trkpt lat="41.18344089455664" lon="15.034230136467142"><ele>453.6</ele><time>2026-04-16T16:04:59Z</time></trkpt><trkpt lat="41.183479463887885" lon="15.0341066961478"><ele>450.0</ele><time>2026-04-16T16:05:01Z</time></trkpt><trkpt lat="41.18353288803324" lon="15.03397521892803"><ele>444.5</ele><time>2026-04-16T16:05:03Z</time></trkpt><trkpt lat="41.1835047706288" lon="15.033833641947869"><ele>439.0</ele><time>2026-04-16T16:05:05Z</time></trkpt><trkpt lat="41.18341918763695" lon="15.033728773579085"><ele>433.5</ele><time>2026-04-16T16:05:07Z</time></trkpt><trkpt lat="41.183356333907675" lon="15.033621600537506"><ele>428.0</ele><time>2026-04-16T16:05:09Z</time></trkpt><trkpt lat="41.18334222191676" lon="15.033448283477075"><ele>427.99999999999994</ele><time>2026-04-16T16:05:11Z</time></trkpt><trkpt lat="41.183342462269856" lon="15.033349459557241"><ele>428.0</ele><time>2026-04-16T16:05:12Z</time></trkpt><trkpt lat="41.18335270568364" lon="15.03326009458274"><ele>428.0</ele><time>2026-04-16T16:05:13Z</time></trkpt><trkpt lat="41.18338748206989" lon="15.033091055664913"><ele>428.0</ele><time>2026-04-16T16:05:14.999Z</time></trkpt><trkpt lat="41.18339460696168" lon="15.03300501526537"><ele>427.99999999999994</ele><time>2026-04-16T16:05:15.999Z</time></trkpt><trkpt lat="41.18341197743616" lon="15.03290739270465"><ele>428.0</ele><time>2026-04-16T16:05:16.999Z</time></trkpt><trkpt lat="41.18340953084113" lon="15.0328146964501"><ele>424.66666666666663</ele><time>2026-04-16T16:05:17.999Z</time></trkpt><trkpt lat="41.18340710905651" lon="15.032713547147832"><ele>421.3333333333333</ele><time>2026-04-16T16:05:18.999Z</time></trkpt><trkpt lat="41.18342168838819" lon="15.032607593876383"><ele>418.0</ele><time>2026-04-16T16:05:19.999Z</time></trkpt><trkpt lat="41.1834240323633" lon="15.03250540714227"><ele>414.66666666666663</ele><time>2026-04-16T16:05:20.999Z</time></trkpt><trkpt lat="41.18342514769705" lon="15.032409509002727"><ele>411.3333333333333</ele><time>2026-04-16T16:05:21.999Z</time></trkpt><trkpt lat="41.18341553979021" lon="15.032268721110425"><ele>408.0</ele><time>2026-04-16T16:05:23.999Z</time></trkpt><trkpt lat="41.18343519753236" lon="15.032179775923648"><ele>403.5</ele><time>2026-04-16T16:05:25.999Z</time></trkpt><trkpt lat="41.183525489737754" lon="15.03215281961503"><ele>399.0</ele><time>2026-04-16T16:05:27.999Z</time></trkpt><trkpt lat="41.183632660143886" lon="15.03188637181263"><ele>394.5</ele><time>2026-04-16T16:05:35.999Z</time></trkpt><trkpt lat="41.18370836329833" lon="15.03181883397328"><ele>390.0</ele><time>2026-04-16T16:05:37.999Z</time></trkpt><trkpt lat="41.1837910430699" lon="15.031824710733188"><ele>390.0</ele><time>2026-04-16T16:05:38.999Z</time></trkpt><trkpt lat="41.18388680951566" lon="15.03180419392595"><ele>390.0</ele><time>2026-04-16T16:05:39.999Z</time></trkpt><trkpt lat="41.183973471385464" lon="15.031776872744627"><ele>390.0</ele><time>2026-04-16T16:05:40.999Z</time></trkpt><trkpt lat="41.18404012263047" lon="15.031724171125735"><ele>390.0</ele><time>2026-04-16T16:05:41.999Z</time></trkpt><trkpt lat="41.184109344362014" lon="15.031676446568715"><ele>390.0</ele><time>2026-04-16T16:05:42.999Z</time></trkpt><trkpt lat="41.18419540305053" lon="15.031626061480694"><ele>390.0</ele><time>2026-04-16T16:05:43.999Z</time></trkpt><trkpt lat="41.18428952707015" lon="15.031529506155552"><ele>386.8333333333333</ele><time>2026-04-16T16:05:44.999Z</time></trkpt><trkpt lat="41.184360450016484" lon="15.031475826500866"><ele>383.6666666666667</ele><time>2026-04-16T16:05:45.999Z</time></trkpt><trkpt lat="41.184433918138126" lon="15.031415026363984"><ele>380.5</ele><time>2026-04-16T16:05:46.999Z</time></trkpt><trkpt lat="41.18449691714875" lon="15.031359457331346"><ele>377.33333333333337</ele><time>2026-04-16T16:05:47.999Z</time></trkpt><trkpt lat="41.18455183475688" lon="15.031311147185933"><ele>374.1666666666667</ele><time>2026-04-16T16:05:48.999Z</time></trkpt><trkpt lat="41.18459290216953" lon="15.031170511398905"><ele>371.0</ele><time>2026-04-16T16:05:50.999Z</time></trkpt><trkpt lat="41.1846306303568" lon="15.031093352436697"><ele>371.0</ele><time>2026-04-16T16:05:51.999Z</time></trkpt><trkpt lat="41.184679845444734" lon="15.031004355734488"><ele>371.0</ele><time>2026-04-16T16:05:52.999Z</time></trkpt><trkpt lat="41.18473868909361" lon="15.030959159518995"><ele>371.0</ele><time>2026-04-16T16:05:53.999Z</time></trkpt><trkpt lat="41.18478383505091" lon="15.030899458328557"><ele>371.0</ele><time>2026-04-16T16:05:54.999Z</time></trkpt><trkpt lat="41.18481628643845" lon="15.030822115695383"><ele>371.0</ele><time>2026-04-16T16:05:55.999Z</time></trkpt><trkpt lat="41.18485387909666" lon="15.030754074392686"><ele>371.0</ele><time>2026-04-16T16:05:56.999Z</time></trkpt><trkpt lat="41.18491822306042" lon="15.030624242578803"><ele>368.20000000000005</ele><time>2026-04-16T16:05:58.999Z</time></trkpt><trkpt lat="41.185015952932005" lon="15.030484387257442"><ele>365.40000000000003</ele><time>2026-04-16T16:06:00.999Z</time></trkpt><trkpt lat="41.1850691476995" lon="15.030431043279439"><ele>362.6</ele><time>2026-04-16T16:06:01.999Z</time></trkpt><trkpt lat="41.185139880552605" lon="15.030354293022516"><ele>359.8</ele><time>2026-04-16T16:06:03.999Z</time></trkpt><trkpt lat="41.18507475141891" lon="15.030262224830054"><ele>357.0</ele><time>2026-04-16T16:06:05.999Z</time></trkpt><trkpt lat="41.18497724223845" lon="15.030278838243293"><ele>357.0</ele><time>2026-04-16T16:06:07.999Z</time></trkpt><trkpt lat="41.1848905096395" lon="15.03034656917845"><ele>357.0</ele><time>2026-04-16T16:06:09.999Z</time></trkpt><trkpt lat="41.184835906440235" lon="15.030392242428151"><ele>357.0</ele><time>2026-04-16T16:06:10.999Z</time></trkpt><trkpt lat="41.18478092586528" lon="15.030448214650256"><ele>357.0</ele><time>2026-04-16T16:06:12.999Z</time></trkpt><trkpt lat="41.18471663201625" lon="15.0304903022129"><ele>357.0</ele><time>2026-04-16T16:06:14.999Z</time></trkpt><trkpt lat="41.184725933968124" lon="15.030358353086495"><ele>357.0</ele><time>2026-04-16T16:06:17.999Z</time></trkpt><trkpt lat="41.18475769617607" lon="15.030271240443192"><ele>357.0</ele><time>2026-04-16T16:06:18.999Z</time></trkpt><trkpt lat="41.184809461556895" lon="15.03013629494878"><ele>357.0</ele><time>2026-04-16T16:06:20.999Z</time></trkpt><trkpt lat="41.184864236266904" lon="15.03006594832664"><ele>357.0</ele><time>2026-04-16T16:06:21.999Z</time></trkpt><trkpt lat="41.184927949039874" lon="15.029962054871424"><ele>357.0</ele><time>2026-04-16T16:06:22.999Z</time></trkpt><trkpt lat="41.18498526086044" lon="15.02987678693005"><ele>357.0</ele><time>2026-04-16T16:06:23.999Z</time></trkpt><trkpt lat="41.18506258521429" lon="15.029791521610663"><ele>356.3333333333333</ele><time>2026-04-16T16:06:25.999Z</time></trkpt><trkpt lat="41.18514471246485" lon="15.02979667901944"><ele>355.6666666666667</ele><time>2026-04-16T16:06:27.999Z</time></trkpt><trkpt lat="41.18519903455784" lon="15.029853702696906"><ele>355.0</ele><time>2026-04-16T16:06:29.999Z</time></trkpt><trkpt lat="41.18534393485656" lon="15.029852881851967"><ele>354.33333333333337</ele><time>2026-04-16T16:06:38Z</time></trkpt><trkpt lat="41.18540308386356" lon="15.029818158469565"><ele>353.6666666666667</ele><time>2026-04-16T16:06:41Z</time></trkpt><trkpt lat="41.18538836237623" lon="15.02971712390652"><ele>353.0</ele><time>2026-04-16T16:06:44Z</time></trkpt><trkpt lat="41.185351520026956" lon="15.029628837388204"><ele>353.0</ele><time>2026-04-16T16:06:47Z</time></trkpt><trkpt lat="41.18528801479736" lon="15.02964430067292"><ele>353.0</ele><time>2026-04-16T16:06:48Z</time></trkpt><trkpt lat="41.18524930819072" lon="15.029547812036954"><ele>353.0</ele><time>2026-04-16T16:06:51Z</time></trkpt><trkpt lat="41.18517276328015" lon="15.029486277408065"><ele>353.0</ele><time>2026-04-16T16:06:55Z</time></trkpt><trkpt lat="41.185126046199294" lon="15.029427704076472"><ele>353.0</ele><time>2026-04-16T16:06:58Z</time></trkpt><trkpt lat="41.18503525704563" lon="15.02938035423749"><ele>353.0</ele><time>2026-04-16T16:07:01Z</time></trkpt><trkpt lat="41.185038350136864" lon="15.029290050697435"><ele>353.0</ele><time>2026-04-16T16:07:03Z</time></trkpt><trkpt lat="41.18502876293346" lon="15.0291947936822"><ele>353.0</ele><time>2026-04-16T16:07:06Z</time></trkpt><trkpt lat="41.184965042313486" lon="15.029141448762495"><ele>353.0</ele><time>2026-04-16T16:07:07Z</time></trkpt><trkpt lat="41.18509883947857" lon="15.028964879357433"><ele>353.0</ele><time>2026-04-16T16:07:11Z</time></trkpt><trkpt lat="41.185098766946645" lon="15.028846710681234"><ele>353.0</ele><time>2026-04-16T16:07:13Z</time></trkpt><trkpt lat="41.18510661660315" lon="15.028742043137212"><ele>352.2</ele><time>2026-04-16T16:07:15Z</time></trkpt><trkpt lat="41.18508428454199" lon="15.028625535314937"><ele>351.4</ele><time>2026-04-16T16:07:17Z</time></trkpt><trkpt lat="41.18503897264864" lon="15.028526162808815"><ele>350.59999999999997</ele><time>2026-04-16T16:07:18Z</time></trkpt><trkpt lat="41.18501741390819" lon="15.02834938682736"><ele>349.79999999999995</ele><time>2026-04-16T16:07:19Z</time></trkpt><trkpt lat="41.18496103261096" lon="15.028265578536828"><ele>349.0</ele><time>2026-04-16T16:07:20Z</time></trkpt><trkpt lat="41.18490326287268" lon="15.028196244666676"><ele>348.4</ele><time>2026-04-16T16:07:21Z</time></trkpt><trkpt lat="41.18479010553767" lon="15.028087979148657"><ele>347.79999999999995</ele><time>2026-04-16T16:07:23Z</time></trkpt><trkpt lat="41.184737676049195" lon="15.028025602152706"><ele>347.20000000000005</ele><time>2026-04-16T16:07:24Z</time></trkpt><trkpt lat="41.1846851453171" lon="15.027942929930036"><ele>346.6</ele><time>2026-04-16T16:07:25Z</time></trkpt><trkpt lat="41.184632269691235" lon="15.027863591863667"><ele>346.0</ele><time>2026-04-16T16:07:26Z</time></trkpt><trkpt lat="41.1845738946184" lon="15.027786630925286"><ele>346.0</ele><time>2026-04-16T16:07:26.999Z</time></trkpt><trkpt lat="41.18447227639989" lon="15.027680656438525"><ele>346.0</ele><time>2026-04-16T16:07:27.999Z</time></trkpt><trkpt lat="41.184403869259484" lon="15.027566543595777"><ele>346.0</ele><time>2026-04-16T16:07:28.999Z</time></trkpt><trkpt lat="41.18435472321714" lon="15.027436131147928"><ele>346.0</ele><time>2026-04-16T16:07:29.999Z</time></trkpt><trkpt lat="41.18431643294149" lon="15.02734979491268"><ele>346.0</ele><time>2026-04-16T16:07:30.999Z</time></trkpt><trkpt lat="41.18423074406065" lon="15.027236449338423"><ele>343.75</ele><time>2026-04-16T16:07:32.999Z</time></trkpt><trkpt lat="41.18416422510546" lon="15.02710637736208"><ele>341.5</ele><time>2026-04-16T16:07:33.999Z</time></trkpt><trkpt lat="41.184134094255924" lon="15.026974181728571"><ele>339.25</ele><time>2026-04-16T16:07:34.999Z</time></trkpt><trkpt lat="41.184056586740894" lon="15.026796944280413"><ele>337.0</ele><time>2026-04-16T16:07:35.999Z</time></trkpt><trkpt lat="41.18398389750474" lon="15.026569760566822"><ele>336.75</ele><time>2026-04-16T16:07:36.999Z</time></trkpt><trkpt lat="41.18390874562891" lon="15.026373160760793"><ele>336.5</ele><time>2026-04-16T16:07:37.999Z</time></trkpt><trkpt lat="41.18383162790206" lon="15.02622255200461"><ele>336.25</ele><time>2026-04-16T16:07:38.999Z</time></trkpt><trkpt lat="41.18378633769636" lon="15.026062038117944"><ele>336.0</ele><time>2026-04-16T16:07:39.999Z</time></trkpt><trkpt lat="41.183745776439544" lon="15.025882755723568"><ele>334.0</ele><time>2026-04-16T16:07:40.999Z</time></trkpt><trkpt lat="41.1836803981903" lon="15.025731344683502"><ele>332.0</ele><time>2026-04-16T16:07:41.999Z</time></trkpt><trkpt lat="41.18361102491515" lon="15.025609577988577"><ele>330.0</ele><time>2026-04-16T16:07:42.999Z</time></trkpt><trkpt lat="41.18353513212384" lon="15.025500029706695"><ele>328.0</ele><time>2026-04-16T16:07:43.999Z</time></trkpt><trkpt lat="41.183474034485315" lon="15.025399871871109"><ele>328.0</ele><time>2026-04-16T16:07:44.999Z</time></trkpt><trkpt lat="41.18340176947101" lon="15.025296123908912"><ele>328.0</ele><time>2026-04-16T16:07:45.999Z</time></trkpt><trkpt lat="41.183326227725125" lon="15.025197931051384"><ele>328.0</ele><time>2026-04-16T16:07:46.999Z</time></trkpt><trkpt lat="41.183274077837034" lon="15.025121751398311"><ele>328.0</ele><time>2026-04-16T16:07:47.999Z</time></trkpt><trkpt lat="41.1832081423419" lon="15.025011747314428"><ele>328.0</ele><time>2026-04-16T16:07:49.999Z</time></trkpt><trkpt lat="41.18314959570393" lon="15.02496244143908"><ele>329.3333333333333</ele><time>2026-04-16T16:07:54.999Z</time></trkpt><trkpt lat="41.18309997404345" lon="15.02485870061414"><ele>330.66666666666663</ele><time>2026-04-16T16:08:01.999Z</time></trkpt><trkpt lat="41.18306899540824" lon="15.024728678090254"><ele>332.0</ele><time>2026-04-16T16:08:03.999Z</time></trkpt><trkpt lat="41.18307006984532" lon="15.024627639472756"><ele>333.3333333333333</ele><time>2026-04-16T16:08:05.999Z</time></trkpt><trkpt lat="41.18307335825478" lon="15.02452248185643"><ele>334.6666666666667</ele><time>2026-04-16T16:08:07.999Z</time></trkpt><trkpt lat="41.18308600758522" lon="15.024420762529191"><ele>336.0</ele><time>2026-04-16T16:08:09.999Z</time></trkpt><trkpt lat="41.183075810616636" lon="15.024302958309429"><ele>336.0</ele><time>2026-04-16T16:08:11.999Z</time></trkpt><trkpt lat="41.183010323220984" lon="15.024198110363397"><ele>336.0</ele><time>2026-04-16T16:08:13.999Z</time></trkpt><trkpt lat="41.182865417906584" lon="15.02414205659726"><ele>336.0</ele><time>2026-04-16T16:08:15.999Z</time></trkpt><trkpt lat="41.18274990254593" lon="15.024162270289658"><ele>336.0</ele><time>2026-04-16T16:08:16.999Z</time></trkpt><trkpt lat="41.18267682320942" lon="15.024185483980975"><ele>336.0</ele><time>2026-04-16T16:08:17.999Z</time></trkpt><trkpt lat="41.18258214151398" lon="15.024255118222888"><ele>336.0</ele><time>2026-04-16T16:08:18.999Z</time></trkpt><trkpt lat="41.182492492879156" lon="15.02431248047832"><ele>336.0</ele><time>2026-04-16T16:08:19.999Z</time></trkpt><trkpt lat="41.18241874098386" lon="15.0243217928468"><ele>336.0</ele><time>2026-04-16T16:08:20.999Z</time></trkpt><trkpt lat="41.18230707197254" lon="15.024319130937373"><ele>336.0</ele><time>2026-04-16T16:08:21.999Z</time></trkpt><trkpt lat="41.1821562659421" lon="15.024282635481093"><ele>336.0</ele><time>2026-04-16T16:08:22.999Z</time></trkpt><trkpt lat="41.18207432224848" lon="15.024231770667557"><ele>337.8</ele><time>2026-04-16T16:08:23.999Z</time></trkpt><trkpt lat="41.18197587394341" lon="15.024168697531044"><ele>339.6</ele><time>2026-04-16T16:08:24.999Z</time></trkpt><trkpt lat="41.18188110674115" lon="15.024129110990138"><ele>341.4</ele><time>2026-04-16T16:08:25.999Z</time></trkpt><trkpt lat="41.18177671443015" lon="15.024079494146493"><ele>343.2</ele><time>2026-04-16T16:08:26.999Z</time></trkpt><trkpt lat="41.18169464660453" lon="15.02406888872306"><ele>345.0</ele><time>2026-04-16T16:08:27.999Z</time></trkpt><trkpt lat="41.18161686310854" lon="15.024097987434871"><ele>346.8</ele><time>2026-04-16T16:08:28.999Z</time></trkpt><trkpt lat="41.181503921203365" lon="15.024168151107933"><ele>348.6</ele><time>2026-04-16T16:08:29.999Z</time></trkpt><trkpt lat="41.181426915432745" lon="15.024209929771432"><ele>350.4</ele><time>2026-04-16T16:08:30.999Z</time></trkpt><trkpt lat="41.18133876356302" lon="15.024243535966818"><ele>352.2</ele><time>2026-04-16T16:08:31.999Z</time></trkpt><trkpt lat="41.18125163071629" lon="15.02421259725167"><ele>354.0</ele><time>2026-04-16T16:08:32.999Z</time></trkpt><trkpt lat="41.181180936466745" lon="15.024169797427332"><ele>356.6</ele><time>2026-04-16T16:08:33.999Z</time></trkpt><trkpt lat="41.18113706272563" lon="15.024098612016278"><ele>359.2</ele><time>2026-04-16T16:08:34.999Z</time></trkpt><trkpt lat="41.181110450233156" lon="15.02399682914734"><ele>361.8</ele><time>2026-04-16T16:08:35.999Z</time></trkpt><trkpt lat="41.18109702183461" lon="15.02387759603521"><ele>364.40000000000003</ele><time>2026-04-16T16:08:36.999Z</time></trkpt><trkpt lat="41.1810649602985" lon="15.023722844920599"><ele>367.0</ele><time>2026-04-16T16:08:37.999Z</time></trkpt><trkpt lat="41.180997937705314" lon="15.02356198250272"><ele>367.0</ele><time>2026-04-16T16:08:38.999Z</time></trkpt><trkpt lat="41.180960889758744" lon="15.023418463050351"><ele>367.0</ele><time>2026-04-16T16:08:39.999Z</time></trkpt><trkpt lat="41.18094826700533" lon="15.023266911771017"><ele>367.0</ele><time>2026-04-16T16:08:40.999Z</time></trkpt><trkpt lat="41.181046993283665" lon="15.023218033285485"><ele>367.0</ele><time>2026-04-16T16:08:43Z</time></trkpt><trkpt lat="41.181129095373976" lon="15.023235541920991"><ele>367.0</ele><time>2026-04-16T16:08:44Z</time></trkpt><trkpt lat="41.181240702138155" lon="15.023240183628358"><ele>368.5</ele><time>2026-04-16T16:08:45Z</time></trkpt><trkpt lat="41.18137047239442" lon="15.023231250513744"><ele>370.0</ele><time>2026-04-16T16:08:46Z</time></trkpt><trkpt lat="41.18149671556603" lon="15.023239738504177"><ele>371.5</ele><time>2026-04-16T16:08:47Z</time></trkpt><trkpt lat="41.18160717069097" lon="15.023283598681871"><ele>373.0</ele><time>2026-04-16T16:08:48Z</time></trkpt><trkpt lat="41.181692623801695" lon="15.023310071246677"><ele>373.0</ele><time>2026-04-16T16:08:49Z</time></trkpt><trkpt lat="41.18175997866491" lon="15.023253352753736"><ele>373.0</ele><time>2026-04-16T16:08:51Z</time></trkpt><trkpt lat="41.181745948650594" lon="15.023087458113503"><ele>373.0</ele><time>2026-04-16T16:08:53Z</time></trkpt><trkpt lat="41.181698895801695" lon="15.022966656080756"><ele>373.0</ele><time>2026-04-16T16:08:54Z</time></trkpt><trkpt lat="41.181665335272335" lon="15.022851224103832"><ele>373.0</ele><time>2026-04-16T16:08:55Z</time></trkpt><trkpt lat="41.18162763505332" lon="15.022686828545673"><ele>373.0</ele><time>2026-04-16T16:08:56Z</time></trkpt><trkpt lat="41.18157594402133" lon="15.022523883374378"><ele>373.0</ele><time>2026-04-16T16:08:57Z</time></trkpt><trkpt lat="41.18150141295664" lon="15.022374060317917"><ele>373.0</ele><time>2026-04-16T16:08:58Z</time></trkpt><trkpt lat="41.18142762864424" lon="15.022264455250738"><ele>373.0</ele><time>2026-04-16T16:08:59Z</time></trkpt><trkpt lat="41.18133704496792" lon="15.022150914153878"><ele>378.75</ele><time>2026-04-16T16:09:00Z</time></trkpt><trkpt lat="41.181215801038405" lon="15.022048991480823"><ele>384.5</ele><time>2026-04-16T16:09:01Z</time></trkpt><trkpt lat="41.18112552048646" lon="15.021967724301941"><ele>390.25</ele><time>2026-04-16T16:09:02Z</time></trkpt><trkpt lat="41.1810636506653" lon="15.021857720426508"><ele>396.0</ele><time>2026-04-16T16:09:03Z</time></trkpt><trkpt lat="41.18103029334736" lon="15.021737106475733"><ele>399.4</ele><time>2026-04-16T16:09:04Z</time></trkpt><trkpt lat="41.1809914519406" lon="15.021614066944133"><ele>402.8</ele><time>2026-04-16T16:09:05Z</time></trkpt><trkpt lat="41.180952355033035" lon="15.021496577689518"><ele>406.2</ele><time>2026-04-16T16:09:06Z</time></trkpt><trkpt lat="41.18091174636452" lon="15.021356428009463"><ele>409.59999999999997</ele><time>2026-04-16T16:09:08Z</time></trkpt><trkpt lat="41.18088178624586" lon="15.021252014117048"><ele>413.0</ele><time>2026-04-16T16:09:09Z</time></trkpt><trkpt lat="41.1808387289623" lon="15.021180881763833"><ele>413.0</ele><time>2026-04-16T16:09:10Z</time></trkpt><trkpt lat="41.18082386111368" lon="15.021089371745864"><ele>413.0</ele><time>2026-04-16T16:09:12Z</time></trkpt><trkpt lat="41.18079018421681" lon="15.020987182642683"><ele>413.0</ele><time>2026-04-16T16:09:14Z</time></trkpt><trkpt lat="41.18074596544093" lon="15.020907116723345"><ele>413.0</ele><time>2026-04-16T16:09:18Z</time></trkpt><trkpt lat="41.18072567246235" lon="15.020777379998234"><ele>413.0</ele><time>2026-04-16T16:09:20Z</time></trkpt><trkpt lat="41.18070857022179" lon="15.020607978376312"><ele>413.66666666666663</ele><time>2026-04-16T16:09:23Z</time></trkpt><trkpt lat="41.18068648857828" lon="15.020505281833463"><ele>414.33333333333337</ele><time>2026-04-16T16:09:24Z</time></trkpt><trkpt lat="41.18050748622963" lon="15.020313719088438"><ele>415.0</ele><time>2026-04-16T16:09:25Z</time></trkpt><trkpt lat="41.18036960828299" lon="15.020171954444054"><ele>418.0</ele><time>2026-04-16T16:09:26Z</time></trkpt><trkpt lat="41.18024674257681" lon="15.020021059408787"><ele>421.0</ele><time>2026-04-16T16:09:27Z</time></trkpt><trkpt lat="41.18014891818102" lon="15.019885858590463"><ele>424.0</ele><time>2026-04-16T16:09:28Z</time></trkpt><trkpt lat="41.18005093725591" lon="15.019772344400524"><ele>427.0</ele><time>2026-04-16T16:09:29Z</time></trkpt><trkpt lat="41.17994747753526" lon="15.019645889222467"><ele>431.5</ele><time>2026-04-16T16:09:30Z</time></trkpt><trkpt lat="41.17984841486027" lon="15.019506595811078"><ele>436.0</ele><time>2026-04-16T16:09:31Z</time></trkpt><trkpt lat="41.17974920521946" lon="15.019341129632473"><ele>440.5</ele><time>2026-04-16T16:09:32Z</time></trkpt><trkpt lat="41.17966418003992" lon="15.019257687984933"><ele>445.0</ele><time>2026-04-16T16:09:32.999Z</time></trkpt><trkpt lat="41.17960504714749" lon="15.019142480621069"><ele>445.25</ele><time>2026-04-16T16:09:33.999Z</time></trkpt><trkpt lat="41.179517756830215" lon="15.019006053292342"><ele>445.5</ele><time>2026-04-16T16:09:34.999Z</time></trkpt><trkpt lat="41.17943999432825" lon="15.018864124192515"><ele>445.75</ele><time>2026-04-16T16:09:35.999Z</time></trkpt><trkpt lat="41.179362452499426" lon="15.018712529977618"><ele>446.0</ele><time>2026-04-16T16:09:36.999Z</time></trkpt><trkpt lat="41.179252518616764" lon="15.018570991997281"><ele>446.0</ele><time>2026-04-16T16:09:37.999Z</time></trkpt><trkpt lat="41.17919161220894" lon="15.018461839105765"><ele>446.0</ele><time>2026-04-16T16:09:38.999Z</time></trkpt><trkpt lat="41.179145459802335" lon="15.018355562672479"><ele>446.0</ele><time>2026-04-16T16:09:39.999Z</time></trkpt><trkpt lat="41.179124746094395" lon="15.01825704648431"><ele>446.0</ele><time>2026-04-16T16:09:40.999Z</time></trkpt><trkpt lat="41.17907210808733" lon="15.018153754909259"><ele>446.0</ele><time>2026-04-16T16:09:41.999Z</time></trkpt><trkpt lat="41.1789579990788" lon="15.018045620005259"><ele>445.0</ele><time>2026-04-16T16:09:42.999Z</time></trkpt><trkpt lat="41.17886584425642" lon="15.017933407372482"><ele>444.0</ele><time>2026-04-16T16:09:43.999Z</time></trkpt><trkpt lat="41.17876838015158" lon="15.017833188910958"><ele>443.0</ele><time>2026-04-16T16:09:44.999Z</time></trkpt><trkpt lat="41.178668491794056" lon="15.017663689231847"><ele>442.0</ele><time>2026-04-16T16:09:45.999Z</time></trkpt><trkpt lat="41.17856670037978" lon="15.017481745520422"><ele>442.0</ele><time>2026-04-16T16:09:46.999Z</time></trkpt><trkpt lat="41.178493459826605" lon="15.017316561572295"><ele>442.0</ele><time>2026-04-16T16:09:47.999Z</time></trkpt><trkpt lat="41.17843140341105" lon="15.017132101917264"><ele>442.0</ele><time>2026-04-16T16:09:48.999Z</time></trkpt><trkpt lat="41.17834959591916" lon="15.016964609528179"><ele>442.0</ele><time>2026-04-16T16:09:49.999Z</time></trkpt><trkpt lat="41.178247930826444" lon="15.016806714639621"><ele>440.75</ele><time>2026-04-16T16:09:50.999Z</time></trkpt><trkpt lat="41.178142120421995" lon="15.016668189303088"><ele>439.5</ele><time>2026-04-16T16:09:51.999Z</time></trkpt><trkpt lat="41.178037444774226" lon="15.016538391808025"><ele>438.25</ele><time>2026-04-16T16:09:52.999Z</time></trkpt><trkpt lat="41.177939755396956" lon="15.016419201547645"><ele>437.0</ele><time>2026-04-16T16:09:53.999Z</time></trkpt><trkpt lat="41.17781440709644" lon="15.016294627655183"><ele>437.0</ele><time>2026-04-16T16:09:54.999Z</time></trkpt><trkpt lat="41.177677398261245" lon="15.016171787222667"><ele>437.0</ele><time>2026-04-16T16:09:55.999Z</time></trkpt><trkpt lat="41.17755609564461" lon="15.01606263824796"><ele>437.0</ele><time>2026-04-16T16:09:56.999Z</time></trkpt><trkpt lat="41.1774436143167" lon="15.015951921549183"><ele>438.0</ele><time>2026-04-16T16:09:57.999Z</time></trkpt><trkpt lat="41.17729122061078" lon="15.015878484666855"><ele>439.0</ele><time>2026-04-16T16:09:58.999Z</time></trkpt><trkpt lat="41.17715050400455" lon="15.015826870703215"><ele>440.0</ele><time>2026-04-16T16:09:59.999Z</time></trkpt><trkpt lat="41.176994629034155" lon="15.015797284829434"><ele>440.0</ele><time>2026-04-16T16:10:00.999Z</time></trkpt><trkpt lat="41.17684132020354" lon="15.015799987157552"><ele>440.0</ele><time>2026-04-16T16:10:01.999Z</time></trkpt><trkpt lat="41.17668705684202" lon="15.015815695966008"><ele>440.0</ele><time>2026-04-16T16:10:02.999Z</time></trkpt><trkpt lat="41.17656220576297" lon="15.015831478834162"><ele>440.0</ele><time>2026-04-16T16:10:03.999Z</time></trkpt><trkpt lat="41.17646389008145" lon="15.015830869471893"><ele>439.8</ele><time>2026-04-16T16:10:04.999Z</time></trkpt><trkpt lat="41.17639197936123" lon="15.0157972744512"><ele>439.6</ele><time>2026-04-16T16:10:05.999Z</time></trkpt><trkpt lat="41.17633120984951" lon="15.015702295335075"><ele>439.4</ele><time>2026-04-16T16:10:06.999Z</time></trkpt><trkpt lat="41.17625381261168" lon="15.01559013455712"><ele>439.2</ele><time>2026-04-16T16:10:07.999Z</time></trkpt><trkpt lat="41.17614246569305" lon="15.015511867153762"><ele>439.0</ele><time>2026-04-16T16:10:08.999Z</time></trkpt><trkpt lat="41.176021256675554" lon="15.015457372804624"><ele>439.0</ele><time>2026-04-16T16:10:09.999Z</time></trkpt><trkpt lat="41.17588363155109" lon="15.015402048167438"><ele>439.0</ele><time>2026-04-16T16:10:10.999Z</time></trkpt><trkpt lat="41.1757334539649" lon="15.015361777115686"><ele>439.0</ele><time>2026-04-16T16:10:11.999Z</time></trkpt><trkpt lat="41.17558802881704" lon="15.01529712783992"><ele>439.0</ele><time>2026-04-16T16:10:12.999Z</time></trkpt><trkpt lat="41.17544528476921" lon="15.015250356972196"><ele>439.0</ele><time>2026-04-16T16:10:13.999Z</time></trkpt><trkpt lat="41.175310732820186" lon="15.015194679256119"><ele>439.0</ele><time>2026-04-16T16:10:14.999Z</time></trkpt><trkpt lat="41.17517102652962" lon="15.015125343684861"><ele>439.0</ele><time>2026-04-16T16:10:15.999Z</time></trkpt><trkpt lat="41.17502136541598" lon="15.01506922376671"><ele>439.0</ele><time>2026-04-16T16:10:16.999Z</time></trkpt><trkpt lat="41.17486749071317" lon="15.01500090079362"><ele>439.0</ele><time>2026-04-16T16:10:17.999Z</time></trkpt><trkpt lat="41.174708112864714" lon="15.014940822285817"><ele>439.0</ele><time>2026-04-16T16:10:18.999Z</time></trkpt><trkpt lat="41.17455907636059" lon="15.014879610913987"><ele>438.0</ele><time>2026-04-16T16:10:19.999Z</time></trkpt><trkpt lat="41.17440226563716" lon="15.014793532648698"><ele>437.0</ele><time>2026-04-16T16:10:20.999Z</time></trkpt><trkpt lat="41.17424939535455" lon="15.014728567856029"><ele>436.0</ele><time>2026-04-16T16:10:21.999Z</time></trkpt><trkpt lat="41.17409698537153" lon="15.014662763059732"><ele>435.0</ele><time>2026-04-16T16:10:22.999Z</time></trkpt><trkpt lat="41.17396135347534" lon="15.014605081745504"><ele>434.0</ele><time>2026-04-16T16:10:23.999Z</time></trkpt><trkpt lat="41.17384483452232" lon="15.014559972744966"><ele>433.0</ele><time>2026-04-16T16:10:24.999Z</time></trkpt><trkpt lat="41.17371631875435" lon="15.014498615417137"><ele>432.0</ele><time>2026-04-16T16:10:25.999Z</time></trkpt><trkpt lat="41.17358741067731" lon="15.014425437320869"><ele>432.0</ele><time>2026-04-16T16:10:26.999Z</time></trkpt><trkpt lat="41.17345103797364" lon="15.014328037391937"><ele>432.0</ele><time>2026-04-16T16:10:27.999Z</time></trkpt><trkpt lat="41.17331038374623" lon="15.01422266946208"><ele>432.0</ele><time>2026-04-16T16:10:28.999Z</time></trkpt><trkpt lat="41.17316281548297" lon="15.014113312141147"><ele>431.66666666666663</ele><time>2026-04-16T16:10:29.999Z</time></trkpt><trkpt lat="41.17301423169454" lon="15.01400355042804"><ele>431.3333333333333</ele><time>2026-04-16T16:10:30.999Z</time></trkpt><trkpt lat="41.17286528140722" lon="15.013893517969514"><ele>431.0</ele><time>2026-04-16T16:10:31.999Z</time></trkpt><trkpt lat="41.172718154893985" lon="15.013784832778654"><ele>431.0</ele><time>2026-04-16T16:10:32.999Z</time></trkpt><trkpt lat="41.17257078285018" lon="15.01367460860724"><ele>431.0</ele><time>2026-04-16T16:10:33.999Z</time></trkpt><trkpt lat="41.17242345799879" lon="15.013563846119714"><ele>431.0</ele><time>2026-04-16T16:10:34.999Z</time></trkpt><trkpt lat="41.17229031924484" lon="15.013463749088439"><ele>431.0</ele><time>2026-04-16T16:10:35.999Z</time></trkpt><trkpt lat="41.172165041742595" lon="15.013369575645896"><ele>431.0</ele><time>2026-04-16T16:10:36.999Z</time></trkpt><trkpt lat="41.17204867692405" lon="15.013282101939243"><ele>431.0</ele><time>2026-04-16T16:10:37.999Z</time></trkpt><trkpt lat="41.17194750929282" lon="15.013207119998576"><ele>431.0</ele><time>2026-04-16T16:10:38.999Z</time></trkpt><trkpt lat="41.17187042221933" lon="15.013150743389664"><ele>431.20000000000005</ele><time>2026-04-16T16:10:39.999Z</time></trkpt><trkpt lat="41.171804135038435" lon="15.013102263928078"><ele>431.40000000000003</ele><time>2026-04-16T16:10:40.999Z</time></trkpt><trkpt lat="41.171739749343395" lon="15.013023314283801"><ele>431.6</ele><time>2026-04-16T16:10:42.999Z</time></trkpt><trkpt lat="41.171780912435594" lon="15.01287982726784"><ele>431.8</ele><time>2026-04-16T16:10:43.999Z</time></trkpt><trkpt lat="41.17179671101354" lon="15.012760920349642"><ele>432.0</ele><time>2026-04-16T16:10:44.999Z</time></trkpt><trkpt lat="41.17180698663001" lon="15.012621079289723"><ele>432.25</ele><time>2026-04-16T16:10:45.999Z</time></trkpt><trkpt lat="41.17181312210418" lon="15.012468318076598"><ele>432.5</ele><time>2026-04-16T16:10:46.999Z</time></trkpt><trkpt lat="41.17182508004847" lon="15.01229782256751"><ele>432.75</ele><time>2026-04-16T16:10:48Z</time></trkpt><trkpt lat="41.17183764172127" lon="15.012117583411042"><ele>433.0</ele><time>2026-04-16T16:10:49Z</time></trkpt><trkpt lat="41.17185455027785" lon="15.011934146046885"><ele>433.0</ele><time>2026-04-16T16:10:50Z</time></trkpt><trkpt lat="41.17187484642208" lon="15.011745213789064"><ele>433.0</ele><time>2026-04-16T16:10:51Z</time></trkpt><trkpt lat="41.17189388693997" lon="15.01153606656233"><ele>433.0</ele><time>2026-04-16T16:10:52Z</time></trkpt><trkpt lat="41.171912416657825" lon="15.011324082930955"><ele>434.33333333333337</ele><time>2026-04-16T16:10:53Z</time></trkpt><trkpt lat="41.171925697334395" lon="15.011120388244578"><ele>435.66666666666663</ele><time>2026-04-16T16:10:54Z</time></trkpt><trkpt lat="41.1719409862029" lon="15.010915697570448"><ele>437.0</ele><time>2026-04-16T16:10:55Z</time></trkpt><trkpt lat="41.17197277297978" lon="15.010717372757966"><ele>438.5</ele><time>2026-04-16T16:10:56Z</time></trkpt><trkpt lat="41.171974606356784" lon="15.010518868290905"><ele>440.0</ele><time>2026-04-16T16:10:57Z</time></trkpt><trkpt lat="41.172012084387724" lon="15.010327020838341"><ele>441.5</ele><time>2026-04-16T16:10:58Z</time></trkpt><trkpt lat="41.1720209307048" lon="15.01013488062315"><ele>443.0</ele><time>2026-04-16T16:10:59Z</time></trkpt><trkpt lat="41.17206240268386" lon="15.009970678351605"><ele>444.59999999999997</ele><time>2026-04-16T16:11:00Z</time></trkpt><trkpt lat="41.172095147275776" lon="15.009829599169752"><ele>446.19999999999993</ele><time>2026-04-16T16:11:01Z</time></trkpt><trkpt lat="41.17211867002164" lon="15.009682156858977"><ele>447.8</ele><time>2026-04-16T16:11:02Z</time></trkpt><trkpt lat="41.172137316350884" lon="15.00954101252378"><ele>449.4</ele><time>2026-04-16T16:11:03Z</time></trkpt><trkpt lat="41.1721579780117" lon="15.009412693339117"><ele>451.0</ele><time>2026-04-16T16:11:04Z</time></trkpt><trkpt lat="41.17220307639379" lon="15.009299359686894"><ele>451.0</ele><time>2026-04-16T16:11:05Z</time></trkpt><trkpt lat="41.17229660296582" lon="15.009246281795479"><ele>451.0</ele><time>2026-04-16T16:11:06Z</time></trkpt><trkpt lat="41.17236947198465" lon="15.009150714084422"><ele>451.0</ele><time>2026-04-16T16:11:07Z</time></trkpt><trkpt lat="41.17236292035383" lon="15.00893235171458"><ele>451.0</ele><time>2026-04-16T16:11:08Z</time></trkpt><trkpt lat="41.17242184259265" lon="15.008792821221444"><ele>452.75</ele><time>2026-04-16T16:11:09Z</time></trkpt><trkpt lat="41.17248015152707" lon="15.008657912869662"><ele>454.5</ele><time>2026-04-16T16:11:10Z</time></trkpt><trkpt lat="41.172542737175476" lon="15.008529373802217"><ele>456.25</ele><time>2026-04-16T16:11:11Z</time></trkpt><trkpt lat="41.172603202085384" lon="15.00840294156913"><ele>458.0</ele><time>2026-04-16T16:11:12Z</time></trkpt><trkpt lat="41.172638935648216" lon="15.008262018915643"><ele>458.0</ele><time>2026-04-16T16:11:13Z</time></trkpt><trkpt lat="41.17263893545734" lon="15.008124771385573"><ele>457.99999999999994</ele><time>2026-04-16T16:11:14Z</time></trkpt><trkpt lat="41.172612131182206" lon="15.007984155988149"><ele>457.99999999999994</ele><time>2026-04-16T16:11:15Z</time></trkpt><trkpt lat="41.17258304116162" lon="15.007832322450481"><ele>458.0</ele><time>2026-04-16T16:11:16Z</time></trkpt><trkpt lat="41.17255859106555" lon="15.007701287560648"><ele>458.0</ele><time>2026-04-16T16:11:17Z</time></trkpt><trkpt lat="41.17252432302273" lon="15.00761649514115"><ele>457.99999999999994</ele><time>2026-04-16T16:11:18Z</time></trkpt><trkpt lat="41.17246347293841" lon="15.00754443798279"><ele>458.0</ele><time>2026-04-16T16:11:19Z</time></trkpt><trkpt lat="41.172385688292955" lon="15.007488104121153"><ele>458.0</ele><time>2026-04-16T16:11:20Z</time></trkpt><trkpt lat="41.17230976748179" lon="15.007447645093954"><ele>458.0</ele><time>2026-04-16T16:11:21Z</time></trkpt><trkpt lat="41.172236389813456" lon="15.007426942597037"><ele>457.99999999999994</ele><time>2026-04-16T16:11:22Z</time></trkpt><trkpt lat="41.17214100908206" lon="15.007425065454026"><ele>458.0</ele><time>2026-04-16T16:11:23Z</time></trkpt><trkpt lat="41.17205384264726" lon="15.00741588507314"><ele>456.79999999999995</ele><time>2026-04-16T16:11:24Z</time></trkpt><trkpt lat="41.17194288892835" lon="15.007397830002146"><ele>455.59999999999997</ele><time>2026-04-16T16:11:25Z</time></trkpt><trkpt lat="41.17182780542766" lon="15.007379995449366"><ele>454.40000000000003</ele><time>2026-04-16T16:11:26Z</time></trkpt><trkpt lat="41.17170959971843" lon="15.00737786439336"><ele>453.20000000000005</ele><time>2026-04-16T16:11:27Z</time></trkpt><trkpt lat="41.17160947980017" lon="15.007370723429233"><ele>452.0</ele><time>2026-04-16T16:11:28Z</time></trkpt><trkpt lat="41.17153004485798" lon="15.007392325992232"><ele>452.49999999999994</ele><time>2026-04-16T16:11:29Z</time></trkpt><trkpt lat="41.17146456302872" lon="15.007401054001837"><ele>453.0</ele><time>2026-04-16T16:11:30Z</time></trkpt><trkpt lat="41.1714032679146" lon="15.007361573618693"><ele>453.5</ele><time>2026-04-16T16:11:31Z</time></trkpt><trkpt lat="41.1713504059906" lon="15.007283080394053"><ele>454.0</ele><time>2026-04-16T16:11:32Z</time></trkpt><trkpt lat="41.17130796492213" lon="15.007220158460973"><ele>454.49999999999994</ele><time>2026-04-16T16:11:33Z</time></trkpt><trkpt lat="41.17125135778818" lon="15.007100481564748"><ele>455.0</ele><time>2026-04-16T16:11:35Z</time></trkpt><trkpt lat="41.17119820594" lon="15.007021741835938"><ele>454.99999999999994</ele><time>2026-04-16T16:11:36Z</time></trkpt><trkpt lat="41.171138653623984" lon="15.006927345039822"><ele>455.0</ele><time>2026-04-16T16:11:37Z</time></trkpt><trkpt lat="41.171086298412625" lon="15.006842874674376"><ele>455.0</ele><time>2026-04-16T16:11:38Z</time></trkpt><trkpt lat="41.17103965774061" lon="15.00677754662631"><ele>455.0</ele><time>2026-04-16T16:11:39Z</time></trkpt><trkpt lat="41.170957918461546" lon="15.00670396740037"><ele>454.99999999999994</ele><time>2026-04-16T16:11:40.999Z</time></trkpt><trkpt lat="41.170870776296255" lon="15.006715031382605"><ele>455.0</ele><time>2026-04-16T16:11:42.999Z</time></trkpt><trkpt lat="41.170784791494036" lon="15.006756849640562"><ele>454.99999999999994</ele><time>2026-04-16T16:11:44.999Z</time></trkpt><trkpt lat="41.17073324440134" lon="15.00680707296852"><ele>455.0</ele><time>2026-04-16T16:11:47.999Z</time></trkpt><trkpt lat="41.17080107272196" lon="15.006790750332497"><ele>455.0</ele><time>2026-04-16T16:11:51.999Z</time></trkpt><trkpt lat="41.170917713107755" lon="15.006707277926889"><ele>455.0</ele><time>2026-04-16T16:11:53.999Z</time></trkpt><trkpt lat="41.17099310393485" lon="15.006730692267478"><ele>454.99999999999994</ele><time>2026-04-16T16:11:54.999Z</time></trkpt><trkpt lat="41.17106450470455" lon="15.006777351901606"><ele>455.0</ele><time>2026-04-16T16:11:55.999Z</time></trkpt><trkpt lat="41.17111700572145" lon="15.006874404812292"><ele>455.0</ele><time>2026-04-16T16:11:56.999Z</time></trkpt><trkpt lat="41.17117364056992" lon="15.00698152917789"><ele>455.0</ele><time>2026-04-16T16:11:57.999Z</time></trkpt><trkpt lat="41.171236911118015" lon="15.007093009716765"><ele>455.0</ele><time>2026-04-16T16:11:58.999Z</time></trkpt><trkpt lat="41.17130395504029" lon="15.007205159905386"><ele>455.0</ele><time>2026-04-16T16:11:59.999Z</time></trkpt><trkpt lat="41.17136450354325" lon="15.007289460207266"><ele>455.0</ele><time>2026-04-16T16:12:00.999Z</time></trkpt><trkpt lat="41.17148415136295" lon="15.007381726622667"><ele>454.4</ele><time>2026-04-16T16:12:02.999Z</time></trkpt><trkpt lat="41.17155986491719" lon="15.00740826126469"><ele>453.8</ele><time>2026-04-16T16:12:03.999Z</time></trkpt><trkpt lat="41.17166685381328" lon="15.007402049092464"><ele>453.20000000000005</ele><time>2026-04-16T16:12:04.999Z</time></trkpt><trkpt lat="41.171780637055925" lon="15.007391333201989"><ele>452.6</ele><time>2026-04-16T16:12:05.999Z</time></trkpt><trkpt lat="41.17190413233968" lon="15.007407059790381"><ele>452.0</ele><time>2026-04-16T16:12:06.999Z</time></trkpt><trkpt lat="41.17201862159015" lon="15.007429526404252"><ele>451.99999999999994</ele><time>2026-04-16T16:12:07.999Z</time></trkpt><trkpt lat="41.17211163128078" lon="15.007440291160503"><ele>452.0</ele><time>2026-04-16T16:12:08.999Z</time></trkpt><trkpt lat="41.172206424073956" lon="15.007452443497257"><ele>452.0</ele><time>2026-04-16T16:12:09.999Z</time></trkpt><trkpt lat="41.172290626282994" lon="15.007469604772833"><ele>452.0</ele><time>2026-04-16T16:12:10.999Z</time></trkpt><trkpt lat="41.17237586355593" lon="15.007489294449238"><ele>451.99999999999994</ele><time>2026-04-16T16:12:11.999Z</time></trkpt><trkpt lat="41.17244085193229" lon="15.007542583483136"><ele>452.0</ele><time>2026-04-16T16:12:12.999Z</time></trkpt><trkpt lat="41.17250508815107" lon="15.007646418654645"><ele>452.0</ele><time>2026-04-16T16:12:14.999Z</time></trkpt><trkpt lat="41.17247377126583" lon="15.007393936968727"><ele>452.00000000000006</ele><time>2026-04-16T16:12:23.999Z</time></trkpt><trkpt lat="41.172443899339996" lon="15.007313318875443"><ele>452.00000000000006</ele><time>2026-04-16T16:12:24.999Z</time></trkpt><trkpt lat="41.172357601676666" lon="15.00722106318867"><ele>452.0</ele><time>2026-04-16T16:12:25.999Z</time></trkpt><trkpt lat="41.17232191196938" lon="15.00713647589564"><ele>452.0</ele><time>2026-04-16T16:12:26.999Z</time></trkpt><trkpt lat="41.1722826085825" lon="15.00705807317246"><ele>451.99999999999994</ele><time>2026-04-16T16:12:27.999Z</time></trkpt><trkpt lat="41.1722613561691" lon="15.006976421712434"><ele>452.0</ele><time>2026-04-16T16:12:28.999Z</time></trkpt><trkpt lat="41.172210285464004" lon="15.006866920221077"><ele>452.0</ele><time>2026-04-16T16:12:30.999Z</time></trkpt><trkpt lat="41.17209918065267" lon="15.006773970765053"><ele>452.0</ele><time>2026-04-16T16:12:32.999Z</time></trkpt><trkpt lat="41.17202508209332" lon="15.006730191519617"><ele>451.99999999999994</ele><time>2026-04-16T16:12:33.999Z</time></trkpt><trkpt lat="41.171969845648434" lon="15.00666920366447"><ele>452.0</ele><time>2026-04-16T16:12:34.999Z</time></trkpt><trkpt lat="41.1719004115031" lon="15.006630232186321"><ele>448.66666666666663</ele><time>2026-04-16T16:12:35.999Z</time></trkpt><trkpt lat="41.17183087228944" lon="15.00656641481746"><ele>445.3333333333333</ele><time>2026-04-16T16:12:37.999Z</time></trkpt><trkpt lat="41.171795664544725" lon="15.006461561937913"><ele>442.0</ele><time>2026-04-16T16:12:39.999Z</time></trkpt><trkpt lat="41.171757339260104" lon="15.006395105670201"><ele>438.66666666666663</ele><time>2026-04-16T16:12:40.999Z</time></trkpt><trkpt lat="41.17172121176987" lon="15.006259560702757"><ele>435.3333333333333</ele><time>2026-04-16T16:12:42.999Z</time></trkpt><trkpt lat="41.171670090461554" lon="15.006151437141158"><ele>432.0</ele><time>2026-04-16T16:12:44.999Z</time></trkpt><trkpt lat="41.171658970345746" lon="15.006036554880293"><ele>432.0</ele><time>2026-04-16T16:12:47.999Z</time></trkpt><trkpt lat="41.171707307292394" lon="15.005904099670932"><ele>432.00000000000006</ele><time>2026-04-16T16:12:49.999Z</time></trkpt><trkpt lat="41.171726928915845" lon="15.005824486552267"><ele>432.00000000000006</ele><time>2026-04-16T16:12:50.999Z</time></trkpt><trkpt lat="41.1717486757418" lon="15.005687696353116"><ele>432.0</ele><time>2026-04-16T16:12:52.998Z</time></trkpt><trkpt lat="41.17173883530227" lon="15.005530428039918"><ele>432.0</ele><time>2026-04-16T16:12:55Z</time></trkpt><trkpt lat="41.17167622509132" lon="15.005380218994437"><ele>430.0</ele><time>2026-04-16T16:12:57Z</time></trkpt><trkpt lat="41.17163437762343" lon="15.005281333244636"><ele>428.0</ele><time>2026-04-16T16:12:58Z</time></trkpt><trkpt lat="41.171585840921296" lon="15.00519310354364"><ele>426.0</ele><time>2026-04-16T16:12:59Z</time></trkpt><trkpt lat="41.17154427974011" lon="15.005125992359899"><ele>424.0</ele><time>2026-04-16T16:13:00Z</time></trkpt><trkpt lat="41.17151022111388" lon="15.005042884735051"><ele>422.0</ele><time>2026-04-16T16:13:01Z</time></trkpt><trkpt lat="41.17148123527362" lon="15.004968175738025"><ele>420.0</ele><time>2026-04-16T16:13:02Z</time></trkpt><trkpt lat="41.17143230600622" lon="15.004837954900575"><ele>412.5</ele><time>2026-04-16T16:13:04Z</time></trkpt><trkpt lat="41.171393035293995" lon="15.004733368112328"><ele>405.0</ele><time>2026-04-16T16:13:06Z</time></trkpt><trkpt lat="41.17133663981566" lon="15.004626878285887"><ele>397.5</ele><time>2026-04-16T16:13:08Z</time></trkpt><trkpt lat="41.17117115580391" lon="15.004612316458134"><ele>390.0</ele><time>2026-04-16T16:13:10Z</time></trkpt><trkpt lat="41.17105320023199" lon="15.004618355492317"><ele>390.0</ele><time>2026-04-16T16:13:11Z</time></trkpt><trkpt lat="41.17094225464781" lon="15.004622577573135"><ele>390.0</ele><time>2026-04-16T16:13:12Z</time></trkpt><trkpt lat="41.170831743726076" lon="15.004672680793881"><ele>390.0</ele><time>2026-04-16T16:13:13Z</time></trkpt><trkpt lat="41.170723939248525" lon="15.004713935374577"><ele>390.0</ele><time>2026-04-16T16:13:14Z</time></trkpt><trkpt lat="41.17061189184929" lon="15.004769730254717"><ele>388.0</ele><time>2026-04-16T16:13:15Z</time></trkpt><trkpt lat="41.17051483223115" lon="15.004808895252053"><ele>386.0</ele><time>2026-04-16T16:13:16Z</time></trkpt><trkpt lat="41.170394167682716" lon="15.00482207701789"><ele>384.0</ele><time>2026-04-16T16:13:18Z</time></trkpt><trkpt lat="41.17032163128255" lon="15.004809118928899"><ele>382.0</ele><time>2026-04-16T16:13:19Z</time></trkpt><trkpt lat="41.170222479370686" lon="15.00482967026456"><ele>380.0</ele><time>2026-04-16T16:13:20Z</time></trkpt><trkpt lat="41.170122267855625" lon="15.00485069029567"><ele>380.0</ele><time>2026-04-16T16:13:21Z</time></trkpt><trkpt lat="41.17000586039083" lon="15.004862074304773"><ele>380.0</ele><time>2026-04-16T16:13:22Z</time></trkpt><trkpt lat="41.16989519229669" lon="15.004881030658073"><ele>380.0</ele><time>2026-04-16T16:13:23Z</time></trkpt><trkpt lat="41.16978650121404" lon="15.004902149239296"><ele>380.0</ele><time>2026-04-16T16:13:24Z</time></trkpt><trkpt lat="41.16968940954971" lon="15.004919297882033"><ele>380.0</ele><time>2026-04-16T16:13:25Z</time></trkpt><trkpt lat="41.16960407545964" lon="15.004922755654931"><ele>380.2</ele><time>2026-04-16T16:13:26Z</time></trkpt><trkpt lat="41.169513794270074" lon="15.00491417124052"><ele>380.4</ele><time>2026-04-16T16:13:27Z</time></trkpt><trkpt lat="41.16939598711406" lon="15.004935137059938"><ele>380.6</ele><time>2026-04-16T16:13:28Z</time></trkpt><trkpt lat="41.16928976195059" lon="15.004948809674415"><ele>380.8</ele><time>2026-04-16T16:13:29Z</time></trkpt><trkpt lat="41.16921060258806" lon="15.004943823071423"><ele>381.0</ele><time>2026-04-16T16:13:30Z</time></trkpt><trkpt lat="41.16908420999892" lon="15.004912438566373"><ele>384.4</ele><time>2026-04-16T16:13:32Z</time></trkpt><trkpt lat="41.16901998222557" lon="15.004834746228008"><ele>387.8</ele><time>2026-04-16T16:13:33Z</time></trkpt><trkpt lat="41.168930730932296" lon="15.004762826746362"><ele>391.2</ele><time>2026-04-16T16:13:34Z</time></trkpt><trkpt lat="41.16883304332571" lon="15.004688610355077"><ele>394.59999999999997</ele><time>2026-04-16T16:13:35Z</time></trkpt><trkpt lat="41.1687270250701" lon="15.004631756046535"><ele>398.0</ele><time>2026-04-16T16:13:36Z</time></trkpt><trkpt lat="41.16860385798464" lon="15.004599878381942"><ele>398.0</ele><time>2026-04-16T16:13:37Z</time></trkpt><trkpt lat="41.16849054041944" lon="15.004567892173926"><ele>398.0</ele><time>2026-04-16T16:13:38Z</time></trkpt><trkpt lat="41.16839169084834" lon="15.004549330452246"><ele>398.0</ele><time>2026-04-16T16:13:39Z</time></trkpt><trkpt lat="41.168297990021195" lon="15.004474511366288"><ele>398.0</ele><time>2026-04-16T16:13:40Z</time></trkpt><trkpt lat="41.16819454619278" lon="15.004416420857583"><ele>398.0</ele><time>2026-04-16T16:13:41Z</time></trkpt><trkpt lat="41.168101966468306" lon="15.004393515483699"><ele>402.5</ele><time>2026-04-16T16:13:42Z</time></trkpt><trkpt lat="41.16797854995261" lon="15.004352283410338"><ele>407.0</ele><time>2026-04-16T16:13:43Z</time></trkpt><trkpt lat="41.167863477840534" lon="15.00428368252103"><ele>411.5</ele><time>2026-04-16T16:13:43.999Z</time></trkpt><trkpt lat="41.16773361163419" lon="15.004257712535088"><ele>416.0</ele><time>2026-04-16T16:13:44.999Z</time></trkpt><trkpt lat="41.167617019806094" lon="15.004201161887005"><ele>417.5</ele><time>2026-04-16T16:13:45.999Z</time></trkpt><trkpt lat="41.16750015810737" lon="15.004160473885493"><ele>419.0</ele><time>2026-04-16T16:13:46.999Z</time></trkpt><trkpt lat="41.16737852684567" lon="15.004122057207944"><ele>420.5</ele><time>2026-04-16T16:13:47.999Z</time></trkpt><trkpt lat="41.167257603595445" lon="15.00407855078299"><ele>422.0</ele><time>2026-04-16T16:13:48.999Z</time></trkpt><trkpt lat="41.16712272822021" lon="15.004044156379026"><ele>422.0</ele><time>2026-04-16T16:13:49.999Z</time></trkpt><trkpt lat="41.16701353597993" lon="15.004014621002932"><ele>422.0</ele><time>2026-04-16T16:13:50.999Z</time></trkpt><trkpt lat="41.166927421837414" lon="15.003997451435227"><ele>422.0</ele><time>2026-04-16T16:13:51.999Z</time></trkpt><trkpt lat="41.16680992716574" lon="15.003984851814836"><ele>422.0</ele><time>2026-04-16T16:13:53.999Z</time></trkpt><trkpt lat="41.16671732587977" lon="15.004003104387678"><ele>422.0</ele><time>2026-04-16T16:13:55.999Z</time></trkpt><trkpt lat="41.1666261988311" lon="15.004067348055072"><ele>423.20000000000005</ele><time>2026-04-16T16:13:57.999Z</time></trkpt><trkpt lat="41.16651824141906" lon="15.004078844508802"><ele>424.4</ele><time>2026-04-16T16:13:59.999Z</time></trkpt><trkpt lat="41.166393699644594" lon="15.004101637363041"><ele>425.59999999999997</ele><time>2026-04-16T16:14:01.999Z</time></trkpt><trkpt lat="41.16628283127904" lon="15.004118985402476"><ele>426.79999999999995</ele><time>2026-04-16T16:14:03.999Z</time></trkpt><trkpt lat="41.16618999104631" lon="15.004080011962078"><ele>428.0</ele><time>2026-04-16T16:14:05.999Z</time></trkpt><trkpt lat="41.166130489637" lon="15.00400691055482"><ele>428.0</ele><time>2026-04-16T16:14:06.999Z</time></trkpt><trkpt lat="41.16606111675738" lon="15.003912791868538"><ele>428.0</ele><time>2026-04-16T16:14:07.999Z</time></trkpt><trkpt lat="41.16596499789501" lon="15.003789285991612"><ele>428.0</ele><time>2026-04-16T16:14:08.999Z</time></trkpt><trkpt lat="41.16588943174854" lon="15.003670717624514"><ele>428.0</ele><time>2026-04-16T16:14:09.999Z</time></trkpt><trkpt lat="41.1657910963853" lon="15.003522726947992"><ele>428.0</ele><time>2026-04-16T16:14:10.999Z</time></trkpt><trkpt lat="41.16570408484791" lon="15.003392379613448"><ele>428.0</ele><time>2026-04-16T16:14:11.999Z</time></trkpt><trkpt lat="41.16560705031784" lon="15.003269589260363"><ele>428.0</ele><time>2026-04-16T16:14:12.999Z</time></trkpt><trkpt lat="41.16550941788204" lon="15.003172788372572"><ele>428.0</ele><time>2026-04-16T16:14:13.999Z</time></trkpt><trkpt lat="41.165433733987165" lon="15.00308258184352"><ele>425.79999999999995</ele><time>2026-04-16T16:14:14.999Z</time></trkpt><trkpt lat="41.16537680604465" lon="15.002981160408565"><ele>423.59999999999997</ele><time>2026-04-16T16:14:15.999Z</time></trkpt><trkpt lat="41.16531021929372" lon="15.00287976837906"><ele>421.4</ele><time>2026-04-16T16:14:16.999Z</time></trkpt><trkpt lat="41.16524519378" lon="15.002774216567422"><ele>419.20000000000005</ele><time>2026-04-16T16:14:17.999Z</time></trkpt><trkpt lat="41.16515890234745" lon="15.002651360707347"><ele>417.0</ele><time>2026-04-16T16:14:18.999Z</time></trkpt><trkpt lat="41.165078736769715" lon="15.002537650148891"><ele>416.0</ele><time>2026-04-16T16:14:19.999Z</time></trkpt><trkpt lat="41.16499701809661" lon="15.002399155264957"><ele>415.0</ele><time>2026-04-16T16:14:20.999Z</time></trkpt><trkpt lat="41.1649244170853" lon="15.002259586136686"><ele>414.0</ele><time>2026-04-16T16:14:21.999Z</time></trkpt><trkpt lat="41.16484106900541" lon="15.002127129499979"><ele>413.0</ele><time>2026-04-16T16:14:22.999Z</time></trkpt><trkpt lat="41.16476964284882" lon="15.001988621067982"><ele>412.75</ele><time>2026-04-16T16:14:23.999Z</time></trkpt><trkpt lat="41.16469387627014" lon="15.001836598728637"><ele>412.5</ele><time>2026-04-16T16:14:24.999Z</time></trkpt><trkpt lat="41.16460638857826" lon="15.001667528644338"><ele>412.25</ele><time>2026-04-16T16:14:25.999Z</time></trkpt><trkpt lat="41.16452844134268" lon="15.001499923926788"><ele>412.0</ele><time>2026-04-16T16:14:26.999Z</time></trkpt><trkpt lat="41.16444482201263" lon="15.001336672784031"><ele>411.25</ele><time>2026-04-16T16:14:27.999Z</time></trkpt><trkpt lat="41.16437495000781" lon="15.001176713134543"><ele>410.5</ele><time>2026-04-16T16:14:28.999Z</time></trkpt><trkpt lat="41.16430894801353" lon="15.00102327419702"><ele>409.75</ele><time>2026-04-16T16:14:29.999Z</time></trkpt><trkpt lat="41.164241347405834" lon="15.000885245236246"><ele>409.0</ele><time>2026-04-16T16:14:30.999Z</time></trkpt><trkpt lat="41.164170634658994" lon="15.000757714080587"><ele>406.75</ele><time>2026-04-16T16:14:31.999Z</time></trkpt><trkpt lat="41.16410518806917" lon="15.00063417602249"><ele>404.5</ele><time>2026-04-16T16:14:32.999Z</time></trkpt><trkpt lat="41.16403115375434" lon="15.000501340419994"><ele>402.25</ele><time>2026-04-16T16:14:33.999Z</time></trkpt><trkpt lat="41.16398053542753" lon="15.00036464770026"><ele>400.0</ele><time>2026-04-16T16:14:34.999Z</time></trkpt><trkpt lat="41.163935954136235" lon="15.000211521953593"><ele>399.0</ele><time>2026-04-16T16:14:35.999Z</time></trkpt><trkpt lat="41.163889123248055" lon="15.000045153479599"><ele>398.0</ele><time>2026-04-16T16:14:36.999Z</time></trkpt><trkpt lat="41.16384978597304" lon="14.999883617605722"><ele>397.0</ele><time>2026-04-16T16:14:37.999Z</time></trkpt><trkpt lat="41.16385022234647" lon="14.999713248809297"><ele>396.0</ele><time>2026-04-16T16:14:38.999Z</time></trkpt><trkpt lat="41.16383740942344" lon="14.999539788481954"><ele>396.0</ele><time>2026-04-16T16:14:39.999Z</time></trkpt><trkpt lat="41.163821350760365" lon="14.99937135034849"><ele>396.0</ele><time>2026-04-16T16:14:40.999Z</time></trkpt><trkpt lat="41.163804859565595" lon="14.999204454765515"><ele>396.0</ele><time>2026-04-16T16:14:41.999Z</time></trkpt><trkpt lat="41.163793353371226" lon="14.999041139025495"><ele>396.0</ele><time>2026-04-16T16:14:42.999Z</time></trkpt><trkpt lat="41.163802149815375" lon="14.998880895059054"><ele>394.75</ele><time>2026-04-16T16:14:43.999Z</time></trkpt><trkpt lat="41.16381970024483" lon="14.998723603963262"><ele>393.5</ele><time>2026-04-16T16:14:44.999Z</time></trkpt><trkpt lat="41.16384275170542" lon="14.998577384152382"><ele>392.25</ele><time>2026-04-16T16:14:45.999Z</time></trkpt><trkpt lat="41.16387246141387" lon="14.998424181692133"><ele>391.0</ele><time>2026-04-16T16:14:46.999Z</time></trkpt><trkpt lat="41.163900871513235" lon="14.99825719462484"><ele>391.0</ele><time>2026-04-16T16:14:47.999Z</time></trkpt><trkpt lat="41.16390920170937" lon="14.998102189027467"><ele>391.0</ele><time>2026-04-16T16:14:48.999Z</time></trkpt><trkpt lat="41.16392196570138" lon="14.997933550012014"><ele>391.0</ele><time>2026-04-16T16:14:49.999Z</time></trkpt><trkpt lat="41.1639286867882" lon="14.99778428528531"><ele>391.0</ele><time>2026-04-16T16:14:50.999Z</time></trkpt><trkpt lat="41.163933859520235" lon="14.99764837313743"><ele>391.0</ele><time>2026-04-16T16:14:51.999Z</time></trkpt><trkpt lat="41.163933559017636" lon="14.99750920928405"><ele>391.0</ele><time>2026-04-16T16:14:52.998Z</time></trkpt><trkpt lat="41.16393745755914" lon="14.99736680455773"><ele>391.0</ele><time>2026-04-16T16:14:53.998Z</time></trkpt><trkpt lat="41.16394819927536" lon="14.997228643967862"><ele>391.0</ele><time>2026-04-16T16:14:54.998Z</time></trkpt><trkpt lat="41.16396521162507" lon="14.99710767263468"><ele>391.0</ele><time>2026-04-16T16:14:55.998Z</time></trkpt><trkpt lat="41.163983404241655" lon="14.996978145377245"><ele>391.4</ele><time>2026-04-16T16:14:56.998Z</time></trkpt><trkpt lat="41.164007748251514" lon="14.996837474792517"><ele>391.8</ele><time>2026-04-16T16:14:57.998Z</time></trkpt><trkpt lat="41.16404659907504" lon="14.99671376002655"><ele>392.2</ele><time>2026-04-16T16:14:58.998Z</time></trkpt><trkpt lat="41.16406088710432" lon="14.996586883979347"><ele>392.59999999999997</ele><time>2026-04-16T16:15:00Z</time></trkpt><trkpt lat="41.16408229214215" lon="14.996474026142465"><ele>393.0</ele><time>2026-04-16T16:15:01Z</time></trkpt><trkpt lat="41.16411793789897" lon="14.99636458604041"><ele>390.79999999999995</ele><time>2026-04-16T16:15:02Z</time></trkpt><trkpt lat="41.16414316780911" lon="14.99623423656765"><ele>388.6</ele><time>2026-04-16T16:15:03Z</time></trkpt><trkpt lat="41.1641669640442" lon="14.99610957251309"><ele>386.4</ele><time>2026-04-16T16:15:04Z</time></trkpt><trkpt lat="41.16419176729" lon="14.995979632828504"><ele>384.20000000000005</ele><time>2026-04-16T16:15:05Z</time></trkpt><trkpt lat="41.164213300603286" lon="14.995866823722341"><ele>382.0</ele><time>2026-04-16T16:15:06Z</time></trkpt><trkpt lat="41.16422224137287" lon="14.995740770326428"><ele>381.0</ele><time>2026-04-16T16:15:07Z</time></trkpt><trkpt lat="41.164247588896494" lon="14.995611381461535"><ele>380.0</ele><time>2026-04-16T16:15:08Z</time></trkpt><trkpt lat="41.16427064300151" lon="14.995490253096904"><ele>379.0</ele><time>2026-04-16T16:15:09Z</time></trkpt><trkpt lat="41.164288833673936" lon="14.995361673948496"><ele>378.0</ele><time>2026-04-16T16:15:10Z</time></trkpt><trkpt lat="41.16430629341761" lon="14.995260407624722"><ele>377.0</ele><time>2026-04-16T16:15:11Z</time></trkpt><trkpt lat="41.16432079781095" lon="14.995132687692443"><ele>375.0</ele><time>2026-04-16T16:15:12Z</time></trkpt><trkpt lat="41.16433233980613" lon="14.99498132906888"><ele>373.0</ele><time>2026-04-16T16:15:13Z</time></trkpt><trkpt lat="41.16434233299115" lon="14.994836886858046"><ele>371.0</ele><time>2026-04-16T16:15:14Z</time></trkpt><trkpt lat="41.16435195781879" lon="14.994681203134716"><ele>369.0</ele><time>2026-04-16T16:15:15Z</time></trkpt><trkpt lat="41.16436102303929" lon="14.994537038796073"><ele>369.0</ele><time>2026-04-16T16:15:16Z</time></trkpt><trkpt lat="41.164369103975076" lon="14.994412052663929"><ele>369.0</ele><time>2026-04-16T16:15:17Z</time></trkpt><trkpt lat="41.16439082198406" lon="14.994293337814854"><ele>369.0</ele><time>2026-04-16T16:15:18Z</time></trkpt><trkpt lat="41.164396536686574" lon="14.994175980427201"><ele>369.0</ele><time>2026-04-16T16:15:19Z</time></trkpt><trkpt lat="41.16438703003474" lon="14.9940355949947"><ele>369.0</ele><time>2026-04-16T16:15:20Z</time></trkpt><trkpt lat="41.164403231383375" lon="14.993872714562738"><ele>366.6</ele><time>2026-04-16T16:15:21Z</time></trkpt><trkpt lat="41.16440251368124" lon="14.993719743093136"><ele>364.2</ele><time>2026-04-16T16:15:22Z</time></trkpt><trkpt lat="41.1644022045077" lon="14.993576655885933"><ele>361.8</ele><time>2026-04-16T16:15:23Z</time></trkpt><trkpt lat="41.16440193753421" lon="14.99345309981428"><ele>359.40000000000003</ele><time>2026-04-16T16:15:24Z</time></trkpt><trkpt lat="41.16440166345101" lon="14.993326252059598"><ele>357.0</ele><time>2026-04-16T16:15:25Z</time></trkpt><trkpt lat="41.16438947837556" lon="14.993190325554435"><ele>354.8</ele><time>2026-04-16T16:15:26Z</time></trkpt><trkpt lat="41.164395970372205" lon="14.993051891095073"><ele>352.6</ele><time>2026-04-16T16:15:27Z</time></trkpt><trkpt lat="41.164405192265775" lon="14.992920389261743"><ele>350.40000000000003</ele><time>2026-04-16T16:15:28Z</time></trkpt><trkpt lat="41.164426329027414" lon="14.992792358967886"><ele>348.20000000000005</ele><time>2026-04-16T16:15:29Z</time></trkpt><trkpt lat="41.164448225808975" lon="14.992677150922793"><ele>346.0</ele><time>2026-04-16T16:15:30Z</time></trkpt><trkpt lat="41.16448135359214" lon="14.992558069808048"><ele>344.8</ele><time>2026-04-16T16:15:31Z</time></trkpt><trkpt lat="41.16454666171162" lon="14.992436991983375"><ele>343.6</ele><time>2026-04-16T16:15:32Z</time></trkpt><trkpt lat="41.16458514927801" lon="14.992298663175806"><ele>342.4</ele><time>2026-04-16T16:15:33Z</time></trkpt><trkpt lat="41.16464639971062" lon="14.992164081114272"><ele>341.2</ele><time>2026-04-16T16:15:34Z</time></trkpt><trkpt lat="41.164700292310066" lon="14.99204172619212"><ele>340.0</ele><time>2026-04-16T16:15:35Z</time></trkpt><trkpt lat="41.164765549286145" lon="14.991946985602505"><ele>340.0</ele><time>2026-04-16T16:15:36Z</time></trkpt><trkpt lat="41.1648171001006" lon="14.991851519602188"><ele>340.0</ele><time>2026-04-16T16:15:37Z</time></trkpt><trkpt lat="41.16487626379396" lon="14.991749836550827"><ele>340.0</ele><time>2026-04-16T16:15:38Z</time></trkpt><trkpt lat="41.16493919554328" lon="14.991648128250464"><ele>340.0</ele><time>2026-04-16T16:15:39Z</time></trkpt><trkpt lat="41.165008153897325" lon="14.991543767180422"><ele>340.0</ele><time>2026-04-16T16:15:40Z</time></trkpt><trkpt lat="41.16508072898155" lon="14.99143525066941"><ele>338.8</ele><time>2026-04-16T16:15:41Z</time></trkpt><trkpt lat="41.16514953311946" lon="14.991330526396883"><ele>337.6</ele><time>2026-04-16T16:15:42Z</time></trkpt><trkpt lat="41.165214779987764" lon="14.991231070412091"><ele>336.4</ele><time>2026-04-16T16:15:43Z</time></trkpt><trkpt lat="41.165264804407265" lon="14.991127205565954"><ele>335.2</ele><time>2026-04-16T16:15:44Z</time></trkpt><trkpt lat="41.165333643146845" lon="14.991036057509024"><ele>334.0</ele><time>2026-04-16T16:15:45Z</time></trkpt><trkpt lat="41.16542208058317" lon="14.990961103907"><ele>334.0</ele><time>2026-04-16T16:15:46Z</time></trkpt><trkpt lat="41.16549279542362" lon="14.990880915083638"><ele>334.0</ele><time>2026-04-16T16:15:47Z</time></trkpt><trkpt lat="41.16555006549327" lon="14.990792144359272"><ele>334.0</ele><time>2026-04-16T16:15:48Z</time></trkpt><trkpt lat="41.165615192971806" lon="14.990745195231632"><ele>334.0</ele><time>2026-04-16T16:15:49Z</time></trkpt><trkpt lat="41.165691377547994" lon="14.99066071626668"><ele>334.0</ele><time>2026-04-16T16:15:51Z</time></trkpt><trkpt lat="41.165644354110675" lon="14.990345320929048"><ele>332.66666666666663</ele><time>2026-04-16T16:15:53.999Z</time></trkpt><trkpt lat="41.16562935146658" lon="14.990223605815915"><ele>331.3333333333333</ele><time>2026-04-16T16:15:54.999Z</time></trkpt><trkpt lat="41.16563367246071" lon="14.990118150544964"><ele>330.0</ele><time>2026-04-16T16:15:55.999Z</time></trkpt><trkpt lat="41.165637450109145" lon="14.990012315455118"><ele>328.6666666666667</ele><time>2026-04-16T16:15:56.999Z</time></trkpt><trkpt lat="41.16563812402232" lon="14.989894847504287"><ele>327.33333333333337</ele><time>2026-04-16T16:15:57.999Z</time></trkpt><trkpt lat="41.16562841204527" lon="14.989770052173062"><ele>326.0</ele><time>2026-04-16T16:15:58.999Z</time></trkpt><trkpt lat="41.16562037127358" lon="14.989629941408076"><ele>324.40000000000003</ele><time>2026-04-16T16:15:59.999Z</time></trkpt><trkpt lat="41.16561390974533" lon="14.989465546479066"><ele>322.8</ele><time>2026-04-16T16:16:00.999Z</time></trkpt><trkpt lat="41.165603076320714" lon="14.98931897335182"><ele>321.20000000000005</ele><time>2026-04-16T16:16:01.999Z</time></trkpt><trkpt lat="41.16558667776415" lon="14.989174552282988"><ele>319.6</ele><time>2026-04-16T16:16:02.999Z</time></trkpt><trkpt lat="41.165575534641256" lon="14.989040929165128"><ele>318.0</ele><time>2026-04-16T16:16:03.999Z</time></trkpt><trkpt lat="41.16555622024886" lon="14.988913101111269"><ele>316.1666666666667</ele><time>2026-04-16T16:16:04.999Z</time></trkpt><trkpt lat="41.16554738763995" lon="14.988806759648948"><ele>314.3333333333333</ele><time>2026-04-16T16:16:05.999Z</time></trkpt><trkpt lat="41.16554427334276" lon="14.988690613949418"><ele>312.5</ele><time>2026-04-16T16:16:06.999Z</time></trkpt><trkpt lat="41.16555007790054" lon="14.988579925889312"><ele>310.66666666666663</ele><time>2026-04-16T16:16:07.999Z</time></trkpt><trkpt lat="41.16555571127575" lon="14.98846624959599"><ele>308.8333333333333</ele><time>2026-04-16T16:16:08.999Z</time></trkpt><trkpt lat="41.165567410999905" lon="14.988348336319032"><ele>307.0</ele><time>2026-04-16T16:16:09.999Z</time></trkpt><trkpt lat="41.165588794179314" lon="14.988215896673893"><ele>305.0</ele><time>2026-04-16T16:16:10.999Z</time></trkpt><trkpt lat="41.16562826277867" lon="14.988126797276882"><ele>303.0</ele><time>2026-04-16T16:16:11.999Z</time></trkpt><trkpt lat="41.165677114269414" lon="14.988051848632034"><ele>301.0</ele><time>2026-04-16T16:16:12.999Z</time></trkpt><trkpt lat="41.16568608054128" lon="14.987940301323565"><ele>299.0</ele><time>2026-04-16T16:16:14.999Z</time></trkpt><trkpt lat="41.16565529333843" lon="14.987864630232385"><ele>297.0</ele><time>2026-04-16T16:16:15.999Z</time></trkpt><trkpt lat="41.16561972733167" lon="14.987755321771516"><ele>295.0</ele><time>2026-04-16T16:16:16.999Z</time></trkpt><trkpt lat="41.165592233140664" lon="14.987649602486762"><ele>295.0</ele><time>2026-04-16T16:16:17.999Z</time></trkpt><trkpt lat="41.16556339620788" lon="14.98754493167373"><ele>295.0</ele><time>2026-04-16T16:16:18.999Z</time></trkpt><trkpt lat="41.16553119721783" lon="14.987441261974702"><ele>295.0</ele><time>2026-04-16T16:16:19.999Z</time></trkpt><trkpt lat="41.16550202124902" lon="14.987343234226936"><ele>295.0</ele><time>2026-04-16T16:16:20.999Z</time></trkpt><trkpt lat="41.16547650407558" lon="14.987241376802094"><ele>295.0</ele><time>2026-04-16T16:16:21.999Z</time></trkpt><trkpt lat="41.16545952036077" lon="14.987129923402431"><ele>295.0</ele><time>2026-04-16T16:16:22.999Z</time></trkpt><trkpt lat="41.16544074399431" lon="14.987025215941747"><ele>292.66666666666663</ele><time>2026-04-16T16:16:23.999Z</time></trkpt><trkpt lat="41.16543780288602" lon="14.986918852783738"><ele>290.3333333333333</ele><time>2026-04-16T16:16:24.999Z</time></trkpt><trkpt lat="41.16542820146876" lon="14.98681472502075"><ele>288.0</ele><time>2026-04-16T16:16:25.999Z</time></trkpt><trkpt lat="41.165416328465824" lon="14.986704752311825"><ele>285.6666666666667</ele><time>2026-04-16T16:16:26.999Z</time></trkpt><trkpt lat="41.16540392887085" lon="14.986606577533438"><ele>283.33333333333337</ele><time>2026-04-16T16:16:27.999Z</time></trkpt><trkpt lat="41.16538571498925" lon="14.986503948565016"><ele>281.0</ele><time>2026-04-16T16:16:28.999Z</time></trkpt><trkpt lat="41.16537114213168" lon="14.986412056795837"><ele>279.28571428571433</ele><time>2026-04-16T16:16:29.999Z</time></trkpt><trkpt lat="41.165348086837376" lon="14.98632049903493"><ele>277.57142857142856</ele><time>2026-04-16T16:16:30.999Z</time></trkpt><trkpt lat="41.16531085325899" lon="14.986230754394171"><ele>275.8571428571429</ele><time>2026-04-16T16:16:31.999Z</time></trkpt><trkpt lat="41.1652712124996" lon="14.98614203218226"><ele>274.14285714285717</ele><time>2026-04-16T16:16:32.999Z</time></trkpt><trkpt lat="41.16523495285532" lon="14.986067091791373"><ele>272.42857142857144</ele><time>2026-04-16T16:16:33.999Z</time></trkpt><trkpt lat="41.165203131647765" lon="14.985993150646086"><ele>270.7142857142857</ele><time>2026-04-16T16:16:34.999Z</time></trkpt><trkpt lat="41.165172647518695" lon="14.985916788824385"><ele>269.0</ele><time>2026-04-16T16:16:35.999Z</time></trkpt><trkpt lat="41.16514739654494" lon="14.985831889481194"><ele>266.83333333333337</ele><time>2026-04-16T16:16:36.999Z</time></trkpt><trkpt lat="41.16515567238248" lon="14.985696134798966"><ele>264.6666666666667</ele><time>2026-04-16T16:16:38.999Z</time></trkpt><trkpt lat="41.16519573451746" lon="14.985627002554175"><ele>262.5</ele><time>2026-04-16T16:16:39.999Z</time></trkpt><trkpt lat="41.16524852510769" lon="14.985557630602926"><ele>260.3333333333333</ele><time>2026-04-16T16:16:40.999Z</time></trkpt><trkpt lat="41.165291739683596" lon="14.985457521548636"><ele>258.16666666666663</ele><time>2026-04-16T16:16:41.999Z</time></trkpt><trkpt lat="41.16533328595001" lon="14.985378685617064"><ele>256.0</ele><time>2026-04-16T16:16:42.999Z</time></trkpt><trkpt lat="41.16540177520101" lon="14.985260093600283"><ele>256.0</ele><time>2026-04-16T16:16:44.999Z</time></trkpt><trkpt lat="41.16543101094235" lon="14.985119263407356"><ele>256.0</ele><time>2026-04-16T16:16:46.999Z</time></trkpt><trkpt lat="41.16545239805867" lon="14.984960589724773"><ele>256.0</ele><time>2026-04-16T16:16:48.999Z</time></trkpt><trkpt lat="41.16546265208801" lon="14.9848690559555"><ele>256.0</ele><time>2026-04-16T16:16:49.999Z</time></trkpt><trkpt lat="41.16546532275653" lon="14.984782709780466"><ele>256.0</ele><time>2026-04-16T16:16:50.999Z</time></trkpt><trkpt lat="41.16546392846586" lon="14.984631890898553"><ele>253.16666666666666</ele><time>2026-04-16T16:16:52.999Z</time></trkpt><trkpt lat="41.1654670097988" lon="14.984545363424028"><ele>250.33333333333331</ele><time>2026-04-16T16:16:53.999Z</time></trkpt><trkpt lat="41.165464948941676" lon="14.984436408732238"><ele>247.5</ele><time>2026-04-16T16:16:54.999Z</time></trkpt><trkpt lat="41.165455030149715" lon="14.984340058411657"><ele>244.66666666666669</ele><time>2026-04-16T16:16:55.999Z</time></trkpt><trkpt lat="41.16542892933624" lon="14.9842602239734"><ele>241.83333333333334</ele><time>2026-04-16T16:16:56.999Z</time></trkpt><trkpt lat="41.165388724358266" lon="14.984122483669276"><ele>239.0</ele><time>2026-04-16T16:16:58.999Z</time></trkpt><trkpt lat="41.16532895466195" lon="14.983976064605185"><ele>236.50000000000003</ele><time>2026-04-16T16:17:00.998Z</time></trkpt><trkpt lat="41.16529175551928" lon="14.983906617329232"><ele>234.0</ele><time>2026-04-16T16:17:01.998Z</time></trkpt><trkpt lat="41.1652613841492" lon="14.98383313761606"><ele>231.5</ele><time>2026-04-16T16:17:02.998Z</time></trkpt><trkpt lat="41.16522329437423" lon="14.983681316447667"><ele>229.0</ele><time>2026-04-16T16:17:04.998Z</time></trkpt><trkpt lat="41.165222541032385" lon="14.983559737392623"><ele>226.50000000000003</ele><time>2026-04-16T16:17:07Z</time></trkpt><trkpt lat="41.165274458477555" lon="14.9834615806419"><ele>224.0</ele><time>2026-04-16T16:17:10Z</time></trkpt><trkpt lat="41.16535819601462" lon="14.983422683193817"><ele>224.00000000000003</ele><time>2026-04-16T16:17:12Z</time></trkpt><trkpt lat="41.16543989412745" lon="14.983427489294861"><ele>224.0</ele><time>2026-04-16T16:17:14Z</time></trkpt><trkpt lat="41.16553726769354" lon="14.98343664421927"><ele>224.0</ele><time>2026-04-16T16:17:16Z</time></trkpt><trkpt lat="41.16560949601427" lon="14.983403218692517"><ele>224.0</ele><time>2026-04-16T16:17:22Z</time></trkpt><trkpt lat="41.16567480044352" lon="14.983368387688847"><ele>224.00000000000003</ele><time>2026-04-16T16:17:24Z</time></trkpt><trkpt lat="41.165710595471715" lon="14.983297133666728"><ele>224.0</ele><time>2026-04-16T16:17:25Z</time></trkpt><trkpt lat="41.16575253381219" lon="14.983203680921813"><ele>223.6</ele><time>2026-04-16T16:17:26Z</time></trkpt><trkpt lat="41.165792709147084" lon="14.983111657634547"><ele>223.2</ele><time>2026-04-16T16:17:27Z</time></trkpt><trkpt lat="41.16582278030815" lon="14.982976970927446"><ele>222.79999999999998</ele><time>2026-04-16T16:17:28Z</time></trkpt><trkpt lat="41.16585892627259" lon="14.982844471253012"><ele>222.39999999999998</ele><time>2026-04-16T16:17:29Z</time></trkpt><trkpt lat="41.165896001876355" lon="14.982674160960244"><ele>222.0</ele><time>2026-04-16T16:17:30Z</time></trkpt><trkpt lat="41.1659301602844" lon="14.982534069364775"><ele>224.5</ele><time>2026-04-16T16:17:31Z</time></trkpt><trkpt lat="41.16597934122368" lon="14.98239321195781"><ele>227.0</ele><time>2026-04-16T16:17:32Z</time></trkpt><trkpt lat="41.1660387984662" lon="14.982272138822566"><ele>229.5</ele><time>2026-04-16T16:17:33Z</time></trkpt><trkpt lat="41.166096066420515" lon="14.982124948392624"><ele>232.0</ele><time>2026-04-16T16:17:34Z</time></trkpt><trkpt lat="41.16616640228185" lon="14.981981122026735"><ele>232.0</ele><time>2026-04-16T16:17:35Z</time></trkpt><trkpt lat="41.16623183717894" lon="14.981819548254402"><ele>232.0</ele><time>2026-04-16T16:17:36Z</time></trkpt><trkpt lat="41.16629014988367" lon="14.981659259645706"><ele>232.0</ele><time>2026-04-16T16:17:37Z</time></trkpt><trkpt lat="41.16634823005611" lon="14.981511288690461"><ele>232.0</ele><time>2026-04-16T16:17:38Z</time></trkpt><trkpt lat="41.16640331003107" lon="14.981352634634968"><ele>237.0</ele><time>2026-04-16T16:17:39Z</time></trkpt><trkpt lat="41.1664562363088" lon="14.98120195209491"><ele>242.0</ele><time>2026-04-16T16:17:40Z</time></trkpt><trkpt lat="41.1665023975814" lon="14.981040862653964"><ele>247.0</ele><time>2026-04-16T16:17:41Z</time></trkpt><trkpt lat="41.16653922730275" lon="14.98089163234914"><ele>252.0</ele><time>2026-04-16T16:17:42Z</time></trkpt><trkpt lat="41.166585044533136" lon="14.980765009881676"><ele>258.5</ele><time>2026-04-16T16:17:43Z</time></trkpt><trkpt lat="41.16663367248791" lon="14.980612236904332"><ele>265.0</ele><time>2026-04-16T16:17:44Z</time></trkpt><trkpt lat="41.16667962902781" lon="14.980484945397434"><ele>271.5</ele><time>2026-04-16T16:17:45Z</time></trkpt><trkpt lat="41.166724615143075" lon="14.980350180253124"><ele>278.0</ele><time>2026-04-16T16:17:46Z</time></trkpt><trkpt lat="41.166761633854726" lon="14.980200951712947"><ele>278.0</ele><time>2026-04-16T16:17:47Z</time></trkpt><trkpt lat="41.166786987522606" lon="14.980060628476"><ele>278.0</ele><time>2026-04-16T16:17:48Z</time></trkpt><trkpt lat="41.16679988515889" lon="14.979923518013761"><ele>278.0</ele><time>2026-04-16T16:17:49Z</time></trkpt><trkpt lat="41.166806093806905" lon="14.979821336033176"><ele>278.0</ele><time>2026-04-16T16:17:50Z</time></trkpt><trkpt lat="41.16680913732571" lon="14.979646105285362"><ele>278.0</ele><time>2026-04-16T16:17:52Z</time></trkpt><trkpt lat="41.166813260760684" lon="14.979543700624188"><ele>281.4</ele><time>2026-04-16T16:17:52.999Z</time></trkpt><trkpt lat="41.16682221727104" lon="14.979420394013138"><ele>284.8</ele><time>2026-04-16T16:17:53.999Z</time></trkpt><trkpt lat="41.166831219278414" lon="14.979290458295473"><ele>288.2</ele><time>2026-04-16T16:17:54.999Z</time></trkpt><trkpt lat="41.166835120434214" lon="14.979154981588751"><ele>291.6</ele><time>2026-04-16T16:17:55.999Z</time></trkpt><trkpt lat="41.16684332648723" lon="14.978998951193825"><ele>295.0</ele><time>2026-04-16T16:17:56.999Z</time></trkpt><trkpt lat="41.16684676395765" lon="14.978850550149966"><ele>299.0</ele><time>2026-04-16T16:17:57.999Z</time></trkpt><trkpt lat="41.1668571241377" lon="14.978694868277262"><ele>303.0</ele><time>2026-04-16T16:17:58.999Z</time></trkpt><trkpt lat="41.166863294588545" lon="14.978537942851222"><ele>307.0</ele><time>2026-04-16T16:17:59.999Z</time></trkpt><trkpt lat="41.16686858677439" lon="14.978399339360434"><ele>311.0</ele><time>2026-04-16T16:18:00.999Z</time></trkpt><trkpt lat="41.16687833626742" lon="14.97824793922993"><ele>315.25</ele><time>2026-04-16T16:18:01.999Z</time></trkpt><trkpt lat="41.16688489838386" lon="14.978077381531557"><ele>319.5</ele><time>2026-04-16T16:18:02.999Z</time></trkpt><trkpt lat="41.16688382977972" lon="14.977902360918213"><ele>323.75</ele><time>2026-04-16T16:18:03.999Z</time></trkpt><trkpt lat="41.16688158461115" lon="14.977766733901374"><ele>328.0</ele><time>2026-04-16T16:18:04.999Z</time></trkpt><trkpt lat="41.166887946166774" lon="14.977630788155889"><ele>328.0</ele><time>2026-04-16T16:18:05.999Z</time></trkpt><trkpt lat="41.16690474626046" lon="14.977502735766265"><ele>328.0</ele><time>2026-04-16T16:18:06.999Z</time></trkpt><trkpt lat="41.166921887302706" lon="14.977407806570202"><ele>328.0</ele><time>2026-04-16T16:18:07.999Z</time></trkpt><trkpt lat="41.167101107828316" lon="14.977445365772448"><ele>328.0</ele><time>2026-04-16T16:18:13.999Z</time></trkpt><trkpt lat="41.16717376995397" lon="14.97747962904603"><ele>328.0</ele><time>2026-04-16T16:18:14.999Z</time></trkpt><trkpt lat="41.1672573643163" lon="14.977523891906113"><ele>328.0</ele><time>2026-04-16T16:18:15.999Z</time></trkpt><trkpt lat="41.16734603822084" lon="14.97756962540227"><ele>328.0</ele><time>2026-04-16T16:18:16.999Z</time></trkpt><trkpt lat="41.16744447927303" lon="14.977615299826237"><ele>328.0</ele><time>2026-04-16T16:18:17.999Z</time></trkpt><trkpt lat="41.16756307030754" lon="14.977625701273514"><ele>328.0</ele><time>2026-04-16T16:18:18.999Z</time></trkpt><trkpt lat="41.16767992370801" lon="14.977601421598498"><ele>328.0</ele><time>2026-04-16T16:18:19.999Z</time></trkpt><trkpt lat="41.16779975217574" lon="14.977592182751968"><ele>334.25</ele><time>2026-04-16T16:18:20.999Z</time></trkpt><trkpt lat="41.1678750308173" lon="14.977392023337481"><ele>340.5</ele><time>2026-04-16T16:18:21.999Z</time></trkpt><trkpt lat="41.16795687153993" lon="14.977281175565524"><ele>346.75</ele><time>2026-04-16T16:18:22.999Z</time></trkpt><trkpt lat="41.16804824072019" lon="14.977182077339263"><ele>353.0</ele><time>2026-04-16T16:18:23.999Z</time></trkpt><trkpt lat="41.16814317846143" lon="14.977099103465646"><ele>353.5</ele><time>2026-04-16T16:18:24.999Z</time></trkpt><trkpt lat="41.168224575775966" lon="14.977002127275435"><ele>354.0</ele><time>2026-04-16T16:18:25.999Z</time></trkpt><trkpt lat="41.16828845811223" lon="14.976925397939794"><ele>354.5</ele><time>2026-04-16T16:18:26.999Z</time></trkpt><trkpt lat="41.16834285088649" lon="14.976829621403775"><ele>355.0</ele><time>2026-04-16T16:18:27.999Z</time></trkpt><trkpt lat="41.16839645659835" lon="14.976760186706127"><ele>355.5</ele><time>2026-04-16T16:18:28.999Z</time></trkpt><trkpt lat="41.16844768113925" lon="14.97667462371754"><ele>356.0</ele><time>2026-04-16T16:18:29.999Z</time></trkpt><trkpt lat="41.16850067292744" lon="14.97661545227779"><ele>356.0</ele><time>2026-04-16T16:18:30.999Z</time></trkpt><trkpt lat="41.16857251861022" lon="14.976579854004402"><ele>356.0</ele><time>2026-04-16T16:18:31.999Z</time></trkpt><trkpt lat="41.168636785866745" lon="14.976551132345355"><ele>356.0</ele><time>2026-04-16T16:18:32.999Z</time></trkpt><trkpt lat="41.168721481578444" lon="14.976546735043007"><ele>356.0</ele><time>2026-04-16T16:18:34.999Z</time></trkpt><trkpt lat="41.1688278207918" lon="14.97657574282731"><ele>356.0</ele><time>2026-04-16T16:18:36.999Z</time></trkpt><trkpt lat="41.16888166638689" lon="14.976686898042681"><ele>356.0</ele><time>2026-04-16T16:18:37.999Z</time></trkpt><trkpt lat="41.16895761969494" lon="14.97673833460127"><ele>357.20000000000005</ele><time>2026-04-16T16:18:38.999Z</time></trkpt><trkpt lat="41.169020591418175" lon="14.976817425517922"><ele>358.40000000000003</ele><time>2026-04-16T16:18:39.999Z</time></trkpt><trkpt lat="41.16907790371636" lon="14.976890321385705"><ele>359.6</ele><time>2026-04-16T16:18:40.999Z</time></trkpt><trkpt lat="41.169131419314496" lon="14.976970301886675"><ele>360.8</ele><time>2026-04-16T16:18:42.999Z</time></trkpt><trkpt lat="41.16920927167471" lon="14.976866904139282"><ele>362.0</ele><time>2026-04-16T16:18:43.999Z</time></trkpt><trkpt lat="41.169293879594335" lon="14.976696738611603"><ele>362.0</ele><time>2026-04-16T16:18:45.999Z</time></trkpt><trkpt lat="41.16936449036464" lon="14.97663607673283"><ele>362.0</ele><time>2026-04-16T16:18:46.999Z</time></trkpt><trkpt lat="41.16943498738964" lon="14.976578013940035"><ele>362.0</ele><time>2026-04-16T16:18:47.999Z</time></trkpt><trkpt lat="41.16952886178648" lon="14.976525325913212"><ele>362.0</ele><time>2026-04-16T16:18:48.999Z</time></trkpt><trkpt lat="41.16963186909355" lon="14.976489231659185"><ele>362.0</ele><time>2026-04-16T16:18:49.999Z</time></trkpt><trkpt lat="41.16972766258629" lon="14.976467205493663"><ele>362.0</ele><time>2026-04-16T16:18:50.999Z</time></trkpt><trkpt lat="41.16984878046658" lon="14.976456806694987"><ele>362.0</ele><time>2026-04-16T16:18:51.999Z</time></trkpt><trkpt lat="41.16996567831672" lon="14.976420753201388"><ele>362.0</ele><time>2026-04-16T16:18:52.999Z</time></trkpt><trkpt lat="41.17008249199299" lon="14.976390493966951"><ele>362.0</ele><time>2026-04-16T16:18:53.999Z</time></trkpt><trkpt lat="41.17019027805889" lon="14.976331587734773"><ele>363.8</ele><time>2026-04-16T16:18:54.999Z</time></trkpt><trkpt lat="41.17028572908963" lon="14.976262022102041"><ele>365.6</ele><time>2026-04-16T16:18:55.999Z</time></trkpt><trkpt lat="41.170367476981724" lon="14.976174425591347"><ele>367.40000000000003</ele><time>2026-04-16T16:18:56.999Z</time></trkpt><trkpt lat="41.17046420423627" lon="14.976107629599904"><ele>369.20000000000005</ele><time>2026-04-16T16:18:57.999Z</time></trkpt><trkpt lat="41.170557019328875" lon="14.976046023066921"><ele>371.0</ele><time>2026-04-16T16:18:58.999Z</time></trkpt><trkpt lat="41.1706462225865" lon="14.976070315356177"><ele>372.20000000000005</ele><time>2026-04-16T16:18:59.999Z</time></trkpt><trkpt lat="41.17072198281416" lon="14.976064497101264"><ele>373.40000000000003</ele><time>2026-04-16T16:19:00.998Z</time></trkpt><trkpt lat="41.17080570455243" lon="14.97604409863979"><ele>374.6</ele><time>2026-04-16T16:19:01.998Z</time></trkpt><trkpt lat="41.17084758238575" lon="14.975849251769052"><ele>375.8</ele><time>2026-04-16T16:19:05.998Z</time></trkpt><trkpt lat="41.17083135618239" lon="14.975740834808473"><ele>377.0</ele><time>2026-04-16T16:19:07.998Z</time></trkpt><trkpt lat="41.17082999089775" lon="14.975638053418463"><ele>374.40000000000003</ele><time>2026-04-16T16:19:10.998Z</time></trkpt><trkpt lat="41.17084622131363" lon="14.975490831573499"><ele>371.8</ele><time>2026-04-16T16:19:14Z</time></trkpt><trkpt lat="41.17088167862829" lon="14.975325779177057"><ele>369.2</ele><time>2026-04-16T16:19:16Z</time></trkpt><trkpt lat="41.1709087705859" lon="14.975225657073269"><ele>366.6</ele><time>2026-04-16T16:19:17Z</time></trkpt><trkpt lat="41.17093929051164" lon="14.975130875015127"><ele>364.0</ele><time>2026-04-16T16:19:18Z</time></trkpt><trkpt lat="41.1709739262589" lon="14.975010350383947"><ele>362.3333333333333</ele><time>2026-04-16T16:19:19Z</time></trkpt><trkpt lat="41.17100299947653" lon="14.97488882776524"><ele>360.66666666666663</ele><time>2026-04-16T16:19:20Z</time></trkpt><trkpt lat="41.17100578809005" lon="14.974788898655177"><ele>359.0</ele><time>2026-04-16T16:19:21Z</time></trkpt><trkpt lat="41.17100581546663" lon="14.974679220068829"><ele>357.3333333333333</ele><time>2026-04-16T16:19:22Z</time></trkpt><trkpt lat="41.17102633927441" lon="14.974551823427104"><ele>355.6666666666667</ele><time>2026-04-16T16:19:23Z</time></trkpt><trkpt lat="41.171020612740094" lon="14.9744316157469"><ele>354.0</ele><time>2026-04-16T16:19:24Z</time></trkpt><trkpt lat="41.17102680777844" lon="14.974312563904775"><ele>354.0</ele><time>2026-04-16T16:19:25Z</time></trkpt><trkpt lat="41.17103139852473" lon="14.97420999734151"><ele>354.0</ele><time>2026-04-16T16:19:26Z</time></trkpt><trkpt lat="41.1710042054483" lon="14.974065573353856"><ele>354.0</ele><time>2026-04-16T16:19:28Z</time></trkpt><trkpt lat="41.170962520351154" lon="14.973903683253877"><ele>354.0</ele><time>2026-04-16T16:19:30Z</time></trkpt><trkpt lat="41.170954486538385" lon="14.973797889395428"><ele>354.0</ele><time>2026-04-16T16:19:31Z</time></trkpt><trkpt lat="41.17093311855956" lon="14.97366864381951"><ele>352.1666666666667</ele><time>2026-04-16T16:19:32Z</time></trkpt><trkpt lat="41.17091415840442" lon="14.97354125838945"><ele>350.3333333333333</ele><time>2026-04-16T16:19:33Z</time></trkpt><trkpt lat="41.17088393758727" lon="14.973421838098563"><ele>348.5</ele><time>2026-04-16T16:19:34Z</time></trkpt><trkpt lat="41.170873293207244" lon="14.973313987621326"><ele>346.66666666666663</ele><time>2026-04-16T16:19:35Z</time></trkpt><trkpt lat="41.170852256725354" lon="14.973206257999674"><ele>344.8333333333333</ele><time>2026-04-16T16:19:36Z</time></trkpt><trkpt lat="41.170833041492344" lon="14.973113254170638"><ele>343.0</ele><time>2026-04-16T16:19:37Z</time></trkpt><trkpt lat="41.17080967071947" lon="14.973012983335998"><ele>341.3333333333333</ele><time>2026-04-16T16:19:38Z</time></trkpt><trkpt lat="41.17078539284842" lon="14.972910161497708"><ele>339.66666666666663</ele><time>2026-04-16T16:19:39Z</time></trkpt><trkpt lat="41.17073690782911" lon="14.972840219323134"><ele>338.0</ele><time>2026-04-16T16:19:40Z</time></trkpt><trkpt lat="41.17067961034838" lon="14.972804124819994"><ele>336.3333333333333</ele><time>2026-04-16T16:19:41Z</time></trkpt><trkpt lat="41.17059959581093" lon="14.972778868967051"><ele>334.6666666666667</ele><time>2026-04-16T16:19:42Z</time></trkpt><trkpt lat="41.17052889557068" lon="14.972734276219493"><ele>333.0</ele><time>2026-04-16T16:19:43Z</time></trkpt><trkpt lat="41.170467323504226" lon="14.972661556130676"><ele>331.2857142857143</ele><time>2026-04-16T16:19:44Z</time></trkpt><trkpt lat="41.17042596276764" lon="14.972561955198623"><ele>329.57142857142856</ele><time>2026-04-16T16:19:45Z</time></trkpt><trkpt lat="41.170375759312655" lon="14.972466002726312"><ele>327.85714285714283</ele><time>2026-04-16T16:19:46Z</time></trkpt><trkpt lat="41.17032455614946" lon="14.97240116008109"><ele>326.1428571428571</ele><time>2026-04-16T16:19:47Z</time></trkpt><trkpt lat="41.17030008981545" lon="14.972314196374287"><ele>324.42857142857144</ele><time>2026-04-16T16:19:48Z</time></trkpt><trkpt lat="41.1702671792906" lon="14.972240673240648"><ele>322.71428571428567</ele><time>2026-04-16T16:19:49Z</time></trkpt><trkpt lat="41.1702359074051" lon="14.97216096950917"><ele>321.0</ele><time>2026-04-16T16:19:50Z</time></trkpt><trkpt lat="41.17019107566527" lon="14.97208853242716"><ele>320.0</ele><time>2026-04-16T16:19:51Z</time></trkpt><trkpt lat="41.17016353052854" lon="14.971956132085156"><ele>319.0</ele><time>2026-04-16T16:19:52Z</time></trkpt><trkpt lat="41.17014921091286" lon="14.97185712435462"><ele>318.0</ele><time>2026-04-16T16:19:53Z</time></trkpt><trkpt lat="41.1701449563412" lon="14.971765297597106"><ele>317.0</ele><time>2026-04-16T16:19:54Z</time></trkpt><trkpt lat="41.17014465728387" lon="14.971666460723837"><ele>316.0</ele><time>2026-04-16T16:19:55Z</time></trkpt><trkpt lat="41.170154744949855" lon="14.971558382144417"><ele>315.0</ele><time>2026-04-16T16:19:56Z</time></trkpt><trkpt lat="41.17017430012092" lon="14.971466956286685"><ele>312.2</ele><time>2026-04-16T16:19:57Z</time></trkpt><trkpt lat="41.17018945426954" lon="14.971373976786014"><ele>309.4</ele><time>2026-04-16T16:19:57.999Z</time></trkpt><trkpt lat="41.170155536776626" lon="14.971234232682132"><ele>306.6</ele><time>2026-04-16T16:19:59.999Z</time></trkpt><trkpt lat="41.170008426391654" lon="14.971176425919612"><ele>303.8</ele><time>2026-04-16T16:20:01.999Z</time></trkpt><trkpt lat="41.169920447854516" lon="14.971230799413524"><ele>301.0</ele><time>2026-04-16T16:20:02.999Z</time></trkpt><trkpt lat="41.16985809016461" lon="14.971263695080612"><ele>298.3333333333333</ele><time>2026-04-16T16:20:03.999Z</time></trkpt><trkpt lat="41.16980418000943" lon="14.971315465521947"><ele>295.66666666666663</ele><time>2026-04-16T16:20:04.999Z</time></trkpt><trkpt lat="41.169756365608485" lon="14.971371245688005"><ele>293.0</ele><time>2026-04-16T16:20:05.999Z</time></trkpt><trkpt lat="41.16969453036586" lon="14.971471204344665"><ele>290.3333333333333</ele><time>2026-04-16T16:20:07.999Z</time></trkpt><trkpt lat="41.169610519316315" lon="14.971538800935988"><ele>287.6666666666667</ele><time>2026-04-16T16:20:09.999Z</time></trkpt><trkpt lat="41.16955244306672" lon="14.971440054025866"><ele>285.0</ele><time>2026-04-16T16:20:11.999Z</time></trkpt><trkpt lat="41.169494788867354" lon="14.971318342391834"><ele>285.0</ele><time>2026-04-16T16:20:16.999Z</time></trkpt><trkpt lat="41.16947371590129" lon="14.97123092749055"><ele>285.0</ele><time>2026-04-16T16:20:18.999Z</time></trkpt><trkpt lat="41.16944207345217" lon="14.971083477398155"><ele>285.0</ele><time>2026-04-16T16:20:20.999Z</time></trkpt><trkpt lat="41.16942353977988" lon="14.97099925363409"><ele>285.0</ele><time>2026-04-16T16:20:21.999Z</time></trkpt><trkpt lat="41.16941008586838" lon="14.970914066318123"><ele>285.0</ele><time>2026-04-16T16:20:22.999Z</time></trkpt><trkpt lat="41.16938130011384" lon="14.970820530217287"><ele>285.0</ele><time>2026-04-16T16:20:23.999Z</time></trkpt><trkpt lat="41.16933438548877" lon="14.970703165220675"><ele>282.6</ele><time>2026-04-16T16:20:25.999Z</time></trkpt><trkpt lat="41.169311707806486" lon="14.97058919989875"><ele>280.2</ele><time>2026-04-16T16:20:27.999Z</time></trkpt><trkpt lat="41.16928483617673" lon="14.970456886350522"><ele>277.8</ele><time>2026-04-16T16:20:29.999Z</time></trkpt><trkpt lat="41.16926005775329" lon="14.970319016930572"><ele>275.4</ele><time>2026-04-16T16:20:31.999Z</time></trkpt><trkpt lat="41.16925434010685" lon="14.970202181882604"><ele>273.0</ele><time>2026-04-16T16:20:33.999Z</time></trkpt><trkpt lat="41.16924799598755" lon="14.970050321957663"><ele>271.1666666666667</ele><time>2026-04-16T16:20:35.999Z</time></trkpt><trkpt lat="41.16924791962961" lon="14.969927879534453"><ele>269.3333333333333</ele><time>2026-04-16T16:20:37.999Z</time></trkpt><trkpt lat="41.16926580235704" lon="14.969839039242848"><ele>267.5</ele><time>2026-04-16T16:20:39.999Z</time></trkpt><trkpt lat="41.16926645776796" lon="14.969749155650755"><ele>265.66666666666663</ele><time>2026-04-16T16:20:41.999Z</time></trkpt><trkpt lat="41.16925985854491" lon="14.969651553634769"><ele>263.8333333333333</ele><time>2026-04-16T16:20:44.999Z</time></trkpt><trkpt lat="41.16926098988949" lon="14.969552718634102"><ele>262.0</ele><time>2026-04-16T16:20:46.999Z</time></trkpt><trkpt lat="41.16929645133121" lon="14.969411571892506"><ele>262.0</ele><time>2026-04-16T16:20:48.999Z</time></trkpt><trkpt lat="41.16930878830049" lon="14.969269086485403"><ele>262.0</ele><time>2026-04-16T16:20:50.999Z</time></trkpt><trkpt lat="41.169295717849074" lon="14.969107725642877"><ele>262.0</ele><time>2026-04-16T16:20:52.999Z</time></trkpt><trkpt lat="41.169289508097364" lon="14.968963019920851"><ele>262.0</ele><time>2026-04-16T16:20:54.999Z</time></trkpt><trkpt lat="41.169288814212806" lon="14.96885412413554"><ele>262.0</ele><time>2026-04-16T16:20:57.999Z</time></trkpt><trkpt lat="41.16927837529541" lon="14.968762730328244"><ele>258.5</ele><time>2026-04-16T16:20:59.999Z</time></trkpt><trkpt lat="41.16926027543131" lon="14.9686570852255"><ele>255.0</ele><time>2026-04-16T16:21:02.999Z</time></trkpt><trkpt lat="41.16926793984215" lon="14.968532569492378"><ele>251.5</ele><time>2026-04-16T16:21:04.999Z</time></trkpt><trkpt lat="41.16925833915259" lon="14.9684138178677"><ele>248.0</ele><time>2026-04-16T16:21:06.998Z</time></trkpt><trkpt lat="41.16922560642456" lon="14.968019749980028"><ele>245.2</ele><time>2026-04-16T16:21:07.998Z</time></trkpt><trkpt lat="41.1692073785257" lon="14.967871479048421"><ele>242.4</ele><time>2026-04-16T16:21:09.998Z</time></trkpt><trkpt lat="41.16919474479099" lon="14.967713470752045"><ele>239.59999999999997</ele><time>2026-04-16T16:21:11.998Z</time></trkpt><trkpt lat="41.16917836792325" lon="14.967609805553154"><ele>236.79999999999998</ele><time>2026-04-16T16:21:12.998Z</time></trkpt><trkpt lat="41.16916967441495" lon="14.967442135040633"><ele>234.0</ele><time>2026-04-16T16:21:14.998Z</time></trkpt><trkpt lat="41.16915035120674" lon="14.967275332523645"><ele>232.0</ele><time>2026-04-16T16:21:16.998Z</time></trkpt><trkpt lat="41.169134733718096" lon="14.967190731701791"><ele>230.0</ele><time>2026-04-16T16:21:18Z</time></trkpt><trkpt lat="41.16913120598468" lon="14.967080548839846"><ele>228.0</ele><time>2026-04-16T16:21:19Z</time></trkpt><trkpt lat="41.16913455411569" lon="14.966994421229495"><ele>226.0</ele><time>2026-04-16T16:21:20Z</time></trkpt><trkpt lat="41.16913936849463" lon="14.966897382691352"><ele>224.0</ele><time>2026-04-16T16:21:21Z</time></trkpt><trkpt lat="41.169099790845564" lon="14.966730692149225"><ele>222.0</ele><time>2026-04-16T16:21:23Z</time></trkpt><trkpt lat="41.16909052350328" lon="14.966635208517703"><ele>219.83333333333334</ele><time>2026-04-16T16:21:24Z</time></trkpt><trkpt lat="41.16908633407254" lon="14.966543528991586"><ele>217.66666666666669</ele><time>2026-04-16T16:21:25Z</time></trkpt><trkpt lat="41.16908062861045" lon="14.96644776946315"><ele>215.5</ele><time>2026-04-16T16:21:26Z</time></trkpt><trkpt lat="41.16907044536443" lon="14.966289999773274"><ele>213.33333333333334</ele><time>2026-04-16T16:21:28Z</time></trkpt><trkpt lat="41.169052750091424" lon="14.966186932608878"><ele>211.16666666666669</ele><time>2026-04-16T16:21:30Z</time></trkpt><trkpt lat="41.16906365848992" lon="14.96607871032976"><ele>209.0</ele><time>2026-04-16T16:21:34Z</time></trkpt><trkpt lat="41.16905947277943" lon="14.96597825460004"><ele>209.00000000000003</ele><time>2026-04-16T16:21:37Z</time></trkpt><trkpt lat="41.16905443659777" lon="14.965888047133655"><ele>209.0</ele><time>2026-04-16T16:21:39Z</time></trkpt><trkpt lat="41.169054155073475" lon="14.965795134260178"><ele>209.0</ele><time>2026-04-16T16:21:41Z</time></trkpt><trkpt lat="41.169065169472454" lon="14.965704772217158"><ele>209.0</ele><time>2026-04-16T16:21:44Z</time></trkpt><trkpt lat="41.16903539050877" lon="14.96560183304999"><ele>209.00000000000003</ele><time>2026-04-16T16:21:47Z</time></trkpt><trkpt lat="41.16900070015651" lon="14.965485956074312"><ele>209.0</ele><time>2026-04-16T16:21:50Z</time></trkpt><trkpt lat="41.168995806533964" lon="14.96539204574974"><ele>205.25</ele><time>2026-04-16T16:21:52Z</time></trkpt><trkpt lat="41.168999750213466" lon="14.965304399550458"><ele>201.5</ele><time>2026-04-16T16:21:54Z</time></trkpt><trkpt lat="41.168982066585826" lon="14.96520767057516"><ele>197.75</ele><time>2026-04-16T16:21:56Z</time></trkpt><trkpt lat="41.16897671613571" lon="14.965121952995203"><ele>194.0</ele><time>2026-04-16T16:21:58Z</time></trkpt><trkpt lat="41.16889814687997" lon="14.964373526031318"><ele>193.33333333333334</ele><time>2026-04-16T16:22:00Z</time></trkpt><trkpt lat="41.16889345757072" lon="14.964278689788845"><ele>192.66666666666669</ele><time>2026-04-16T16:22:01Z</time></trkpt><trkpt lat="41.16888036660593" lon="14.96412936662856"><ele>192.0</ele><time>2026-04-16T16:22:03Z</time></trkpt><trkpt lat="41.16885387920686" lon="14.9640238083783"><ele>191.33333333333334</ele><time>2026-04-16T16:22:06Z</time></trkpt><trkpt lat="41.16891746927185" lon="14.963934867024996"><ele>190.66666666666669</ele><time>2026-04-16T16:22:09Z</time></trkpt><trkpt lat="41.16899205448482" lon="14.963928632083189"><ele>190.0</ele><time>2026-04-16T16:22:09.999Z</time></trkpt><trkpt lat="41.16907892832252" lon="14.96393909023323"><ele>190.0</ele><time>2026-04-16T16:22:10.999Z</time></trkpt><trkpt lat="41.16918168647916" lon="14.96395268446062"><ele>190.0</ele><time>2026-04-16T16:22:11.999Z</time></trkpt><trkpt lat="41.16927353420212" lon="14.963964106213114"><ele>190.0</ele><time>2026-04-16T16:22:12.999Z</time></trkpt><trkpt lat="41.16936573515057" lon="14.963972907214593"><ele>190.0</ele><time>2026-04-16T16:22:13.999Z</time></trkpt><trkpt lat="41.16949322460095" lon="14.963988723920098"><ele>190.0</ele><time>2026-04-16T16:22:14.999Z</time></trkpt><trkpt lat="41.16961296301397" lon="14.963977800052065"><ele>190.0</ele><time>2026-04-16T16:22:15.999Z</time></trkpt><trkpt lat="41.169733361386925" lon="14.963971211283265"><ele>190.0</ele><time>2026-04-16T16:22:16.999Z</time></trkpt><trkpt lat="41.16985050190052" lon="14.963965269623255"><ele>190.0</ele><time>2026-04-16T16:22:17.999Z</time></trkpt><trkpt lat="41.16997168113123" lon="14.963997660716132"><ele>190.0</ele><time>2026-04-16T16:22:18.999Z</time></trkpt><trkpt lat="41.17009603848104" lon="14.964010980225476"><ele>190.0</ele><time>2026-04-16T16:22:19.999Z</time></trkpt><trkpt lat="41.17022976094723" lon="14.96400940522406"><ele>190.0</ele><time>2026-04-16T16:22:20.999Z</time></trkpt><trkpt lat="41.170369921657816" lon="14.964070225379954"><ele>190.0</ele><time>2026-04-16T16:22:21.999Z</time></trkpt><trkpt lat="41.17050368873262" lon="14.964091546391783"><ele>190.0</ele><time>2026-04-16T16:22:22.999Z</time></trkpt><trkpt lat="41.170637616813195" lon="14.964119171657847"><ele>190.25</ele><time>2026-04-16T16:22:23.999Z</time></trkpt><trkpt lat="41.17076519058814" lon="14.964138909131371"><ele>190.5</ele><time>2026-04-16T16:22:24.999Z</time></trkpt><trkpt lat="41.17089962179723" lon="14.964148209431343"><ele>190.75</ele><time>2026-04-16T16:22:25.999Z</time></trkpt><trkpt lat="41.17102318823388" lon="14.964162740750398"><ele>191.0</ele><time>2026-04-16T16:22:26.999Z</time></trkpt><trkpt lat="41.17116563540829" lon="14.964170653778607"><ele>191.0</ele><time>2026-04-16T16:22:27.999Z</time></trkpt><trkpt lat="41.17129262089447" lon="14.964182783814469"><ele>191.0</ele><time>2026-04-16T16:22:28.999Z</time></trkpt><trkpt lat="41.17143260215098" lon="14.964196445872815"><ele>191.0</ele><time>2026-04-16T16:22:29.999Z</time></trkpt><trkpt lat="41.17158407334357" lon="14.964196573331712"><ele>191.0</ele><time>2026-04-16T16:22:30.999Z</time></trkpt><trkpt lat="41.1717384809786" lon="14.964183316906952"><ele>191.25</ele><time>2026-04-16T16:22:31.999Z</time></trkpt><trkpt lat="41.17187091139317" lon="14.96418053050711"><ele>191.5</ele><time>2026-04-16T16:22:32.999Z</time></trkpt><trkpt lat="41.17199489026431" lon="14.96418330663574"><ele>191.75</ele><time>2026-04-16T16:22:33.999Z</time></trkpt><trkpt lat="41.17211225264042" lon="14.964169679900365"><ele>192.0</ele><time>2026-04-16T16:22:34.999Z</time></trkpt><trkpt lat="41.17223109326442" lon="14.964142923116722"><ele>192.0</ele><time>2026-04-16T16:22:35.999Z</time></trkpt><trkpt lat="41.17232844622047" lon="14.964097235292806"><ele>192.0</ele><time>2026-04-16T16:22:36.999Z</time></trkpt><trkpt lat="41.172425653853594" lon="14.964015521838606"><ele>192.0</ele><time>2026-04-16T16:22:37.999Z</time></trkpt><trkpt lat="41.17251868083419" lon="14.96391241203763"><ele>192.0</ele><time>2026-04-16T16:22:38.999Z</time></trkpt><trkpt lat="41.172617815061585" lon="14.963802352369827"><ele>192.5</ele><time>2026-04-16T16:22:39.999Z</time></trkpt><trkpt lat="41.17271846615516" lon="14.963672883951354"><ele>193.0</ele><time>2026-04-16T16:22:40.999Z</time></trkpt><trkpt lat="41.17282129140304" lon="14.96356231842859"><ele>193.5</ele><time>2026-04-16T16:22:41.999Z</time></trkpt><trkpt lat="41.172914985935776" lon="14.963465775708347"><ele>194.0</ele><time>2026-04-16T16:22:42.999Z</time></trkpt><trkpt lat="41.17301979346467" lon="14.96341520516079"><ele>194.0</ele><time>2026-04-16T16:22:43.999Z</time></trkpt><trkpt lat="41.17314211766349" lon="14.963365991128374"><ele>194.0</ele><time>2026-04-16T16:22:44.999Z</time></trkpt><trkpt lat="41.173266955194784" lon="14.963328319638267"><ele>194.0</ele><time>2026-04-16T16:22:45.999Z</time></trkpt><trkpt lat="41.173401563556745" lon="14.963304351975097"><ele>194.0</ele><time>2026-04-16T16:22:46.999Z</time></trkpt><trkpt lat="41.17354010030718" lon="14.963258185231993"><ele>194.0</ele><time>2026-04-16T16:22:47.999Z</time></trkpt><trkpt lat="41.173678493162065" lon="14.963220191771237"><ele>194.0</ele><time>2026-04-16T16:22:48.999Z</time></trkpt><trkpt lat="41.17381228633777" lon="14.963189667449349"><ele>194.0</ele><time>2026-04-16T16:22:49.999Z</time></trkpt><trkpt lat="41.17393672767027" lon="14.963151893082712"><ele>194.0</ele><time>2026-04-16T16:22:50.999Z</time></trkpt><trkpt lat="41.17404081848505" lon="14.96309158146243"><ele>194.0</ele><time>2026-04-16T16:22:51.999Z</time></trkpt><trkpt lat="41.17412854178704" lon="14.963017542836063"><ele>194.0</ele><time>2026-04-16T16:22:52.999Z</time></trkpt><trkpt lat="41.17421233427182" lon="14.962962300768325"><ele>194.0</ele><time>2026-04-16T16:22:53.999Z</time></trkpt><trkpt lat="41.174293088078315" lon="14.96290726787686"><ele>194.0</ele><time>2026-04-16T16:22:54.999Z</time></trkpt><trkpt lat="41.174376920259434" lon="14.962903118406308"><ele>194.0</ele><time>2026-04-16T16:22:55.999Z</time></trkpt><trkpt lat="41.17446005430766" lon="14.962929007700227"><ele>194.0</ele><time>2026-04-16T16:22:56.999Z</time></trkpt><trkpt lat="41.17454768443084" lon="14.962996010413569"><ele>194.0</ele><time>2026-04-16T16:22:57.999Z</time></trkpt><trkpt lat="41.17462813416205" lon="14.963081581635054"><ele>194.0</ele><time>2026-04-16T16:22:58.999Z</time></trkpt><trkpt lat="41.17471325096504" lon="14.963192979580844"><ele>194.0</ele><time>2026-04-16T16:22:59.999Z</time></trkpt><trkpt lat="41.17480386447278" lon="14.963304815687312"><ele>194.0</ele><time>2026-04-16T16:23:00.999Z</time></trkpt><trkpt lat="41.174877440508205" lon="14.963384417122118"><ele>194.50000000000003</ele><time>2026-04-16T16:23:01.999Z</time></trkpt><trkpt lat="41.17495123824051" lon="14.963430095760947"><ele>195.0</ele><time>2026-04-16T16:23:02.999Z</time></trkpt><trkpt lat="41.175027305633506" lon="14.96344236062824"><ele>195.5</ele><time>2026-04-16T16:23:03.999Z</time></trkpt><trkpt lat="41.17511136597827" lon="14.963430717360504"><ele>196.0</ele><time>2026-04-16T16:23:04.999Z</time></trkpt><trkpt lat="41.17520376088219" lon="14.96339782591495"><ele>196.50000000000003</ele><time>2026-04-16T16:23:05.999Z</time></trkpt><trkpt lat="41.17527966042707" lon="14.963371954510725"><ele>197.0</ele><time>2026-04-16T16:23:06.999Z</time></trkpt><trkpt lat="41.175353174429084" lon="14.963346632867522"><ele>197.0</ele><time>2026-04-16T16:23:07.999Z</time></trkpt><trkpt lat="41.17543705992971" lon="14.963332879668409"><ele>197.0</ele><time>2026-04-16T16:23:08.999Z</time></trkpt><trkpt lat="41.17554892175653" lon="14.96333679131791"><ele>197.0</ele><time>2026-04-16T16:23:09.999Z</time></trkpt><trkpt lat="41.175666690639346" lon="14.96334393601726"><ele>197.0</ele><time>2026-04-16T16:23:10.999Z</time></trkpt><trkpt lat="41.175775861811815" lon="14.963369712959755"><ele>197.0</ele><time>2026-04-16T16:23:11.999Z</time></trkpt><trkpt lat="41.17589828409641" lon="14.963419735822034"><ele>200.5</ele><time>2026-04-16T16:23:12.999Z</time></trkpt><trkpt lat="41.176027604130155" lon="14.963466446015106"><ele>204.0</ele><time>2026-04-16T16:23:13.999Z</time></trkpt><trkpt lat="41.176153010111754" lon="14.963518374189"><ele>207.5</ele><time>2026-04-16T16:23:14.999Z</time></trkpt><trkpt lat="41.17629508107581" lon="14.963567836355132"><ele>211.0</ele><time>2026-04-16T16:23:15.999Z</time></trkpt><trkpt lat="41.1764392781654" lon="14.963606957137156"><ele>210.25</ele><time>2026-04-16T16:23:16.999Z</time></trkpt><trkpt lat="41.1765835790686" lon="14.963638725360784"><ele>209.5</ele><time>2026-04-16T16:23:17.998Z</time></trkpt><trkpt lat="41.1767109120615" lon="14.96368498506371"><ele>208.75</ele><time>2026-04-16T16:23:18.998Z</time></trkpt><trkpt lat="41.176845958451096" lon="14.96373064260852"><ele>208.0</ele><time>2026-04-16T16:23:19.998Z</time></trkpt><trkpt lat="41.176960479980835" lon="14.963765112703124"><ele>208.0</ele><time>2026-04-16T16:23:20.998Z</time></trkpt><trkpt lat="41.177065777574946" lon="14.963815423295468"><ele>208.0</ele><time>2026-04-16T16:23:21.998Z</time></trkpt><trkpt lat="41.177167411330686" lon="14.96388390098648"><ele>208.0</ele><time>2026-04-16T16:23:22.998Z</time></trkpt><trkpt lat="41.17727176444633" lon="14.963960703490667"><ele>208.0</ele><time>2026-04-16T16:23:24Z</time></trkpt><trkpt lat="41.17738787667181" lon="14.96404025281309"><ele>206.75</ele><time>2026-04-16T16:23:25Z</time></trkpt><trkpt lat="41.177485766411934" lon="14.964138428822384"><ele>205.5</ele><time>2026-04-16T16:23:26Z</time></trkpt><trkpt lat="41.177576158244726" lon="14.964299340855131"><ele>204.25</ele><time>2026-04-16T16:23:27Z</time></trkpt><trkpt lat="41.177669047376" lon="14.964421162292101"><ele>203.0</ele><time>2026-04-16T16:23:28Z</time></trkpt><trkpt lat="41.177773642098686" lon="14.964559550220363"><ele>206.0</ele><time>2026-04-16T16:23:29Z</time></trkpt><trkpt lat="41.17788186146764" lon="14.96470034004058"><ele>209.0</ele><time>2026-04-16T16:23:30Z</time></trkpt><trkpt lat="41.17798694757952" lon="14.96483461165679"><ele>212.0</ele><time>2026-04-16T16:23:31Z</time></trkpt><trkpt lat="41.178108858230814" lon="14.96494992040878"><ele>215.0</ele><time>2026-04-16T16:23:32Z</time></trkpt><trkpt lat="41.17823136046145" lon="14.96507761832344"><ele>215.5</ele><time>2026-04-16T16:23:33Z</time></trkpt><trkpt lat="41.178357042446684" lon="14.96519008382583"><ele>216.0</ele><time>2026-04-16T16:23:34Z</time></trkpt><trkpt lat="41.17847376444949" lon="14.96531013394956"><ele>216.5</ele><time>2026-04-16T16:23:35Z</time></trkpt><trkpt lat="41.178593403066806" lon="14.96540911614071"><ele>217.0</ele><time>2026-04-16T16:23:36Z</time></trkpt><trkpt lat="41.178690258281044" lon="14.965505331134116"><ele>217.0</ele><time>2026-04-16T16:23:37Z</time></trkpt><trkpt lat="41.178788804459664" lon="14.965599820518072"><ele>217.0</ele><time>2026-04-16T16:23:38Z</time></trkpt><trkpt lat="41.17888225497863" lon="14.965702527856179"><ele>217.0</ele><time>2026-04-16T16:23:39Z</time></trkpt><trkpt lat="41.178960211759055" lon="14.965810005031702"><ele>217.0</ele><time>2026-04-16T16:23:40Z</time></trkpt><trkpt lat="41.179034277022616" lon="14.965908305284202"><ele>214.25</ele><time>2026-04-16T16:23:41Z</time></trkpt><trkpt lat="41.17908892050033" lon="14.966077316499703"><ele>211.5</ele><time>2026-04-16T16:23:42Z</time></trkpt><trkpt lat="41.17913400539037" lon="14.966253511267396"><ele>208.75</ele><time>2026-04-16T16:23:43Z</time></trkpt><trkpt lat="41.179183072095064" lon="14.966419487753328"><ele>206.0</ele><time>2026-04-16T16:23:44Z</time></trkpt><trkpt lat="41.17925074222352" lon="14.966581589726191"><ele>207.75</ele><time>2026-04-16T16:23:45Z</time></trkpt><trkpt lat="41.179328996571705" lon="14.96674136027277"><ele>209.5</ele><time>2026-04-16T16:23:46Z</time></trkpt><trkpt lat="41.17940635601453" lon="14.966893545906878"><ele>211.25</ele><time>2026-04-16T16:23:47Z</time></trkpt><trkpt lat="41.1794636508259" lon="14.96703962578109"><ele>213.0</ele><time>2026-04-16T16:23:48Z</time></trkpt><trkpt lat="41.17952077162525" lon="14.967211898552742"><ele>213.0</ele><time>2026-04-16T16:23:49Z</time></trkpt><trkpt lat="41.179563715783914" lon="14.96738489411058"><ele>213.0</ele><time>2026-04-16T16:23:50Z</time></trkpt><trkpt lat="41.17958406349578" lon="14.967565665244232"><ele>213.0</ele><time>2026-04-16T16:23:51Z</time></trkpt><trkpt lat="41.17962921223925" lon="14.967739258621684"><ele>213.0</ele><time>2026-04-16T16:23:52Z</time></trkpt><trkpt lat="41.17967271963572" lon="14.967915979743532"><ele>215.8</ele><time>2026-04-16T16:23:53Z</time></trkpt><trkpt lat="41.179701135277085" lon="14.968086008794048"><ele>218.60000000000002</ele><time>2026-04-16T16:23:54Z</time></trkpt><trkpt lat="41.17973035120833" lon="14.968241880472187"><ele>221.39999999999998</ele><time>2026-04-16T16:23:55Z</time></trkpt><trkpt lat="41.179742547196916" lon="14.968389759579885"><ele>224.2</ele><time>2026-04-16T16:23:56Z</time></trkpt><trkpt lat="41.17976719074094" lon="14.96848965975171"><ele>227.0</ele><time>2026-04-16T16:23:57Z</time></trkpt><trkpt lat="41.179761011768505" lon="14.968600440217825"><ele>229.5</ele><time>2026-04-16T16:23:58Z</time></trkpt><trkpt lat="41.179781496755744" lon="14.968722283315088"><ele>232.0</ele><time>2026-04-16T16:23:59Z</time></trkpt><trkpt lat="41.179789421325665" lon="14.968864647613367"><ele>234.5</ele><time>2026-04-16T16:24:00Z</time></trkpt><trkpt lat="41.17978263555049" lon="14.969043342137306"><ele>237.0</ele><time>2026-04-16T16:24:01Z</time></trkpt><trkpt lat="41.179795556412145" lon="14.969200258556398"><ele>237.0</ele><time>2026-04-16T16:24:02Z</time></trkpt><trkpt lat="41.1797951042633" lon="14.96933853144701"><ele>237.0</ele><time>2026-04-16T16:24:03Z</time></trkpt><trkpt lat="41.179806478154006" lon="14.96947494068052"><ele>237.0</ele><time>2026-04-16T16:24:04Z</time></trkpt><trkpt lat="41.17981940212791" lon="14.969636514052375"><ele>237.0</ele><time>2026-04-16T16:24:05Z</time></trkpt><trkpt lat="41.17986207893449" lon="14.969790717677489"><ele>229.75</ele><time>2026-04-16T16:24:06Z</time></trkpt><trkpt lat="41.17990763769199" lon="14.969949952661231"><ele>222.5</ele><time>2026-04-16T16:24:07Z</time></trkpt><trkpt lat="41.17998304945823" lon="14.970108906493142"><ele>215.25</ele><time>2026-04-16T16:24:08Z</time></trkpt><trkpt lat="41.1800535226544" lon="14.970304899350184"><ele>208.0</ele><time>2026-04-16T16:24:09Z</time></trkpt><trkpt lat="41.18011964590208" lon="14.97048595812644"><ele>208.0</ele><time>2026-04-16T16:24:09.999Z</time></trkpt><trkpt lat="41.180194865341306" lon="14.970647707674528"><ele>208.0</ele><time>2026-04-16T16:24:10.999Z</time></trkpt><trkpt lat="41.18026943780472" lon="14.970777908324418"><ele>208.0</ele><time>2026-04-16T16:24:11.999Z</time></trkpt><trkpt lat="41.18036147324969" lon="14.970901348789567"><ele>208.0</ele><time>2026-04-16T16:24:12.999Z</time></trkpt><trkpt lat="41.18044370353672" lon="14.971035154978557"><ele>208.0</ele><time>2026-04-16T16:24:13.999Z</time></trkpt><trkpt lat="41.18051005011872" lon="14.97116202196726"><ele>208.0</ele><time>2026-04-16T16:24:14.999Z</time></trkpt><trkpt lat="41.18057805653743" lon="14.971307079856171"><ele>208.0</ele><time>2026-04-16T16:24:15.999Z</time></trkpt><trkpt lat="41.18064098528049" lon="14.971478389476715"><ele>208.0</ele><time>2026-04-16T16:24:16.999Z</time></trkpt><trkpt lat="41.18069486613931" lon="14.971649401379137"><ele>207.5</ele><time>2026-04-16T16:24:17.999Z</time></trkpt><trkpt lat="41.18075494696035" lon="14.971816254480883"><ele>207.0</ele><time>2026-04-16T16:24:18.999Z</time></trkpt><trkpt lat="41.18081223304649" lon="14.971984840191237"><ele>206.5</ele><time>2026-04-16T16:24:19.999Z</time></trkpt><trkpt lat="41.180858874294024" lon="14.972163809035132"><ele>206.0</ele><time>2026-04-16T16:24:20.999Z</time></trkpt><trkpt lat="41.18088780571918" lon="14.972346933559345"><ele>205.75</ele><time>2026-04-16T16:24:21.999Z</time></trkpt><trkpt lat="41.180919094083166" lon="14.972531129720371"><ele>205.5</ele><time>2026-04-16T16:24:22.999Z</time></trkpt><trkpt lat="41.18095009070139" lon="14.972712165470615"><ele>205.25</ele><time>2026-04-16T16:24:23.999Z</time></trkpt><trkpt lat="41.180968851494576" lon="14.972889281188207"><ele>205.0</ele><time>2026-04-16T16:24:24.999Z</time></trkpt><trkpt lat="41.18098114249274" lon="14.973049216546302"><ele>205.0</ele><time>2026-04-16T16:24:25.999Z</time></trkpt><trkpt lat="41.181009917944586" lon="14.973175177711875"><ele>205.0</ele><time>2026-04-16T16:24:26.999Z</time></trkpt><trkpt lat="41.18105996036976" lon="14.97329208412895"><ele>205.0</ele><time>2026-04-16T16:24:27.999Z</time></trkpt><trkpt lat="41.18110921236021" lon="14.973399456705776"><ele>205.0</ele><time>2026-04-16T16:24:28.999Z</time></trkpt><trkpt lat="41.181178606758735" lon="14.97349167652314"><ele>205.0</ele><time>2026-04-16T16:24:29.999Z</time></trkpt><trkpt lat="41.181283351455455" lon="14.973584741106052"><ele>205.0</ele><time>2026-04-16T16:24:30.999Z</time></trkpt><trkpt lat="41.181385843101786" lon="14.973674453136821"><ele>205.0</ele><time>2026-04-16T16:24:31.999Z</time></trkpt><trkpt lat="41.1815035410892" lon="14.97377633754678"><ele>205.0</ele><time>2026-04-16T16:24:32.999Z</time></trkpt><trkpt lat="41.18162358627116" lon="14.973856640914903"><ele>205.0</ele><time>2026-04-16T16:24:33.999Z</time></trkpt><trkpt lat="41.181750136999625" lon="14.973935478888771"><ele>205.5</ele><time>2026-04-16T16:24:34.999Z</time></trkpt><trkpt lat="41.18184799400728" lon="14.974043487839465"><ele>206.0</ele><time>2026-04-16T16:24:35.999Z</time></trkpt><trkpt lat="41.181957185725025" lon="14.974166761971087"><ele>206.5</ele><time>2026-04-16T16:24:36.999Z</time></trkpt><trkpt lat="41.18207089739465" lon="14.97429141121497"><ele>207.0</ele><time>2026-04-16T16:24:37.999Z</time></trkpt><trkpt lat="41.182195895655056" lon="14.974411220548811"><ele>207.0</ele><time>2026-04-16T16:24:38.999Z</time></trkpt><trkpt lat="41.18232276456315" lon="14.974542914292845"><ele>207.0</ele><time>2026-04-16T16:24:39.999Z</time></trkpt><trkpt lat="41.182434926932984" lon="14.974665395960871"><ele>207.0</ele><time>2026-04-16T16:24:40.999Z</time></trkpt><trkpt lat="41.182550011114344" lon="14.974775508748396"><ele>207.0</ele><time>2026-04-16T16:24:41.999Z</time></trkpt><trkpt lat="41.18266236836437" lon="14.974874096343903"><ele>207.25</ele><time>2026-04-16T16:24:42.999Z</time></trkpt><trkpt lat="41.182781382770344" lon="14.974971861578105"><ele>207.5</ele><time>2026-04-16T16:24:43.999Z</time></trkpt><trkpt lat="41.182901553085756" lon="14.975079070220907"><ele>207.75</ele><time>2026-04-16T16:24:44.999Z</time></trkpt><trkpt lat="41.183027553004585" lon="14.97517322818547"><ele>208.0</ele><time>2026-04-16T16:24:45.999Z</time></trkpt><trkpt lat="41.18313961488436" lon="14.975263657816702"><ele>208.0</ele><time>2026-04-16T16:24:46.999Z</time></trkpt><trkpt lat="41.18325921093765" lon="14.975342215506323"><ele>208.0</ele><time>2026-04-16T16:24:47.999Z</time></trkpt><trkpt lat="41.183358516231806" lon="14.975422480253375"><ele>208.0</ele><time>2026-04-16T16:24:48.999Z</time></trkpt><trkpt lat="41.18346851047446" lon="14.975491601061137"><ele>208.0</ele><time>2026-04-16T16:24:49.999Z</time></trkpt><trkpt lat="41.18358758495894" lon="14.975552005765183"><ele>208.0</ele><time>2026-04-16T16:24:50.999Z</time></trkpt><trkpt lat="41.18370513378494" lon="14.975604965917581"><ele>208.0</ele><time>2026-04-16T16:24:51.999Z</time></trkpt><trkpt lat="41.18380502796321" lon="14.975687241921078"><ele>208.0</ele><time>2026-04-16T16:24:52.999Z</time></trkpt><trkpt lat="41.183924118586745" lon="14.975763508400085"><ele>208.0</ele><time>2026-04-16T16:24:53.999Z</time></trkpt><trkpt lat="41.18404632375118" lon="14.975841629645048"><ele>208.0</ele><time>2026-04-16T16:24:54.999Z</time></trkpt><trkpt lat="41.18416491834012" lon="14.975921067771965"><ele>208.0</ele><time>2026-04-16T16:24:55.999Z</time></trkpt><trkpt lat="41.18427854920809" lon="14.976003604831355"><ele>208.0</ele><time>2026-04-16T16:24:56.999Z</time></trkpt><trkpt lat="41.18438388276091" lon="14.976095252660054"><ele>208.0</ele><time>2026-04-16T16:24:57.999Z</time></trkpt><trkpt lat="41.184488025554586" lon="14.976206215103701"><ele>208.0</ele><time>2026-04-16T16:24:58.999Z</time></trkpt><trkpt lat="41.18459063040206" lon="14.976326305919647"><ele>208.0</ele><time>2026-04-16T16:24:59.999Z</time></trkpt><trkpt lat="41.18469622706475" lon="14.976457740576723"><ele>208.0</ele><time>2026-04-16T16:25:00.999Z</time></trkpt><trkpt lat="41.184798632266926" lon="14.976589367611089"><ele>208.0</ele><time>2026-04-16T16:25:01.999Z</time></trkpt><trkpt lat="41.184895741572404" lon="14.976715513588948"><ele>208.25</ele><time>2026-04-16T16:25:02.999Z</time></trkpt><trkpt lat="41.184999509523735" lon="14.976834846094206"><ele>208.5</ele><time>2026-04-16T16:25:03.999Z</time></trkpt><trkpt lat="41.18509773198883" lon="14.976946827266113"><ele>208.75</ele><time>2026-04-16T16:25:04.999Z</time></trkpt><trkpt lat="41.185190931243746" lon="14.977047423046347"><ele>209.0</ele><time>2026-04-16T16:25:05.999Z</time></trkpt><trkpt lat="41.18528599411647" lon="14.977139250794018"><ele>209.0</ele><time>2026-04-16T16:25:06.999Z</time></trkpt><trkpt lat="41.185398755127835" lon="14.977213487087036"><ele>209.0</ele><time>2026-04-16T16:25:07.999Z</time></trkpt><trkpt lat="41.1855133729964" lon="14.977261197178745"><ele>209.0</ele><time>2026-04-16T16:25:08.999Z</time></trkpt><trkpt lat="41.185642425582586" lon="14.977291465918638"><ele>209.0</ele><time>2026-04-16T16:25:09.999Z</time></trkpt><trkpt lat="41.18578180250574" lon="14.977312884772966"><ele>210.0</ele><time>2026-04-16T16:25:10.999Z</time></trkpt><trkpt lat="41.18591586911431" lon="14.977318792061963"><ele>211.0</ele><time>2026-04-16T16:25:11.999Z</time></trkpt><trkpt lat="41.18604156723922" lon="14.977311287192412"><ele>212.0</ele><time>2026-04-16T16:25:12.999Z</time></trkpt><trkpt lat="41.18617712218546" lon="14.977286842270372"><ele>213.0</ele><time>2026-04-16T16:25:13.999Z</time></trkpt><trkpt lat="41.18631327273027" lon="14.977262239035207"><ele>213.0</ele><time>2026-04-16T16:25:14.999Z</time></trkpt><trkpt lat="41.18644705106541" lon="14.977263020948191"><ele>213.0</ele><time>2026-04-16T16:25:15.998Z</time></trkpt><trkpt lat="41.186583752514814" lon="14.97727111657485"><ele>213.0</ele><time>2026-04-16T16:25:16.998Z</time></trkpt><trkpt lat="41.1867193030137" lon="14.977284597332496"><ele>213.0</ele><time>2026-04-16T16:25:17.998Z</time></trkpt><trkpt lat="41.18685021265694" lon="14.977264188490121"><ele>213.0</ele><time>2026-04-16T16:25:18.998Z</time></trkpt><trkpt lat="41.186972333895" lon="14.9772519041227"><ele>213.0</ele><time>2026-04-16T16:25:19.998Z</time></trkpt><trkpt lat="41.18708444161352" lon="14.977220818422023"><ele>213.0</ele><time>2026-04-16T16:25:20.998Z</time></trkpt><trkpt lat="41.18716479297573" lon="14.977171452425868"><ele>213.0</ele><time>2026-04-16T16:25:21.998Z</time></trkpt><trkpt lat="41.18726967178095" lon="14.977139174055717"><ele>213.0</ele><time>2026-04-16T16:25:22.998Z</time></trkpt><trkpt lat="41.18732307878713" lon="14.977052325171547"><ele>213.0</ele><time>2026-04-16T16:25:23.998Z</time></trkpt><trkpt lat="41.18743435542447" lon="14.977011383349932"><ele>213.0</ele><time>2026-04-16T16:25:24.998Z</time></trkpt><trkpt lat="41.18772966148943" lon="14.977561058282147"><ele>213.25</ele><time>2026-04-16T16:25:25.998Z</time></trkpt><trkpt lat="41.18782760842859" lon="14.977634864163837"><ele>213.5</ele><time>2026-04-16T16:25:26.998Z</time></trkpt><trkpt lat="41.18793016198401" lon="14.97771772017097"><ele>213.75</ele><time>2026-04-16T16:25:27.998Z</time></trkpt><trkpt lat="41.18804144792932" lon="14.977837830579858"><ele>214.0</ele><time>2026-04-16T16:25:28.998Z</time></trkpt><trkpt lat="41.18814866975899" lon="14.977974859232697"><ele>214.25</ele><time>2026-04-16T16:25:30Z</time></trkpt><trkpt lat="41.18826412735871" lon="14.978106888574265"><ele>214.5</ele><time>2026-04-16T16:25:31Z</time></trkpt><trkpt lat="41.18838091046137" lon="14.978220997682694"><ele>214.75</ele><time>2026-04-16T16:25:32Z</time></trkpt><trkpt lat="41.18849578340906" lon="14.978320077049187"><ele>215.0</ele><time>2026-04-16T16:25:33Z</time></trkpt><trkpt lat="41.188597657168486" lon="14.97845111966111"><ele>215.0</ele><time>2026-04-16T16:25:34Z</time></trkpt><trkpt lat="41.188711965663764" lon="14.978533178842815"><ele>215.0</ele><time>2026-04-16T16:25:35Z</time></trkpt><trkpt lat="41.188823848380196" lon="14.978590041305747"><ele>215.0</ele><time>2026-04-16T16:25:36Z</time></trkpt><trkpt lat="41.18895683927582" lon="14.978674356813343"><ele>215.0</ele><time>2026-04-16T16:25:37Z</time></trkpt><trkpt lat="41.18906964673627" lon="14.978777055163807"><ele>215.16666666666669</ele><time>2026-04-16T16:25:38Z</time></trkpt><trkpt lat="41.18916302980647" lon="14.978868855473554"><ele>215.33333333333334</ele><time>2026-04-16T16:25:39Z</time></trkpt><trkpt lat="41.189241993433264" lon="14.978945727274851"><ele>215.5</ele><time>2026-04-16T16:25:40Z</time></trkpt><trkpt lat="41.18921637220919" lon="14.979039860670849"><ele>215.66666666666669</ele><time>2026-04-16T16:25:41Z</time></trkpt><trkpt lat="41.18926205152122" lon="14.979119379697956"><ele>215.83333333333334</ele><time>2026-04-16T16:25:42Z</time></trkpt><trkpt lat="41.18930480913489" lon="14.979186850409912"><ele>216.0</ele><time>2026-04-16T16:25:43Z</time></trkpt><trkpt lat="41.18954855830982" lon="14.97904943054761"><ele>216.0</ele><time>2026-04-16T16:25:44Z</time></trkpt><trkpt lat="41.18947520158341" lon="14.978962108860827"><ele>216.00000000000003</ele><time>2026-04-16T16:27:19.999Z</time></trkpt><trkpt lat="41.18940278772681" lon="14.978888300318175"><ele>216.00000000000003</ele><time>2026-04-16T16:27:21.998Z</time></trkpt><trkpt lat="41.18932926866808" lon="14.978857191977825"><ele>216.0</ele><time>2026-04-16T16:27:22.998Z</time></trkpt><trkpt lat="41.189219770907975" lon="14.978841980815712"><ele>216.0</ele><time>2026-04-16T16:27:24.998Z</time></trkpt><trkpt lat="41.18914365698728" lon="14.978777907936644"><ele>216.0</ele><time>2026-04-16T16:27:27.998Z</time></trkpt><trkpt lat="41.1891622149355" lon="14.978652619015337"><ele>216.0</ele><time>2026-04-16T16:27:28.998Z</time></trkpt><trkpt lat="41.18916221493814" lon="14.978541820230987"><ele>216.0</ele><time>2026-04-16T16:27:30.998Z</time></trkpt><trkpt lat="41.18910901119113" lon="14.978640716599099"><ele>216.0</ele><time>2026-04-16T16:27:34.998Z</time></trkpt><trkpt lat="41.189378583864084" lon="14.978445366682084"><ele>216.0</ele><time>2026-04-16T16:27:40Z</time></trkpt><trkpt lat="41.18944749158525" lon="14.978469316202375"><ele>216.0</ele><time>2026-04-16T16:27:44Z</time></trkpt><trkpt lat="41.18949208111245" lon="14.97853193017717"><ele>216.0</ele><time>2026-04-16T16:27:47Z</time></trkpt><trkpt lat="41.18956034594728" lon="14.97851657039805"><ele>216.0</ele><time>2026-04-16T16:27:51Z</time></trkpt><trkpt lat="41.18950858788303" lon="14.97843489458522"><ele>216.0</ele><time>2026-04-16T16:27:55Z</time></trkpt><trkpt lat="41.18943528930325" lon="14.978409146022539"><ele>216.0</ele><time>2026-04-16T16:27:57Z</time></trkpt><trkpt lat="41.189377335708464" lon="14.97844732276531"><ele>216.0</ele><time>2026-04-16T16:28:00Z</time></trkpt><trkpt lat="41.18927992056867" lon="14.978465963904886"><ele>216.0</ele><time>2026-04-16T16:28:03Z</time></trkpt><trkpt lat="41.18918207235443" lon="14.978640728250289"><ele>216.0</ele><time>2026-04-16T16:28:05Z</time></trkpt><trkpt lat="41.189139819774255" lon="14.978769817915525"><ele>216.0</ele><time>2026-04-16T16:28:06Z</time></trkpt><trkpt lat="41.189101680360416" lon="14.978904032440292"><ele>216.0</ele><time>2026-04-16T16:28:07Z</time></trkpt><trkpt lat="41.189054069724385" lon="14.979034642327248"><ele>216.0</ele><time>2026-04-16T16:28:08Z</time></trkpt><trkpt lat="41.18901110204814" lon="14.979165661272912"><ele>216.00000000000003</ele><time>2026-04-16T16:28:09Z</time></trkpt><trkpt lat="41.18897410541982" lon="14.979290043086019"><ele>216.00000000000003</ele><time>2026-04-16T16:28:10Z</time></trkpt><trkpt lat="41.18892743895271" lon="14.97940233228717"><ele>216.0</ele><time>2026-04-16T16:28:11Z</time></trkpt><trkpt lat="41.18888426182431" lon="14.979519913005552"><ele>216.0</ele><time>2026-04-16T16:28:12Z</time></trkpt><trkpt lat="41.188839646746956" lon="14.979620589450134"><ele>215.8</ele><time>2026-04-16T16:28:13Z</time></trkpt><trkpt lat="41.18879169373181" lon="14.979737192787825"><ele>215.60000000000002</ele><time>2026-04-16T16:28:14Z</time></trkpt><trkpt lat="41.188743339606084" lon="14.979847418282523"><ele>215.4</ele><time>2026-04-16T16:28:15Z</time></trkpt><trkpt lat="41.18869315891563" lon="14.979998329290535"><ele>215.2</ele><time>2026-04-16T16:28:16Z</time></trkpt><trkpt lat="41.188634171662535" lon="14.980144335144375"><ele>215.0</ele><time>2026-04-16T16:28:17Z</time></trkpt><trkpt lat="41.18857447632704" lon="14.980301371164009"><ele>215.5</ele><time>2026-04-16T16:28:18Z</time></trkpt><trkpt lat="41.18851163739607" lon="14.980458019052886"><ele>216.0</ele><time>2026-04-16T16:28:19Z</time></trkpt><trkpt lat="41.18843687709271" lon="14.980622316945166"><ele>216.5</ele><time>2026-04-16T16:28:20Z</time></trkpt><trkpt lat="41.18835592358642" lon="14.980791271121943"><ele>217.0</ele><time>2026-04-16T16:28:20.999Z</time></trkpt><trkpt lat="41.18828528294448" lon="14.980961079773122"><ele>217.66666666666666</ele><time>2026-04-16T16:28:21.999Z</time></trkpt><trkpt lat="41.18821302888531" lon="14.981134227598991"><ele>218.33333333333331</ele><time>2026-04-16T16:28:22.999Z</time></trkpt><trkpt lat="41.188140906699594" lon="14.981318489139326"><ele>219.0</ele><time>2026-04-16T16:28:23.999Z</time></trkpt><trkpt lat="41.188066237132794" lon="14.981525401776919"><ele>220.0</ele><time>2026-04-16T16:28:24.999Z</time></trkpt><trkpt lat="41.187994442505605" lon="14.981716805135402"><ele>221.0</ele><time>2026-04-16T16:28:25.999Z</time></trkpt><trkpt lat="41.18792543094561" lon="14.981901471536792"><ele>222.0</ele><time>2026-04-16T16:28:26.999Z</time></trkpt><trkpt lat="41.18785221949597" lon="14.98209602794205"><ele>222.0</ele><time>2026-04-16T16:28:27.999Z</time></trkpt><trkpt lat="41.18777237646071" lon="14.982263656670158"><ele>222.0</ele><time>2026-04-16T16:28:28.999Z</time></trkpt><trkpt lat="41.18773028583714" lon="14.98242847413407"><ele>222.0</ele><time>2026-04-16T16:28:29.999Z</time></trkpt><trkpt lat="41.18765629294869" lon="14.982578294501913"><ele>222.0</ele><time>2026-04-16T16:28:30.999Z</time></trkpt><trkpt lat="41.18761527514049" lon="14.982724447816182"><ele>223.25</ele><time>2026-04-16T16:28:31.999Z</time></trkpt><trkpt lat="41.18756829685566" lon="14.982870440712373"><ele>224.5</ele><time>2026-04-16T16:28:32.999Z</time></trkpt><trkpt lat="41.18752943409444" lon="14.983016699325027"><ele>225.75</ele><time>2026-04-16T16:28:33.999Z</time></trkpt><trkpt lat="41.1875636638391" lon="14.983174326625656"><ele>227.0</ele><time>2026-04-16T16:28:34.999Z</time></trkpt><trkpt lat="41.18759132988524" lon="14.98333556971536"><ele>228.0</ele><time>2026-04-16T16:28:35.999Z</time></trkpt><trkpt lat="41.18762391026198" lon="14.983496611980193"><ele>229.0</ele><time>2026-04-16T16:28:36.999Z</time></trkpt><trkpt lat="41.18766183077773" lon="14.983652802318238"><ele>230.0</ele><time>2026-04-16T16:28:37.999Z</time></trkpt><trkpt lat="41.187677575752616" lon="14.983800685917123"><ele>231.0</ele><time>2026-04-16T16:28:38.999Z</time></trkpt><trkpt lat="41.1876945299699" lon="14.983905826356963"><ele>232.0</ele><time>2026-04-16T16:28:39.999Z</time></trkpt><trkpt lat="41.187675792120004" lon="14.984015858256166"><ele>231.99999999999997</ele><time>2026-04-16T16:28:42.999Z</time></trkpt><trkpt lat="41.187631218432564" lon="14.984112227386877"><ele>232.0</ele><time>2026-04-16T16:28:44.999Z</time></trkpt><trkpt lat="41.187549514168936" lon="14.984224149137502"><ele>232.0</ele><time>2026-04-16T16:28:46.999Z</time></trkpt><trkpt lat="41.187473583679306" lon="14.984266618861062"><ele>232.0</ele><time>2026-04-16T16:28:48.999Z</time></trkpt><trkpt lat="41.187536115095035" lon="14.984249309474247"><ele>231.99999999999997</ele><time>2026-04-16T16:28:53.999Z</time></trkpt><trkpt lat="41.18760896172711" lon="14.984173396633977"><ele>232.0</ele><time>2026-04-16T16:28:54.999Z</time></trkpt><trkpt lat="41.187655703008375" lon="14.984085640572824"><ele>232.0</ele><time>2026-04-16T16:28:55.999Z</time></trkpt><trkpt lat="41.18770164967103" lon="14.984015646983822"><ele>232.0</ele><time>2026-04-16T16:28:56.999Z</time></trkpt><trkpt lat="41.18783215780989" lon="14.98414563448503"><ele>232.0</ele><time>2026-04-16T16:29:00.999Z</time></trkpt><trkpt lat="41.18787514268327" lon="14.984207575854184"><ele>232.0</ele><time>2026-04-16T16:29:01.999Z</time></trkpt><trkpt lat="41.1879416155253" lon="14.984288739791433"><ele>232.0</ele><time>2026-04-16T16:29:02.999Z</time></trkpt><trkpt lat="41.18801170629396" lon="14.984349923473287"><ele>234.39999999999998</ele><time>2026-04-16T16:29:03.999Z</time></trkpt><trkpt lat="41.18806187545113" lon="14.98441212574091"><ele>236.79999999999998</ele><time>2026-04-16T16:29:04.999Z</time></trkpt><trkpt lat="41.188122129283435" lon="14.984495867429365"><ele>239.2</ele><time>2026-04-16T16:29:06.999Z</time></trkpt><trkpt lat="41.18807238793524" lon="14.984316324432534"><ele>241.6</ele><time>2026-04-16T16:29:20.999Z</time></trkpt><trkpt lat="41.18795004102679" lon="14.984270413264152"><ele>244.0</ele><time>2026-04-16T16:29:21.999Z</time></trkpt><trkpt lat="41.18788416778406" lon="14.984199894920671"><ele>244.0</ele><time>2026-04-16T16:29:22.999Z</time></trkpt><trkpt lat="41.187827820410305" lon="14.984110578995717"><ele>243.99999999999997</ele><time>2026-04-16T16:29:23.999Z</time></trkpt><trkpt lat="41.18778543289914" lon="14.984019268442069"><ele>243.99999999999997</ele><time>2026-04-16T16:29:24.999Z</time></trkpt><trkpt lat="41.18771790791656" lon="14.983957072928442"><ele>244.0</ele><time>2026-04-16T16:29:26.999Z</time></trkpt><trkpt lat="41.18760804630028" lon="14.984116173296238"><ele>244.0</ele><time>2026-04-16T16:29:30.998Z</time></trkpt><trkpt lat="41.18745851477118" lon="14.984296330599156"><ele>244.0</ele><time>2026-04-16T16:29:53Z</time></trkpt><trkpt lat="41.18737896694128" lon="14.984372343134511"><ele>244.0</ele><time>2026-04-16T16:29:54Z</time></trkpt><trkpt lat="41.18729089630245" lon="14.984456117733847"><ele>244.0</ele><time>2026-04-16T16:29:55Z</time></trkpt><trkpt lat="41.18718710609147" lon="14.98455289754089"><ele>244.0</ele><time>2026-04-16T16:29:56Z</time></trkpt><trkpt lat="41.18709423608849" lon="14.984661308815106"><ele>246.2</ele><time>2026-04-16T16:29:57Z</time></trkpt><trkpt lat="41.187034531220824" lon="14.984807795775215"><ele>248.39999999999998</ele><time>2026-04-16T16:29:58Z</time></trkpt><trkpt lat="41.18700103358672" lon="14.98495183957524"><ele>250.6</ele><time>2026-04-16T16:29:59Z</time></trkpt><trkpt lat="41.186957968887135" lon="14.985066301586444"><ele>252.8</ele><time>2026-04-16T16:30:00Z</time></trkpt><trkpt lat="41.186908743013916" lon="14.985130575939046"><ele>255.0</ele><time>2026-04-16T16:30:01Z</time></trkpt><trkpt lat="41.18681355514672" lon="14.985074909790539"><ele>255.0</ele><time>2026-04-16T16:30:02Z</time></trkpt><trkpt lat="41.186721473109756" lon="14.98504223665208"><ele>255.0</ele><time>2026-04-16T16:30:03Z</time></trkpt><trkpt lat="41.18662722085457" lon="14.985032956029372"><ele>255.0</ele><time>2026-04-16T16:30:04Z</time></trkpt><trkpt lat="41.18653895613734" lon="14.984996015988223"><ele>255.0</ele><time>2026-04-16T16:30:05Z</time></trkpt><trkpt lat="41.18642983845598" lon="14.984964128645855"><ele>255.0</ele><time>2026-04-16T16:30:06Z</time></trkpt><trkpt lat="41.186337489610914" lon="14.98490075692092"><ele>258.6</ele><time>2026-04-16T16:30:07Z</time></trkpt><trkpt lat="41.186261395909185" lon="14.98486208892616"><ele>262.2</ele><time>2026-04-16T16:30:08Z</time></trkpt><trkpt lat="41.186161390633266" lon="14.98483172090107"><ele>265.8</ele><time>2026-04-16T16:30:09Z</time></trkpt><trkpt lat="41.18605505119921" lon="14.98482342108018"><ele>269.4</ele><time>2026-04-16T16:30:10Z</time></trkpt><trkpt lat="41.185981398490384" lon="14.984855191238355"><ele>273.0</ele><time>2026-04-16T16:30:11Z</time></trkpt><trkpt lat="41.18595055176389" lon="14.984997726972976"><ele>276.2</ele><time>2026-04-16T16:30:13Z</time></trkpt><trkpt lat="41.18591578950235" lon="14.985068064565809"><ele>279.4</ele><time>2026-04-16T16:30:14Z</time></trkpt><trkpt lat="41.185996414048645" lon="14.98523579090616"><ele>282.59999999999997</ele><time>2026-04-16T16:30:15Z</time></trkpt><trkpt lat="41.18602494229344" lon="14.985343855970253"><ele>285.8</ele><time>2026-04-16T16:30:16Z</time></trkpt><trkpt lat="41.18605245895556" lon="14.985464749816353"><ele>289.0</ele><time>2026-04-16T16:30:17Z</time></trkpt><trkpt lat="41.1860622218424" lon="14.98556424433905"><ele>289.0</ele><time>2026-04-16T16:30:18Z</time></trkpt><trkpt lat="41.186030807380895" lon="14.985688891446834"><ele>289.0</ele><time>2026-04-16T16:30:19Z</time></trkpt><trkpt lat="41.18604335689148" lon="14.985801583719391"><ele>289.0</ele><time>2026-04-16T16:30:20Z</time></trkpt><trkpt lat="41.18604674272812" lon="14.985916164094997"><ele>289.0</ele><time>2026-04-16T16:30:21Z</time></trkpt><trkpt lat="41.186034858037644" lon="14.986027954069147"><ele>289.0</ele><time>2026-04-16T16:30:22Z</time></trkpt><trkpt lat="41.186002103161734" lon="14.986143520361486"><ele>289.0</ele><time>2026-04-16T16:30:22.999Z</time></trkpt><trkpt lat="41.18595007662887" lon="14.986241564721526"><ele>292.0</ele><time>2026-04-16T16:30:23.999Z</time></trkpt><trkpt lat="41.185883722864176" lon="14.986270695080034"><ele>295.0</ele><time>2026-04-16T16:30:24.999Z</time></trkpt><trkpt lat="41.18581082124675" lon="14.98627619992375"><ele>298.0</ele><time>2026-04-16T16:30:25.999Z</time></trkpt><trkpt lat="41.18572697273275" lon="14.986307421582339"><ele>301.0</ele><time>2026-04-16T16:30:26.999Z</time></trkpt><trkpt lat="41.185620149238126" lon="14.986376452040556"><ele>304.0</ele><time>2026-04-16T16:30:27.999Z</time></trkpt><trkpt lat="41.185515056342965" lon="14.986436131243208"><ele>306.25</ele><time>2026-04-16T16:30:28.999Z</time></trkpt><trkpt lat="41.18541863905705" lon="14.986520500465879"><ele>308.5</ele><time>2026-04-16T16:30:29.999Z</time></trkpt><trkpt lat="41.18533290852656" lon="14.986622579767834"><ele>310.75</ele><time>2026-04-16T16:30:30.999Z</time></trkpt><trkpt lat="41.185219681035015" lon="14.986702740337153"><ele>313.0</ele><time>2026-04-16T16:30:31.999Z</time></trkpt><trkpt lat="41.18509318947511" lon="14.986801824572309"><ele>316.5</ele><time>2026-04-16T16:30:32.999Z</time></trkpt><trkpt lat="41.184949499874286" lon="14.986888562580875"><ele>320.0</ele><time>2026-04-16T16:30:33.999Z</time></trkpt><trkpt lat="41.18482791060934" lon="14.986976230748981"><ele>323.5</ele><time>2026-04-16T16:30:34.999Z</time></trkpt><trkpt lat="41.184707241974074" lon="14.987063235128527"><ele>327.0</ele><time>2026-04-16T16:30:35.999Z</time></trkpt><trkpt lat="41.184598235958255" lon="14.987141830533309"><ele>330.25</ele><time>2026-04-16T16:30:36.999Z</time></trkpt><trkpt lat="41.184506078836804" lon="14.987235711978327"><ele>333.5</ele><time>2026-04-16T16:30:37.999Z</time></trkpt><trkpt lat="41.18440962524054" lon="14.987327012857119"><ele>336.75</ele><time>2026-04-16T16:30:38.999Z</time></trkpt><trkpt lat="41.184339979534585" lon="14.987464075276323"><ele>340.0</ele><time>2026-04-16T16:30:39.999Z</time></trkpt><trkpt lat="41.18429088483824" lon="14.987588434256287"><ele>344.25</ele><time>2026-04-16T16:30:40.999Z</time></trkpt><trkpt lat="41.18426373271928" lon="14.98773067727467"><ele>348.5</ele><time>2026-04-16T16:30:41.999Z</time></trkpt><trkpt lat="41.18424269041142" lon="14.987882520246007"><ele>352.75</ele><time>2026-04-16T16:30:42.999Z</time></trkpt><trkpt lat="41.184190844622755" lon="14.988029910912466"><ele>357.0</ele><time>2026-04-16T16:30:43.999Z</time></trkpt><trkpt lat="41.1841380807417" lon="14.988163419572919"><ele>357.0</ele><time>2026-04-16T16:30:44.999Z</time></trkpt><trkpt lat="41.18407608779651" lon="14.988291146585903"><ele>357.0</ele><time>2026-04-16T16:30:45.999Z</time></trkpt><trkpt lat="41.184006050662774" lon="14.988411574711241"><ele>357.0</ele><time>2026-04-16T16:30:46.999Z</time></trkpt><trkpt lat="41.18392491297026" lon="14.988509420093749"><ele>357.0</ele><time>2026-04-16T16:30:47.999Z</time></trkpt><trkpt lat="41.1838498674612" lon="14.988620629906066"><ele>361.25</ele><time>2026-04-16T16:30:48.999Z</time></trkpt><trkpt lat="41.18377721849784" lon="14.988744828492806"><ele>365.5</ele><time>2026-04-16T16:30:49.999Z</time></trkpt><trkpt lat="41.18371270197052" lon="14.988876773081495"><ele>369.75</ele><time>2026-04-16T16:30:50.999Z</time></trkpt><trkpt lat="41.18367514363141" lon="14.989009814072041"><ele>374.0</ele><time>2026-04-16T16:30:51.999Z</time></trkpt><trkpt lat="41.18361145510121" lon="14.989130048018133"><ele>377.5</ele><time>2026-04-16T16:30:52.999Z</time></trkpt><trkpt lat="41.183558933435506" lon="14.989278806124247"><ele>381.0</ele><time>2026-04-16T16:30:53.999Z</time></trkpt><trkpt lat="41.183510418383996" lon="14.989435760928501"><ele>384.5</ele><time>2026-04-16T16:30:54.999Z</time></trkpt><trkpt lat="41.18346219832907" lon="14.989581138064848"><ele>388.0</ele><time>2026-04-16T16:30:55.999Z</time></trkpt><trkpt lat="41.1834161802881" lon="14.989744115292972"><ele>388.0</ele><time>2026-04-16T16:30:56.999Z</time></trkpt><trkpt lat="41.18334580764551" lon="14.989898715712132"><ele>388.0</ele><time>2026-04-16T16:30:57.999Z</time></trkpt><trkpt lat="41.1832783516443" lon="14.990045361724432"><ele>388.0</ele><time>2026-04-16T16:30:58.999Z</time></trkpt><trkpt lat="41.18322834627709" lon="14.990215189448634"><ele>388.0</ele><time>2026-04-16T16:30:59.999Z</time></trkpt><trkpt lat="41.18318660054079" lon="14.990395456499755"><ele>392.0</ele><time>2026-04-16T16:31:00.999Z</time></trkpt><trkpt lat="41.183138670155" lon="14.990567037293555"><ele>396.0</ele><time>2026-04-16T16:31:01.999Z</time></trkpt><trkpt lat="41.18308098305724" lon="14.9907373838978"><ele>400.0</ele><time>2026-04-16T16:31:02.999Z</time></trkpt><trkpt lat="41.18301729785795" lon="14.990905151591727"><ele>404.0</ele><time>2026-04-16T16:31:03.999Z</time></trkpt><trkpt lat="41.18295186453957" lon="14.991072126009525"><ele>404.0</ele><time>2026-04-16T16:31:04.999Z</time></trkpt><trkpt lat="41.18290707295493" lon="14.991227231862883"><ele>404.0</ele><time>2026-04-16T16:31:05.999Z</time></trkpt><trkpt lat="41.18288346843225" lon="14.991384233223343"><ele>404.0</ele><time>2026-04-16T16:31:06.999Z</time></trkpt><trkpt lat="41.18287258319553" lon="14.991518419654936"><ele>404.0</ele><time>2026-04-16T16:31:07.999Z</time></trkpt><trkpt lat="41.182885911053354" lon="14.991637957727098"><ele>404.0</ele><time>2026-04-16T16:31:08.999Z</time></trkpt><trkpt lat="41.18290235923874" lon="14.991739705338183"><ele>399.0</ele><time>2026-04-16T16:31:09.999Z</time></trkpt><trkpt lat="41.18291316969418" lon="14.991893739803343"><ele>394.0</ele><time>2026-04-16T16:31:11.999Z</time></trkpt><trkpt lat="41.18292837419951" lon="14.992003432988914"><ele>389.0</ele><time>2026-04-16T16:31:12.999Z</time></trkpt><trkpt lat="41.18302334297653" lon="14.992131449798531"><ele>384.0</ele><time>2026-04-16T16:31:13.999Z</time></trkpt><trkpt lat="41.18308454787401" lon="14.992278521491519"><ele>384.0</ele><time>2026-04-16T16:31:14.999Z</time></trkpt><trkpt lat="41.18316216867456" lon="14.992438638770913"><ele>384.0</ele><time>2026-04-16T16:31:15.999Z</time></trkpt><trkpt lat="41.183231137224894" lon="14.992621437972021"><ele>384.0</ele><time>2026-04-16T16:31:16.999Z</time></trkpt><trkpt lat="41.18331629915461" lon="14.992796205401856"><ele>391.25</ele><time>2026-04-16T16:31:17.999Z</time></trkpt><trkpt lat="41.18341490811719" lon="14.992959742278218"><ele>398.5</ele><time>2026-04-16T16:31:18.999Z</time></trkpt><trkpt lat="41.183494685102666" lon="14.993119301404484"><ele>405.75</ele><time>2026-04-16T16:31:19.999Z</time></trkpt><trkpt lat="41.18354646534859" lon="14.993276265468214"><ele>413.0</ele><time>2026-04-16T16:31:20.999Z</time></trkpt><trkpt lat="41.1835484317292" lon="14.993430336622229"><ele>414.75</ele><time>2026-04-16T16:31:21.999Z</time></trkpt><trkpt lat="41.18347043866877" lon="14.993571117854811"><ele>416.5</ele><time>2026-04-16T16:31:22.999Z</time></trkpt><trkpt lat="41.183451275652914" lon="14.993714417442336"><ele>418.25</ele><time>2026-04-16T16:31:23.999Z</time></trkpt><trkpt lat="41.18346957558481" lon="14.99389016276041"><ele>420.0</ele><time>2026-04-16T16:31:24.999Z</time></trkpt><trkpt lat="41.183485279553395" lon="14.994069161913176"><ele>418.75</ele><time>2026-04-16T16:31:25.999Z</time></trkpt><trkpt lat="41.183508296276884" lon="14.994250373989058"><ele>417.5</ele><time>2026-04-16T16:31:26.999Z</time></trkpt><trkpt lat="41.1835317444966" lon="14.99443154032215"><ele>416.25</ele><time>2026-04-16T16:31:27.999Z</time></trkpt><trkpt lat="41.1835501827163" lon="14.99460285741113"><ele>415.0</ele><time>2026-04-16T16:31:28.999Z</time></trkpt><trkpt lat="41.1835894845953" lon="14.994745983678904"><ele>415.0</ele><time>2026-04-16T16:31:29.999Z</time></trkpt><trkpt lat="41.18363325371842" lon="14.994837516530872"><ele>415.0</ele><time>2026-04-16T16:31:30.999Z</time></trkpt><trkpt lat="41.183692898163414" lon="14.994888778370576"><ele>415.0</ele><time>2026-04-16T16:31:31.999Z</time></trkpt><trkpt lat="41.183801152687394" lon="14.994822618728648"><ele>415.0</ele><time>2026-04-16T16:31:32.998Z</time></trkpt><trkpt lat="41.183913302269765" lon="14.99479322519034"><ele>415.0</ele><time>2026-04-16T16:31:33.998Z</time></trkpt><trkpt lat="41.18402711249168" lon="14.994756381127617"><ele>413.75</ele><time>2026-04-16T16:31:34.998Z</time></trkpt><trkpt lat="41.18415291381919" lon="14.994790256194976"><ele>412.5</ele><time>2026-04-16T16:31:35.998Z</time></trkpt><trkpt lat="41.184261730700136" lon="14.99484716349912"><ele>411.25</ele><time>2026-04-16T16:31:36.998Z</time></trkpt><trkpt lat="41.18435875224585" lon="14.994961841232364"><ele>410.0</ele><time>2026-04-16T16:31:37.998Z</time></trkpt><trkpt lat="41.1844607180566" lon="14.995088954804332"><ele>410.0</ele><time>2026-04-16T16:31:38.998Z</time></trkpt><trkpt lat="41.184551204775396" lon="14.995179975773857"><ele>410.0</ele><time>2026-04-16T16:31:39.998Z</time></trkpt><trkpt lat="41.18463694405278" lon="14.995178654716803"><ele>410.0</ele><time>2026-04-16T16:31:40.998Z</time></trkpt><trkpt lat="41.18474462570363" lon="14.99512134437053"><ele>410.0</ele><time>2026-04-16T16:31:41.998Z</time></trkpt><trkpt lat="41.18484614044486" lon="14.995073239803997"><ele>410.0</ele><time>2026-04-16T16:31:42.998Z</time></trkpt><trkpt lat="41.18495309663187" lon="14.995010121240032"><ele>411.8</ele><time>2026-04-16T16:31:43.998Z</time></trkpt><trkpt lat="41.18502186867015" lon="14.995000375202105"><ele>413.6</ele><time>2026-04-16T16:31:44.998Z</time></trkpt><trkpt lat="41.18511386353491" lon="14.995050828665638"><ele>415.4</ele><time>2026-04-16T16:31:45.998Z</time></trkpt><trkpt lat="41.185218718218096" lon="14.995127364308244"><ele>417.2</ele><time>2026-04-16T16:31:46.998Z</time></trkpt><trkpt lat="41.18533550156232" lon="14.995237265855229"><ele>419.0</ele><time>2026-04-16T16:31:48Z</time></trkpt><trkpt lat="41.18545857418123" lon="14.995340015086747"><ele>419.0</ele><time>2026-04-16T16:31:49Z</time></trkpt><trkpt lat="41.185580023083425" lon="14.995431465750583"><ele>419.0</ele><time>2026-04-16T16:31:50Z</time></trkpt><trkpt lat="41.18570439899762" lon="14.995527296627237"><ele>419.0</ele><time>2026-04-16T16:31:51Z</time></trkpt><trkpt lat="41.18582594888868" lon="14.995612021335472"><ele>419.0</ele><time>2026-04-16T16:31:52Z</time></trkpt><trkpt lat="41.18592150554569" lon="14.995725620550822"><ele>420.75</ele><time>2026-04-16T16:31:53Z</time></trkpt><trkpt lat="41.18599854486466" lon="14.995854889103132"><ele>422.5</ele><time>2026-04-16T16:31:54Z</time></trkpt><trkpt lat="41.186052178478555" lon="14.996006122397404"><ele>424.25</ele><time>2026-04-16T16:31:55Z</time></trkpt><trkpt lat="41.186102042876996" lon="14.996155212360886"><ele>426.0</ele><time>2026-04-16T16:31:56Z</time></trkpt><trkpt lat="41.18615628679704" lon="14.996300327073051"><ele>426.0</ele><time>2026-04-16T16:31:57Z</time></trkpt><trkpt lat="41.18624535629339" lon="14.996381456679138"><ele>426.0</ele><time>2026-04-16T16:31:58Z</time></trkpt><trkpt lat="41.18632818010479" lon="14.996488959585434"><ele>426.0</ele><time>2026-04-16T16:31:59Z</time></trkpt><trkpt lat="41.18641226355527" lon="14.996606343187459"><ele>426.0</ele><time>2026-04-16T16:32:00Z</time></trkpt><trkpt lat="41.186487704116146" lon="14.996735572217066"><ele>428.5</ele><time>2026-04-16T16:32:01Z</time></trkpt><trkpt lat="41.18655156558365" lon="14.99688055159901"><ele>431.0</ele><time>2026-04-16T16:32:02Z</time></trkpt><trkpt lat="41.18662105250711" lon="14.997041116030553"><ele>433.5</ele><time>2026-04-16T16:32:03Z</time></trkpt><trkpt lat="41.18669296853292" lon="14.997208794666518"><ele>436.0</ele><time>2026-04-16T16:32:04Z</time></trkpt><trkpt lat="41.1867640461525" lon="14.997374660354094"><ele>436.75</ele><time>2026-04-16T16:32:05Z</time></trkpt><trkpt lat="41.186831788462115" lon="14.997540576916878"><ele>437.5</ele><time>2026-04-16T16:32:06Z</time></trkpt><trkpt lat="41.186902184987666" lon="14.997713520947128"><ele>438.25</ele><time>2026-04-16T16:32:07Z</time></trkpt><trkpt lat="41.18696679322266" lon="14.997879524219307"><ele>439.0</ele><time>2026-04-16T16:32:08Z</time></trkpt><trkpt lat="41.187028291744234" lon="14.998040103148242"><ele>439.0</ele><time>2026-04-16T16:32:09Z</time></trkpt><trkpt lat="41.187080659273995" lon="14.998195115683176"><ele>439.0</ele><time>2026-04-16T16:32:10Z</time></trkpt><trkpt lat="41.187112410413455" lon="14.998345620388923"><ele>439.0</ele><time>2026-04-16T16:32:11Z</time></trkpt><trkpt lat="41.18712844686653" lon="14.998488440711194"><ele>439.0</ele><time>2026-04-16T16:32:12Z</time></trkpt><trkpt lat="41.18713172510508" lon="14.998656469152065"><ele>439.5</ele><time>2026-04-16T16:32:13Z</time></trkpt><trkpt lat="41.18711897834923" lon="14.9988356524729"><ele>440.0</ele><time>2026-04-16T16:32:14Z</time></trkpt><trkpt lat="41.187122350956486" lon="14.999008360442168"><ele>440.5</ele><time>2026-04-16T16:32:15Z</time></trkpt><trkpt lat="41.18715911530502" lon="14.999149587699938"><ele>441.0</ele><time>2026-04-16T16:32:16Z</time></trkpt><trkpt lat="41.187227456855396" lon="14.999285305299999"><ele>441.0</ele><time>2026-04-16T16:32:17Z</time></trkpt><trkpt lat="41.187305450591836" lon="14.99941695252795"><ele>441.0</ele><time>2026-04-16T16:32:18Z</time></trkpt><trkpt lat="41.18739281354494" lon="14.999537322827448"><ele>441.0</ele><time>2026-04-16T16:32:19Z</time></trkpt><trkpt lat="41.18747891039588" lon="14.999669711378528"><ele>441.0</ele><time>2026-04-16T16:32:20Z</time></trkpt><trkpt lat="41.18756057837615" lon="14.999805453654789"><ele>444.75</ele><time>2026-04-16T16:32:21Z</time></trkpt><trkpt lat="41.18765756618663" lon="14.999952707685871"><ele>448.5</ele><time>2026-04-16T16:32:22Z</time></trkpt><trkpt lat="41.18773286937102" lon="15.000094975594381"><ele>452.25</ele><time>2026-04-16T16:32:23Z</time></trkpt><trkpt lat="41.187822416312784" lon="15.000242151992012"><ele>456.0</ele><time>2026-04-16T16:32:24Z</time></trkpt><trkpt lat="41.18790387886444" lon="15.000394782349554"><ele>456.0</ele><time>2026-04-16T16:32:25Z</time></trkpt><trkpt lat="41.18797295751489" lon="15.000554581880063"><ele>456.0</ele><time>2026-04-16T16:32:26Z</time></trkpt><trkpt lat="41.188038800109545" lon="15.000703309367"><ele>456.0</ele><time>2026-04-16T16:32:27Z</time></trkpt><trkpt lat="41.18810462494895" lon="15.00084408762971"><ele>456.0</ele><time>2026-04-16T16:32:28Z</time></trkpt><trkpt lat="41.18818385730713" lon="15.000957026485816"><ele>458.75</ele><time>2026-04-16T16:32:29Z</time></trkpt><trkpt lat="41.1882760119296" lon="15.001054035383188"><ele>461.5</ele><time>2026-04-16T16:32:30Z</time></trkpt><trkpt lat="41.188388628232495" lon="15.001142538880462"><ele>464.25</ele><time>2026-04-16T16:32:30.999Z</time></trkpt><trkpt lat="41.188506972733926" lon="15.001234055470855"><ele>467.0</ele><time>2026-04-16T16:32:31.999Z</time></trkpt><trkpt lat="41.18862763613859" lon="15.001338748245683"><ele>467.0</ele><time>2026-04-16T16:32:32.999Z</time></trkpt><trkpt lat="41.18874720534954" lon="15.00144288447288"><ele>467.0</ele><time>2026-04-16T16:32:33.999Z</time></trkpt><trkpt lat="41.188861659334336" lon="15.001547171699004"><ele>467.0</ele><time>2026-04-16T16:32:34.999Z</time></trkpt><trkpt lat="41.18898026004083" lon="15.00163576948385"><ele>467.0</ele><time>2026-04-16T16:32:35.999Z</time></trkpt><trkpt lat="41.18910289625072" lon="15.001705949332782"><ele>465.0</ele><time>2026-04-16T16:32:36.999Z</time></trkpt><trkpt lat="41.18923689128998" lon="15.001775535718393"><ele>463.0</ele><time>2026-04-16T16:32:37.999Z</time></trkpt><trkpt lat="41.1893767015357" lon="15.00184926084132"><ele>461.0</ele><time>2026-04-16T16:32:38.999Z</time></trkpt><trkpt lat="41.189496523783944" lon="15.001939919560138"><ele>459.0</ele><time>2026-04-16T16:32:39.999Z</time></trkpt><trkpt lat="41.18963644838214" lon="15.002032875563017"><ele>459.0</ele><time>2026-04-16T16:32:40.999Z</time></trkpt><trkpt lat="41.189766056064286" lon="15.002116449960246"><ele>459.0</ele><time>2026-04-16T16:32:41.999Z</time></trkpt><trkpt lat="41.18990116298614" lon="15.002190106691135"><ele>459.0</ele><time>2026-04-16T16:32:42.999Z</time></trkpt><trkpt lat="41.190033532583016" lon="15.002256269597234"><ele>459.0</ele><time>2026-04-16T16:32:43.999Z</time></trkpt><trkpt lat="41.190161980384445" lon="15.002336495189148"><ele>457.0</ele><time>2026-04-16T16:32:44.999Z</time></trkpt><trkpt lat="41.19028570992072" lon="15.002429680089586"><ele>455.0</ele><time>2026-04-16T16:32:45.999Z</time></trkpt><trkpt lat="41.1904090319605" lon="15.00252846762148"><ele>453.0</ele><time>2026-04-16T16:32:46.999Z</time></trkpt><trkpt lat="41.190527980389355" lon="15.002632238511636"><ele>451.0</ele><time>2026-04-16T16:32:47.999Z</time></trkpt><trkpt lat="41.19061547780302" lon="15.002768148422168"><ele>451.75</ele><time>2026-04-16T16:32:48.999Z</time></trkpt><trkpt lat="41.190720451200036" lon="15.002886470558025"><ele>452.5</ele><time>2026-04-16T16:32:49.999Z</time></trkpt><trkpt lat="41.190787240868836" lon="15.00305651743645"><ele>453.25</ele><time>2026-04-16T16:32:50.999Z</time></trkpt><trkpt lat="41.19085328697778" lon="15.003225805742375"><ele>454.0</ele><time>2026-04-16T16:32:51.999Z</time></trkpt><trkpt lat="41.19089375306108" lon="15.003381993171724"><ele>454.0</ele><time>2026-04-16T16:32:52.999Z</time></trkpt><trkpt lat="41.19089980893596" lon="15.003482163813201"><ele>454.0</ele><time>2026-04-16T16:32:53.999Z</time></trkpt><trkpt lat="41.19088676957555" lon="15.003578044409126"><ele>454.0</ele><time>2026-04-16T16:32:54.999Z</time></trkpt><trkpt lat="41.19082480934144" lon="15.003683834665752"><ele>454.0</ele><time>2026-04-16T16:32:55.999Z</time></trkpt><trkpt lat="41.19075475171495" lon="15.003793202724827"><ele>454.0</ele><time>2026-04-16T16:32:56.999Z</time></trkpt><trkpt lat="41.19069239834576" lon="15.003924008601675"><ele>452.75</ele><time>2026-04-16T16:32:57.999Z</time></trkpt><trkpt lat="41.190653925005115" lon="15.004076508672732"><ele>451.5</ele><time>2026-04-16T16:32:58.999Z</time></trkpt><trkpt lat="41.1906335299826" lon="15.004249220261812"><ele>450.25</ele><time>2026-04-16T16:32:59.999Z</time></trkpt><trkpt lat="41.190625737144906" lon="15.00443318989111"><ele>449.0</ele><time>2026-04-16T16:33:00.999Z</time></trkpt><trkpt lat="41.19061208689742" lon="15.004626839159897"><ele>449.0</ele><time>2026-04-16T16:33:01.999Z</time></trkpt><trkpt lat="41.1906000960697" lon="15.004834830444004"><ele>449.0</ele><time>2026-04-16T16:33:02.999Z</time></trkpt><trkpt lat="41.19058963285572" lon="15.005042289861358"><ele>449.0</ele><time>2026-04-16T16:33:03.999Z</time></trkpt><trkpt lat="41.190578435440315" lon="15.005254383267651"><ele>450.66666666666663</ele><time>2026-04-16T16:33:04.999Z</time></trkpt><trkpt lat="41.190552366373176" lon="15.00545107575721"><ele>452.33333333333337</ele><time>2026-04-16T16:33:05.999Z</time></trkpt><trkpt lat="41.190569319413214" lon="15.005652643264016"><ele>454.0</ele><time>2026-04-16T16:33:06.999Z</time></trkpt><trkpt lat="41.190623084245395" lon="15.005848182111398"><ele>454.6666666666667</ele><time>2026-04-16T16:33:07.999Z</time></trkpt><trkpt lat="41.190645382731546" lon="15.006052126569042"><ele>455.33333333333337</ele><time>2026-04-16T16:33:08.999Z</time></trkpt><trkpt lat="41.19068035123857" lon="15.006254512630399"><ele>456.0</ele><time>2026-04-16T16:33:09.999Z</time></trkpt><trkpt lat="41.190708836533624" lon="15.006447961818816"><ele>462.75</ele><time>2026-04-16T16:33:10.999Z</time></trkpt><trkpt lat="41.19072400677928" lon="15.006629047595071"><ele>469.5</ele><time>2026-04-16T16:33:11.999Z</time></trkpt><trkpt lat="41.190725205267924" lon="15.006794034164663"><ele>476.25</ele><time>2026-04-16T16:33:12.999Z</time></trkpt><trkpt lat="41.19070842491181" lon="15.006927777032711"><ele>483.0</ele><time>2026-04-16T16:33:13.999Z</time></trkpt><trkpt lat="41.19070121276943" lon="15.007053507800777"><ele>483.2</ele><time>2026-04-16T16:33:14.999Z</time></trkpt><trkpt lat="41.19073556976627" lon="15.007136914603711"><ele>483.4</ele><time>2026-04-16T16:33:15.999Z</time></trkpt><trkpt lat="41.190849582117345" lon="15.007206038480371"><ele>483.59999999999997</ele><time>2026-04-16T16:33:17.999Z</time></trkpt><trkpt lat="41.19091268367472" lon="15.007109258162806"><ele>483.79999999999995</ele><time>2026-04-16T16:33:18.999Z</time></trkpt><trkpt lat="41.190942442862344" lon="15.006985746255623"><ele>484.0</ele><time>2026-04-16T16:33:19.999Z</time></trkpt><trkpt lat="41.19095492976222" lon="15.00685409957689"><ele>484.0</ele><time>2026-04-16T16:33:20.999Z</time></trkpt><trkpt lat="41.19094885120109" lon="15.006705707113252"><ele>484.0</ele><time>2026-04-16T16:33:21.999Z</time></trkpt><trkpt lat="41.19094311188803" lon="15.006557138032766"><ele>484.0</ele><time>2026-04-16T16:33:22.999Z</time></trkpt><trkpt lat="41.190939419749" lon="15.00639958324732"><ele>484.0</ele><time>2026-04-16T16:33:23.999Z</time></trkpt><trkpt lat="41.19095066606033" lon="15.00626092897354"><ele>484.0</ele><time>2026-04-16T16:33:24.999Z</time></trkpt><trkpt lat="41.19101617861212" lon="15.006168138307332"><ele>483.79999999999995</ele><time>2026-04-16T16:33:25.999Z</time></trkpt><trkpt lat="41.191068793882124" lon="15.00609311153224"><ele>483.59999999999997</ele><time>2026-04-16T16:33:26.999Z</time></trkpt><trkpt lat="41.191167840053" lon="15.006129700515325"><ele>483.4</ele><time>2026-04-16T16:33:27.999Z</time></trkpt><trkpt lat="41.19125802356856" lon="15.00616743877298"><ele>483.2</ele><time>2026-04-16T16:33:28.999Z</time></trkpt><trkpt lat="41.191359389927726" lon="15.006205038920664"><ele>483.0</ele><time>2026-04-16T16:33:29.999Z</time></trkpt><trkpt lat="41.191424649049" lon="15.006274881539571"><ele>483.0</ele><time>2026-04-16T16:33:30.999Z</time></trkpt><trkpt lat="41.191450013092116" lon="15.006384165322237"><ele>482.99999999999994</ele><time>2026-04-16T16:33:31.999Z</time></trkpt><trkpt lat="41.19149444946705" lon="15.006518288923605"><ele>482.99999999999994</ele><time>2026-04-16T16:33:32.999Z</time></trkpt><trkpt lat="41.19153826469417" lon="15.006662926265223"><ele>483.0</ele><time>2026-04-16T16:33:33.999Z</time></trkpt><trkpt lat="41.191589804015486" lon="15.006822766184976"><ele>483.0</ele><time>2026-04-16T16:33:34.999Z</time></trkpt><trkpt lat="41.19165868152858" lon="15.006980259530636"><ele>486.25</ele><time>2026-04-16T16:33:35.999Z</time></trkpt><trkpt lat="41.19172039857596" lon="15.00715117897254"><ele>489.5</ele><time>2026-04-16T16:33:36.999Z</time></trkpt><trkpt lat="41.191783118192724" lon="15.007320992330754"><ele>492.75</ele><time>2026-04-16T16:33:37.999Z</time></trkpt><trkpt lat="41.19183912861896" lon="15.007484175869944"><ele>496.0</ele><time>2026-04-16T16:33:38.999Z</time></trkpt><trkpt lat="41.191905066743544" lon="15.007633868027588"><ele>496.0</ele><time>2026-04-16T16:33:39.999Z</time></trkpt><trkpt lat="41.192001331893984" lon="15.00774293262178"><ele>496.0</ele><time>2026-04-16T16:33:40.999Z</time></trkpt><trkpt lat="41.192116008899546" lon="15.007821824782756"><ele>496.0</ele><time>2026-04-16T16:33:41.999Z</time></trkpt><trkpt lat="41.19225479473322" lon="15.007872861559793"><ele>496.0</ele><time>2026-04-16T16:33:42.998Z</time></trkpt><trkpt lat="41.1923883977762" lon="15.007946167852262"><ele>496.0</ele><time>2026-04-16T16:33:43.998Z</time></trkpt><trkpt lat="41.19251263942025" lon="15.008040186880086"><ele>496.0</ele><time>2026-04-16T16:33:44.998Z</time></trkpt><trkpt lat="41.19263920018558" lon="15.008136942786644"><ele>496.0</ele><time>2026-04-16T16:33:45.998Z</time></trkpt><trkpt lat="41.19273091808968" lon="15.008249776083748"><ele>496.0</ele><time>2026-04-16T16:33:46.998Z</time></trkpt><trkpt lat="41.19281361239648" lon="15.008368947682188"><ele>500.5</ele><time>2026-04-16T16:33:47.998Z</time></trkpt><trkpt lat="41.19286799646789" lon="15.008507496405226"><ele>505.0</ele><time>2026-04-16T16:33:48.998Z</time></trkpt><trkpt lat="41.1929144651988" lon="15.008662699286832"><ele>509.5</ele><time>2026-04-16T16:33:49.998Z</time></trkpt><trkpt lat="41.19294792594099" lon="15.008826595780986"><ele>514.0</ele><time>2026-04-16T16:33:50.998Z</time></trkpt><trkpt lat="41.19298605415461" lon="15.008989161658125"><ele>517.0</ele><time>2026-04-16T16:33:51.998Z</time></trkpt><trkpt lat="41.1929759433476" lon="15.009183273965998"><ele>520.0</ele><time>2026-04-16T16:33:52.998Z</time></trkpt><trkpt lat="41.19295801142064" lon="15.009360867591427"><ele>523.0</ele><time>2026-04-16T16:33:54Z</time></trkpt><trkpt lat="41.19291470957788" lon="15.009520390781164"><ele>526.0</ele><time>2026-04-16T16:33:55Z</time></trkpt><trkpt lat="41.19285608603829" lon="15.009687273862838"><ele>526.0</ele><time>2026-04-16T16:33:56Z</time></trkpt><trkpt lat="41.19281401785303" lon="15.00987147974857"><ele>526.0</ele><time>2026-04-16T16:33:57Z</time></trkpt><trkpt lat="41.19276297476989" lon="15.010061689678844"><ele>526.0</ele><time>2026-04-16T16:33:58Z</time></trkpt><trkpt lat="41.19272098297608" lon="15.010253262852082"><ele>526.0</ele><time>2026-04-16T16:33:59Z</time></trkpt><trkpt lat="41.19268437818973" lon="15.01042872523603"><ele>528.0</ele><time>2026-04-16T16:34:00Z</time></trkpt><trkpt lat="41.192657046502624" lon="15.010651671509004"><ele>530.0</ele><time>2026-04-16T16:34:01Z</time></trkpt><trkpt lat="41.19261498607086" lon="15.010861468938698"><ele>532.0</ele><time>2026-04-16T16:34:02Z</time></trkpt><trkpt lat="41.19257429566565" lon="15.011081008676596"><ele>532.25</ele><time>2026-04-16T16:34:03Z</time></trkpt><trkpt lat="41.192530479352435" lon="15.011263455683732"><ele>532.5</ele><time>2026-04-16T16:34:04Z</time></trkpt><trkpt lat="41.19251283028395" lon="15.01145107637586"><ele>532.75</ele><time>2026-04-16T16:34:05Z</time></trkpt><trkpt lat="41.1925054700608" lon="15.011642529470658"><ele>533.0</ele><time>2026-04-16T16:34:06Z</time></trkpt><trkpt lat="41.19250227436022" lon="15.011816469609881"><ele>533.25</ele><time>2026-04-16T16:34:07Z</time></trkpt><trkpt lat="41.19249050934096" lon="15.011927506860337"><ele>533.5</ele><time>2026-04-16T16:34:09Z</time></trkpt><trkpt lat="41.192418627579876" lon="15.012060741290643"><ele>533.75</ele><time>2026-04-16T16:34:11Z</time></trkpt><trkpt lat="41.192307770532054" lon="15.012015444336312"><ele>534.0</ele><time>2026-04-16T16:34:12Z</time></trkpt><trkpt lat="41.19236504445354" lon="15.011729250300013"><ele>533.75</ele><time>2026-04-16T16:34:13Z</time></trkpt><trkpt lat="41.19238374819732" lon="15.011604940207755"><ele>533.5</ele><time>2026-04-16T16:34:14Z</time></trkpt><trkpt lat="41.19237359728995" lon="15.011459197316334"><ele>533.25</ele><time>2026-04-16T16:34:15Z</time></trkpt><trkpt lat="41.19238696154974" lon="15.01130073086654"><ele>533.0</ele><time>2026-04-16T16:34:16Z</time></trkpt><trkpt lat="41.192390292539045" lon="15.011127951819205"><ele>533.0</ele><time>2026-04-16T16:34:17Z</time></trkpt><trkpt lat="41.192386562699646" lon="15.010940313090336"><ele>533.0</ele><time>2026-04-16T16:34:18Z</time></trkpt><trkpt lat="41.19239501091903" lon="15.010784037111549"><ele>533.0</ele><time>2026-04-16T16:34:19Z</time></trkpt><trkpt lat="41.19237814823025" lon="15.010663930734106"><ele>533.0</ele><time>2026-04-16T16:34:20Z</time></trkpt><trkpt lat="41.19234585716647" lon="15.010590225872068"><ele>533.0</ele><time>2026-04-16T16:34:21Z</time></trkpt><trkpt lat="41.19226688805706" lon="15.010556923529434"><ele>530.8</ele><time>2026-04-16T16:34:22Z</time></trkpt><trkpt lat="41.19217561846694" lon="15.010594280749626"><ele>528.5999999999999</ele><time>2026-04-16T16:34:23Z</time></trkpt><trkpt lat="41.19209530666683" lon="15.010667692708767"><ele>526.4000000000001</ele><time>2026-04-16T16:34:24Z</time></trkpt><trkpt lat="41.19202804863461" lon="15.010772947765307"><ele>524.2</ele><time>2026-04-16T16:34:25Z</time></trkpt><trkpt lat="41.19197909839427" lon="15.010926457386262"><ele>522.0</ele><time>2026-04-16T16:34:26Z</time></trkpt><trkpt lat="41.19190773951637" lon="15.011062827549337"><ele>522.0</ele><time>2026-04-16T16:34:27Z</time></trkpt><trkpt lat="41.191852767616524" lon="15.011227034761182"><ele>522.0</ele><time>2026-04-16T16:34:28Z</time></trkpt><trkpt lat="41.191790031303434" lon="15.01137991765216"><ele>522.0</ele><time>2026-04-16T16:34:29Z</time></trkpt><trkpt lat="41.191725520492646" lon="15.011534033091408"><ele>522.0</ele><time>2026-04-16T16:34:30Z</time></trkpt><trkpt lat="41.19167730417028" lon="15.011706436872482"><ele>525.75</ele><time>2026-04-16T16:34:31Z</time></trkpt><trkpt lat="41.191656004483214" lon="15.01189019296384"><ele>529.5</ele><time>2026-04-16T16:34:32Z</time></trkpt><trkpt lat="41.191646048604085" lon="15.012058687989688"><ele>533.25</ele><time>2026-04-16T16:34:33Z</time></trkpt><trkpt lat="41.19165784017662" lon="15.012233171273564"><ele>537.0</ele><time>2026-04-16T16:34:34Z</time></trkpt><trkpt lat="41.19165059274616" lon="15.012405664478969"><ele>539.0</ele><time>2026-04-16T16:34:35Z</time></trkpt><trkpt lat="41.19165437361632" lon="15.01259006766922"><ele>541.0</ele><time>2026-04-16T16:34:36Z</time></trkpt><trkpt lat="41.191657616763" lon="15.012748244671968"><ele>543.0</ele><time>2026-04-16T16:34:37Z</time></trkpt><trkpt lat="41.19165633994008" lon="15.012908457924139"><ele>545.0</ele><time>2026-04-16T16:34:37.999Z</time></trkpt><trkpt lat="41.1916495158764" lon="15.01306207090896"><ele>545.0</ele><time>2026-04-16T16:34:38.999Z</time></trkpt><trkpt lat="41.19163967474639" lon="15.01321497939719"><ele>545.0</ele><time>2026-04-16T16:34:39.999Z</time></trkpt><trkpt lat="41.19162359108124" lon="15.013386278711131"><ele>545.0</ele><time>2026-04-16T16:34:40.999Z</time></trkpt><trkpt lat="41.19160318840429" lon="15.013584184084635"><ele>545.0</ele><time>2026-04-16T16:34:41.999Z</time></trkpt><trkpt lat="41.191584730068136" lon="15.013768389528757"><ele>546.25</ele><time>2026-04-16T16:34:42.999Z</time></trkpt><trkpt lat="41.19159448735542" lon="15.01392556348068"><ele>547.5</ele><time>2026-04-16T16:34:43.999Z</time></trkpt><trkpt lat="41.191613335404774" lon="15.014081239797717"><ele>548.75</ele><time>2026-04-16T16:34:44.999Z</time></trkpt><trkpt lat="41.19166096691547" lon="15.014225000256221"><ele>550.0</ele><time>2026-04-16T16:34:45.999Z</time></trkpt><trkpt lat="41.191731561166456" lon="15.014377205181612"><ele>550.25</ele><time>2026-04-16T16:34:46.999Z</time></trkpt><trkpt lat="41.1918336876825" lon="15.01449901119965"><ele>550.5</ele><time>2026-04-16T16:34:47.999Z</time></trkpt><trkpt lat="41.19192173934663" lon="15.01461934010041"><ele>550.75</ele><time>2026-04-16T16:34:48.999Z</time></trkpt><trkpt lat="41.191982631244066" lon="15.014763598899565"><ele>551.0</ele><time>2026-04-16T16:34:49.999Z</time></trkpt><trkpt lat="41.19200451486094" lon="15.014936297075122"><ele>548.25</ele><time>2026-04-16T16:34:50.999Z</time></trkpt><trkpt lat="41.19203449296299" lon="15.015105673250114"><ele>545.5</ele><time>2026-04-16T16:34:51.999Z</time></trkpt><trkpt lat="41.192072146071666" lon="15.01529348730264"><ele>542.75</ele><time>2026-04-16T16:34:52.999Z</time></trkpt><trkpt lat="41.19210960797232" lon="15.015497562284299"><ele>540.0</ele><time>2026-04-16T16:34:53.999Z</time></trkpt><trkpt lat="41.19217028980874" lon="15.0157064354056"><ele>537.25</ele><time>2026-04-16T16:34:54.999Z</time></trkpt><trkpt lat="41.19220090071752" lon="15.015894414116117"><ele>534.5</ele><time>2026-04-16T16:34:55.999Z</time></trkpt><trkpt lat="41.192227954512056" lon="15.016088134945807"><ele>531.75</ele><time>2026-04-16T16:34:56.999Z</time></trkpt><trkpt lat="41.192225850332264" lon="15.016273818231744"><ele>529.0</ele><time>2026-04-16T16:34:57.999Z</time></trkpt><trkpt lat="41.19220311133177" lon="15.01645479777614"><ele>528.3333333333334</ele><time>2026-04-16T16:34:58.999Z</time></trkpt><trkpt lat="41.19216488172982" lon="15.016653357805131"><ele>527.6666666666666</ele><time>2026-04-16T16:34:59.999Z</time></trkpt><trkpt lat="41.19212101289738" lon="15.016845016288316"><ele>527.0</ele><time>2026-04-16T16:35:00.999Z</time></trkpt><trkpt lat="41.1920803566979" lon="15.017040206946975"><ele>527.0</ele><time>2026-04-16T16:35:01.999Z</time></trkpt><trkpt lat="41.19204626178134" lon="15.017232196749719"><ele>527.0</ele><time>2026-04-16T16:35:02.999Z</time></trkpt><trkpt lat="41.19202035786334" lon="15.017435455822858"><ele>527.0</ele><time>2026-04-16T16:35:03.999Z</time></trkpt><trkpt lat="41.19201272730956" lon="15.017632285257863"><ele>529.0</ele><time>2026-04-16T16:35:04.999Z</time></trkpt><trkpt lat="41.1920184932408" lon="15.017826559683138"><ele>531.0</ele><time>2026-04-16T16:35:05.999Z</time></trkpt><trkpt lat="41.19202375996223" lon="15.018025252236603"><ele>533.0</ele><time>2026-04-16T16:35:06.999Z</time></trkpt><trkpt lat="41.192017782379885" lon="15.018220276075956"><ele>535.0</ele><time>2026-04-16T16:35:07.999Z</time></trkpt><trkpt lat="41.19199429727912" lon="15.018423527128352"><ele>536.0</ele><time>2026-04-16T16:35:08.999Z</time></trkpt><trkpt lat="41.19197019493763" lon="15.018642952976883"><ele>537.0</ele><time>2026-04-16T16:35:09.999Z</time></trkpt><trkpt lat="41.19194929008528" lon="15.018851389389472"><ele>538.0</ele><time>2026-04-16T16:35:10.999Z</time></trkpt><trkpt lat="41.191928896601844" lon="15.019054727110552"><ele>539.0</ele><time>2026-04-16T16:35:11.999Z</time></trkpt><trkpt lat="41.19190677211616" lon="15.019244596569761"><ele>540.0</ele><time>2026-04-16T16:35:12.999Z</time></trkpt><trkpt lat="41.19188526946523" lon="15.019422660255028"><ele>541.0</ele><time>2026-04-16T16:35:13.999Z</time></trkpt><trkpt lat="41.19186421871359" lon="15.019577282967957"><ele>542.0</ele><time>2026-04-16T16:35:14.999Z</time></trkpt><trkpt lat="41.1918526087258" lon="15.019731690934199"><ele>542.0</ele><time>2026-04-16T16:35:15.999Z</time></trkpt><trkpt lat="41.19186089896951" lon="15.019870459376698"><ele>542.0</ele><time>2026-04-16T16:35:16.999Z</time></trkpt><trkpt lat="41.19194639178394" lon="15.0200137940048"><ele>542.0</ele><time>2026-04-16T16:35:17.999Z</time></trkpt><trkpt lat="41.192013636450184" lon="15.020149312676143"><ele>542.0</ele><time>2026-04-16T16:35:18.999Z</time></trkpt><trkpt lat="41.19209586175214" lon="15.020299429227006"><ele>540.75</ele><time>2026-04-16T16:35:19.999Z</time></trkpt><trkpt lat="41.19216219499473" lon="15.02046896953308"><ele>539.5</ele><time>2026-04-16T16:35:20.999Z</time></trkpt><trkpt lat="41.192233321281535" lon="15.020624225814775"><ele>538.25</ele><time>2026-04-16T16:35:21.999Z</time></trkpt><trkpt lat="41.192286735610786" lon="15.020763782333683"><ele>537.0</ele><time>2026-04-16T16:35:22.999Z</time></trkpt><trkpt lat="41.19232771718525" lon="15.020905907473692"><ele>539.25</ele><time>2026-04-16T16:35:23.999Z</time></trkpt><trkpt lat="41.19234675064016" lon="15.021055855865123"><ele>541.5</ele><time>2026-04-16T16:35:24.999Z</time></trkpt><trkpt lat="41.192372002560404" lon="15.021224086947312"><ele>543.75</ele><time>2026-04-16T16:35:25.999Z</time></trkpt><trkpt lat="41.192402164397535" lon="15.021366981055765"><ele>546.0</ele><time>2026-04-16T16:35:26.999Z</time></trkpt><trkpt lat="41.192423478343464" lon="15.021530608403118"><ele>546.25</ele><time>2026-04-16T16:35:27.999Z</time></trkpt><trkpt lat="41.192437998004415" lon="15.021707244479598"><ele>546.5</ele><time>2026-04-16T16:35:28.999Z</time></trkpt><trkpt lat="41.19244470442383" lon="15.021889301904377"><ele>546.75</ele><time>2026-04-16T16:35:29.999Z</time></trkpt><trkpt lat="41.19244726899717" lon="15.02207164299527"><ele>547.0</ele><time>2026-04-16T16:35:30.999Z</time></trkpt><trkpt lat="41.19244558949802" lon="15.02225029989583"><ele>547.0</ele><time>2026-04-16T16:35:31.999Z</time></trkpt><trkpt lat="41.19246087203809" lon="15.022426958351357"><ele>547.0</ele><time>2026-04-16T16:35:32.999Z</time></trkpt><trkpt lat="41.192455717821844" lon="15.022609690669038"><ele>547.0</ele><time>2026-04-16T16:35:33.999Z</time></trkpt><trkpt lat="41.19245491910844" lon="15.022799778127903"><ele>547.0</ele><time>2026-04-16T16:35:34.999Z</time></trkpt><trkpt lat="41.1924500505784" lon="15.022984625061222"><ele>548.25</ele><time>2026-04-16T16:35:35.999Z</time></trkpt><trkpt lat="41.19244589079474" lon="15.023151634105394"><ele>549.5</ele><time>2026-04-16T16:35:36.999Z</time></trkpt><trkpt lat="41.192440509735036" lon="15.023323687573992"><ele>550.75</ele><time>2026-04-16T16:35:37.999Z</time></trkpt><trkpt lat="41.19244140185424" lon="15.023510482599203"><ele>552.0</ele><time>2026-04-16T16:35:38.999Z</time></trkpt><trkpt lat="41.19243981545911" lon="15.023697320888395"><ele>552.0</ele><time>2026-04-16T16:35:39.999Z</time></trkpt><trkpt lat="41.19244827217691" lon="15.023886559643723"><ele>552.0</ele><time>2026-04-16T16:35:40.999Z</time></trkpt><trkpt lat="41.192455422941194" lon="15.024060957383814"><ele>552.0</ele><time>2026-04-16T16:35:41.999Z</time></trkpt><trkpt lat="41.192474184067954" lon="15.024245930387211"><ele>552.0</ele><time>2026-04-16T16:35:42.999Z</time></trkpt><trkpt lat="41.192491611575434" lon="15.024424931356716"><ele>552.0</ele><time>2026-04-16T16:35:43.999Z</time></trkpt><trkpt lat="41.192502643896646" lon="15.02459985470862"><ele>552.0</ele><time>2026-04-16T16:35:44.999Z</time></trkpt><trkpt lat="41.192515882982335" lon="15.024757069743156"><ele>552.0</ele><time>2026-04-16T16:35:45.999Z</time></trkpt><trkpt lat="41.19252247148638" lon="15.02487519409057"><ele>552.0</ele><time>2026-04-16T16:35:46.999Z</time></trkpt><trkpt lat="41.19251963575342" lon="15.024996782767449"><ele>552.0</ele><time>2026-04-16T16:35:48.999Z</time></trkpt><trkpt lat="41.19241045440782" lon="15.024971991582529"><ele>548.75</ele><time>2026-04-16T16:35:50.998Z</time></trkpt><trkpt lat="41.192314643623675" lon="15.025016177133052"><ele>545.5</ele><time>2026-04-16T16:35:51.998Z</time></trkpt><trkpt lat="41.19219229167706" lon="15.025061440468225"><ele>542.25</ele><time>2026-04-16T16:35:52.998Z</time></trkpt><trkpt lat="41.1920619590121" lon="15.025077257585375"><ele>539.0</ele><time>2026-04-16T16:35:53.998Z</time></trkpt><trkpt lat="41.19194892805488" lon="15.025078262971045"><ele>539.0</ele><time>2026-04-16T16:35:54.998Z</time></trkpt><trkpt lat="41.191831551738055" lon="15.025079867769271"><ele>539.0</ele><time>2026-04-16T16:35:55.998Z</time></trkpt><trkpt lat="41.19171083057915" lon="15.025083225285366"><ele>539.0</ele><time>2026-04-16T16:35:56.998Z</time></trkpt><trkpt lat="41.19159306296809" lon="15.025070264782972"><ele>539.0</ele><time>2026-04-16T16:35:57.998Z</time></trkpt><trkpt lat="41.19147399031321" lon="15.025077720748667"><ele>533.8</ele><time>2026-04-16T16:35:58.998Z</time></trkpt><trkpt lat="41.19136575285074" lon="15.025079688035788"><ele>528.5999999999999</ele><time>2026-04-16T16:36:00Z</time></trkpt><trkpt lat="41.19126429581537" lon="15.025075593980757"><ele>523.4</ele><time>2026-04-16T16:36:01Z</time></trkpt><trkpt lat="41.19115692307539" lon="15.02508131197287"><ele>518.1999999999999</ele><time>2026-04-16T16:36:02Z</time></trkpt><trkpt lat="41.19106285049538" lon="15.02508966305026"><ele>513.0</ele><time>2026-04-16T16:36:03Z</time></trkpt><trkpt lat="41.19097047153616" lon="15.025073294918709"><ele>513.0</ele><time>2026-04-16T16:36:04Z</time></trkpt><trkpt lat="41.19088787253708" lon="15.02506893344591"><ele>513.0</ele><time>2026-04-16T16:36:05Z</time></trkpt><trkpt lat="41.19081358989229" lon="15.025052006734878"><ele>513.0</ele><time>2026-04-16T16:36:06Z</time></trkpt><trkpt lat="41.19073665405069" lon="15.025032748144977"><ele>513.0</ele><time>2026-04-16T16:36:07Z</time></trkpt><trkpt lat="41.190667529943184" lon="15.024972943307324"><ele>513.0</ele><time>2026-04-16T16:36:08Z</time></trkpt><trkpt lat="41.190603895582164" lon="15.024937089714214"><ele>513.0</ele><time>2026-04-16T16:36:09Z</time></trkpt><trkpt lat="41.19053806518076" lon="15.024931311149388"><ele>508.6666666666667</ele><time>2026-04-16T16:36:10Z</time></trkpt><trkpt lat="41.19047264576754" lon="15.024943790486045"><ele>504.33333333333337</ele><time>2026-04-16T16:36:11Z</time></trkpt><trkpt lat="41.190405501703474" lon="15.025018004736301"><ele>500.0</ele><time>2026-04-16T16:36:12Z</time></trkpt><trkpt lat="41.190346904591586" lon="15.025097462185855"><ele>495.6666666666667</ele><time>2026-04-16T16:36:13Z</time></trkpt><trkpt lat="41.19030569303662" lon="15.025180348291082"><ele>491.33333333333337</ele><time>2026-04-16T16:36:14Z</time></trkpt><trkpt lat="41.190274871611514" lon="15.025284451536693"><ele>487.0</ele><time>2026-04-16T16:36:15Z</time></trkpt><trkpt lat="41.190276522352605" lon="15.025407272068001"><ele>487.0</ele><time>2026-04-16T16:36:16Z</time></trkpt><trkpt lat="41.1902735668078" lon="15.02549445985584"><ele>487.00000000000006</ele><time>2026-04-16T16:36:17Z</time></trkpt><trkpt lat="41.19038065034587" lon="15.025600250165438"><ele>487.00000000000006</ele><time>2026-04-16T16:36:18Z</time></trkpt><trkpt lat="41.190446972737405" lon="15.025720965240804"><ele>487.0</ele><time>2026-04-16T16:36:19Z</time></trkpt><trkpt lat="41.19050332444163" lon="15.02584343795401"><ele>487.0</ele><time>2026-04-16T16:36:20Z</time></trkpt><trkpt lat="41.190533941902544" lon="15.02599035588592"><ele>486.40000000000003</ele><time>2026-04-16T16:36:21Z</time></trkpt><trkpt lat="41.190564805201774" lon="15.026124098430955"><ele>485.80000000000007</ele><time>2026-04-16T16:36:22Z</time></trkpt><trkpt lat="41.19058503231716" lon="15.02626359348711"><ele>485.2</ele><time>2026-04-16T16:36:23Z</time></trkpt><trkpt lat="41.190602888469165" lon="15.026410840622665"><ele>484.6</ele><time>2026-04-16T16:36:24Z</time></trkpt><trkpt lat="41.19062159054577" lon="15.026569807762897"><ele>484.0</ele><time>2026-04-16T16:36:25Z</time></trkpt><trkpt lat="41.190641100749296" lon="15.026721718288693"><ele>485.5</ele><time>2026-04-16T16:36:26Z</time></trkpt><trkpt lat="41.190660632271836" lon="15.026889935789004"><ele>487.0</ele><time>2026-04-16T16:36:27Z</time></trkpt><trkpt lat="41.190667948192775" lon="15.027039427395987"><ele>488.5</ele><time>2026-04-16T16:36:28Z</time></trkpt><trkpt lat="41.190658499096145" lon="15.027201040873214"><ele>490.0</ele><time>2026-04-16T16:36:29Z</time></trkpt><trkpt lat="41.19065130935724" lon="15.027342968299823"><ele>490.6</ele><time>2026-04-16T16:36:30Z</time></trkpt><trkpt lat="41.190650894831734" lon="15.027489684992425"><ele>491.2</ele><time>2026-04-16T16:36:31Z</time></trkpt><trkpt lat="41.190681142596006" lon="15.027615978895971"><ele>491.79999999999995</ele><time>2026-04-16T16:36:32Z</time></trkpt><trkpt lat="41.19071504348934" lon="15.027739857286035"><ele>492.4</ele><time>2026-04-16T16:36:33Z</time></trkpt><trkpt lat="41.190777324797374" lon="15.027856872686053"><ele>493.0</ele><time>2026-04-16T16:36:34Z</time></trkpt><trkpt lat="41.19083168253416" lon="15.027983514014158"><ele>497.83333333333337</ele><time>2026-04-16T16:36:35Z</time></trkpt><trkpt lat="41.190873030800326" lon="15.028100896420069"><ele>502.6666666666667</ele><time>2026-04-16T16:36:36Z</time></trkpt><trkpt lat="41.190908111971474" lon="15.028208873081736"><ele>507.5</ele><time>2026-04-16T16:36:37Z</time></trkpt><trkpt lat="41.19096248539946" lon="15.028289832375972"><ele>512.3333333333334</ele><time>2026-04-16T16:36:38Z</time></trkpt><trkpt lat="41.191008413587014" lon="15.028384209791966"><ele>517.1666666666666</ele><time>2026-04-16T16:36:39Z</time></trkpt><trkpt lat="41.191048986845765" lon="15.028451296964496"><ele>522.0</ele><time>2026-04-16T16:36:40Z</time></trkpt><trkpt lat="41.19110061064722" lon="15.02851205363305"><ele>522.0</ele><time>2026-04-16T16:36:42Z</time></trkpt><trkpt lat="41.19103118482026" lon="15.028548780584591"><ele>522.0</ele><time>2026-04-16T16:36:44Z</time></trkpt><trkpt lat="41.19094569797801" lon="15.028464599971874"><ele>522.0</ele><time>2026-04-16T16:36:46Z</time></trkpt><trkpt lat="41.190835181921884" lon="15.028366274256214"><ele>522.0</ele><time>2026-04-16T16:36:47.999Z</time></trkpt><trkpt lat="41.19075831464921" lon="15.0282565007901"><ele>522.0</ele><time>2026-04-16T16:36:48.999Z</time></trkpt><trkpt lat="41.19069296097182" lon="15.028124210307167"><ele>516.2</ele><time>2026-04-16T16:36:49.999Z</time></trkpt><trkpt lat="41.190632603676455" lon="15.028001509808512"><ele>510.40000000000003</ele><time>2026-04-16T16:36:50.999Z</time></trkpt><trkpt lat="41.19057799100285" lon="15.02791868974148"><ele>504.59999999999997</ele><time>2026-04-16T16:36:51.999Z</time></trkpt><trkpt lat="41.19050161992616" lon="15.027843429970703"><ele>498.79999999999995</ele><time>2026-04-16T16:36:52.999Z</time></trkpt><trkpt lat="41.19043069269843" lon="15.027756913135185"><ele>493.0</ele><time>2026-04-16T16:36:53.999Z</time></trkpt><trkpt lat="41.190337446591236" lon="15.027673785715692"><ele>493.0</ele><time>2026-04-16T16:36:54.999Z</time></trkpt><trkpt lat="41.19022736256077" lon="15.027599014939785"><ele>493.0</ele><time>2026-04-16T16:36:55.999Z</time></trkpt><trkpt lat="41.19010929848205" lon="15.027513418046672"><ele>493.0</ele><time>2026-04-16T16:36:56.999Z</time></trkpt><trkpt lat="41.18996897969254" lon="15.027432144442333"><ele>493.0</ele><time>2026-04-16T16:36:57.999Z</time></trkpt><trkpt lat="41.18983389220231" lon="15.027354816965483"><ele>488.25</ele><time>2026-04-16T16:36:58.999Z</time></trkpt><trkpt lat="41.18970773846508" lon="15.027295329336019"><ele>483.5</ele><time>2026-04-16T16:36:59.999Z</time></trkpt><trkpt lat="41.18958574290308" lon="15.027233355962341"><ele>478.75</ele><time>2026-04-16T16:37:00.999Z</time></trkpt><trkpt lat="41.18946220357516" lon="15.02716915857532"><ele>474.0</ele><time>2026-04-16T16:37:01.999Z</time></trkpt><trkpt lat="41.189335311626444" lon="15.027105132192212"><ele>474.0</ele><time>2026-04-16T16:37:02.999Z</time></trkpt><trkpt lat="41.18921548412628" lon="15.027040347339572"><ele>474.0</ele><time>2026-04-16T16:37:03.999Z</time></trkpt><trkpt lat="41.18910753974173" lon="15.026995513993446"><ele>474.0</ele><time>2026-04-16T16:37:04.999Z</time></trkpt><trkpt lat="41.18899541006709" lon="15.026939575920514"><ele>474.0</ele><time>2026-04-16T16:37:05.999Z</time></trkpt><trkpt lat="41.1888824791211" lon="15.026875589537783"><ele>473.2</ele><time>2026-04-16T16:37:06.999Z</time></trkpt><trkpt lat="41.18877024220092" lon="15.026804288852917"><ele>472.4</ele><time>2026-04-16T16:37:07.999Z</time></trkpt><trkpt lat="41.18865845271222" lon="15.02675288498481"><ele>471.6</ele><time>2026-04-16T16:37:08.999Z</time></trkpt><trkpt lat="41.188563095402266" lon="15.026737930007549"><ele>470.8</ele><time>2026-04-16T16:37:09.999Z</time></trkpt><trkpt lat="41.18847900260659" lon="15.026706735871759"><ele>470.0</ele><time>2026-04-16T16:37:10.999Z</time></trkpt><trkpt lat="41.18840928570063" lon="15.026651156354356"><ele>467.49999999999994</ele><time>2026-04-16T16:37:11.999Z</time></trkpt><trkpt lat="41.18834251636744" lon="15.026618124531176"><ele>465.0</ele><time>2026-04-16T16:37:12.999Z</time></trkpt><trkpt lat="41.18827810337308" lon="15.02658154731483"><ele>462.5</ele><time>2026-04-16T16:37:13.999Z</time></trkpt><trkpt lat="41.18821779303131" lon="15.026542236862062"><ele>460.0</ele><time>2026-04-16T16:37:14.999Z</time></trkpt><trkpt lat="41.1881153243636" lon="15.026466558934285"><ele>457.49999999999994</ele><time>2026-04-16T16:37:16.999Z</time></trkpt><trkpt lat="41.18805145505837" lon="15.0264194052203"><ele>455.0</ele><time>2026-04-16T16:37:17.999Z</time></trkpt><trkpt lat="41.18800301204346" lon="15.026329733315995"><ele>453.16666666666663</ele><time>2026-04-16T16:37:18.999Z</time></trkpt><trkpt lat="41.1879404742596" lon="15.026252907273749"><ele>451.3333333333333</ele><time>2026-04-16T16:37:19.999Z</time></trkpt><trkpt lat="41.18787438468574" lon="15.026184817845941"><ele>449.5</ele><time>2026-04-16T16:37:20.999Z</time></trkpt><trkpt lat="41.18781533953753" lon="15.02613077081852"><ele>447.66666666666663</ele><time>2026-04-16T16:37:21.999Z</time></trkpt><trkpt lat="41.18774888563871" lon="15.026076243732938"><ele>445.8333333333333</ele><time>2026-04-16T16:37:22.999Z</time></trkpt><trkpt lat="41.187665088254995" lon="15.026029752380616"><ele>444.0</ele><time>2026-04-16T16:37:23.999Z</time></trkpt><trkpt lat="41.18757293452815" lon="15.026000926610589"><ele>444.0</ele><time>2026-04-16T16:37:24.999Z</time></trkpt><trkpt lat="41.187489403444786" lon="15.02593599311873"><ele>444.0</ele><time>2026-04-16T16:37:25.999Z</time></trkpt><trkpt lat="41.187419286977295" lon="15.02590696123412"><ele>444.0</ele><time>2026-04-16T16:37:26.999Z</time></trkpt><trkpt lat="41.18734407615648" lon="15.025880853090877"><ele>444.0</ele><time>2026-04-16T16:37:27.999Z</time></trkpt><trkpt lat="41.187276417702996" lon="15.025858300265623"><ele>444.0</ele><time>2026-04-16T16:37:28.999Z</time></trkpt><trkpt lat="41.187156851693906" lon="15.025839698094922"><ele>444.0</ele><time>2026-04-16T16:37:30.999Z</time></trkpt><trkpt lat="41.18705367428799" lon="15.025775564487953"><ele>437.4</ele><time>2026-04-16T16:37:32.999Z</time></trkpt><trkpt lat="41.18696262166495" lon="15.025710967771452"><ele>430.79999999999995</ele><time>2026-04-16T16:37:34.999Z</time></trkpt><trkpt lat="41.18687173217198" lon="15.025641180677097"><ele>424.20000000000005</ele><time>2026-04-16T16:37:36.999Z</time></trkpt><trkpt lat="41.186768948055835" lon="15.025561000878167"><ele>417.6</ele><time>2026-04-16T16:37:38.999Z</time></trkpt><trkpt lat="41.186689487257716" lon="15.02549901503919"><ele>411.0</ele><time>2026-04-16T16:37:40.999Z</time></trkpt><trkpt lat="41.18658722797962" lon="15.025419244765931"><ele>411.0</ele><time>2026-04-16T16:37:42.999Z</time></trkpt><trkpt lat="41.186528866661966" lon="15.025376604513147"><ele>411.0</ele><time>2026-04-16T16:37:43.999Z</time></trkpt><trkpt lat="41.18646888270619" lon="15.025336731880511"><ele>411.0</ele><time>2026-04-16T16:37:44.999Z</time></trkpt><trkpt lat="41.186404477142275" lon="15.025324082780584"><ele>411.0</ele><time>2026-04-16T16:37:45.999Z</time></trkpt><trkpt lat="41.186351381971" lon="15.025273684481819"><ele>411.0</ele><time>2026-04-16T16:37:46.999Z</time></trkpt><trkpt lat="41.18623888533466" lon="15.025231105570075"><ele>411.0</ele><time>2026-04-16T16:37:48.999Z</time></trkpt><trkpt lat="41.186174956372206" lon="15.02520262476476"><ele>411.0</ele><time>2026-04-16T16:37:49.999Z</time></trkpt><trkpt lat="41.18611462678262" lon="15.02517569906068"><ele>408.0</ele><time>2026-04-16T16:37:50.999Z</time></trkpt><trkpt lat="41.186053869416284" lon="15.025148716802306"><ele>405.0</ele><time>2026-04-16T16:37:51.999Z</time></trkpt><trkpt lat="41.18599153332113" lon="15.025122756819176"><ele>402.0</ele><time>2026-04-16T16:37:52.999Z</time></trkpt><trkpt lat="41.1859273338061" lon="15.025094606742309"><ele>399.0</ele><time>2026-04-16T16:37:53.999Z</time></trkpt><trkpt lat="41.18586331009258" lon="15.025070518453225"><ele>396.0</ele><time>2026-04-16T16:37:54.999Z</time></trkpt><trkpt lat="41.18574224864465" lon="15.025031199553986"><ele>393.0</ele><time>2026-04-16T16:37:56.999Z</time></trkpt><trkpt lat="41.18562620535511" lon="15.02496737979363"><ele>388.3333333333333</ele><time>2026-04-16T16:37:58.999Z</time></trkpt><trkpt lat="41.18553834008498" lon="15.024928225564956"><ele>383.6666666666667</ele><time>2026-04-16T16:38:00.998Z</time></trkpt><trkpt lat="41.185423055883845" lon="15.024886477830245"><ele>379.0</ele><time>2026-04-16T16:38:02.998Z</time></trkpt><trkpt lat="41.18535126100708" lon="15.024852706140676"><ele>374.33333333333337</ele><time>2026-04-16T16:38:03.998Z</time></trkpt><trkpt lat="41.18528525419698" lon="15.024818285250415"><ele>369.6666666666667</ele><time>2026-04-16T16:38:04.998Z</time></trkpt><trkpt lat="41.18522401185859" lon="15.02479614870399"><ele>365.0</ele><time>2026-04-16T16:38:06Z</time></trkpt><trkpt lat="41.18515495659621" lon="15.024775565794558"><ele>365.0</ele><time>2026-04-16T16:38:07Z</time></trkpt><trkpt lat="41.185081629634176" lon="15.02476781085273"><ele>365.0</ele><time>2026-04-16T16:38:08Z</time></trkpt><trkpt lat="41.18501525858148" lon="15.024785415557295"><ele>365.0</ele><time>2026-04-16T16:38:09Z</time></trkpt><trkpt lat="41.18495299599208" lon="15.024805970300575"><ele>365.0</ele><time>2026-04-16T16:38:10Z</time></trkpt><trkpt lat="41.18484419060719" lon="15.024828701143198"><ele>365.0</ele><time>2026-04-16T16:38:12Z</time></trkpt><trkpt lat="41.18477120207242" lon="15.024843747407694"><ele>365.0</ele><time>2026-04-16T16:38:13Z</time></trkpt><trkpt lat="41.18470015956947" lon="15.024858392500283"><ele>361.42857142857144</ele><time>2026-04-16T16:38:14Z</time></trkpt><trkpt lat="41.18464254103908" lon="15.024910802480333"><ele>357.8571428571429</ele><time>2026-04-16T16:38:15Z</time></trkpt><trkpt lat="41.184575995221415" lon="15.024904709438598"><ele>354.28571428571433</ele><time>2026-04-16T16:38:16Z</time></trkpt><trkpt lat="41.184508362234894" lon="15.024921576037302"><ele>350.7142857142857</ele><time>2026-04-16T16:38:17Z</time></trkpt><trkpt lat="41.184446124144884" lon="15.024946892006172"><ele>347.1428571428571</ele><time>2026-04-16T16:38:18Z</time></trkpt><trkpt lat="41.18437185842136" lon="15.024958428305945"><ele>343.5714285714286</ele><time>2026-04-16T16:38:19Z</time></trkpt><trkpt lat="41.1843054565906" lon="15.024956907470367"><ele>340.0</ele><time>2026-04-16T16:38:20Z</time></trkpt><trkpt lat="41.18419284990705" lon="15.024937947835484"><ele>340.0</ele><time>2026-04-16T16:38:22Z</time></trkpt><trkpt lat="41.18410282353713" lon="15.024878096643556"><ele>340.0</ele><time>2026-04-16T16:38:24Z</time></trkpt><trkpt lat="41.18404217714136" lon="15.02484250213825"><ele>340.0</ele><time>2026-04-16T16:38:25Z</time></trkpt><trkpt lat="41.18397527407261" lon="15.024822568518049"><ele>340.0</ele><time>2026-04-16T16:38:26Z</time></trkpt><trkpt lat="41.18390718845874" lon="15.024792646283672"><ele>340.0</ele><time>2026-04-16T16:38:27Z</time></trkpt><trkpt lat="41.18382536098505" lon="15.024784200911611"><ele>340.0</ele><time>2026-04-16T16:38:28Z</time></trkpt><trkpt lat="41.18375714797122" lon="15.024779334687306"><ele>338.0</ele><time>2026-04-16T16:38:29Z</time></trkpt><trkpt lat="41.183666538395656" lon="15.024763206818575"><ele>336.0</ele><time>2026-04-16T16:38:31Z</time></trkpt><trkpt lat="41.18361547321999" lon="15.02471225940598"><ele>334.0</ele><time>2026-04-16T16:38:33Z</time></trkpt><trkpt lat="41.18355854728389" lon="15.024627863973347"><ele>332.0</ele><time>2026-04-16T16:38:35Z</time></trkpt><trkpt lat="41.18348622010509" lon="15.024548359388119"><ele>330.0</ele><time>2026-04-16T16:38:37Z</time></trkpt><trkpt lat="41.18340716743841" lon="15.02446461925243"><ele>328.0</ele><time>2026-04-16T16:38:39Z</time></trkpt><trkpt lat="41.183311572016684" lon="15.024444776234564"><ele>328.0</ele><time>2026-04-16T16:38:41Z</time></trkpt><trkpt lat="41.18322549496938" lon="15.02442528389489"><ele>328.0</ele><time>2026-04-16T16:38:43Z</time></trkpt><trkpt lat="41.18311404751463" lon="15.024395183609313"><ele>328.0</ele><time>2026-04-16T16:38:45Z</time></trkpt><trkpt lat="41.18304910470677" lon="15.024445617321101"><ele>328.0</ele><time>2026-04-16T16:38:48Z</time></trkpt><trkpt lat="41.183017133612076" lon="15.024541339170444"><ele>328.0</ele><time>2026-04-16T16:38:50Z</time></trkpt><trkpt lat="41.182976072736125" lon="15.024682603417066"><ele>328.79999999999995</ele><time>2026-04-16T16:38:52Z</time></trkpt><trkpt lat="41.18302258476962" lon="15.02482716741456"><ele>329.6</ele><time>2026-04-16T16:38:54Z</time></trkpt><trkpt lat="41.18307593367775" lon="15.024925612520981"><ele>330.4</ele><time>2026-04-16T16:38:55Z</time></trkpt><trkpt lat="41.183113274227786" lon="15.025044046597383"><ele>331.20000000000005</ele><time>2026-04-16T16:38:56Z</time></trkpt><trkpt lat="41.18308127594184" lon="15.025168386625628"><ele>332.0</ele><time>2026-04-16T16:38:57Z</time></trkpt><trkpt lat="41.18303853272947" lon="15.025266448501965"><ele>332.0</ele><time>2026-04-16T16:38:58Z</time></trkpt><trkpt lat="41.18296899367628" lon="15.025356009559923"><ele>332.0</ele><time>2026-04-16T16:38:59Z</time></trkpt><trkpt lat="41.18289581616666" lon="15.025480197287656"><ele>332.0</ele><time>2026-04-16T16:39:00Z</time></trkpt><trkpt lat="41.182858402019846" lon="15.025604854872535"><ele>332.0</ele><time>2026-04-16T16:39:00.999Z</time></trkpt><trkpt lat="41.18283370810676" lon="15.02573028566986"><ele>332.0</ele><time>2026-04-16T16:39:01.999Z</time></trkpt><trkpt lat="41.182794757845464" lon="15.025853774008175"><ele>334.8</ele><time>2026-04-16T16:39:02.999Z</time></trkpt><trkpt lat="41.18274059257298" lon="15.025935079859785"><ele>337.6</ele><time>2026-04-16T16:39:03.999Z</time></trkpt><trkpt lat="41.18266405332453" lon="15.025998241878721"><ele>340.40000000000003</ele><time>2026-04-16T16:39:04.999Z</time></trkpt><trkpt lat="41.18258189093598" lon="15.02603300280609"><ele>343.20000000000005</ele><time>2026-04-16T16:39:05.999Z</time></trkpt><trkpt lat="41.182432061150394" lon="15.026040660750887"><ele>346.0</ele><time>2026-04-16T16:39:07.999Z</time></trkpt><trkpt lat="41.182332179356365" lon="15.026038488701296"><ele>346.0</ele><time>2026-04-16T16:39:08.999Z</time></trkpt><trkpt lat="41.18223726364715" lon="15.026079158889697"><ele>346.0</ele><time>2026-04-16T16:39:09.999Z</time></trkpt><trkpt lat="41.1821623605552" lon="15.026102472344393"><ele>346.0</ele><time>2026-04-16T16:39:10.999Z</time></trkpt><trkpt lat="41.18202548392594" lon="15.026092585934126"><ele>346.0</ele><time>2026-04-16T16:39:12.999Z</time></trkpt><trkpt lat="41.18194762116413" lon="15.026078762816768"><ele>346.0</ele><time>2026-04-16T16:39:15.999Z</time></trkpt><trkpt lat="41.18188802372712" lon="15.02604925863736"><ele>346.0</ele><time>2026-04-16T16:39:21.999Z</time></trkpt><trkpt lat="41.18181780374561" lon="15.026075489157162"><ele>346.0</ele><time>2026-04-16T16:39:24.999Z</time></trkpt><trkpt lat="41.181749048411646" lon="15.02616655087674"><ele>346.0</ele><time>2026-04-16T16:39:25.999Z</time></trkpt><trkpt lat="41.18168724362672" lon="15.026184645115487"><ele>346.0</ele><time>2026-04-16T16:39:28.999Z</time></trkpt><trkpt lat="41.181357694195086" lon="15.026613173119632"><ele>351.6</ele><time>2026-04-16T16:39:30.999Z</time></trkpt><trkpt lat="41.18128414494108" lon="15.026655424391123"><ele>357.20000000000005</ele><time>2026-04-16T16:39:31.999Z</time></trkpt><trkpt lat="41.181210686775565" lon="15.026726161021456"><ele>362.79999999999995</ele><time>2026-04-16T16:39:32.999Z</time></trkpt><trkpt lat="41.18111181866399" lon="15.026783527418008"><ele>368.4</ele><time>2026-04-16T16:39:33.999Z</time></trkpt><trkpt lat="41.18101047741648" lon="15.026847387238936"><ele>374.0</ele><time>2026-04-16T16:39:34.999Z</time></trkpt><trkpt lat="41.18091982176146" lon="15.026914870569382"><ele>374.0</ele><time>2026-04-16T16:39:35.999Z</time></trkpt><trkpt lat="41.18083697765508" lon="15.027019483856382"><ele>374.0</ele><time>2026-04-16T16:39:36.999Z</time></trkpt><trkpt lat="41.18074116618613" lon="15.027111413148374"><ele>374.0</ele><time>2026-04-16T16:39:37.999Z</time></trkpt><trkpt lat="41.18065103958299" lon="15.027215784425893"><ele>374.0</ele><time>2026-04-16T16:39:38.999Z</time></trkpt><trkpt lat="41.180552302039224" lon="15.027316475729966"><ele>374.6</ele><time>2026-04-16T16:39:39.999Z</time></trkpt><trkpt lat="41.18046202608449" lon="15.027429369491758"><ele>375.2</ele><time>2026-04-16T16:39:40.999Z</time></trkpt><trkpt lat="41.18037070161259" lon="15.027518948633405"><ele>375.8</ele><time>2026-04-16T16:39:41.999Z</time></trkpt><trkpt lat="41.18028866899371" lon="15.027597299885743"><ele>376.40000000000003</ele><time>2026-04-16T16:39:42.999Z</time></trkpt><trkpt lat="41.18023290984396" lon="15.027657949070857"><ele>377.0</ele><time>2026-04-16T16:39:43.999Z</time></trkpt><trkpt lat="41.180166649189125" lon="15.027749854433406"><ele>381.6</ele><time>2026-04-16T16:39:44.999Z</time></trkpt><trkpt lat="41.180079330960126" lon="15.027801568407297"><ele>386.20000000000005</ele><time>2026-04-16T16:39:45.999Z</time></trkpt><trkpt lat="41.17999748473643" lon="15.027884468096161"><ele>390.8</ele><time>2026-04-16T16:39:46.999Z</time></trkpt><trkpt lat="41.179898271288" lon="15.027966292525786"><ele>395.4</ele><time>2026-04-16T16:39:47.999Z</time></trkpt><trkpt lat="41.179804023979614" lon="15.02804517239708"><ele>400.0</ele><time>2026-04-16T16:39:48.999Z</time></trkpt><trkpt lat="41.179669172102486" lon="15.028014094975639"><ele>400.6</ele><time>2026-04-16T16:39:50.999Z</time></trkpt><trkpt lat="41.17954993190547" lon="15.028026010134631"><ele>401.2</ele><time>2026-04-16T16:39:51.999Z</time></trkpt><trkpt lat="41.179450070007675" lon="15.02805611857314"><ele>401.79999999999995</ele><time>2026-04-16T16:39:52.999Z</time></trkpt><trkpt lat="41.17934820980291" lon="15.028119562313918"><ele>402.4</ele><time>2026-04-16T16:39:53.999Z</time></trkpt><trkpt lat="41.179260444018034" lon="15.028207256849774"><ele>403.0</ele><time>2026-04-16T16:39:54.999Z</time></trkpt><trkpt lat="41.1791684620397" lon="15.028319755333218"><ele>403.5</ele><time>2026-04-16T16:39:55.999Z</time></trkpt><trkpt lat="41.1790712749056" lon="15.028423032945433"><ele>404.0</ele><time>2026-04-16T16:39:56.999Z</time></trkpt><trkpt lat="41.179018277558136" lon="15.028529993273768"><ele>404.5</ele><time>2026-04-16T16:39:57.999Z</time></trkpt><trkpt lat="41.17899384471752" lon="15.028672029476633"><ele>405.0</ele><time>2026-04-16T16:39:58.999Z</time></trkpt><trkpt lat="41.178943642741764" lon="15.028825886135158"><ele>405.0</ele><time>2026-04-16T16:39:59.999Z</time></trkpt><trkpt lat="41.178870200202816" lon="15.02897054903111"><ele>405.0</ele><time>2026-04-16T16:40:00.999Z</time></trkpt><trkpt lat="41.17879225361609" lon="15.029101900585932"><ele>405.0</ele><time>2026-04-16T16:40:01.999Z</time></trkpt><trkpt lat="41.1787246477281" lon="15.029241602624325"><ele>405.0</ele><time>2026-04-16T16:40:02.999Z</time></trkpt><trkpt lat="41.17869726778715" lon="15.029376975918257"><ele>407.4</ele><time>2026-04-16T16:40:03.999Z</time></trkpt><trkpt lat="41.17870117817224" lon="15.029514734662545"><ele>409.8</ele><time>2026-04-16T16:40:04.999Z</time></trkpt><trkpt lat="41.1787253349734" lon="15.029676512893543"><ele>412.20000000000005</ele><time>2026-04-16T16:40:05.999Z</time></trkpt><trkpt lat="41.17873395614858" lon="15.029829147322086"><ele>414.6</ele><time>2026-04-16T16:40:06.999Z</time></trkpt><trkpt lat="41.17873352464693" lon="15.029967693789745"><ele>417.0</ele><time>2026-04-16T16:40:07.999Z</time></trkpt><trkpt lat="41.178715213023196" lon="15.030132871521705"><ele>418.6</ele><time>2026-04-16T16:40:08.999Z</time></trkpt><trkpt lat="41.17871870492659" lon="15.03028826786323"><ele>420.20000000000005</ele><time>2026-04-16T16:40:09.999Z</time></trkpt><trkpt lat="41.17872343390098" lon="15.030449897439317"><ele>421.8</ele><time>2026-04-16T16:40:10.999Z</time></trkpt><trkpt lat="41.17874186131589" lon="15.030607224951272"><ele>423.4</ele><time>2026-04-16T16:40:12Z</time></trkpt><trkpt lat="41.178744321972296" lon="15.030722029873314"><ele>425.0</ele><time>2026-04-16T16:40:13Z</time></trkpt><trkpt lat="41.17871997020016" lon="15.030816202652405"><ele>428.6</ele><time>2026-04-16T16:40:14Z</time></trkpt><trkpt lat="41.17866375944428" lon="15.030898786210996"><ele>432.2</ele><time>2026-04-16T16:40:15Z</time></trkpt><trkpt lat="41.178600152661154" lon="15.030997241761584"><ele>435.79999999999995</ele><time>2026-04-16T16:40:16Z</time></trkpt><trkpt lat="41.17852711137631" lon="15.031079907899004"><ele>439.4</ele><time>2026-04-16T16:40:17Z</time></trkpt><trkpt lat="41.17845760870664" lon="15.031159837826428"><ele>443.0</ele><time>2026-04-16T16:40:18Z</time></trkpt><trkpt lat="41.17840277817784" lon="15.031272293926799"><ele>442.99999999999994</ele><time>2026-04-16T16:40:19Z</time></trkpt><trkpt lat="41.17835902595489" lon="15.031393826682107"><ele>443.0</ele><time>2026-04-16T16:40:21Z</time></trkpt><trkpt lat="41.17831272506883" lon="15.031461445705979"><ele>443.0</ele><time>2026-04-16T16:40:23Z</time></trkpt><trkpt lat="41.17828071989225" lon="15.031564709170254"><ele>443.0</ele><time>2026-04-16T16:40:25Z</time></trkpt><trkpt lat="41.17824525436429" lon="15.0316569040613"><ele>442.99999999999994</ele><time>2026-04-16T16:40:27Z</time></trkpt><trkpt lat="41.178219236959094" lon="15.031737169963964"><ele>443.0</ele><time>2026-04-16T16:40:28Z</time></trkpt><trkpt lat="41.17820372473699" lon="15.031820826434831"><ele>442.75</ele><time>2026-04-16T16:40:30Z</time></trkpt><trkpt lat="41.17809613754233" lon="15.032149217176663"><ele>442.5</ele><time>2026-04-16T16:40:38Z</time></trkpt><trkpt lat="41.178076193010696" lon="15.032242636788258"><ele>442.25</ele><time>2026-04-16T16:40:39Z</time></trkpt><trkpt lat="41.1780616404708" lon="15.032349810819357"><ele>442.0</ele><time>2026-04-16T16:40:40Z</time></trkpt><trkpt lat="41.178028407231714" lon="15.032481773162969"><ele>442.00000000000006</ele><time>2026-04-16T16:40:41Z</time></trkpt><trkpt lat="41.17805502824407" lon="15.032582626862675"><ele>442.0</ele><time>2026-04-16T16:40:42Z</time></trkpt><trkpt lat="41.17809716471521" lon="15.032684187551581"><ele>442.0</ele><time>2026-04-16T16:40:43Z</time></trkpt><trkpt lat="41.178161819101696" lon="15.032711947183834"><ele>442.0</ele><time>2026-04-16T16:40:45Z</time></trkpt><trkpt lat="41.17823607124048" lon="15.032708481316558"><ele>442.00000000000006</ele><time>2026-04-16T16:40:47Z</time></trkpt><trkpt lat="41.1782255229925" lon="15.032831457131016"><ele>442.0</ele><time>2026-04-16T16:40:50Z</time></trkpt><trkpt lat="41.17825521179786" lon="15.032932002840274"><ele>442.0</ele><time>2026-04-16T16:40:54Z</time></trkpt><trkpt lat="41.1782010962743" lon="15.033039760894392"><ele>442.00000000000006</ele><time>2026-04-16T16:40:57Z</time></trkpt><trkpt lat="41.17817463366287" lon="15.03311982218485"><ele>442.00000000000006</ele><time>2026-04-16T16:40:59Z</time></trkpt><trkpt lat="41.178091580737885" lon="15.033198744141506"><ele>442.0</ele><time>2026-04-16T16:41:01Z</time></trkpt><trkpt lat="41.17795763381975" lon="15.033283823595244"><ele>442.0</ele><time>2026-04-16T16:41:04Z</time></trkpt><trkpt lat="41.17785615551726" lon="15.033457184511871"><ele>447.5</ele><time>2026-04-16T16:41:05Z</time></trkpt><trkpt lat="41.177741930358096" lon="15.033625125238878"><ele>453.0</ele><time>2026-04-16T16:41:06Z</time></trkpt><trkpt lat="41.17764413185157" lon="15.03378326938661"><ele>458.5</ele><time>2026-04-16T16:41:07Z</time></trkpt><trkpt lat="41.177645156719564" lon="15.033919595350408"><ele>464.0</ele><time>2026-04-16T16:41:08Z</time></trkpt><trkpt lat="41.17762939732648" lon="15.03406906463229"><ele>466.75</ele><time>2026-04-16T16:41:08.999Z</time></trkpt><trkpt lat="41.17762492671458" lon="15.03421132608238"><ele>469.5</ele><time>2026-04-16T16:41:09.999Z</time></trkpt><trkpt lat="41.17761496564075" lon="15.034330132090227"><ele>472.25</ele><time>2026-04-16T16:41:10.999Z</time></trkpt><trkpt lat="41.177617367037804" lon="15.034498491987275"><ele>475.0</ele><time>2026-04-16T16:41:11.999Z</time></trkpt><trkpt lat="41.177625710647376" lon="15.034668484870801"><ele>475.0</ele><time>2026-04-16T16:41:12.999Z</time></trkpt><trkpt lat="41.17763682093846" lon="15.034820616243719"><ele>475.0</ele><time>2026-04-16T16:41:13.999Z</time></trkpt><trkpt lat="41.17764546913665" lon="15.034960346201988"><ele>475.0</ele><time>2026-04-16T16:41:14.999Z</time></trkpt><trkpt lat="41.17766580388169" lon="15.035076137169094"><ele>475.0</ele><time>2026-04-16T16:41:15.999Z</time></trkpt><trkpt lat="41.177728266943916" lon="15.035210072810377"><ele>475.0</ele><time>2026-04-16T16:41:17.999Z</time></trkpt><trkpt lat="41.17783511909478" lon="15.035256602061041"><ele>474.83333333333337</ele><time>2026-04-16T16:41:19.999Z</time></trkpt><trkpt lat="41.1779103695968" lon="15.03524928087946"><ele>474.6666666666667</ele><time>2026-04-16T16:41:20.999Z</time></trkpt><trkpt lat="41.17798895746948" lon="15.035218885881559"><ele>474.5</ele><time>2026-04-16T16:41:21.999Z</time></trkpt><trkpt lat="41.17810290894442" lon="15.035233897577198"><ele>474.33333333333337</ele><time>2026-04-16T16:41:23.999Z</time></trkpt><trkpt lat="41.17818099109908" lon="15.035230463073374"><ele>474.1666666666667</ele><time>2026-04-16T16:41:24.999Z</time></trkpt><trkpt lat="41.17827212050968" lon="15.035238173035784"><ele>474.0</ele><time>2026-04-16T16:41:25.999Z</time></trkpt><trkpt lat="41.17835419139125" lon="15.035248928897808"><ele>480.5</ele><time>2026-04-16T16:41:26.999Z</time></trkpt><trkpt lat="41.17845517269181" lon="15.035270032382861"><ele>487.0</ele><time>2026-04-16T16:41:27.999Z</time></trkpt><trkpt lat="41.17858411688599" lon="15.03530058936848"><ele>493.5</ele><time>2026-04-16T16:41:28.999Z</time></trkpt><trkpt lat="41.17871739694088" lon="15.035346182493383"><ele>500.0</ele><time>2026-04-16T16:41:29.999Z</time></trkpt><trkpt lat="41.178861254830345" lon="15.035351202611805"><ele>499.99999999999994</ele><time>2026-04-16T16:41:30.999Z</time></trkpt><trkpt lat="41.17892467669635" lon="15.03537274674617"><ele>500.0</ele><time>2026-04-16T16:41:31.999Z</time></trkpt><trkpt lat="41.17893913426503" lon="15.035510008750155"><ele>500.0</ele><time>2026-04-16T16:41:33.999Z</time></trkpt><trkpt lat="41.17890377863002" lon="15.035592890528534"><ele>500.0</ele><time>2026-04-16T16:41:34.999Z</time></trkpt><trkpt lat="41.178952222561584" lon="15.035671684499075"><ele>499.99999999999994</ele><time>2026-04-16T16:41:35.999Z</time></trkpt><trkpt lat="41.17902394045663" lon="15.035744992214594"><ele>500.0</ele><time>2026-04-16T16:41:36.999Z</time></trkpt><trkpt lat="41.17908193524561" lon="15.035793300373728"><ele>500.99999999999994</ele><time>2026-04-16T16:41:37.999Z</time></trkpt><trkpt lat="41.179125667547574" lon="15.035942106818045"><ele>502.0</ele><time>2026-04-16T16:41:39.999Z</time></trkpt><trkpt lat="41.179171060697406" lon="15.036015448209344"><ele>503.0</ele><time>2026-04-16T16:41:40.999Z</time></trkpt><trkpt lat="41.17920465393151" lon="15.036097324364018"><ele>504.0</ele><time>2026-04-16T16:41:41.999Z</time></trkpt><trkpt lat="41.179210260623385" lon="15.036210976063224"><ele>504.99999999999994</ele><time>2026-04-16T16:41:42.999Z</time></trkpt><trkpt lat="41.17921224902881" lon="15.036323230897885"><ele>506.0</ele><time>2026-04-16T16:41:43.999Z</time></trkpt><trkpt lat="41.179204641822245" lon="15.036450535558377"><ele>506.0</ele><time>2026-04-16T16:41:44.999Z</time></trkpt><trkpt lat="41.179196816304426" lon="15.036597695985302"><ele>506.0</ele><time>2026-04-16T16:41:45.999Z</time></trkpt><trkpt lat="41.17917029956355" lon="15.036757877466535"><ele>506.0</ele><time>2026-04-16T16:41:46.999Z</time></trkpt><trkpt lat="41.17917838859272" lon="15.03686594895943"><ele>506.0</ele><time>2026-04-16T16:41:47.999Z</time></trkpt><trkpt lat="41.17922729415339" lon="15.037012854515792"><ele>506.0</ele><time>2026-04-16T16:41:48.999Z</time></trkpt><trkpt lat="41.17928973486146" lon="15.03707919149681"><ele>507.3333333333333</ele><time>2026-04-16T16:41:49.999Z</time></trkpt><trkpt lat="41.17936176620665" lon="15.037156160019782"><ele>508.66666666666663</ele><time>2026-04-16T16:41:50.999Z</time></trkpt><trkpt lat="41.179427410213215" lon="15.03722912515564"><ele>510.0</ele><time>2026-04-16T16:41:51.999Z</time></trkpt><trkpt lat="41.17949569095406" lon="15.03730072722027"><ele>511.33333333333337</ele><time>2026-04-16T16:41:52.999Z</time></trkpt><trkpt lat="41.17955052256297" lon="15.037370908023293"><ele>512.6666666666667</ele><time>2026-04-16T16:41:53.999Z</time></trkpt><trkpt lat="41.17959897424648" lon="15.037458456344206"><ele>514.0</ele><time>2026-04-16T16:41:54.999Z</time></trkpt><trkpt lat="41.17962183335072" lon="15.037550610376588"><ele>516.2</ele><time>2026-04-16T16:41:55.999Z</time></trkpt><trkpt lat="41.17963380558629" lon="15.037686963136975"><ele>518.4</ele><time>2026-04-16T16:41:56.999Z</time></trkpt><trkpt lat="41.17955938599223" lon="15.037773414490514"><ele>520.6</ele><time>2026-04-16T16:41:57.999Z</time></trkpt><trkpt lat="41.1795089496101" lon="15.037911011820423"><ele>522.8</ele><time>2026-04-16T16:41:58.999Z</time></trkpt><trkpt lat="41.179489728374485" lon="15.038037010869006"><ele>525.0</ele><time>2026-04-16T16:41:59.999Z</time></trkpt><trkpt lat="41.17950680864792" lon="15.0381622064873"><ele>526.0</ele><time>2026-04-16T16:42:00.999Z</time></trkpt><trkpt lat="41.17955940050964" lon="15.038308294990175"><ele>527.0</ele><time>2026-04-16T16:42:01.999Z</time></trkpt><trkpt lat="41.17962594358264" lon="15.03845905342523"><ele>528.0</ele><time>2026-04-16T16:42:02.999Z</time></trkpt><trkpt lat="41.17970631568244" lon="15.038608328573558"><ele>529.0</ele><time>2026-04-16T16:42:03.999Z</time></trkpt><trkpt lat="41.17975601354434" lon="15.03875019744387"><ele>529.0</ele><time>2026-04-16T16:42:04.999Z</time></trkpt><trkpt lat="41.179796653164594" lon="15.038894620738466"><ele>529.0</ele><time>2026-04-16T16:42:05.999Z</time></trkpt><trkpt lat="41.17982015854442" lon="15.039040236002483"><ele>529.0</ele><time>2026-04-16T16:42:06.999Z</time></trkpt><trkpt lat="41.17982773574974" lon="15.039188876384287"><ele>529.0</ele><time>2026-04-16T16:42:07.999Z</time></trkpt><trkpt lat="41.17979447169123" lon="15.03932387323402"><ele>529.0</ele><time>2026-04-16T16:42:08.999Z</time></trkpt><trkpt lat="41.179829079318864" lon="15.039427759087443"><ele>530.0</ele><time>2026-04-16T16:42:10.999Z</time></trkpt><trkpt lat="41.17969582318961" lon="15.039386620074774"><ele>531.0</ele><time>2026-04-16T16:42:12.999Z</time></trkpt><trkpt lat="41.17962822945906" lon="15.039429913669077"><ele>532.0</ele><time>2026-04-16T16:42:13.999Z</time></trkpt><trkpt lat="41.17953222830092" lon="15.03950419597569"><ele>533.0</ele><time>2026-04-16T16:42:14.999Z</time></trkpt><trkpt lat="41.179432216078425" lon="15.039593754097464"><ele>534.0</ele><time>2026-04-16T16:42:15.999Z</time></trkpt><trkpt lat="41.17932768865281" lon="15.03970270504356"><ele>534.0</ele><time>2026-04-16T16:42:16.999Z</time></trkpt><trkpt lat="41.17921820138834" lon="15.039809524727445"><ele>534.0</ele><time>2026-04-16T16:42:18Z</time></trkpt><trkpt lat="41.179115882838296" lon="15.039921128888642"><ele>534.0</ele><time>2026-04-16T16:42:19Z</time></trkpt><trkpt lat="41.17901032712045" lon="15.03999429876945"><ele>534.0</ele><time>2026-04-16T16:42:20Z</time></trkpt><trkpt lat="41.17891811040625" lon="15.040069442341451"><ele>532.3333333333334</ele><time>2026-04-16T16:42:21Z</time></trkpt><trkpt lat="41.178845926722445" lon="15.040131676949995"><ele>530.6666666666666</ele><time>2026-04-16T16:42:22Z</time></trkpt><trkpt lat="41.17878943692373" lon="15.040184332087062"><ele>529.0</ele><time>2026-04-16T16:42:23Z</time></trkpt><trkpt lat="41.17872403303284" lon="15.04025949770699"><ele>527.3333333333333</ele><time>2026-04-16T16:42:25Z</time></trkpt><trkpt lat="41.17864082851769" lon="15.040387593241388"><ele>525.6666666666666</ele><time>2026-04-16T16:42:27Z</time></trkpt><trkpt lat="41.17859510712401" lon="15.040475696927908"><ele>524.0</ele><time>2026-04-16T16:42:28Z</time></trkpt><trkpt lat="41.178524948073886" lon="15.04057499550333"><ele>524.0</ele><time>2026-04-16T16:42:29Z</time></trkpt><trkpt lat="41.17845951158746" lon="15.040664073695138"><ele>524.0</ele><time>2026-04-16T16:42:30Z</time></trkpt><trkpt lat="41.17839916895308" lon="15.040755236226522"><ele>524.0</ele><time>2026-04-16T16:42:31Z</time></trkpt><trkpt lat="41.17833083828312" lon="15.040812781885817"><ele>524.0</ele><time>2026-04-16T16:42:32Z</time></trkpt><trkpt lat="41.17820666976633" lon="15.04087473042394"><ele>524.0</ele><time>2026-04-16T16:42:34Z</time></trkpt><trkpt lat="41.17811921851142" lon="15.040938313667603"><ele>520.6</ele><time>2026-04-16T16:42:36Z</time></trkpt><trkpt lat="41.17807264343405" lon="15.040758182410096"><ele>517.2</ele><time>2026-04-16T16:42:37Z</time></trkpt><trkpt lat="41.177994122540134" lon="15.04073403992803"><ele>513.8000000000001</ele><time>2026-04-16T16:42:38Z</time></trkpt><trkpt lat="41.17791265368618" lon="15.040694616806421"><ele>510.40000000000003</ele><time>2026-04-16T16:42:39Z</time></trkpt><trkpt lat="41.17784422572245" lon="15.040660905825671"><ele>507.0</ele><time>2026-04-16T16:42:40Z</time></trkpt><trkpt lat="41.17778907540035" lon="15.040604904344963"><ele>507.0</ele><time>2026-04-16T16:42:41Z</time></trkpt><trkpt lat="41.17780953054335" lon="15.040504788990287"><ele>507.0</ele><time>2026-04-16T16:42:43Z</time></trkpt><trkpt lat="41.177765277684585" lon="15.040433958364469"><ele>507.0</ele><time>2026-04-16T16:42:44Z</time></trkpt><trkpt lat="41.177688927823425" lon="15.040332606251603"><ele>507.0</ele><time>2026-04-16T16:42:46Z</time></trkpt><trkpt lat="41.17723061264867" lon="15.040628241720164"><ele>507.5</ele><time>2026-04-16T16:42:48Z</time></trkpt><trkpt lat="41.17716755249251" lon="15.040573443518753"><ele>508.0</ele><time>2026-04-16T16:42:49Z</time></trkpt><trkpt lat="41.177115757200255" lon="15.040519590057666"><ele>508.5</ele><time>2026-04-16T16:42:50Z</time></trkpt><trkpt lat="41.177050299269006" lon="15.04047954298633"><ele>509.0</ele><time>2026-04-16T16:42:51Z</time></trkpt><trkpt lat="41.17696527331826" lon="15.040462325529527"><ele>509.5</ele><time>2026-04-16T16:42:52Z</time></trkpt><trkpt lat="41.17687139429654" lon="15.040475094231535"><ele>510.0</ele><time>2026-04-16T16:42:53Z</time></trkpt><trkpt lat="41.176799535338304" lon="15.040453777778067"><ele>510.0</ele><time>2026-04-16T16:42:54Z</time></trkpt><trkpt lat="41.17673468305863" lon="15.040422148397868"><ele>510.0</ele><time>2026-04-16T16:42:55Z</time></trkpt><trkpt lat="41.17664651451812" lon="15.040348484108817"><ele>510.0</ele><time>2026-04-16T16:42:56Z</time></trkpt><trkpt lat="41.176602450477674" lon="15.040271389278933"><ele>510.0</ele><time>2026-04-16T16:42:57Z</time></trkpt><trkpt lat="41.17655584344633" lon="15.040210577224958"><ele>510.0</ele><time>2026-04-16T16:42:58Z</time></trkpt><trkpt lat="41.17646087187965" lon="15.040149042877916"><ele>510.0</ele><time>2026-04-16T16:42:59Z</time></trkpt><trkpt lat="41.17634995844811" lon="15.040094354286483"><ele>513.5</ele><time>2026-04-16T16:43:00Z</time></trkpt><trkpt lat="41.17625995583509" lon="15.040047083363685"><ele>517.0</ele><time>2026-04-16T16:43:02Z</time></trkpt><trkpt lat="41.17629708893992" lon="15.040124263121218"><ele>520.5</ele><time>2026-04-16T16:43:06Z</time></trkpt><trkpt lat="41.17639226269973" lon="15.040215802571591"><ele>524.0</ele><time>2026-04-16T16:43:07.999Z</time></trkpt><trkpt lat="41.17644399760536" lon="15.040283767093747"><ele>527.5</ele><time>2026-04-16T16:43:08.999Z</time></trkpt><trkpt lat="41.176500100087026" lon="15.040343585848536"><ele>531.0</ele><time>2026-04-16T16:43:09.999Z</time></trkpt><trkpt lat="41.17651896762916" lon="15.0404335430013"><ele>531.0</ele><time>2026-04-16T16:43:10.999Z</time></trkpt><trkpt lat="41.176500451083626" lon="15.04053985543124"><ele>531.0</ele><time>2026-04-16T16:43:11.999Z</time></trkpt><trkpt lat="41.17644273751203" lon="15.040652988007603"><ele>531.0</ele><time>2026-04-16T16:43:13.999Z</time></trkpt><trkpt lat="41.17637119986798" lon="15.040684505311065"><ele>531.0</ele><time>2026-04-16T16:43:14.999Z</time></trkpt><trkpt lat="41.17626552360712" lon="15.040766252911675"><ele>531.0</ele><time>2026-04-16T16:43:16.999Z</time></trkpt><trkpt lat="41.176249855373996" lon="15.040869986488072"><ele>533.8333333333334</ele><time>2026-04-16T16:43:17.999Z</time></trkpt><trkpt lat="41.17621934114011" lon="15.040967871373141"><ele>536.6666666666666</ele><time>2026-04-16T16:43:18.999Z</time></trkpt><trkpt lat="41.17618022438599" lon="15.041057531217675"><ele>539.5</ele><time>2026-04-16T16:43:19.999Z</time></trkpt><trkpt lat="41.176131467306284" lon="15.041125644583731"><ele>542.3333333333333</ele><time>2026-04-16T16:43:20.999Z</time></trkpt><trkpt lat="41.17607046725706" lon="15.041179266891891"><ele>545.1666666666666</ele><time>2026-04-16T16:43:21.999Z</time></trkpt><trkpt lat="41.17601758348793" lon="15.041253060412144"><ele>548.0</ele><time>2026-04-16T16:43:22.999Z</time></trkpt><trkpt lat="41.17595809225535" lon="15.04135199356906"><ele>548.0</ele><time>2026-04-16T16:43:23.999Z</time></trkpt><trkpt lat="41.17592349847827" lon="15.041454391768443"><ele>548.0</ele><time>2026-04-16T16:43:24.999Z</time></trkpt><trkpt lat="41.175905428691266" lon="15.041545398623875"><ele>548.0</ele><time>2026-04-16T16:43:25.999Z</time></trkpt><trkpt lat="41.175938891279195" lon="15.04161721595342"><ele>548.0</ele><time>2026-04-16T16:43:26.999Z</time></trkpt><trkpt lat="41.17598683960661" lon="15.041710334302786"><ele>548.0</ele><time>2026-04-16T16:43:27.999Z</time></trkpt><trkpt lat="41.17606402556942" lon="15.04179298105129"><ele>548.0</ele><time>2026-04-16T16:43:28.999Z</time></trkpt><trkpt lat="41.17614136366345" lon="15.041830993872093"><ele>551.8</ele><time>2026-04-16T16:43:29.999Z</time></trkpt><trkpt lat="41.176236142195044" lon="15.041899165989662"><ele>555.5999999999999</ele><time>2026-04-16T16:43:31.999Z</time></trkpt><trkpt lat="41.176255477962634" lon="15.042062035575112"><ele>559.4000000000001</ele><time>2026-04-16T16:43:33.999Z</time></trkpt><trkpt lat="41.176293544506294" lon="15.04214761645396"><ele>563.2</ele><time>2026-04-16T16:43:34.999Z</time></trkpt><trkpt lat="41.17636980025127" lon="15.042176650933737"><ele>567.0</ele><time>2026-04-16T16:43:35.999Z</time></trkpt><trkpt lat="41.17645619734842" lon="15.042236538516502"><ele>563.2</ele><time>2026-04-16T16:43:36.999Z</time></trkpt><trkpt lat="41.17655729492663" lon="15.042295504693813"><ele>559.4000000000001</ele><time>2026-04-16T16:43:37.999Z</time></trkpt><trkpt lat="41.1766265555119" lon="15.042334306130012"><ele>555.5999999999999</ele><time>2026-04-16T16:43:38.999Z</time></trkpt><trkpt lat="41.176720863436316" lon="15.042412711565612"><ele>551.8</ele><time>2026-04-16T16:43:39.999Z</time></trkpt><trkpt lat="41.1768152710689" lon="15.042453539770008"><ele>548.0</ele><time>2026-04-16T16:43:40.999Z</time></trkpt><trkpt lat="41.17691642406907" lon="15.04245893677847"><ele>548.0</ele><time>2026-04-16T16:43:41.999Z</time></trkpt><trkpt lat="41.17699882853856" lon="15.04239386759515"><ele>548.0</ele><time>2026-04-16T16:43:42.999Z</time></trkpt><trkpt lat="41.177103124301894" lon="15.042354960916255"><ele>548.0</ele><time>2026-04-16T16:43:43.999Z</time></trkpt><trkpt lat="41.17719920438517" lon="15.042290238311544"><ele>548.0</ele><time>2026-04-16T16:43:44.999Z</time></trkpt><trkpt lat="41.177267409332714" lon="15.042250204944638"><ele>548.0</ele><time>2026-04-16T16:43:45.999Z</time></trkpt><trkpt lat="41.177126861765665" lon="15.042484830875974"><ele>552.5</ele><time>2026-04-16T16:43:50.999Z</time></trkpt><trkpt lat="41.17705498913452" lon="15.042631676928497"><ele>557.0</ele><time>2026-04-16T16:43:52.999Z</time></trkpt><trkpt lat="41.17702961462812" lon="15.042721199691467"><ele>561.5</ele><time>2026-04-16T16:43:53.999Z</time></trkpt><trkpt lat="41.17699770990335" lon="15.0428065335525"><ele>566.0</ele><time>2026-04-16T16:43:54.999Z</time></trkpt><trkpt lat="41.17695210885174" lon="15.042897231863426"><ele>570.5</ele><time>2026-04-16T16:43:55.999Z</time></trkpt><trkpt lat="41.17689503026591" lon="15.04295529707722"><ele>575.0</ele><time>2026-04-16T16:43:56.999Z</time></trkpt><trkpt lat="41.17683224617957" lon="15.042972451561567"><ele>575.0</ele><time>2026-04-16T16:43:57.999Z</time></trkpt><trkpt lat="41.17673755521248" lon="15.043034059751506"><ele>575.0</ele><time>2026-04-16T16:43:59.999Z</time></trkpt><trkpt lat="41.17665990034336" lon="15.043038076899565"><ele>575.0</ele><time>2026-04-16T16:44:01.999Z</time></trkpt><trkpt lat="41.17660712843427" lon="15.043104122979836"><ele>575.0</ele><time>2026-04-16T16:44:03.999Z</time></trkpt><trkpt lat="41.17662628096058" lon="15.043188324398717"><ele>575.0</ele><time>2026-04-16T16:44:04.999Z</time></trkpt><trkpt lat="41.176698172188374" lon="15.043262091043228"><ele>575.0</ele><time>2026-04-16T16:44:07.999Z</time></trkpt><trkpt lat="41.17676998783677" lon="15.043284982127533"><ele>580.0</ele><time>2026-04-16T16:44:09.999Z</time></trkpt><trkpt lat="41.17683284479844" lon="15.043342667803811"><ele>585.0</ele><time>2026-04-16T16:44:11.999Z</time></trkpt><trkpt lat="41.176931827108604" lon="15.043352574811808"><ele>590.0</ele><time>2026-04-16T16:44:13.999Z</time></trkpt><trkpt lat="41.17700129754425" lon="15.043354327340568"><ele>595.0</ele><time>2026-04-16T16:44:14.999Z</time></trkpt><trkpt lat="41.17704461649543" lon="15.043437998253376"><ele>600.0</ele><time>2026-04-16T16:44:16.998Z</time></trkpt><trkpt lat="41.17696451049974" lon="15.043485485806734"><ele>605.0</ele><time>2026-04-16T16:44:18.998Z</time></trkpt><trkpt lat="41.176901119958735" lon="15.043521367082437"><ele>605.0</ele><time>2026-04-16T16:44:19.998Z</time></trkpt><trkpt lat="41.176844942226005" lon="15.043573917656063"><ele>605.0</ele><time>2026-04-16T16:44:20.998Z</time></trkpt><trkpt lat="41.17678374152237" lon="15.0436030861595"><ele>605.0</ele><time>2026-04-16T16:44:21.998Z</time></trkpt><trkpt lat="41.17666843032016" lon="15.043626819166885"><ele>605.0</ele><time>2026-04-16T16:44:24Z</time></trkpt><trkpt lat="41.17666964271322" lon="15.043717723028514"><ele>605.0</ele><time>2026-04-16T16:44:25Z</time></trkpt><trkpt lat="41.17671672020315" lon="15.043804346566924"><ele>605.0</ele><time>2026-04-16T16:44:27Z</time></trkpt><trkpt lat="41.17674002004853" lon="15.043899067410193"><ele>605.0</ele><time>2026-04-16T16:44:29Z</time></trkpt><trkpt lat="41.17676244843067" lon="15.04401365985933"><ele>605.0</ele><time>2026-04-16T16:44:30Z</time></trkpt><trkpt lat="41.17677245157217" lon="15.044134368120899"><ele>605.0</ele><time>2026-04-16T16:44:31Z</time></trkpt><trkpt lat="41.17682761301424" lon="15.044206772607417"><ele>605.0</ele><time>2026-04-16T16:44:33Z</time></trkpt><trkpt lat="41.1769562226977" lon="15.044166684203239"><ele>605.0</ele><time>2026-04-16T16:44:35Z</time></trkpt><trkpt lat="41.177035732054776" lon="15.04416308539181"><ele>608.3333333333333</ele><time>2026-04-16T16:44:36Z</time></trkpt><trkpt lat="41.177135542849896" lon="15.04420598059864"><ele>611.6666666666666</ele><time>2026-04-16T16:44:37Z</time></trkpt><trkpt lat="41.177195208917745" lon="15.044243566974172"><ele>615.0</ele><time>2026-04-16T16:44:38Z</time></trkpt><trkpt lat="41.177252663546156" lon="15.044304800440093"><ele>618.3333333333334</ele><time>2026-04-16T16:44:39Z</time></trkpt><trkpt lat="41.17732745567387" lon="15.044355491778722"><ele>621.6666666666667</ele><time>2026-04-16T16:44:40Z</time></trkpt><trkpt lat="41.17741893926861" lon="15.044408403091028"><ele>625.0</ele><time>2026-04-16T16:44:41Z</time></trkpt><trkpt lat="41.17751222211199" lon="15.044449966042029"><ele>625.5</ele><time>2026-04-16T16:44:42Z</time></trkpt><trkpt lat="41.1775954613413" lon="15.044485083425736"><ele>626.0</ele><time>2026-04-16T16:44:43Z</time></trkpt><trkpt lat="41.17767581473018" lon="15.044508820958061"><ele>626.5</ele><time>2026-04-16T16:44:44Z</time></trkpt><trkpt lat="41.17775047107149" lon="15.044539854767887"><ele>627.0</ele><time>2026-04-16T16:44:45Z</time></trkpt><trkpt lat="41.17782330854718" lon="15.04458003731877"><ele>627.5</ele><time>2026-04-16T16:44:46Z</time></trkpt><trkpt lat="41.17791232171816" lon="15.04460447696122"><ele>628.0</ele><time>2026-04-16T16:44:47Z</time></trkpt><trkpt lat="41.17800788030303" lon="15.044636391899584"><ele>628.0</ele><time>2026-04-16T16:44:48Z</time></trkpt><trkpt lat="41.178105133109284" lon="15.044660618549225"><ele>628.0</ele><time>2026-04-16T16:44:49Z</time></trkpt><trkpt lat="41.17819913685246" lon="15.044688974433564"><ele>628.0</ele><time>2026-04-16T16:44:50Z</time></trkpt><trkpt lat="41.178285891393834" lon="15.044706863517467"><ele>628.0</ele><time>2026-04-16T16:44:51Z</time></trkpt><trkpt lat="41.17835847037501" lon="15.04472501735331"><ele>628.0</ele><time>2026-04-16T16:44:52Z</time></trkpt><trkpt lat="41.17843183072424" lon="15.044746882706729"><ele>628.0</ele><time>2026-04-16T16:44:53Z</time></trkpt><trkpt lat="41.17851714255044" lon="15.044787979689287"><ele>628.6</ele><time>2026-04-16T16:44:54Z</time></trkpt><trkpt lat="41.178619409184" lon="15.044825517711548"><ele>629.1999999999999</ele><time>2026-04-16T16:44:55Z</time></trkpt><trkpt lat="41.178720239124495" lon="15.044855395652483"><ele>629.8</ele><time>2026-04-16T16:44:56Z</time></trkpt><trkpt lat="41.178808033440724" lon="15.044895287930238"><ele>630.4</ele><time>2026-04-16T16:44:57Z</time></trkpt><trkpt lat="41.178908759393416" lon="15.04492659910801"><ele>631.0</ele><time>2026-04-16T16:44:58Z</time></trkpt><trkpt lat="41.17901823168245" lon="15.044947704100897"><ele>629.4</ele><time>2026-04-16T16:44:59Z</time></trkpt><trkpt lat="41.179118506763935" lon="15.044962416783182"><ele>627.8</ele><time>2026-04-16T16:45:00Z</time></trkpt><trkpt lat="41.179212658712565" lon="15.044972786322742"><ele>626.1999999999999</ele><time>2026-04-16T16:45:01Z</time></trkpt><trkpt lat="41.17929842624626" lon="15.044974317648524"><ele>624.6</ele><time>2026-04-16T16:45:02Z</time></trkpt><trkpt lat="41.17938158920466" lon="15.044963406700793"><ele>623.0</ele><time>2026-04-16T16:45:03Z</time></trkpt><trkpt lat="41.17947066600284" lon="15.044932715078692"><ele>622.8333333333333</ele><time>2026-04-16T16:45:04Z</time></trkpt><trkpt lat="41.17955053646254" lon="15.044890772576293"><ele>622.6666666666666</ele><time>2026-04-16T16:45:05Z</time></trkpt><trkpt lat="41.17962769975343" lon="15.044860567180832"><ele>622.5</ele><time>2026-04-16T16:45:06Z</time></trkpt><trkpt lat="41.17970585072417" lon="15.044858069586024"><ele>622.3333333333334</ele><time>2026-04-16T16:45:07Z</time></trkpt><trkpt lat="41.17980012104004" lon="15.044868976389019"><ele>622.1666666666667</ele><time>2026-04-16T16:45:08Z</time></trkpt><trkpt lat="41.179890938060026" lon="15.044906413342545"><ele>622.0</ele><time>2026-04-16T16:45:09Z</time></trkpt><trkpt lat="41.18000095714751" lon="15.044950564111637"><ele>621.8333333333334</ele><time>2026-04-16T16:45:10Z</time></trkpt><trkpt lat="41.18009432541542" lon="15.044999583158186"><ele>621.6666666666667</ele><time>2026-04-16T16:45:10.999Z</time></trkpt><trkpt lat="41.18018612185814" lon="15.04503164273096"><ele>621.5</ele><time>2026-04-16T16:45:11.999Z</time></trkpt><trkpt lat="41.18026746803616" lon="15.045071195914119"><ele>621.3333333333334</ele><time>2026-04-16T16:45:12.999Z</time></trkpt><trkpt lat="41.18032799582431" lon="15.045111667676446"><ele>621.1666666666666</ele><time>2026-04-16T16:45:13.999Z</time></trkpt><trkpt lat="41.18038301771218" lon="15.045174148306545"><ele>621.0</ele><time>2026-04-16T16:45:14.999Z</time></trkpt><trkpt lat="41.18042195176987" lon="15.045263445829818"><ele>621.0</ele><time>2026-04-16T16:45:15.999Z</time></trkpt><trkpt lat="41.18044658538535" lon="15.045376224366443"><ele>621.0</ele><time>2026-04-16T16:45:16.999Z</time></trkpt><trkpt lat="41.180473305391665" lon="15.045486430350065"><ele>621.0</ele><time>2026-04-16T16:45:17.999Z</time></trkpt><trkpt lat="41.18051445653305" lon="15.045597579442589"><ele>621.0</ele><time>2026-04-16T16:45:18.999Z</time></trkpt><trkpt lat="41.18059512601158" lon="15.045707331466756"><ele>621.0</ele><time>2026-04-16T16:45:19.999Z</time></trkpt><trkpt lat="41.18068806254973" lon="15.045803546815582"><ele>622.0</ele><time>2026-04-16T16:45:20.999Z</time></trkpt><trkpt lat="41.180753507549056" lon="15.045886713873028"><ele>623.0</ele><time>2026-04-16T16:45:21.999Z</time></trkpt><trkpt lat="41.180852926824535" lon="15.045981307416158"><ele>624.0</ele><time>2026-04-16T16:45:22.999Z</time></trkpt><trkpt lat="41.18093324480978" lon="15.046064933407687"><ele>625.0</ele><time>2026-04-16T16:45:23.999Z</time></trkpt><trkpt lat="41.18100300577976" lon="15.046145887388588"><ele>626.0</ele><time>2026-04-16T16:45:24.999Z</time></trkpt><trkpt lat="41.18105724130607" lon="15.046221870401459"><ele>626.0</ele><time>2026-04-16T16:45:25.999Z</time></trkpt><trkpt lat="41.1810964201357" lon="15.046295634947812"><ele>626.0</ele><time>2026-04-16T16:45:26.999Z</time></trkpt><trkpt lat="41.181190149445115" lon="15.046393836846153"><ele>626.0</ele><time>2026-04-16T16:45:28.999Z</time></trkpt><trkpt lat="41.18124976906395" lon="15.046443758792277"><ele>626.0</ele><time>2026-04-16T16:45:29.999Z</time></trkpt><trkpt lat="41.181304521612624" lon="15.046499039835373"><ele>626.0</ele><time>2026-04-16T16:45:30.999Z</time></trkpt><trkpt lat="41.18137577669061" lon="15.046578098929158"><ele>626.0</ele><time>2026-04-16T16:45:31.999Z</time></trkpt><trkpt lat="41.181446512542834" lon="15.046659243591641"><ele>626.1666666666666</ele><time>2026-04-16T16:45:32.999Z</time></trkpt><trkpt lat="41.18150982347769" lon="15.046733976354906"><ele>626.3333333333333</ele><time>2026-04-16T16:45:33.999Z</time></trkpt><trkpt lat="41.18156667544366" lon="15.046794043788429"><ele>626.5</ele><time>2026-04-16T16:45:34.999Z</time></trkpt><trkpt lat="41.18164063758833" lon="15.046907054329465"><ele>626.6666666666666</ele><time>2026-04-16T16:45:36.999Z</time></trkpt><trkpt lat="41.18172609880236" lon="15.046947053061213"><ele>626.8333333333334</ele><time>2026-04-16T16:45:38.999Z</time></trkpt><trkpt lat="41.18178591689539" lon="15.04698438021057"><ele>627.0</ele><time>2026-04-16T16:45:39.999Z</time></trkpt><trkpt lat="41.18185328259546" lon="15.047017267644174"><ele>627.0</ele><time>2026-04-16T16:45:40.999Z</time></trkpt><trkpt lat="41.181920853717244" lon="15.047045096875815"><ele>627.0</ele><time>2026-04-16T16:45:41.999Z</time></trkpt><trkpt lat="41.18199113793683" lon="15.047070080174647"><ele>627.0</ele><time>2026-04-16T16:45:42.999Z</time></trkpt><trkpt lat="41.18206362893133" lon="15.047101100753947"><ele>627.0</ele><time>2026-04-16T16:45:43.999Z</time></trkpt><trkpt lat="41.18213329720725" lon="15.047133488153666"><ele>627.0</ele><time>2026-04-16T16:45:44.999Z</time></trkpt><trkpt lat="41.182208654352266" lon="15.047167999796232"><ele>627.0</ele><time>2026-04-16T16:45:45.999Z</time></trkpt><trkpt lat="41.18227471929602" lon="15.047214891333935"><ele>627.0</ele><time>2026-04-16T16:45:46.999Z</time></trkpt><trkpt lat="41.182366888683624" lon="15.047318623530062"><ele>627.7142857142858</ele><time>2026-04-16T16:45:48.999Z</time></trkpt><trkpt lat="41.182398095943775" lon="15.047394341292879"><ele>628.4285714285714</ele><time>2026-04-16T16:45:49.999Z</time></trkpt><trkpt lat="41.18246858036726" lon="15.047444137117767"><ele>629.1428571428571</ele><time>2026-04-16T16:45:50.999Z</time></trkpt><trkpt lat="41.18251939202516" lon="15.047495031295758"><ele>629.8571428571429</ele><time>2026-04-16T16:45:51.999Z</time></trkpt><trkpt lat="41.18258133621543" lon="15.047549500416087"><ele>630.5714285714286</ele><time>2026-04-16T16:45:52.999Z</time></trkpt><trkpt lat="41.1826472361897" lon="15.047582413892803"><ele>631.2857142857143</ele><time>2026-04-16T16:45:53.999Z</time></trkpt><trkpt lat="41.18271750727124" lon="15.047637066291674"><ele>632.0</ele><time>2026-04-16T16:45:54.999Z</time></trkpt><trkpt lat="41.18277775506184" lon="15.047718212371963"><ele>630.1666666666666</ele><time>2026-04-16T16:45:55.999Z</time></trkpt><trkpt lat="41.18283948342362" lon="15.047781044990323"><ele>628.3333333333333</ele><time>2026-04-16T16:45:56.999Z</time></trkpt><trkpt lat="41.182894349363636" lon="15.047839061528125"><ele>626.5</ele><time>2026-04-16T16:45:57.999Z</time></trkpt><trkpt lat="41.18294968182726" lon="15.047902952066812"><ele>624.6666666666666</ele><time>2026-04-16T16:45:58.999Z</time></trkpt><trkpt lat="41.18299425940551" lon="15.04796313687914"><ele>622.8333333333334</ele><time>2026-04-16T16:45:59.999Z</time></trkpt><trkpt lat="41.183095781847115" lon="15.048070255744532"><ele>621.0</ele><time>2026-04-16T16:46:01.999Z</time></trkpt><trkpt lat="41.18313600503804" lon="15.048145558739463"><ele>622.4</ele><time>2026-04-16T16:46:02.999Z</time></trkpt><trkpt lat="41.183195809501214" lon="15.048257813284051"><ele>623.8</ele><time>2026-04-16T16:46:04.999Z</time></trkpt><trkpt lat="41.18322690002532" lon="15.04833170517147"><ele>625.1999999999999</ele><time>2026-04-16T16:46:06.999Z</time></trkpt><trkpt lat="41.183294049062354" lon="15.048210325273955"><ele>626.6</ele><time>2026-04-16T16:46:11.999Z</time></trkpt><trkpt lat="41.1833164633383" lon="15.0480730161403"><ele>628.0</ele><time>2026-04-16T16:46:13.999Z</time></trkpt><trkpt lat="41.183497342215375" lon="15.048206179933493"><ele>628.0</ele><time>2026-04-16T16:46:17.999Z</time></trkpt><trkpt lat="41.183562655256935" lon="15.048206800750904"><ele>628.0</ele><time>2026-04-16T16:46:18.999Z</time></trkpt><trkpt lat="41.18366685156793" lon="15.048258918845667"><ele>628.0</ele><time>2026-04-16T16:46:20.998Z</time></trkpt><trkpt lat="41.18370743059579" lon="15.048384469466015"><ele>628.0</ele><time>2026-04-16T16:46:22.998Z</time></trkpt><trkpt lat="41.18372393405976" lon="15.048467474992293"><ele>628.0</ele><time>2026-04-16T16:46:24.998Z</time></trkpt><trkpt lat="41.18378920743851" lon="15.048496634295535"><ele>628.0</ele><time>2026-04-16T16:46:26.998Z</time></trkpt><trkpt lat="41.18383997073413" lon="15.048562717635159"><ele>627.9999999999999</ele><time>2026-04-16T16:46:28.998Z</time></trkpt><trkpt lat="41.18386323322392" lon="15.048481430808728"><ele>628.0</ele><time>2026-04-16T16:56:00.999Z</time></trkpt><trkpt lat="41.183843235861886" lon="15.048388802538554"><ele>628.0</ele><time>2026-04-16T16:56:01.999Z</time></trkpt><trkpt lat="41.18381045701523" lon="15.04831187831672"><ele>628.0</ele><time>2026-04-16T16:56:02.999Z</time></trkpt><trkpt lat="41.183772000076225" lon="15.048238425083525"><ele>628.0</ele><time>2026-04-16T16:56:03.999Z</time></trkpt><trkpt lat="41.183729851349966" lon="15.048147766963645"><ele>627.9999999999999</ele><time>2026-04-16T16:56:04.999Z</time></trkpt><trkpt lat="41.183684777992575" lon="15.0480369650091"><ele>628.0</ele><time>2026-04-16T16:56:05.999Z</time></trkpt><trkpt lat="41.18366081486501" lon="15.047948131021718"><ele>630.0</ele><time>2026-04-16T16:56:06.999Z</time></trkpt><trkpt lat="41.18373288457762" lon="15.047855992771265"><ele>632.0</ele><time>2026-04-16T16:56:08.999Z</time></trkpt><trkpt lat="41.18380289839625" lon="15.047882828486998"><ele>634.0</ele><time>2026-04-16T16:56:09.999Z</time></trkpt><trkpt lat="41.18384219591739" lon="15.047969955995327"><ele>636.0</ele><time>2026-04-16T16:56:10.999Z</time></trkpt><trkpt lat="41.18383639890667" lon="15.048136616176734"><ele>638.0</ele><time>2026-04-16T16:56:11.999Z</time></trkpt><trkpt lat="41.18384901363002" lon="15.048285015466625"><ele>636.3333333333333</ele><time>2026-04-16T16:56:12.999Z</time></trkpt><trkpt lat="41.1838870827373" lon="15.048421379067316"><ele>634.6666666666666</ele><time>2026-04-16T16:56:13.999Z</time></trkpt><trkpt lat="41.183937387095554" lon="15.048504369957218"><ele>633.0</ele><time>2026-04-16T16:56:14.999Z</time></trkpt><trkpt lat="41.18400386675474" lon="15.048545538876452"><ele>631.3333333333334</ele><time>2026-04-16T16:56:15.999Z</time></trkpt><trkpt lat="41.18406603149873" lon="15.04852484697132"><ele>629.6666666666667</ele><time>2026-04-16T16:56:16.999Z</time></trkpt><trkpt lat="41.184109063280445" lon="15.048445858694064"><ele>628.0</ele><time>2026-04-16T16:56:17.999Z</time></trkpt><trkpt lat="41.18412653408509" lon="15.048310901613606"><ele>630.0</ele><time>2026-04-16T16:56:18.999Z</time></trkpt><trkpt lat="41.18410220911406" lon="15.048172279445414"><ele>632.0</ele><time>2026-04-16T16:56:19.999Z</time></trkpt><trkpt lat="41.18405516262318" lon="15.048080717910985"><ele>634.0</ele><time>2026-04-16T16:56:20.999Z</time></trkpt><trkpt lat="41.18397723632077" lon="15.048009173370831"><ele>636.0</ele><time>2026-04-16T16:56:21.999Z</time></trkpt><trkpt lat="41.18390381820838" lon="15.047919800545898"><ele>638.0</ele><time>2026-04-16T16:56:22.999Z</time></trkpt><trkpt lat="41.1838196421357" lon="15.047805208664949"><ele>638.0</ele><time>2026-04-16T16:56:23.999Z</time></trkpt><trkpt lat="41.18375160956602" lon="15.047704136901993"><ele>638.0</ele><time>2026-04-16T16:56:24.999Z</time></trkpt><trkpt lat="41.183721654880735" lon="15.04759851617398"><ele>638.0</ele><time>2026-04-16T16:56:25.999Z</time></trkpt><trkpt lat="41.18372973535222" lon="15.04749201605423"><ele>638.0</ele><time>2026-04-16T16:56:26.999Z</time></trkpt><trkpt lat="41.1838142071138" lon="15.047405425625987"><ele>638.0</ele><time>2026-04-16T16:56:27.999Z</time></trkpt><trkpt lat="41.183933627569814" lon="15.047356178718273"><ele>636.6</ele><time>2026-04-16T16:56:28.999Z</time></trkpt><trkpt lat="41.184042702423014" lon="15.047347725409711"><ele>635.1999999999999</ele><time>2026-04-16T16:56:29.999Z</time></trkpt><trkpt lat="41.184138483547756" lon="15.047448101178718"><ele>633.8</ele><time>2026-04-16T16:56:30.999Z</time></trkpt><trkpt lat="41.18422705898988" lon="15.0475597036957"><ele>632.4</ele><time>2026-04-16T16:56:31.999Z</time></trkpt><trkpt lat="41.184305937178735" lon="15.047631088467963"><ele>631.0</ele><time>2026-04-16T16:56:32.999Z</time></trkpt><trkpt lat="41.18432494579038" lon="15.047745792394037"><ele>632.4</ele><time>2026-04-16T16:56:34.999Z</time></trkpt><trkpt lat="41.184209249085306" lon="15.047768170751278"><ele>633.8</ele><time>2026-04-16T16:56:35.999Z</time></trkpt><trkpt lat="41.18412046313631" lon="15.047644863324663"><ele>635.1999999999999</ele><time>2026-04-16T16:56:36.999Z</time></trkpt><trkpt lat="41.18403784550761" lon="15.047544393727579"><ele>636.6</ele><time>2026-04-16T16:56:37.999Z</time></trkpt><trkpt lat="41.183968966422164" lon="15.047517756418477"><ele>638.0</ele><time>2026-04-16T16:56:39.999Z</time></trkpt><trkpt lat="41.18396928479192" lon="15.047605282070073"><ele>638.0</ele><time>2026-04-16T16:56:41.999Z</time></trkpt><trkpt lat="41.183986241265295" lon="15.047708863275615"><ele>638.0</ele><time>2026-04-16T16:56:43.999Z</time></trkpt><trkpt lat="41.18402213367003" lon="15.047823299757319"><ele>638.0</ele><time>2026-04-16T16:56:44.999Z</time></trkpt><trkpt lat="41.18406304432003" lon="15.047930718258826"><ele>638.0</ele><time>2026-04-16T16:56:45.999Z</time></trkpt><trkpt lat="41.1841244555066" lon="15.048090724995419"><ele>638.0</ele><time>2026-04-16T16:56:47.999Z</time></trkpt><trkpt lat="41.184205159090176" lon="15.048139586678253"><ele>639.5</ele><time>2026-04-16T16:56:48.999Z</time></trkpt><trkpt lat="41.184270173718716" lon="15.048100511817688"><ele>641.0</ele><time>2026-04-16T16:56:49.999Z</time></trkpt><trkpt lat="41.18432287686081" lon="15.047994996158504"><ele>642.5</ele><time>2026-04-16T16:56:50.999Z</time></trkpt><trkpt lat="41.18436377591907" lon="15.04787982189797"><ele>644.0</ele><time>2026-04-16T16:56:51.999Z</time></trkpt><trkpt lat="41.18439345944086" lon="15.047749758955298"><ele>645.5</ele><time>2026-04-16T16:56:52.999Z</time></trkpt><trkpt lat="41.184383315846866" lon="15.04765104360396"><ele>647.0</ele><time>2026-04-16T16:56:53.999Z</time></trkpt><trkpt lat="41.18433990341747" lon="15.047570176304001"><ele>647.0</ele><time>2026-04-16T16:56:54.999Z</time></trkpt><trkpt lat="41.184275341191615" lon="15.04750428453993"><ele>647.0</ele><time>2026-04-16T16:56:55.999Z</time></trkpt><trkpt lat="41.184192551013474" lon="15.047456464755827"><ele>647.0</ele><time>2026-04-16T16:56:56.999Z</time></trkpt><trkpt lat="41.184093799170725" lon="15.047378141497411"><ele>647.0</ele><time>2026-04-16T16:56:57.999Z</time></trkpt><trkpt lat="41.18402037310806" lon="15.047316423374578"><ele>647.0</ele><time>2026-04-16T16:56:58.999Z</time></trkpt><trkpt lat="41.18393119077454" lon="15.047259725346008"><ele>646.2</ele><time>2026-04-16T16:57:00Z</time></trkpt><trkpt lat="41.18383023176396" lon="15.047253613022061"><ele>645.4000000000001</ele><time>2026-04-16T16:57:01Z</time></trkpt><trkpt lat="41.183751295819995" lon="15.047297718302465"><ele>644.5999999999999</ele><time>2026-04-16T16:57:02Z</time></trkpt><trkpt lat="41.18369269100081" lon="15.047364245993691"><ele>643.8</ele><time>2026-04-16T16:57:03Z</time></trkpt><trkpt lat="41.183655449585736" lon="15.047490347950378"><ele>643.0</ele><time>2026-04-16T16:57:04Z</time></trkpt><trkpt lat="41.18362937250199" lon="15.047598381295545"><ele>642.1666666666667</ele><time>2026-04-16T16:57:05Z</time></trkpt><trkpt lat="41.183600027720956" lon="15.04768668183928"><ele>641.3333333333334</ele><time>2026-04-16T16:57:06Z</time></trkpt><trkpt lat="41.1835858824397" lon="15.047769106750774"><ele>640.5</ele><time>2026-04-16T16:57:07Z</time></trkpt><trkpt lat="41.183597010624794" lon="15.047887152148254"><ele>639.6666666666666</ele><time>2026-04-16T16:57:09Z</time></trkpt><trkpt lat="41.18363411412228" lon="15.04799269767208"><ele>638.8333333333333</ele><time>2026-04-16T16:57:11Z</time></trkpt><trkpt lat="41.183643125326874" lon="15.048128426842164"><ele>638.0</ele><time>2026-04-16T16:57:14Z</time></trkpt><trkpt lat="41.1837034170468" lon="15.04827572937687"><ele>638.0</ele><time>2026-04-16T16:57:17Z</time></trkpt><trkpt lat="41.18353037526304" lon="15.048147717397518"><ele>638.0</ele><time>2026-04-16T16:57:28Z</time></trkpt><trkpt lat="41.18346537573283" lon="15.048120086997889"><ele>638.0</ele><time>2026-04-16T16:57:30Z</time></trkpt><trkpt lat="41.18340261137364" lon="15.048034420738977"><ele>638.0</ele><time>2026-04-16T16:57:32Z</time></trkpt><trkpt lat="41.18334052683366" lon="15.048052388947573"><ele>638.0</ele><time>2026-04-16T16:57:34Z</time></trkpt><trkpt lat="41.18329705354103" lon="15.048123586404827"><ele>638.0</ele><time>2026-04-16T16:57:36Z</time></trkpt><trkpt lat="41.18323037838845" lon="15.048242169315662"><ele>638.0</ele><time>2026-04-16T16:57:38Z</time></trkpt><trkpt lat="41.183162343718195" lon="15.048165359319935"><ele>638.0</ele><time>2026-04-16T16:57:44Z</time></trkpt><trkpt lat="41.18309671044369" lon="15.048042298216476"><ele>638.0</ele><time>2026-04-16T16:57:46Z</time></trkpt><trkpt lat="41.18303735918048" lon="15.04796594012686"><ele>638.0</ele><time>2026-04-16T16:57:47Z</time></trkpt><trkpt lat="41.18296909102248" lon="15.0478823980936"><ele>635.1666666666666</ele><time>2026-04-16T16:57:48Z</time></trkpt><trkpt lat="41.182915922721676" lon="15.047807233322166"><ele>632.3333333333333</ele><time>2026-04-16T16:57:49Z</time></trkpt><trkpt lat="41.18287319413452" lon="15.047740270819057"><ele>629.5</ele><time>2026-04-16T16:57:50Z</time></trkpt><trkpt lat="41.18281682032225" lon="15.047668733393845"><ele>626.6666666666666</ele><time>2026-04-16T16:57:51Z</time></trkpt><trkpt lat="41.1827144275584" lon="15.04760670824695"><ele>623.8333333333334</ele><time>2026-04-16T16:57:52Z</time></trkpt><trkpt lat="41.18264985247282" lon="15.047540103444327"><ele>621.0</ele><time>2026-04-16T16:57:53Z</time></trkpt><trkpt lat="41.182582695785236" lon="15.047503435110118"><ele>622.0</ele><time>2026-04-16T16:57:54Z</time></trkpt><trkpt lat="41.18249715267277" lon="15.047402888989234"><ele>623.0</ele><time>2026-04-16T16:57:56Z</time></trkpt><trkpt lat="41.18244129706288" lon="15.047346761958794"><ele>624.0</ele><time>2026-04-16T16:57:57Z</time></trkpt><trkpt lat="41.182385532302845" lon="15.047288971201302"><ele>625.0</ele><time>2026-04-16T16:57:57.999Z</time></trkpt><trkpt lat="41.18234194607332" lon="15.04721641079925"><ele>626.0</ele><time>2026-04-16T16:57:58.999Z</time></trkpt><trkpt lat="41.182280448686704" lon="15.04713416204404"><ele>627.0</ele><time>2026-04-16T16:57:59.999Z</time></trkpt><trkpt lat="41.18221315702631" lon="15.04710991429059"><ele>627.0</ele><time>2026-04-16T16:58:00.999Z</time></trkpt><trkpt lat="41.18213595950315" lon="15.047090642712575"><ele>627.0</ele><time>2026-04-16T16:58:01.999Z</time></trkpt><trkpt lat="41.182054411651194" lon="15.047062117979467"><ele>627.0</ele><time>2026-04-16T16:58:02.999Z</time></trkpt><trkpt lat="41.18197636077397" lon="15.04703926131431"><ele>627.0</ele><time>2026-04-16T16:58:03.999Z</time></trkpt><trkpt lat="41.181901425443556" lon="15.047005903862265"><ele>627.0</ele><time>2026-04-16T16:58:04.999Z</time></trkpt><trkpt lat="41.181824771801416" lon="15.046979780010746"><ele>627.0</ele><time>2026-04-16T16:58:05.999Z</time></trkpt><trkpt lat="41.18176019896284" lon="15.046951143204279"><ele>627.0</ele><time>2026-04-16T16:58:06.999Z</time></trkpt><trkpt lat="41.181659760478595" lon="15.046862200534369"><ele>627.0</ele><time>2026-04-16T16:58:08.999Z</time></trkpt><trkpt lat="41.18160697293719" lon="15.046803885744856"><ele>627.0</ele><time>2026-04-16T16:58:09.999Z</time></trkpt><trkpt lat="41.1815418216155" lon="15.046762877872172"><ele>627.0</ele><time>2026-04-16T16:58:10.999Z</time></trkpt><trkpt lat="41.18148590207059" lon="15.046700667738802"><ele>627.0</ele><time>2026-04-16T16:58:11.999Z</time></trkpt><trkpt lat="41.181413486203574" lon="15.046633373763509"><ele>627.0</ele><time>2026-04-16T16:58:12.999Z</time></trkpt><trkpt lat="41.18134681930265" lon="15.046546439849527"><ele>626.8333333333334</ele><time>2026-04-16T16:58:13.999Z</time></trkpt><trkpt lat="41.1812738316684" lon="15.0464706082435"><ele>626.6666666666666</ele><time>2026-04-16T16:58:14.999Z</time></trkpt><trkpt lat="41.181200446732134" lon="15.04639943622382"><ele>626.5</ele><time>2026-04-16T16:58:15.999Z</time></trkpt><trkpt lat="41.181137484066994" lon="15.046344359391602"><ele>626.3333333333333</ele><time>2026-04-16T16:58:16.999Z</time></trkpt><trkpt lat="41.18106717859225" lon="15.046287820955133"><ele>626.1666666666666</ele><time>2026-04-16T16:58:17.999Z</time></trkpt><trkpt lat="41.181006447481096" lon="15.046221392819513"><ele>626.0</ele><time>2026-04-16T16:58:18.999Z</time></trkpt><trkpt lat="41.18095342232899" lon="15.04615108860788"><ele>626.0</ele><time>2026-04-16T16:58:19.999Z</time></trkpt><trkpt lat="41.18090774107" lon="15.04606847276866"><ele>626.0</ele><time>2026-04-16T16:58:20.999Z</time></trkpt><trkpt lat="41.180840431342084" lon="15.046006238017176"><ele>626.0</ele><time>2026-04-16T16:58:21.999Z</time></trkpt><trkpt lat="41.180790242187236" lon="15.045940579475154"><ele>626.0</ele><time>2026-04-16T16:58:22.999Z</time></trkpt><trkpt lat="41.180723790207665" lon="15.045874125970176"><ele>626.0</ele><time>2026-04-16T16:58:23.999Z</time></trkpt><trkpt lat="41.18068098371728" lon="15.045800485168835"><ele>626.0</ele><time>2026-04-16T16:58:24.999Z</time></trkpt><trkpt lat="41.180628294491825" lon="15.045726728413996"><ele>625.2857142857142</ele><time>2026-04-16T16:58:25.999Z</time></trkpt><trkpt lat="41.18058045537918" lon="15.045666680488395"><ele>624.5714285714286</ele><time>2026-04-16T16:58:26.999Z</time></trkpt><trkpt lat="41.1805271836316" lon="15.045615254422165"><ele>623.8571428571429</ele><time>2026-04-16T16:58:27.999Z</time></trkpt><trkpt lat="41.18046206317187" lon="15.045674639483945"><ele>623.1428571428571</ele><time>2026-04-16T16:58:30.999Z</time></trkpt><trkpt lat="41.18047063694787" lon="15.045770775026462"><ele>622.4285714285714</ele><time>2026-04-16T16:58:31.999Z</time></trkpt><trkpt lat="41.1804740777192" lon="15.045861712996432"><ele>621.7142857142857</ele><time>2026-04-16T16:58:32.999Z</time></trkpt><trkpt lat="41.180463943234464" lon="15.045944578097274"><ele>621.0</ele><time>2026-04-16T16:58:33.999Z</time></trkpt><trkpt lat="41.18040305733735" lon="15.046096044869149"><ele>619.8333333333334</ele><time>2026-04-16T16:58:35.999Z</time></trkpt><trkpt lat="41.18035458414616" lon="15.046157088455876"><ele>618.6666666666666</ele><time>2026-04-16T16:58:36.999Z</time></trkpt><trkpt lat="41.18030612118151" lon="15.04622880663715"><ele>617.5</ele><time>2026-04-16T16:58:37.999Z</time></trkpt><trkpt lat="41.1802576081624" lon="15.046313051263873"><ele>616.3333333333333</ele><time>2026-04-16T16:58:38.999Z</time></trkpt><trkpt lat="41.18021292848989" lon="15.046398908301253"><ele>615.1666666666666</ele><time>2026-04-16T16:58:39.999Z</time></trkpt><trkpt lat="41.18017694473984" lon="15.046504407248904"><ele>614.0</ele><time>2026-04-16T16:58:40.999Z</time></trkpt><trkpt lat="41.18013546079855" lon="15.046585814257224"><ele>612.8333333333333</ele><time>2026-04-16T16:58:41.999Z</time></trkpt><trkpt lat="41.18010482052993" lon="15.046675429695497"><ele>611.6666666666666</ele><time>2026-04-16T16:58:42.999Z</time></trkpt><trkpt lat="41.18005700210189" lon="15.046809500230502"><ele>610.5</ele><time>2026-04-16T16:58:44.999Z</time></trkpt><trkpt lat="41.18000723176486" lon="15.046903438034708"><ele>609.3333333333334</ele><time>2026-04-16T16:58:47.999Z</time></trkpt><trkpt lat="41.17993699282999" lon="15.04687149390605"><ele>608.1666666666667</ele><time>2026-04-16T16:58:50.999Z</time></trkpt><trkpt lat="41.17991508002635" lon="15.046997172048156"><ele>607.0</ele><time>2026-04-16T16:58:53.999Z</time></trkpt><trkpt lat="41.179976469963506" lon="15.047048499616293"><ele>607.0</ele><time>2026-04-16T16:58:55.999Z</time></trkpt><trkpt lat="41.18008581680742" lon="15.04718896683577"><ele>607.0</ele><time>2026-04-16T16:58:56.999Z</time></trkpt><trkpt lat="41.1801670605669" lon="15.04730353708996"><ele>607.0</ele><time>2026-04-16T16:58:57.999Z</time></trkpt><trkpt lat="41.18023892982019" lon="15.047424973799854"><ele>607.0</ele><time>2026-04-16T16:58:58.999Z</time></trkpt><trkpt lat="41.18030851928005" lon="15.04753684218439"><ele>605.2</ele><time>2026-04-16T16:58:59.999Z</time></trkpt><trkpt lat="41.18037837762765" lon="15.047644185371313"><ele>603.4000000000001</ele><time>2026-04-16T16:59:00.999Z</time></trkpt><trkpt lat="41.18045062094377" lon="15.047742550282678"><ele>601.5999999999999</ele><time>2026-04-16T16:59:01.999Z</time></trkpt><trkpt lat="41.180513424181264" lon="15.047839659502895"><ele>599.8</ele><time>2026-04-16T16:59:02.999Z</time></trkpt><trkpt lat="41.180582186420004" lon="15.047931101027414"><ele>598.0</ele><time>2026-04-16T16:59:03.999Z</time></trkpt><trkpt lat="41.18064589671893" lon="15.048011914604814"><ele>598.0</ele><time>2026-04-16T16:59:04.998Z</time></trkpt><trkpt lat="41.18071209256907" lon="15.048076408342041"><ele>598.0</ele><time>2026-04-16T16:59:06Z</time></trkpt><trkpt lat="41.18077719667349" lon="15.048142078635763"><ele>598.0</ele><time>2026-04-16T16:59:07Z</time></trkpt><trkpt lat="41.180864463175176" lon="15.048199683990335"><ele>598.0</ele><time>2026-04-16T16:59:09Z</time></trkpt><trkpt lat="41.18074117386507" lon="15.048269002088965"><ele>598.0</ele><time>2026-04-16T16:59:12Z</time></trkpt><trkpt lat="41.180670438754234" lon="15.048242198423717"><ele>598.0</ele><time>2026-04-16T16:59:13Z</time></trkpt><trkpt lat="41.18058419513777" lon="15.048220862144685"><ele>598.0</ele><time>2026-04-16T16:59:14Z</time></trkpt><trkpt lat="41.18049447412041" lon="15.048192291586094"><ele>598.0</ele><time>2026-04-16T16:59:15Z</time></trkpt><trkpt lat="41.18041622744694" lon="15.048148413394927"><ele>598.0</ele><time>2026-04-16T16:59:16Z</time></trkpt><trkpt lat="41.180340873445715" lon="15.048102924422313"><ele>598.0</ele><time>2026-04-16T16:59:17Z</time></trkpt><trkpt lat="41.180272107935956" lon="15.048066888041706"><ele>598.0</ele><time>2026-04-16T16:59:18Z</time></trkpt><trkpt lat="41.18018151398922" lon="15.04798663274601"><ele>598.0</ele><time>2026-04-16T16:59:19Z</time></trkpt><trkpt lat="41.18010764866658" lon="15.04790448679042"><ele>598.0</ele><time>2026-04-16T16:59:20Z</time></trkpt><trkpt lat="41.180039770639254" lon="15.047856167896658"><ele>598.0</ele><time>2026-04-16T16:59:21Z</time></trkpt><trkpt lat="41.179961730839196" lon="15.047769628483916"><ele>598.0</ele><time>2026-04-16T16:59:22Z</time></trkpt><trkpt lat="41.17989248703105" lon="15.04768918359414"><ele>598.0</ele><time>2026-04-16T16:59:23Z</time></trkpt><trkpt lat="41.179814741069904" lon="15.047614241982023"><ele>598.6</ele><time>2026-04-16T16:59:24Z</time></trkpt><trkpt lat="41.179731538791664" lon="15.047556280194787"><ele>599.1999999999999</ele><time>2026-04-16T16:59:25Z</time></trkpt><trkpt lat="41.17964930771543" lon="15.047488520365846"><ele>599.8</ele><time>2026-04-16T16:59:26Z</time></trkpt><trkpt lat="41.17956389160443" lon="15.047443177096824"><ele>600.4</ele><time>2026-04-16T16:59:27Z</time></trkpt><trkpt lat="41.179483876318315" lon="15.047394288958568"><ele>601.0</ele><time>2026-04-16T16:59:28Z</time></trkpt><trkpt lat="41.17938995530033" lon="15.047375426941386"><ele>601.0</ele><time>2026-04-16T16:59:29Z</time></trkpt><trkpt lat="41.17929854523441" lon="15.047389137606233"><ele>601.0</ele><time>2026-04-16T16:59:30Z</time></trkpt><trkpt lat="41.17920983766358" lon="15.047419983286328"><ele>601.0</ele><time>2026-04-16T16:59:31Z</time></trkpt><trkpt lat="41.17912143159672" lon="15.047470627420797"><ele>601.0</ele><time>2026-04-16T16:59:32Z</time></trkpt><trkpt lat="41.179036049557354" lon="15.047512029203528"><ele>601.0</ele><time>2026-04-16T16:59:33Z</time></trkpt><trkpt lat="41.17895064681189" lon="15.047530139606211"><ele>598.4</ele><time>2026-04-16T16:59:34Z</time></trkpt><trkpt lat="41.178880359454006" lon="15.047571772414349"><ele>595.8</ele><time>2026-04-16T16:59:35Z</time></trkpt><trkpt lat="41.17878308903511" lon="15.047586612965663"><ele>593.1999999999999</ele><time>2026-04-16T16:59:36Z</time></trkpt><trkpt lat="41.178675433056426" lon="15.047617739651034"><ele>590.6</ele><time>2026-04-16T16:59:37Z</time></trkpt><trkpt lat="41.17856048881158" lon="15.047649771082046"><ele>588.0</ele><time>2026-04-16T16:59:38Z</time></trkpt><trkpt lat="41.17845438529511" lon="15.047704487816048"><ele>588.0</ele><time>2026-04-16T16:59:39Z</time></trkpt><trkpt lat="41.17836083680511" lon="15.047754293440924"><ele>588.0</ele><time>2026-04-16T16:59:40Z</time></trkpt><trkpt lat="41.178267573752336" lon="15.047800051664426"><ele>588.0</ele><time>2026-04-16T16:59:41Z</time></trkpt><trkpt lat="41.178199942786776" lon="15.047874267760399"><ele>588.0</ele><time>2026-04-16T16:59:42Z</time></trkpt><trkpt lat="41.17813503637897" lon="15.048022412464336"><ele>588.0</ele><time>2026-04-16T16:59:43Z</time></trkpt><trkpt lat="41.178048326422065" lon="15.04808868811257"><ele>589.1999999999999</ele><time>2026-04-16T16:59:44Z</time></trkpt><trkpt lat="41.1779608444904" lon="15.048184367548231"><ele>590.4</ele><time>2026-04-16T16:59:45Z</time></trkpt><trkpt lat="41.1778968566507" lon="15.048277342816725"><ele>591.5999999999999</ele><time>2026-04-16T16:59:46Z</time></trkpt><trkpt lat="41.17781935633284" lon="15.048351382993681"><ele>592.8</ele><time>2026-04-16T16:59:47Z</time></trkpt><trkpt lat="41.1777471237014" lon="15.048394574410104"><ele>594.0</ele><time>2026-04-16T16:59:48Z</time></trkpt><trkpt lat="41.17765752103466" lon="15.048474473979844"><ele>592.8571428571429</ele><time>2026-04-16T16:59:49Z</time></trkpt><trkpt lat="41.17759917677423" lon="15.048558084750418"><ele>591.7142857142858</ele><time>2026-04-16T16:59:50Z</time></trkpt><trkpt lat="41.17753030242809" lon="15.048626358682514"><ele>590.5714285714286</ele><time>2026-04-16T16:59:51Z</time></trkpt><trkpt lat="41.17746581784109" lon="15.048679070212383"><ele>589.4285714285714</ele><time>2026-04-16T16:59:52Z</time></trkpt><trkpt lat="41.17740510395153" lon="15.048717532471558"><ele>588.2857142857142</ele><time>2026-04-16T16:59:53Z</time></trkpt><trkpt lat="41.17735285473873" lon="15.04876767059478"><ele>587.1428571428571</ele><time>2026-04-16T16:59:54Z</time></trkpt><trkpt lat="41.17729793599546" lon="15.048816096866895"><ele>586.0</ele><time>2026-04-16T16:59:55Z</time></trkpt><trkpt lat="41.177158812443054" lon="15.048850515910395"><ele>586.0</ele><time>2026-04-16T16:59:57Z</time></trkpt><trkpt lat="41.17706268157988" lon="15.048884722731932"><ele>586.0</ele><time>2026-04-16T16:59:58Z</time></trkpt><trkpt lat="41.176966740609764" lon="15.048927827892339"><ele>586.0</ele><time>2026-04-16T16:59:58.999Z</time></trkpt><trkpt lat="41.17686318848625" lon="15.049005384489263"><ele>586.0</ele><time>2026-04-16T16:59:59.999Z</time></trkpt><trkpt lat="41.17678959692564" lon="15.049078878467666"><ele>586.0</ele><time>2026-04-16T17:00:00.999Z</time></trkpt><trkpt lat="41.176719037411374" lon="15.049143772210867"><ele>585.4</ele><time>2026-04-16T17:00:01.999Z</time></trkpt><trkpt lat="41.17663185679245" lon="15.049187107625215"><ele>584.8</ele><time>2026-04-16T17:00:02.999Z</time></trkpt><trkpt lat="41.176516632473756" lon="15.049278627506315"><ele>584.1999999999999</ele><time>2026-04-16T17:00:04.999Z</time></trkpt><trkpt lat="41.17644166721764" lon="15.049323422619631"><ele>583.6</ele><time>2026-04-16T17:00:05.999Z</time></trkpt><trkpt lat="41.1763778001827" lon="15.049362230073898"><ele>583.0</ele><time>2026-04-16T17:00:06.999Z</time></trkpt><trkpt lat="41.17631941680419" lon="15.049414269015841"><ele>583.0</ele><time>2026-04-16T17:00:07.999Z</time></trkpt><trkpt lat="41.17624810031731" lon="15.049474248777608"><ele>583.0</ele><time>2026-04-16T17:00:08.999Z</time></trkpt><trkpt lat="41.17619493062046" lon="15.049554606183174"><ele>583.0</ele><time>2026-04-16T17:00:09.999Z</time></trkpt><trkpt lat="41.17613990293627" lon="15.04963693116816"><ele>583.0</ele><time>2026-04-16T17:00:10.999Z</time></trkpt><trkpt lat="41.176087416817" lon="15.049723919369425"><ele>583.0</ele><time>2026-04-16T17:00:11.999Z</time></trkpt><trkpt lat="41.17602318403949" lon="15.049802278128091"><ele>583.0</ele><time>2026-04-16T17:00:12.999Z</time></trkpt><trkpt lat="41.17596667559036" lon="15.049877359980366"><ele>581.4285714285714</ele><time>2026-04-16T17:00:13.999Z</time></trkpt><trkpt lat="41.175920546328534" lon="15.049959073241132"><ele>579.8571428571429</ele><time>2026-04-16T17:00:14.999Z</time></trkpt><trkpt lat="41.175869741399445" lon="15.050031364893876"><ele>578.2857142857142</ele><time>2026-04-16T17:00:15.999Z</time></trkpt><trkpt lat="41.17581321027413" lon="15.050103135577169"><ele>576.7142857142858</ele><time>2026-04-16T17:00:16.999Z</time></trkpt><trkpt lat="41.17576220086591" lon="15.050163183206916"><ele>575.1428571428571</ele><time>2026-04-16T17:00:17.999Z</time></trkpt><trkpt lat="41.17571418449125" lon="15.050227195901781"><ele>573.5714285714286</ele><time>2026-04-16T17:00:18.999Z</time></trkpt><trkpt lat="41.175670255553236" lon="15.050297069659376"><ele>572.0</ele><time>2026-04-16T17:00:19.999Z</time></trkpt><trkpt lat="41.175622318235796" lon="15.050403883522579"><ele>572.0</ele><time>2026-04-16T17:00:20.999Z</time></trkpt><trkpt lat="41.17557759043535" lon="15.050520135174644"><ele>572.0</ele><time>2026-04-16T17:00:21.999Z</time></trkpt><trkpt lat="41.17554071052662" lon="15.050640075619619"><ele>572.0</ele><time>2026-04-16T17:00:23.999Z</time></trkpt><trkpt lat="41.17549946089218" lon="15.050709651122315"><ele>572.0</ele><time>2026-04-16T17:00:26.999Z</time></trkpt><trkpt lat="41.175713175906466" lon="15.050881067394904"><ele>569.1666666666666</ele><time>2026-04-16T17:00:27.999Z</time></trkpt><trkpt lat="41.17577117944003" lon="15.050955952851007"><ele>566.3333333333333</ele><time>2026-04-16T17:00:28.999Z</time></trkpt><trkpt lat="41.17581482099388" lon="15.05102457171532"><ele>563.5</ele><time>2026-04-16T17:00:29.999Z</time></trkpt><trkpt lat="41.17585475823407" lon="15.05119182267843"><ele>560.6666666666666</ele><time>2026-04-16T17:00:31.999Z</time></trkpt><trkpt lat="41.17587478192577" lon="15.05128270940149"><ele>557.8333333333334</ele><time>2026-04-16T17:00:32.999Z</time></trkpt><trkpt lat="41.175904207453335" lon="15.051372959229505"><ele>555.0</ele><time>2026-04-16T17:00:33.999Z</time></trkpt><trkpt lat="41.17597936997618" lon="15.051526503542904"><ele>553.5</ele><time>2026-04-16T17:00:35.999Z</time></trkpt><trkpt lat="41.176031194539" lon="15.051628309915317"><ele>552.0</ele><time>2026-04-16T17:00:36.999Z</time></trkpt><trkpt lat="41.17607144617992" lon="15.05172171931587"><ele>550.5</ele><time>2026-04-16T17:00:37.999Z</time></trkpt><trkpt lat="41.176105987314344" lon="15.051822108210173"><ele>549.0</ele><time>2026-04-16T17:00:38.999Z</time></trkpt><trkpt lat="41.176152799154835" lon="15.051902248076233"><ele>547.5</ele><time>2026-04-16T17:00:39.999Z</time></trkpt><trkpt lat="41.17618857236806" lon="15.051984744199391"><ele>546.0</ele><time>2026-04-16T17:00:40.999Z</time></trkpt><trkpt lat="41.176207497514405" lon="15.052074084971826"><ele>546.0</ele><time>2026-04-16T17:00:41.999Z</time></trkpt><trkpt lat="41.17621836255534" lon="15.052186947934109"><ele>546.0</ele><time>2026-04-16T17:00:42.999Z</time></trkpt><trkpt lat="41.1762187481003" lon="15.052314618544075"><ele>546.0</ele><time>2026-04-16T17:00:43.999Z</time></trkpt><trkpt lat="41.17623007166328" lon="15.052455235849537"><ele>546.0</ele><time>2026-04-16T17:00:44.999Z</time></trkpt><trkpt lat="41.17624619685328" lon="15.052598417341901"><ele>546.0</ele><time>2026-04-16T17:00:45.999Z</time></trkpt><trkpt lat="41.17626891155296" lon="15.052731142271483"><ele>545.1666666666666</ele><time>2026-04-16T17:00:46.999Z</time></trkpt><trkpt lat="41.176279928877655" lon="15.052826271681893"><ele>544.3333333333334</ele><time>2026-04-16T17:00:47.999Z</time></trkpt><trkpt lat="41.176311319930505" lon="15.05290919245509"><ele>543.5</ele><time>2026-04-16T17:00:48.999Z</time></trkpt><trkpt lat="41.17632555041556" lon="15.052994856942142"><ele>542.6666666666667</ele><time>2026-04-16T17:00:49.999Z</time></trkpt><trkpt lat="41.176297069755385" lon="15.05313421657744"><ele>541.8333333333334</ele><time>2026-04-16T17:00:51.999Z</time></trkpt><trkpt lat="41.176206405013986" lon="15.05322624319051"><ele>541.0</ele><time>2026-04-16T17:00:53.999Z</time></trkpt><trkpt lat="41.176143930606244" lon="15.053300475065656"><ele>540.6</ele><time>2026-04-16T17:00:54.999Z</time></trkpt><trkpt lat="41.176087378120116" lon="15.053378991350032"><ele>540.2</ele><time>2026-04-16T17:00:55.999Z</time></trkpt><trkpt lat="41.176051802113456" lon="15.05344980031094"><ele>539.8</ele><time>2026-04-16T17:00:56.999Z</time></trkpt><trkpt lat="41.17603944919924" lon="15.05358084141433"><ele>539.4</ele><time>2026-04-16T17:00:58.999Z</time></trkpt><trkpt lat="41.17594860078" lon="15.05358422509364"><ele>539.0</ele><time>2026-04-16T17:01:00.999Z</time></trkpt><trkpt lat="41.175773825658545" lon="15.053748780041385"><ele>538.2</ele><time>2026-04-16T17:01:08.998Z</time></trkpt><trkpt lat="41.17567796024843" lon="15.053767465959128"><ele>537.4</ele><time>2026-04-16T17:01:09.998Z</time></trkpt><trkpt lat="41.17560304111071" lon="15.0537865379029"><ele>536.6</ele><time>2026-04-16T17:01:10.998Z</time></trkpt><trkpt lat="41.17550094873183" lon="15.053872887876347"><ele>535.8</ele><time>2026-04-16T17:01:13Z</time></trkpt><trkpt lat="41.175420114726535" lon="15.053950435726552"><ele>535.0</ele><time>2026-04-16T17:01:15Z</time></trkpt><trkpt lat="41.17531095451543" lon="15.054008025769535"><ele>535.0</ele><time>2026-04-16T17:01:17Z</time></trkpt><trkpt lat="41.17524727772228" lon="15.054047559138157"><ele>535.0</ele><time>2026-04-16T17:01:20Z</time></trkpt><trkpt lat="41.17521003964388" lon="15.054123937503794"><ele>535.0</ele><time>2026-04-16T17:01:22Z</time></trkpt><trkpt lat="41.17516508678816" lon="15.054196495430174"><ele>535.0</ele><time>2026-04-16T17:01:24Z</time></trkpt><trkpt lat="41.17504824327688" lon="15.054288260061407"><ele>535.0</ele><time>2026-04-16T17:01:26Z</time></trkpt><trkpt lat="41.17494081456057" lon="15.054374320964605"><ele>531.0</ele><time>2026-04-16T17:01:28Z</time></trkpt><trkpt lat="41.17486382541419" lon="15.05453783516063"><ele>527.0</ele><time>2026-04-16T17:01:30Z</time></trkpt><trkpt lat="41.17481991483487" lon="15.054619753771746"><ele>523.0</ele><time>2026-04-16T17:01:31Z</time></trkpt><trkpt lat="41.174780763951176" lon="15.05475870567703"><ele>519.0</ele><time>2026-04-16T17:01:33Z</time></trkpt><trkpt lat="41.174750680383504" lon="15.054847951155876"><ele>515.0</ele><time>2026-04-16T17:01:34Z</time></trkpt><trkpt lat="41.17473259766773" lon="15.054949979051065"><ele>510.49999999999994</ele><time>2026-04-16T17:01:35Z</time></trkpt><trkpt lat="41.17473930238412" lon="15.055084894188445"><ele>506.0</ele><time>2026-04-16T17:01:37Z</time></trkpt><trkpt lat="41.174683872370494" lon="15.055169830207111"><ele>501.5</ele><time>2026-04-16T17:01:41Z</time></trkpt><trkpt lat="41.17467351555274" lon="15.055281232241128"><ele>497.0</ele><time>2026-04-16T17:01:44Z</time></trkpt><trkpt lat="41.17463130949469" lon="15.055349989663167"><ele>492.49999999999994</ele><time>2026-04-16T17:01:46Z</time></trkpt><trkpt lat="41.17461757295352" lon="15.055452159468185"><ele>488.0</ele><time>2026-04-16T17:01:49Z</time></trkpt><trkpt lat="41.17455817168162" lon="15.055489375726228"><ele>487.99999999999994</ele><time>2026-04-16T17:01:51Z</time></trkpt><trkpt lat="41.17448538052721" lon="15.055472745148046"><ele>488.0</ele><time>2026-04-16T17:01:55Z</time></trkpt><trkpt lat="41.174430777852905" lon="15.055411103354247"><ele>488.0</ele><time>2026-04-16T17:02:04.999Z</time></trkpt><trkpt lat="41.174414528767635" lon="15.05530060476213"><ele>488.0</ele><time>2026-04-16T17:02:07.999Z</time></trkpt><trkpt lat="41.174338935975605" lon="15.055197423264348"><ele>487.99999999999994</ele><time>2026-04-16T17:02:09.999Z</time></trkpt><trkpt lat="41.17435062204517" lon="15.055104199853805"><ele>488.0</ele><time>2026-04-16T17:02:12.999Z</time></trkpt><trkpt lat="41.17436756747882" lon="15.055023005662937"><ele>486.3333333333333</ele><time>2026-04-16T17:02:14.999Z</time></trkpt><trkpt lat="41.17434589449297" lon="15.054907662599037"><ele>484.66666666666663</ele><time>2026-04-16T17:02:16.999Z</time></trkpt><trkpt lat="41.17425517237107" lon="15.054828568813244"><ele>483.0</ele><time>2026-04-16T17:02:19.999Z</time></trkpt><trkpt lat="41.1742078191821" lon="15.054758906678657"><ele>481.33333333333337</ele><time>2026-04-16T17:02:20.999Z</time></trkpt><trkpt lat="41.174141518213766" lon="15.054704896021097"><ele>479.6666666666667</ele><time>2026-04-16T17:02:21.999Z</time></trkpt><trkpt lat="41.17408398813864" lon="15.054610185900914"><ele>478.0</ele><time>2026-04-16T17:02:23.999Z</time></trkpt><trkpt lat="41.17398317123564" lon="15.054544710670887"><ele>478.0</ele><time>2026-04-16T17:02:25.999Z</time></trkpt><trkpt lat="41.17389228526538" lon="15.054567211726292"><ele>477.99999999999994</ele><time>2026-04-16T17:02:28.999Z</time></trkpt><trkpt lat="41.17386692648006" lon="15.054665003205395"><ele>477.99999999999994</ele><time>2026-04-16T17:02:31.999Z</time></trkpt><trkpt lat="41.17390673961969" lon="15.054741824727188"><ele>478.0</ele><time>2026-04-16T17:02:33.999Z</time></trkpt><trkpt lat="41.174056226274864" lon="15.054754403086182"><ele>478.0</ele><time>2026-04-16T17:02:37.999Z</time></trkpt><trkpt lat="41.17413202870807" lon="15.05483704659382"><ele>478.2</ele><time>2026-04-16T17:02:40.999Z</time></trkpt><trkpt lat="41.17417782670905" lon="15.0549343033945"><ele>478.4</ele><time>2026-04-16T17:02:43.999Z</time></trkpt><trkpt lat="41.174229409053865" lon="15.055040103786165"><ele>478.59999999999997</ele><time>2026-04-16T17:02:46.999Z</time></trkpt><trkpt lat="41.174308028086635" lon="15.05509935011848"><ele>478.79999999999995</ele><time>2026-04-16T17:02:49.999Z</time></trkpt><trkpt lat="41.174286234882345" lon="15.055185922888993"><ele>479.0</ele><time>2026-04-16T17:02:51.999Z</time></trkpt><trkpt lat="41.17452404086321" lon="15.055885220035082"><ele>478.99999999999994</ele><time>2026-04-16T17:02:54.999Z</time></trkpt><trkpt lat="41.17456407943261" lon="15.055984877572547"><ele>479.0</ele><time>2026-04-16T17:02:56.999Z</time></trkpt><trkpt lat="41.17458474808108" lon="15.056067800197518"><ele>479.0</ele><time>2026-04-16T17:02:58.999Z</time></trkpt><trkpt lat="41.1746723013526" lon="15.056157458377047"><ele>479.0</ele><time>2026-04-16T17:03:00.999Z</time></trkpt><trkpt lat="41.174717158469136" lon="15.056275907755603"><ele>478.99999999999994</ele><time>2026-04-16T17:03:02.998Z</time></trkpt><trkpt lat="41.174743656910124" lon="15.05638118547051"><ele>479.0</ele><time>2026-04-16T17:03:04.998Z</time></trkpt><trkpt lat="41.17474851406715" lon="15.056485466408507"><ele>478.99999999999994</ele><time>2026-04-16T17:03:05.998Z</time></trkpt><trkpt lat="41.17482647749738" lon="15.056488245841873"><ele>479.0</ele><time>2026-04-16T17:03:06.998Z</time></trkpt><trkpt lat="41.17486427852113" lon="15.056576893907026"><ele>479.0</ele><time>2026-04-16T17:03:08.998Z</time></trkpt><trkpt lat="41.17490860579308" lon="15.056669056871755"><ele>479.0</ele><time>2026-04-16T17:03:10.998Z</time></trkpt><trkpt lat="41.174799561007234" lon="15.056628495606958"><ele>478.99999999999994</ele><time>2026-04-16T17:03:13.998Z</time></trkpt><trkpt lat="41.17479212542735" lon="15.056522545286075"><ele>479.0</ele><time>2026-04-16T17:03:16.998Z</time></trkpt><trkpt lat="41.17488604322217" lon="15.05643704323743"><ele>478.99999999999994</ele><time>2026-04-16T17:03:21Z</time></trkpt><trkpt lat="41.17479930940559" lon="15.056401905564444"><ele>479.0</ele><time>2026-04-16T17:03:27Z</time></trkpt><trkpt lat="41.1747450811183" lon="15.056317347230616"><ele>479.0</ele><time>2026-04-16T17:03:30Z</time></trkpt><trkpt lat="41.17471760597912" lon="15.056229280256833"><ele>479.0</ele><time>2026-04-16T17:03:32Z</time></trkpt><trkpt lat="41.17466978943956" lon="15.0561296919471"><ele>478.99999999999994</ele><time>2026-04-16T17:03:34Z</time></trkpt><trkpt lat="41.17461393775266" lon="15.056015093951522"><ele>479.0</ele><time>2026-04-16T17:03:36Z</time></trkpt><trkpt lat="41.17456095699169" lon="15.055921158005846"><ele>480.79999999999995</ele><time>2026-04-16T17:03:40Z</time></trkpt><trkpt lat="41.174547139023765" lon="15.055703562346809"><ele>482.59999999999997</ele><time>2026-04-16T17:04:24.999Z</time></trkpt><trkpt lat="41.17456784273922" lon="15.055599119006704"><ele>484.4</ele><time>2026-04-16T17:04:25.999Z</time></trkpt><trkpt lat="41.174594361327046" lon="15.055466957799911"><ele>486.2</ele><time>2026-04-16T17:04:26.999Z</time></trkpt><trkpt lat="41.17461836867687" lon="15.055344948205336"><ele>488.0</ele><time>2026-04-16T17:04:27.999Z</time></trkpt><trkpt lat="41.17473196789934" lon="15.055227362868548"><ele>488.0</ele><time>2026-04-16T17:04:29.999Z</time></trkpt><trkpt lat="41.174775867709684" lon="15.055089187305098"><ele>487.99999999999994</ele><time>2026-04-16T17:04:31.999Z</time></trkpt><trkpt lat="41.17474523874575" lon="15.054975291116454"><ele>487.99999999999994</ele><time>2026-04-16T17:04:32.999Z</time></trkpt><trkpt lat="41.17475952931615" lon="15.054880069530883"><ele>488.0</ele><time>2026-04-16T17:04:33.999Z</time></trkpt><trkpt lat="41.17479359573197" lon="15.054786206360843"><ele>488.0</ele><time>2026-04-16T17:04:34.999Z</time></trkpt><trkpt lat="41.174871083126604" lon="15.054688215010797"><ele>493.4</ele><time>2026-04-16T17:04:36.999Z</time></trkpt><trkpt lat="41.17493078441014" lon="15.054560672595116"><ele>498.79999999999995</ele><time>2026-04-16T17:04:37.999Z</time></trkpt><trkpt lat="41.174981494230956" lon="15.054496230622245"><ele>504.2</ele><time>2026-04-16T17:04:38.999Z</time></trkpt><trkpt lat="41.17503735197003" lon="15.054437515637566"><ele>509.6</ele><time>2026-04-16T17:04:39.999Z</time></trkpt><trkpt lat="41.17513968044876" lon="15.054347738235013"><ele>515.0</ele><time>2026-04-16T17:04:41.999Z</time></trkpt><trkpt lat="41.17516046464241" lon="15.054249404234312"><ele>515.0</ele><time>2026-04-16T17:04:42.999Z</time></trkpt><trkpt lat="41.17516418301318" lon="15.054147789973532"><ele>515.0</ele><time>2026-04-16T17:04:43.999Z</time></trkpt><trkpt lat="41.17519691712566" lon="15.054074631829303"><ele>515.0</ele><time>2026-04-16T17:04:44.999Z</time></trkpt><trkpt lat="41.17526688778191" lon="15.054024307179848"><ele>515.0</ele><time>2026-04-16T17:04:45.999Z</time></trkpt><trkpt lat="41.175341375012714" lon="15.054037075833092"><ele>515.0</ele><time>2026-04-16T17:04:46.999Z</time></trkpt><trkpt lat="41.17540390639007" lon="15.053985859497935"><ele>515.0</ele><time>2026-04-16T17:04:47.999Z</time></trkpt><trkpt lat="41.17550812200382" lon="15.053917423963522"><ele>519.0</ele><time>2026-04-16T17:04:49.999Z</time></trkpt><trkpt lat="41.17565305164002" lon="15.05392080235732"><ele>523.0</ele><time>2026-04-16T17:04:51.999Z</time></trkpt><trkpt lat="41.17572583697302" lon="15.05386252252336"><ele>527.0</ele><time>2026-04-16T17:04:52.999Z</time></trkpt><trkpt lat="41.175789019959595" lon="15.053817296760633"><ele>531.0</ele><time>2026-04-16T17:04:53.999Z</time></trkpt><trkpt lat="41.17587622360323" lon="15.053746747889567"><ele>535.0</ele><time>2026-04-16T17:04:54.999Z</time></trkpt><trkpt lat="41.17593274661224" lon="15.053674872563422"><ele>535.6666666666667</ele><time>2026-04-16T17:04:55.998Z</time></trkpt><trkpt lat="41.176015451138014" lon="15.053621135285724"><ele>536.3333333333334</ele><time>2026-04-16T17:04:57.998Z</time></trkpt><trkpt lat="41.176087152551005" lon="15.05361518047695"><ele>537.0</ele><time>2026-04-16T17:04:59.998Z</time></trkpt><trkpt lat="41.17611894978605" lon="15.053458580111888"><ele>537.6666666666666</ele><time>2026-04-16T17:05:01.998Z</time></trkpt><trkpt lat="41.1761410745949" lon="15.053358790922871"><ele>538.3333333333333</ele><time>2026-04-16T17:05:02.998Z</time></trkpt><trkpt lat="41.17620039881944" lon="15.05330237780454"><ele>539.0</ele><time>2026-04-16T17:05:03.998Z</time></trkpt><trkpt lat="41.17625709529152" lon="15.05323020905381"><ele>539.4</ele><time>2026-04-16T17:05:04.998Z</time></trkpt><trkpt lat="41.17631083034083" lon="15.053137988795658"><ele>539.8</ele><time>2026-04-16T17:05:06.998Z</time></trkpt><trkpt lat="41.176338332710195" lon="15.05303451942527"><ele>540.2</ele><time>2026-04-16T17:05:08.998Z</time></trkpt><trkpt lat="41.17630508651499" lon="15.052834733537303"><ele>540.6</ele><time>2026-04-16T17:05:10.998Z</time></trkpt><trkpt lat="41.17628070928584" lon="15.052716573628686"><ele>541.0</ele><time>2026-04-16T17:05:11.998Z</time></trkpt><trkpt lat="41.17625326674037" lon="15.0526091181756"><ele>541.0</ele><time>2026-04-16T17:05:12.998Z</time></trkpt><trkpt lat="41.176245428528055" lon="15.052478163558934"><ele>541.0</ele><time>2026-04-16T17:05:13.998Z</time></trkpt><trkpt lat="41.17621135168911" lon="15.052303406465622"><ele>541.0</ele><time>2026-04-16T17:05:14.998Z</time></trkpt><trkpt lat="41.176205149478996" lon="15.052151980752383"><ele>541.0</ele><time>2026-04-16T17:05:15.998Z</time></trkpt><trkpt lat="41.17620538201399" lon="15.05201327981094"><ele>542.0</ele><time>2026-04-16T17:05:16.998Z</time></trkpt><trkpt lat="41.17618080811976" lon="15.051903736323139"><ele>543.0</ele><time>2026-04-16T17:05:17.998Z</time></trkpt><trkpt lat="41.176150505391476" lon="15.051802677448"><ele>544.0</ele><time>2026-04-16T17:05:18.998Z</time></trkpt><trkpt lat="41.17611456472745" lon="15.051697708572261"><ele>545.0</ele><time>2026-04-16T17:05:19.998Z</time></trkpt><trkpt lat="41.17603138887611" lon="15.051571497832072"><ele>546.0</ele><time>2026-04-16T17:05:20.998Z</time></trkpt><trkpt lat="41.17595674884845" lon="15.051431570978137"><ele>547.8</ele><time>2026-04-16T17:05:21.998Z</time></trkpt><trkpt lat="41.175892749652036" lon="15.051289200550048"><ele>549.6</ele><time>2026-04-16T17:05:22.998Z</time></trkpt><trkpt lat="41.17585320707069" lon="15.051153324837406"><ele>551.4</ele><time>2026-04-16T17:05:24Z</time></trkpt><trkpt lat="41.17580701814585" lon="15.051030357968962"><ele>553.2</ele><time>2026-04-16T17:05:25Z</time></trkpt><trkpt lat="41.17577352121357" lon="15.050944977011744"><ele>555.0</ele><time>2026-04-16T17:05:26Z</time></trkpt><trkpt lat="41.17572290980538" lon="15.05085814327887"><ele>555.3333333333334</ele><time>2026-04-16T17:05:27Z</time></trkpt><trkpt lat="41.17565859644734" lon="15.050776147769227"><ele>555.6666666666666</ele><time>2026-04-16T17:05:28Z</time></trkpt><trkpt lat="41.175587718677384" lon="15.050702676195135"><ele>556.0</ele><time>2026-04-16T17:05:29Z</time></trkpt><trkpt lat="41.175528155284496" lon="15.050743512183006"><ele>556.3333333333333</ele><time>2026-04-16T17:05:32Z</time></trkpt><trkpt lat="41.17548908293569" lon="15.050812579394929"><ele>556.6666666666666</ele><time>2026-04-16T17:05:33Z</time></trkpt><trkpt lat="41.175442912095775" lon="15.050910181460317"><ele>557.0</ele><time>2026-04-16T17:05:34Z</time></trkpt><trkpt lat="41.175394119773905" lon="15.051025366615123"><ele>557.0</ele><time>2026-04-16T17:05:35Z</time></trkpt><trkpt lat="41.17534392023422" lon="15.051232891324421"><ele>557.0</ele><time>2026-04-16T17:05:36Z</time></trkpt><trkpt lat="41.17528491624396" lon="15.05139419053594"><ele>557.0</ele><time>2026-04-16T17:05:37Z</time></trkpt><trkpt lat="41.175243428319185" lon="15.051561658945886"><ele>557.0</ele><time>2026-04-16T17:05:38Z</time></trkpt><trkpt lat="41.17520230112351" lon="15.051703301207503"><ele>556.0</ele><time>2026-04-16T17:05:39Z</time></trkpt><trkpt lat="41.17516583732015" lon="15.051825981093414"><ele>555.0</ele><time>2026-04-16T17:05:40Z</time></trkpt><trkpt lat="41.175135614852834" lon="15.051926169770223"><ele>554.0</ele><time>2026-04-16T17:05:41Z</time></trkpt><trkpt lat="41.17509038689897" lon="15.052009236691053"><ele>553.0</ele><time>2026-04-16T17:05:42Z</time></trkpt><trkpt lat="41.175042716079496" lon="15.05206937618576"><ele>552.0</ele><time>2026-04-16T17:05:43Z</time></trkpt><trkpt lat="41.17497092860231" lon="15.052102459066317"><ele>551.0</ele><time>2026-04-16T17:05:44Z</time></trkpt><trkpt lat="41.174859566016" lon="15.052047033267035"><ele>545.25</ele><time>2026-04-16T17:05:45Z</time></trkpt><trkpt lat="41.174731351442624" lon="15.051934655775103"><ele>539.5</ele><time>2026-04-16T17:05:46Z</time></trkpt><trkpt lat="41.17463186572012" lon="15.0518304350475"><ele>533.75</ele><time>2026-04-16T17:05:47Z</time></trkpt><trkpt lat="41.17454248182307" lon="15.051730915893863"><ele>528.0</ele><time>2026-04-16T17:05:48Z</time></trkpt><trkpt lat="41.174460091689255" lon="15.051627973486054"><ele>529.5</ele><time>2026-04-16T17:05:49Z</time></trkpt><trkpt lat="41.17438167026434" lon="15.051507806260288"><ele>531.0</ele><time>2026-04-16T17:05:50Z</time></trkpt><trkpt lat="41.17429891836153" lon="15.051401926602558"><ele>532.5</ele><time>2026-04-16T17:05:51Z</time></trkpt><trkpt lat="41.17422251517241" lon="15.051255817461469"><ele>534.0</ele><time>2026-04-16T17:05:52Z</time></trkpt><trkpt lat="41.17415017961847" lon="15.051100612429783"><ele>534.0</ele><time>2026-04-16T17:05:53Z</time></trkpt><trkpt lat="41.1740825474524" lon="15.050949524995112"><ele>534.0</ele><time>2026-04-16T17:05:54Z</time></trkpt><trkpt lat="41.17402271130232" lon="15.050798024493954"><ele>534.0</ele><time>2026-04-16T17:05:55Z</time></trkpt><trkpt lat="41.17395343392193" lon="15.050644957642099"><ele>534.0</ele><time>2026-04-16T17:05:56Z</time></trkpt><trkpt lat="41.17387535122577" lon="15.050487714617923"><ele>527.5</ele><time>2026-04-16T17:05:57Z</time></trkpt><trkpt lat="41.17379142347274" lon="15.050338514425809"><ele>521.0</ele><time>2026-04-16T17:05:58Z</time></trkpt><trkpt lat="41.17371877712462" lon="15.050174269149325"><ele>514.5</ele><time>2026-04-16T17:05:59Z</time></trkpt><trkpt lat="41.17365499963204" lon="15.050040600472542"><ele>508.0</ele><time>2026-04-16T17:06:00Z</time></trkpt><trkpt lat="41.17359344387812" lon="15.049903792938938"><ele>508.00000000000006</ele><time>2026-04-16T17:06:01Z</time></trkpt><trkpt lat="41.17354256101385" lon="15.049782435418924"><ele>508.0</ele><time>2026-04-16T17:06:02Z</time></trkpt><trkpt lat="41.17349960959187" lon="15.049667728204271"><ele>508.0</ele><time>2026-04-16T17:06:03Z</time></trkpt><trkpt lat="41.1734797721923" lon="15.049554751778395"><ele>508.0</ele><time>2026-04-16T17:06:04Z</time></trkpt><trkpt lat="41.17349786994707" lon="15.049448699503126"><ele>508.00000000000006</ele><time>2026-04-16T17:06:05Z</time></trkpt><trkpt lat="41.17348696244147" lon="15.049352536043639"><ele>508.0</ele><time>2026-04-16T17:06:06Z</time></trkpt><trkpt lat="41.17347996071566" lon="15.049246484478752"><ele>508.00000000000006</ele><time>2026-04-16T17:06:07Z</time></trkpt><trkpt lat="41.17343885946638" lon="15.049170964699336"><ele>508.0</ele><time>2026-04-16T17:06:07.999Z</time></trkpt><trkpt lat="41.173431026034145" lon="15.049067380747871"><ele>508.0</ele><time>2026-04-16T17:06:08.999Z</time></trkpt><trkpt lat="41.173404147280465" lon="15.048949695714967"><ele>508.0</ele><time>2026-04-16T17:06:09.999Z</time></trkpt><trkpt lat="41.17336488711655" lon="15.048840066307035"><ele>508.00000000000006</ele><time>2026-04-16T17:06:10.999Z</time></trkpt><trkpt lat="41.17332931559962" lon="15.0487109924217"><ele>508.0</ele><time>2026-04-16T17:06:11.999Z</time></trkpt><trkpt lat="41.17327593948997" lon="15.048587900621659"><ele>508.4</ele><time>2026-04-16T17:06:12.999Z</time></trkpt><trkpt lat="41.17321232492134" lon="15.048481675947226"><ele>508.79999999999995</ele><time>2026-04-16T17:06:13.999Z</time></trkpt><trkpt lat="41.17312861769416" lon="15.04839149945645"><ele>509.2</ele><time>2026-04-16T17:06:14.999Z</time></trkpt><trkpt lat="41.17303437990498" lon="15.048342714610884"><ele>509.6</ele><time>2026-04-16T17:06:15.999Z</time></trkpt><trkpt lat="41.172944739088706" lon="15.04828670776339"><ele>510.0</ele><time>2026-04-16T17:06:16.999Z</time></trkpt><trkpt lat="41.17284132121051" lon="15.048285337774086"><ele>508.5</ele><time>2026-04-16T17:06:17.999Z</time></trkpt><trkpt lat="41.17272287783126" lon="15.048327581765593"><ele>507.0</ele><time>2026-04-16T17:06:18.999Z</time></trkpt><trkpt lat="41.172602988732436" lon="15.048393236279988"><ele>505.5</ele><time>2026-04-16T17:06:19.999Z</time></trkpt><trkpt lat="41.172479740299416" lon="15.04846348555187"><ele>504.0</ele><time>2026-04-16T17:06:20.999Z</time></trkpt><trkpt lat="41.17237505064952" lon="15.048515959941708"><ele>503.0</ele><time>2026-04-16T17:06:21.999Z</time></trkpt><trkpt lat="41.17228504710712" lon="15.04852249216429"><ele>502.0</ele><time>2026-04-16T17:06:22.999Z</time></trkpt><trkpt lat="41.17220673275401" lon="15.048528617717986"><ele>501.0</ele><time>2026-04-16T17:06:23.999Z</time></trkpt><trkpt lat="41.17208777562877" lon="15.048432192809004"><ele>500.0</ele><time>2026-04-16T17:06:25.999Z</time></trkpt><trkpt lat="41.172045527919195" lon="15.04825681749862"><ele>499.0</ele><time>2026-04-16T17:06:27.999Z</time></trkpt><trkpt lat="41.17206047432895" lon="15.048136595553418"><ele>499.0</ele><time>2026-04-16T17:06:28.999Z</time></trkpt><trkpt lat="41.172095465433976" lon="15.048017954724724"><ele>499.0</ele><time>2026-04-16T17:06:29.999Z</time></trkpt><trkpt lat="41.17212305021011" lon="15.047895545742477"><ele>499.0</ele><time>2026-04-16T17:06:30.999Z</time></trkpt><trkpt lat="41.17214444313136" lon="15.047757936216671"><ele>499.0</ele><time>2026-04-16T17:06:31.999Z</time></trkpt><trkpt lat="41.17216319344991" lon="15.047629102801704"><ele>499.0</ele><time>2026-04-16T17:06:32.999Z</time></trkpt><trkpt lat="41.172175888918304" lon="15.047496253227278"><ele>502.0</ele><time>2026-04-16T17:06:33.999Z</time></trkpt><trkpt lat="41.17218641039888" lon="15.047373940424979"><ele>505.0</ele><time>2026-04-16T17:06:34.999Z</time></trkpt><trkpt lat="41.172174315363755" lon="15.047249053432322"><ele>508.0</ele><time>2026-04-16T17:06:35.999Z</time></trkpt><trkpt lat="41.17214615743976" lon="15.047127844836456"><ele>511.0</ele><time>2026-04-16T17:06:36.999Z</time></trkpt><trkpt lat="41.17210793069842" lon="15.047013448470638"><ele>514.0</ele><time>2026-04-16T17:06:37.999Z</time></trkpt><trkpt lat="41.17205878117236" lon="15.046905136203303"><ele>514.0</ele><time>2026-04-16T17:06:38.999Z</time></trkpt><trkpt lat="41.172004494067345" lon="15.046794583658627"><ele>514.0</ele><time>2026-04-16T17:06:39.999Z</time></trkpt><trkpt lat="41.17193618322059" lon="15.046711782224778"><ele>514.0</ele><time>2026-04-16T17:06:40.999Z</time></trkpt><trkpt lat="41.17185851211143" lon="15.04663234673511"><ele>514.0</ele><time>2026-04-16T17:06:41.999Z</time></trkpt><trkpt lat="41.171779499555015" lon="15.046561155364751"><ele>514.0</ele><time>2026-04-16T17:06:42.999Z</time></trkpt><trkpt lat="41.17170141160865" lon="15.046499121436339"><ele>516.6</ele><time>2026-04-16T17:06:43.999Z</time></trkpt><trkpt lat="41.171609662333" lon="15.046436070193115"><ele>519.2</ele><time>2026-04-16T17:06:44.999Z</time></trkpt><trkpt lat="41.171541838828766" lon="15.04636917467074"><ele>521.8000000000001</ele><time>2026-04-16T17:06:45.999Z</time></trkpt><trkpt lat="41.17146131248597" lon="15.046287335496793"><ele>524.4</ele><time>2026-04-16T17:06:46.999Z</time></trkpt><trkpt lat="41.171418568326025" lon="15.04619531576214"><ele>527.0</ele><time>2026-04-16T17:06:47.999Z</time></trkpt><trkpt lat="41.17144797632385" lon="15.046034062502759"><ele>527.0</ele><time>2026-04-16T17:06:49.999Z</time></trkpt><trkpt lat="41.1714818907591" lon="15.045954244039498"><ele>527.0</ele><time>2026-04-16T17:06:50.999Z</time></trkpt><trkpt lat="41.17152703274614" lon="15.045863619363038"><ele>527.0</ele><time>2026-04-16T17:06:51.999Z</time></trkpt><trkpt lat="41.1715758928541" lon="15.045768103089975"><ele>527.0</ele><time>2026-04-16T17:06:52.999Z</time></trkpt><trkpt lat="41.171636029653214" lon="15.045665243508854"><ele>527.0</ele><time>2026-04-16T17:06:53.999Z</time></trkpt><trkpt lat="41.17169799884851" lon="15.045560236449909"><ele>527.0</ele><time>2026-04-16T17:06:54.999Z</time></trkpt><trkpt lat="41.171764230234885" lon="15.045441393236965"><ele>525.75</ele><time>2026-04-16T17:06:55.999Z</time></trkpt><trkpt lat="41.171827956678484" lon="15.045313045839585"><ele>524.5</ele><time>2026-04-16T17:06:56.999Z</time></trkpt><trkpt lat="41.171895017268305" lon="15.045182047228973"><ele>523.25</ele><time>2026-04-16T17:06:57.999Z</time></trkpt><trkpt lat="41.17195243869639" lon="15.045058478095505"><ele>522.0</ele><time>2026-04-16T17:06:58.999Z</time></trkpt><trkpt lat="41.17202805735106" lon="15.044917131806873"><ele>519.8000000000001</ele><time>2026-04-16T17:06:59.999Z</time></trkpt><trkpt lat="41.17211292467789" lon="15.0448209454684"><ele>517.6</ele><time>2026-04-16T17:07:00.999Z</time></trkpt><trkpt lat="41.17218116788216" lon="15.044714644911679"><ele>515.4000000000001</ele><time>2026-04-16T17:07:01.999Z</time></trkpt><trkpt lat="41.17223471294109" lon="15.044609745550012"><ele>513.2</ele><time>2026-04-16T17:07:02.999Z</time></trkpt><trkpt lat="41.172265844343904" lon="15.044481499332278"><ele>511.0</ele><time>2026-04-16T17:07:03.999Z</time></trkpt><trkpt lat="41.172323014492754" lon="15.044366826748796"><ele>516.2</ele><time>2026-04-16T17:07:04.999Z</time></trkpt><trkpt lat="41.172371431421745" lon="15.04424003012871"><ele>521.4000000000001</ele><time>2026-04-16T17:07:05.999Z</time></trkpt><trkpt lat="41.172419199282665" lon="15.044114038845779"><ele>526.6</ele><time>2026-04-16T17:07:06.999Z</time></trkpt><trkpt lat="41.17245686368285" lon="15.04398161378633"><ele>531.8000000000001</ele><time>2026-04-16T17:07:07.999Z</time></trkpt><trkpt lat="41.17245879187653" lon="15.04387631466282"><ele>537.0</ele><time>2026-04-16T17:07:08.998Z</time></trkpt><trkpt lat="41.17243261352571" lon="15.043735978044872"><ele>538.8000000000001</ele><time>2026-04-16T17:07:09.998Z</time></trkpt><trkpt lat="41.172399474399775" lon="15.043607453810145"><ele>540.6</ele><time>2026-04-16T17:07:10.998Z</time></trkpt><trkpt lat="41.17235665644407" lon="15.043487005112613"><ele>542.4000000000001</ele><time>2026-04-16T17:07:11.998Z</time></trkpt><trkpt lat="41.17229346624138" lon="15.043340463928388"><ele>544.2</ele><time>2026-04-16T17:07:12.998Z</time></trkpt><trkpt lat="41.17223610862431" lon="15.043211849313337"><ele>546.0</ele><time>2026-04-16T17:07:13.998Z</time></trkpt><trkpt lat="41.172175135413156" lon="15.04310239115802"><ele>542.4</ele><time>2026-04-16T17:07:14.998Z</time></trkpt><trkpt lat="41.17210576086985" lon="15.0429923257598"><ele>538.8</ele><time>2026-04-16T17:07:15.998Z</time></trkpt><trkpt lat="41.17202366044088" lon="15.04289097553016"><ele>535.1999999999999</ele><time>2026-04-16T17:07:16.998Z</time></trkpt><trkpt lat="41.171977012560355" lon="15.04277750777041"><ele>531.6</ele><time>2026-04-16T17:07:17.998Z</time></trkpt><trkpt lat="41.17192791074704" lon="15.042654187060384"><ele>528.0</ele><time>2026-04-16T17:07:18.998Z</time></trkpt><trkpt lat="41.17187443694056" lon="15.042523507630769"><ele>529.0</ele><time>2026-04-16T17:07:19.998Z</time></trkpt><trkpt lat="41.17184980924153" lon="15.042377035051926"><ele>530.0</ele><time>2026-04-16T17:07:20.998Z</time></trkpt><trkpt lat="41.171821759230454" lon="15.042243857053766"><ele>531.0</ele><time>2026-04-16T17:07:21.998Z</time></trkpt><trkpt lat="41.17178856207954" lon="15.042119682904376"><ele>532.0</ele><time>2026-04-16T17:07:22.998Z</time></trkpt><trkpt lat="41.17176580759991" lon="15.041982838171903"><ele>533.0</ele><time>2026-04-16T17:07:23.998Z</time></trkpt><trkpt lat="41.171754025017634" lon="15.041838280633977"><ele>533.0</ele><time>2026-04-16T17:07:24.998Z</time></trkpt><trkpt lat="41.17175970033935" lon="15.041691787353535"><ele>533.0</ele><time>2026-04-16T17:07:25.998Z</time></trkpt><trkpt lat="41.171763151486005" lon="15.041546843369902"><ele>533.0</ele><time>2026-04-16T17:07:26.998Z</time></trkpt><trkpt lat="41.17177016493034" lon="15.04140880312826"><ele>533.0</ele><time>2026-04-16T17:07:27.998Z</time></trkpt><trkpt lat="41.17179361805064" lon="15.04127108842394"><ele>533.0</ele><time>2026-04-16T17:07:28.998Z</time></trkpt><trkpt lat="41.17182507012296" lon="15.0411383042287"><ele>533.4</ele><time>2026-04-16T17:07:30Z</time></trkpt><trkpt lat="41.17183729640547" lon="15.041003154439986"><ele>533.8</ele><time>2026-04-16T17:07:31Z</time></trkpt><trkpt lat="41.171838430427464" lon="15.040881023762179"><ele>534.2</ele><time>2026-04-16T17:07:32Z</time></trkpt><trkpt lat="41.17183282446266" lon="15.04073259979111"><ele>534.6</ele><time>2026-04-16T17:07:33Z</time></trkpt><trkpt lat="41.17180675703799" lon="15.040604318161549"><ele>535.0</ele><time>2026-04-16T17:07:34Z</time></trkpt><trkpt lat="41.1717723651448" lon="15.04047977685931"><ele>536.0</ele><time>2026-04-16T17:07:35Z</time></trkpt><trkpt lat="41.17170511543104" lon="15.040363132910285"><ele>537.0</ele><time>2026-04-16T17:07:36Z</time></trkpt><trkpt lat="41.17164437545516" lon="15.040280981908442"><ele>538.0</ele><time>2026-04-16T17:07:37Z</time></trkpt><trkpt lat="41.171556758042385" lon="15.040214157820163"><ele>539.0</ele><time>2026-04-16T17:07:38Z</time></trkpt><trkpt lat="41.17150954850362" lon="15.040145916571518"><ele>540.0</ele><time>2026-04-16T17:07:39Z</time></trkpt><trkpt lat="41.17149350212459" lon="15.039978732826567"><ele>541.6</ele><time>2026-04-16T17:07:41Z</time></trkpt><trkpt lat="41.17155545409388" lon="15.039872574909912"><ele>543.2</ele><time>2026-04-16T17:07:42Z</time></trkpt><trkpt lat="41.17157658734569" lon="15.03973559668961"><ele>544.8</ele><time>2026-04-16T17:07:43Z</time></trkpt><trkpt lat="41.171605074576064" lon="15.039616011748265"><ele>546.4</ele><time>2026-04-16T17:07:44Z</time></trkpt><trkpt lat="41.17162747706112" lon="15.039483832199089"><ele>548.0</ele><time>2026-04-16T17:07:45Z</time></trkpt><trkpt lat="41.17163712047633" lon="15.039342463107157"><ele>548.0</ele><time>2026-04-16T17:07:46Z</time></trkpt><trkpt lat="41.171640688421235" lon="15.039192076939413"><ele>548.0</ele><time>2026-04-16T17:07:47Z</time></trkpt><trkpt lat="41.171650281560744" lon="15.039043770844522"><ele>548.0</ele><time>2026-04-16T17:07:48Z</time></trkpt><trkpt lat="41.171656776600535" lon="15.038894923706362"><ele>548.0</ele><time>2026-04-16T17:07:49Z</time></trkpt><trkpt lat="41.1716876761429" lon="15.038769215094948"><ele>548.0</ele><time>2026-04-16T17:07:50Z</time></trkpt><trkpt lat="41.17169567903686" lon="15.038667410750596"><ele>547.8333333333333</ele><time>2026-04-16T17:07:51Z</time></trkpt><trkpt lat="41.17173333664922" lon="15.038599931332307"><ele>547.6666666666666</ele><time>2026-04-16T17:07:53Z</time></trkpt><trkpt lat="41.171754394262734" lon="15.038496519650929"><ele>547.5</ele><time>2026-04-16T17:07:56Z</time></trkpt><trkpt lat="41.17171619885984" lon="15.038407997367047"><ele>547.3333333333334</ele><time>2026-04-16T17:07:57Z</time></trkpt><trkpt lat="41.1717235018646" lon="15.038321841411767"><ele>547.1666666666667</ele><time>2026-04-16T17:07:59Z</time></trkpt><trkpt lat="41.17183823211423" lon="15.038231343964295"><ele>547.0</ele><time>2026-04-16T17:08:01Z</time></trkpt><trkpt lat="41.171907346613885" lon="15.038199919794422"><ele>547.0</ele><time>2026-04-16T17:08:02Z</time></trkpt><trkpt lat="41.17197074212886" lon="15.038170301075654"><ele>547.0</ele><time>2026-04-16T17:08:03Z</time></trkpt><trkpt lat="41.17204613082588" lon="15.038142542733604"><ele>547.0</ele><time>2026-04-16T17:08:04Z</time></trkpt><trkpt lat="41.172121751136125" lon="15.038103709613534"><ele>547.0</ele><time>2026-04-16T17:08:05Z</time></trkpt><trkpt lat="41.17219568195363" lon="15.038059831152266"><ele>547.0</ele><time>2026-04-16T17:08:06Z</time></trkpt><trkpt lat="41.17226328128389" lon="15.038023024133992"><ele>547.0</ele><time>2026-04-16T17:08:07Z</time></trkpt><trkpt lat="41.172345498046994" lon="15.03801041344398"><ele>543.8000000000001</ele><time>2026-04-16T17:08:08Z</time></trkpt><trkpt lat="41.172429786782146" lon="15.038010098166138"><ele>540.6</ele><time>2026-04-16T17:08:09Z</time></trkpt><trkpt lat="41.17253091972938" lon="15.038000498484974"><ele>537.4000000000001</ele><time>2026-04-16T17:08:10Z</time></trkpt><trkpt lat="41.17262635897688" lon="15.037986764038713"><ele>534.2</ele><time>2026-04-16T17:08:11Z</time></trkpt><trkpt lat="41.172712144552435" lon="15.037971253922748"><ele>531.0</ele><time>2026-04-16T17:08:12Z</time></trkpt><trkpt lat="41.17279522748314" lon="15.037961046721817"><ele>531.0</ele><time>2026-04-16T17:08:13Z</time></trkpt><trkpt lat="41.17286899927117" lon="15.037905895054529"><ele>531.0</ele><time>2026-04-16T17:08:14Z</time></trkpt><trkpt lat="41.17296875404821" lon="15.03789549312933"><ele>531.0</ele><time>2026-04-16T17:08:14.999Z</time></trkpt><trkpt lat="41.173063699210914" lon="15.03786420056937"><ele>531.0</ele><time>2026-04-16T17:08:15.999Z</time></trkpt><trkpt lat="41.17314807642028" lon="15.037826895920071"><ele>531.0</ele><time>2026-04-16T17:08:16.999Z</time></trkpt><trkpt lat="41.17322311530299" lon="15.037806576729084"><ele>531.0</ele><time>2026-04-16T17:08:17.999Z</time></trkpt><trkpt lat="41.17329518289652" lon="15.03780545773885"><ele>528.5</ele><time>2026-04-16T17:08:18.999Z</time></trkpt><trkpt lat="41.173371798576035" lon="15.037814466385376"><ele>526.0</ele><time>2026-04-16T17:08:19.999Z</time></trkpt><trkpt lat="41.17345042281306" lon="15.03783991462822"><ele>523.5</ele><time>2026-04-16T17:08:20.999Z</time></trkpt><trkpt lat="41.17354610041878" lon="15.037857872438549"><ele>521.0</ele><time>2026-04-16T17:08:21.999Z</time></trkpt><trkpt lat="41.17363117752009" lon="15.037883653581705"><ele>518.5</ele><time>2026-04-16T17:08:22.999Z</time></trkpt><trkpt lat="41.17371481181018" lon="15.037931390247618"><ele>516.0</ele><time>2026-04-16T17:08:23.999Z</time></trkpt><trkpt lat="41.17380556651467" lon="15.037966725385669"><ele>516.0</ele><time>2026-04-16T17:08:24.999Z</time></trkpt><trkpt lat="41.17390179709676" lon="15.038008098120828"><ele>516.0</ele><time>2026-04-16T17:08:25.999Z</time></trkpt><trkpt lat="41.17400423960943" lon="15.038050437002203"><ele>516.0</ele><time>2026-04-16T17:08:26.999Z</time></trkpt><trkpt lat="41.1741014298652" lon="15.038110916432835"><ele>516.0</ele><time>2026-04-16T17:08:27.999Z</time></trkpt><trkpt lat="41.174212374762746" lon="15.038145276488356"><ele>516.0</ele><time>2026-04-16T17:08:28.999Z</time></trkpt><trkpt lat="41.17431188327825" lon="15.03815720828097"><ele>513.8</ele><time>2026-04-16T17:08:29.999Z</time></trkpt><trkpt lat="41.1743990254837" lon="15.0381706940074"><ele>511.6</ele><time>2026-04-16T17:08:30.999Z</time></trkpt><trkpt lat="41.1744887636979" lon="15.038164619085858"><ele>509.4</ele><time>2026-04-16T17:08:31.999Z</time></trkpt><trkpt lat="41.17459849986817" lon="15.03814267294685"><ele>507.2</ele><time>2026-04-16T17:08:32.999Z</time></trkpt><trkpt lat="41.174733401848876" lon="15.038118559968426"><ele>505.0</ele><time>2026-04-16T17:08:33.999Z</time></trkpt><trkpt lat="41.174828405562494" lon="15.038134527786836"><ele>504.1666666666667</ele><time>2026-04-16T17:08:34.999Z</time></trkpt><trkpt lat="41.174915985360585" lon="15.038138960191558"><ele>503.33333333333337</ele><time>2026-04-16T17:08:35.999Z</time></trkpt><trkpt lat="41.17498245243218" lon="15.038141036346971"><ele>502.5</ele><time>2026-04-16T17:08:36.999Z</time></trkpt><trkpt lat="41.17508813739627" lon="15.038128356251514"><ele>501.66666666666663</ele><time>2026-04-16T17:08:37.999Z</time></trkpt><trkpt lat="41.175176850766825" lon="15.03812792640774"><ele>500.8333333333333</ele><time>2026-04-16T17:08:38.999Z</time></trkpt><trkpt lat="41.17526049291168" lon="15.03814192679762"><ele>500.0</ele><time>2026-04-16T17:08:39.999Z</time></trkpt><trkpt lat="41.1753388090993" lon="15.038165408465055"><ele>500.0</ele><time>2026-04-16T17:08:40.999Z</time></trkpt><trkpt lat="41.17540203252937" lon="15.03820752157141"><ele>500.0</ele><time>2026-04-16T17:08:41.999Z</time></trkpt><trkpt lat="41.17545776548265" lon="15.038263813452547"><ele>500.0</ele><time>2026-04-16T17:08:42.999Z</time></trkpt><trkpt lat="41.175507995114934" lon="15.038363433177437"><ele>500.0</ele><time>2026-04-16T17:08:43.999Z</time></trkpt><trkpt lat="41.17555396806809" lon="15.038483916423475"><ele>500.0</ele><time>2026-04-16T17:08:44.999Z</time></trkpt><trkpt lat="41.17561550945307" lon="15.038617712418558"><ele>501.4</ele><time>2026-04-16T17:08:45.999Z</time></trkpt><trkpt lat="41.175686115728524" lon="15.038716691774829"><ele>502.8</ele><time>2026-04-16T17:08:46.999Z</time></trkpt><trkpt lat="41.17573067726522" lon="15.038807869738372"><ele>504.20000000000005</ele><time>2026-04-16T17:08:47.999Z</time></trkpt><trkpt lat="41.17575769725367" lon="15.038894338264734"><ele>505.6</ele><time>2026-04-16T17:08:48.999Z</time></trkpt><trkpt lat="41.1757725310701" lon="15.039025652289803"><ele>507.0</ele><time>2026-04-16T17:08:49.999Z</time></trkpt><trkpt lat="41.17577703257965" lon="15.039169249997787"><ele>509.6</ele><time>2026-04-16T17:08:50.999Z</time></trkpt><trkpt lat="41.17579937074585" lon="15.03931793988369"><ele>512.2</ele><time>2026-04-16T17:08:51.999Z</time></trkpt><trkpt lat="41.175819961231916" lon="15.039442028604316"><ele>514.8</ele><time>2026-04-16T17:08:52.999Z</time></trkpt><trkpt lat="41.17582975058592" lon="15.039555996151803"><ele>517.4</ele><time>2026-04-16T17:08:53.999Z</time></trkpt><trkpt lat="41.175852907346716" lon="15.039666249935047"><ele>520.0</ele><time>2026-04-16T17:08:54.999Z</time></trkpt><trkpt lat="41.17588529150009" lon="15.039761930290927"><ele>520.0</ele><time>2026-04-16T17:08:55.999Z</time></trkpt><trkpt lat="41.17593358861733" lon="15.039820806861725"><ele>520.0</ele><time>2026-04-16T17:08:56.999Z</time></trkpt><trkpt lat="41.17599726055524" lon="15.039879261395907"><ele>520.0</ele><time>2026-04-16T17:08:57.999Z</time></trkpt><trkpt lat="41.17606870601121" lon="15.039919592805038"><ele>520.0</ele><time>2026-04-16T17:08:58.999Z</time></trkpt><trkpt lat="41.17614236891686" lon="15.039938362769805"><ele>520.0</ele><time>2026-04-16T17:08:59.999Z</time></trkpt><trkpt lat="41.1762165592294" lon="15.039994364516074"><ele>520.0</ele><time>2026-04-16T17:09:01.999Z</time></trkpt><trkpt lat="41.17627210730668" lon="15.040094986742437"><ele>518.0</ele><time>2026-04-16T17:09:04.999Z</time></trkpt><trkpt lat="41.17638569589024" lon="15.040164235886213"><ele>516.0</ele><time>2026-04-16T17:09:06.999Z</time></trkpt><trkpt lat="41.17646276400001" lon="15.040258369375797"><ele>514.0</ele><time>2026-04-16T17:09:07.999Z</time></trkpt><trkpt lat="41.17650706630272" lon="15.040350774581606"><ele>512.0</ele><time>2026-04-16T17:09:08.999Z</time></trkpt><trkpt lat="41.17652423630209" lon="15.040479020382598"><ele>510.0</ele><time>2026-04-16T17:09:09.999Z</time></trkpt><trkpt lat="41.176505773607275" lon="15.04058018527835"><ele>514.2</ele><time>2026-04-16T17:09:10.999Z</time></trkpt><trkpt lat="41.17641338080192" lon="15.040680997630195"><ele>518.4</ele><time>2026-04-16T17:09:12.999Z</time></trkpt><trkpt lat="41.176340068943524" lon="15.040720734863676"><ele>522.6</ele><time>2026-04-16T17:09:13.999Z</time></trkpt><trkpt lat="41.176283094073895" lon="15.040802672799455"><ele>526.8</ele><time>2026-04-16T17:09:14.998Z</time></trkpt><trkpt lat="41.17624279147808" lon="15.040867313336733"><ele>531.0</ele><time>2026-04-16T17:09:15.998Z</time></trkpt><trkpt lat="41.17618747886079" lon="15.04103829079239"><ele>533.8333333333334</ele><time>2026-04-16T17:09:17.998Z</time></trkpt><trkpt lat="41.17616100154298" lon="15.041118249406283"><ele>536.6666666666666</ele><time>2026-04-16T17:09:18.998Z</time></trkpt><trkpt lat="41.176124859496134" lon="15.041196762872735"><ele>539.5</ele><time>2026-04-16T17:09:19.998Z</time></trkpt><trkpt lat="41.176066227789725" lon="15.041276167980751"><ele>542.3333333333333</ele><time>2026-04-16T17:09:20.998Z</time></trkpt><trkpt lat="41.17600114391964" lon="15.041393637983754"><ele>545.1666666666666</ele><time>2026-04-16T17:09:21.998Z</time></trkpt><trkpt lat="41.175950142311486" lon="15.041478428990482"><ele>548.0</ele><time>2026-04-16T17:09:22.998Z</time></trkpt><trkpt lat="41.17592158721498" lon="15.041616872427497"><ele>551.1666666666666</ele><time>2026-04-16T17:09:24.998Z</time></trkpt><trkpt lat="41.175958535382996" lon="15.041694458350275"><ele>554.3333333333333</ele><time>2026-04-16T17:09:25.998Z</time></trkpt><trkpt lat="41.17602262698002" lon="15.04175353335385"><ele>557.5</ele><time>2026-04-16T17:09:26.998Z</time></trkpt><trkpt lat="41.17610708895879" lon="15.041809444677357"><ele>560.6666666666666</ele><time>2026-04-16T17:09:27.998Z</time></trkpt><trkpt lat="41.176203348590576" lon="15.04182170053276"><ele>563.8333333333334</ele><time>2026-04-16T17:09:28.998Z</time></trkpt><trkpt lat="41.17626871450423" lon="15.04193699040638"><ele>567.0</ele><time>2026-04-16T17:09:30.998Z</time></trkpt><trkpt lat="41.1762742582121" lon="15.042078966227129"><ele>567.0</ele><time>2026-04-16T17:09:31.998Z</time></trkpt><trkpt lat="41.176301689271455" lon="15.042174806051037"><ele>567.0</ele><time>2026-04-16T17:09:32.998Z</time></trkpt><trkpt lat="41.17637393272023" lon="15.042226554141282"><ele>567.0</ele><time>2026-04-16T17:09:33.998Z</time></trkpt><trkpt lat="41.17645414269664" lon="15.04226276645764"><ele>567.0</ele><time>2026-04-16T17:09:34.998Z</time></trkpt><trkpt lat="41.176555477493785" lon="15.042321131409885"><ele>567.0</ele><time>2026-04-16T17:09:36Z</time></trkpt><trkpt lat="41.17668195710681" lon="15.042360487499016"><ele>568.6</ele><time>2026-04-16T17:09:37Z</time></trkpt><trkpt lat="41.176801833751576" lon="15.04242566907448"><ele>570.2</ele><time>2026-04-16T17:09:38Z</time></trkpt><trkpt lat="41.17687973443151" lon="15.0424933273096"><ele>571.8</ele><time>2026-04-16T17:09:39Z</time></trkpt><trkpt lat="41.17695957408083" lon="15.042483283394164"><ele>573.4</ele><time>2026-04-16T17:09:40Z</time></trkpt><trkpt lat="41.17703903009907" lon="15.042441460675043"><ele>575.0</ele><time>2026-04-16T17:09:41Z</time></trkpt><trkpt lat="41.17714630951593" lon="15.042366683524019"><ele>575.0</ele><time>2026-04-16T17:09:42Z</time></trkpt><trkpt lat="41.17723650929588" lon="15.042305483657016"><ele>575.0</ele><time>2026-04-16T17:09:43Z</time></trkpt><trkpt lat="41.17717055738587" lon="15.042467752046884"><ele>575.0</ele><time>2026-04-16T17:09:48Z</time></trkpt><trkpt lat="41.17713267463606" lon="15.042590489494504"><ele>575.0</ele><time>2026-04-16T17:09:50Z</time></trkpt><trkpt lat="41.177084126861054" lon="15.042650569415825"><ele>575.0</ele><time>2026-04-16T17:09:51Z</time></trkpt><trkpt lat="41.17704869829232" lon="15.04276496697833"><ele>575.0</ele><time>2026-04-16T17:09:52Z</time></trkpt><trkpt lat="41.17701936623385" lon="15.042854831490617"><ele>575.0</ele><time>2026-04-16T17:09:53Z</time></trkpt><trkpt lat="41.17695504323184" lon="15.042928059875452"><ele>575.0</ele><time>2026-04-16T17:09:54Z</time></trkpt><trkpt lat="41.17688315445497" lon="15.04297407475176"><ele>575.0</ele><time>2026-04-16T17:09:55Z</time></trkpt><trkpt lat="41.17677157634473" lon="15.04300394629972"><ele>575.0</ele><time>2026-04-16T17:09:57Z</time></trkpt><trkpt lat="41.176657739682796" lon="15.043025221224411"><ele>575.0</ele><time>2026-04-16T17:09:59Z</time></trkpt><trkpt lat="41.17658350005858" lon="15.043094504431604"><ele>575.0</ele><time>2026-04-16T17:10:01Z</time></trkpt><trkpt lat="41.17665101137913" lon="15.043189675949414"><ele>575.0</ele><time>2026-04-16T17:10:03Z</time></trkpt><trkpt lat="41.17671217880759" lon="15.043243055991727"><ele>575.0</ele><time>2026-04-16T17:10:06Z</time></trkpt><trkpt lat="41.17677750514112" lon="15.043274786522542"><ele>575.0</ele><time>2026-04-16T17:10:09Z</time></trkpt><trkpt lat="41.17687674142371" lon="15.043335408538693"><ele>575.0</ele><time>2026-04-16T17:10:12Z</time></trkpt><trkpt lat="41.17692728858447" lon="15.04339562924591"><ele>581.0</ele><time>2026-04-16T17:10:14Z</time></trkpt><trkpt lat="41.17681206565919" lon="15.043516992216777"><ele>587.0</ele><time>2026-04-16T17:10:19.999Z</time></trkpt><trkpt lat="41.17681728342693" lon="15.04363833907732"><ele>593.0</ele><time>2026-04-16T17:10:21.999Z</time></trkpt><trkpt lat="41.17679446631079" lon="15.043743407087142"><ele>599.0</ele><time>2026-04-16T17:10:24.999Z</time></trkpt><trkpt lat="41.176784966781234" lon="15.043832361340709"><ele>605.0</ele><time>2026-04-16T17:10:25.999Z</time></trkpt><trkpt lat="41.17679283974676" lon="15.043917651958017"><ele>605.0</ele><time>2026-04-16T17:10:27.999Z</time></trkpt><trkpt lat="41.17688688065361" lon="15.04402187823155"><ele>605.0</ele><time>2026-04-16T17:10:28.999Z</time></trkpt><trkpt lat="41.17695253918344" lon="15.04403700901429"><ele>605.0</ele><time>2026-04-16T17:10:29.999Z</time></trkpt><trkpt lat="41.17707452900044" lon="15.04403686441636"><ele>605.0</ele><time>2026-04-16T17:10:30.999Z</time></trkpt><trkpt lat="41.177185765746835" lon="15.044073276114608"><ele>605.0</ele><time>2026-04-16T17:10:31.999Z</time></trkpt><trkpt lat="41.177270062377545" lon="15.0441521666209"><ele>612.6666666666666</ele><time>2026-04-16T17:10:32.999Z</time></trkpt><trkpt lat="41.177370823685244" lon="15.04425383595499"><ele>620.3333333333334</ele><time>2026-04-16T17:10:33.999Z</time></trkpt><trkpt lat="41.17751270246996" lon="15.044347146526366"><ele>628.0</ele><time>2026-04-16T17:10:34.999Z</time></trkpt><trkpt lat="41.17767121599734" lon="15.044424687384186"><ele>628.0</ele><time>2026-04-16T17:10:35.999Z</time></trkpt><trkpt lat="41.177830071385756" lon="15.044493097750607"><ele>628.0</ele><time>2026-04-16T17:10:36.999Z</time></trkpt><trkpt lat="41.17795922726479" lon="15.044556345812556"><ele>628.0</ele><time>2026-04-16T17:10:37.999Z</time></trkpt><trkpt lat="41.178104974899895" lon="15.044603677132832"><ele>628.75</ele><time>2026-04-16T17:10:38.999Z</time></trkpt><trkpt lat="41.17828950831044" lon="15.044641080201558"><ele>629.5</ele><time>2026-04-16T17:10:39.999Z</time></trkpt><trkpt lat="41.17842737086193" lon="15.04467924810537"><ele>630.25</ele><time>2026-04-16T17:10:40.999Z</time></trkpt><trkpt lat="41.178535571680506" lon="15.044721423539267"><ele>631.0</ele><time>2026-04-16T17:10:41.999Z</time></trkpt><trkpt lat="41.17864074842473" lon="15.044763409393614"><ele>631.0</ele><time>2026-04-16T17:10:42.999Z</time></trkpt><trkpt lat="41.178738631663954" lon="15.044805626347031"><ele>631.0</ele><time>2026-04-16T17:10:43.999Z</time></trkpt><trkpt lat="41.178839848682394" lon="15.044847542776324"><ele>631.0</ele><time>2026-04-16T17:10:44.999Z</time></trkpt><trkpt lat="41.17894194055428" lon="15.044885232666996"><ele>631.0</ele><time>2026-04-16T17:10:45.999Z</time></trkpt><trkpt lat="41.1790378315042" lon="15.044918291422997"><ele>631.0</ele><time>2026-04-16T17:10:46.999Z</time></trkpt><trkpt lat="41.179140945085685" lon="15.04493299431995"><ele>629.2</ele><time>2026-04-16T17:10:47.999Z</time></trkpt><trkpt lat="41.17923724514934" lon="15.044935395976523"><ele>627.4000000000001</ele><time>2026-04-16T17:10:48.999Z</time></trkpt><trkpt lat="41.179334695131026" lon="15.044936650267383"><ele>625.6</ele><time>2026-04-16T17:10:49.999Z</time></trkpt><trkpt lat="41.1794274859468" lon="15.044921112677843"><ele>623.8000000000001</ele><time>2026-04-16T17:10:50.999Z</time></trkpt><trkpt lat="41.1795152918924" lon="15.044879879753271"><ele>622.0</ele><time>2026-04-16T17:10:51.999Z</time></trkpt><trkpt lat="41.179597427373615" lon="15.044839123447415"><ele>622.0</ele><time>2026-04-16T17:10:52.999Z</time></trkpt><trkpt lat="41.17967763439032" lon="15.044820397651616"><ele>622.0</ele><time>2026-04-16T17:10:53.999Z</time></trkpt><trkpt lat="41.179765062594676" lon="15.044843479329003"><ele>622.0</ele><time>2026-04-16T17:10:54.999Z</time></trkpt><trkpt lat="41.17985328582139" lon="15.044865044391663"><ele>622.0</ele><time>2026-04-16T17:10:55.999Z</time></trkpt><trkpt lat="41.179938845719555" lon="15.04490269789468"><ele>622.0</ele><time>2026-04-16T17:10:56.999Z</time></trkpt><trkpt lat="41.18002762461099" lon="15.044943518655046"><ele>622.0</ele><time>2026-04-16T17:10:57.999Z</time></trkpt><trkpt lat="41.180103611792504" lon="15.044980622414338"><ele>621.8333333333334</ele><time>2026-04-16T17:10:58.999Z</time></trkpt><trkpt lat="41.180177200260026" lon="15.045017933078588"><ele>621.6666666666667</ele><time>2026-04-16T17:10:59.999Z</time></trkpt><trkpt lat="41.180247135118975" lon="15.045050433324755"><ele>621.5</ele><time>2026-04-16T17:11:00.999Z</time></trkpt><trkpt lat="41.18030981716671" lon="15.045091270054714"><ele>621.3333333333334</ele><time>2026-04-16T17:11:01.999Z</time></trkpt><trkpt lat="41.18038867902108" lon="15.045178584357718"><ele>621.1666666666666</ele><time>2026-04-16T17:11:03.999Z</time></trkpt><trkpt lat="41.180426390090055" lon="15.04509713019699"><ele>621.0</ele><time>2026-04-16T17:11:06.999Z</time></trkpt><trkpt lat="41.18035624676222" lon="15.045082890745732"><ele>621.0</ele><time>2026-04-16T17:11:08.999Z</time></trkpt><trkpt lat="41.18028279997172" lon="15.045078545235322"><ele>621.0</ele><time>2026-04-16T17:11:09.999Z</time></trkpt><trkpt lat="41.18021787073602" lon="15.044994001846424"><ele>621.0</ele><time>2026-04-16T17:11:10.999Z</time></trkpt><trkpt lat="41.180137862262455" lon="15.044975796386831"><ele>621.0</ele><time>2026-04-16T17:11:11.999Z</time></trkpt><trkpt lat="41.18006316055811" lon="15.044955806642418"><ele>621.0</ele><time>2026-04-16T17:11:12.999Z</time></trkpt><trkpt lat="41.179994686029275" lon="15.044936106828144"><ele>621.0</ele><time>2026-04-16T17:11:13.999Z</time></trkpt><trkpt lat="41.17992484116581" lon="15.044906003535704"><ele>621.1666666666666</ele><time>2026-04-16T17:11:15.999Z</time></trkpt><trkpt lat="41.17986041996924" lon="15.044892662415576"><ele>621.3333333333334</ele><time>2026-04-16T17:11:19.998Z</time></trkpt><trkpt lat="41.17975413596235" lon="15.044865673142866"><ele>621.5</ele><time>2026-04-16T17:11:22.998Z</time></trkpt><trkpt lat="41.17968294023566" lon="15.044855268071856"><ele>621.6666666666667</ele><time>2026-04-16T17:11:24.998Z</time></trkpt><trkpt lat="41.17961064126957" lon="15.04485078967452"><ele>621.8333333333334</ele><time>2026-04-16T17:11:26.998Z</time></trkpt><trkpt lat="41.17953174164412" lon="15.044845747706164"><ele>622.0</ele><time>2026-04-16T17:11:28.998Z</time></trkpt><trkpt lat="41.17945643102543" lon="15.044909203234091"><ele>622.0</ele><time>2026-04-16T17:11:31.998Z</time></trkpt><trkpt lat="41.179394125420195" lon="15.044935445196606"><ele>622.0</ele><time>2026-04-16T17:11:32.998Z</time></trkpt><trkpt lat="41.179278149166414" lon="15.04496264500429"><ele>622.0</ele><time>2026-04-16T17:11:34.998Z</time></trkpt><trkpt lat="41.17921468140672" lon="15.04495751661355"><ele>622.0</ele><time>2026-04-16T17:11:35.998Z</time></trkpt><trkpt lat="41.17909430717431" lon="15.044937498301575"><ele>622.0</ele><time>2026-04-16T17:11:37.998Z</time></trkpt><trkpt lat="41.179025281826256" lon="15.044931285738551"><ele>622.0</ele><time>2026-04-16T17:11:38.998Z</time></trkpt><trkpt lat="41.17889432519899" lon="15.044924106393522"><ele>623.8000000000001</ele><time>2026-04-16T17:11:40.998Z</time></trkpt><trkpt lat="41.17883057857884" lon="15.044906528617977"><ele>625.6</ele><time>2026-04-16T17:11:42Z</time></trkpt><trkpt lat="41.178687140584536" lon="15.044865225535075"><ele>627.4000000000001</ele><time>2026-04-16T17:11:44Z</time></trkpt><trkpt lat="41.178605070208825" lon="15.044833026596828"><ele>629.2</ele><time>2026-04-16T17:11:45Z</time></trkpt><trkpt lat="41.17850701035483" lon="15.044793880346024"><ele>631.0</ele><time>2026-04-16T17:11:46Z</time></trkpt><trkpt lat="41.178406081078386" lon="15.044749440776235"><ele>631.0</ele><time>2026-04-16T17:11:47Z</time></trkpt><trkpt lat="41.17830644462536" lon="15.044715074449684"><ele>631.0</ele><time>2026-04-16T17:11:48Z</time></trkpt><trkpt lat="41.17820947591818" lon="15.04471260232028"><ele>631.0</ele><time>2026-04-16T17:11:49Z</time></trkpt><trkpt lat="41.17811648070891" lon="15.044691253757968"><ele>631.0</ele><time>2026-04-16T17:11:50Z</time></trkpt><trkpt lat="41.17801177524689" lon="15.04465365037918"><ele>631.0</ele><time>2026-04-16T17:11:51Z</time></trkpt><trkpt lat="41.17793070545363" lon="15.044625019761682"><ele>630.25</ele><time>2026-04-16T17:11:52Z</time></trkpt><trkpt lat="41.17783153168871" lon="15.044605429233535"><ele>629.5</ele><time>2026-04-16T17:11:53Z</time></trkpt><trkpt lat="41.177717706309984" lon="15.044557633297698"><ele>628.75</ele><time>2026-04-16T17:11:54Z</time></trkpt><trkpt lat="41.17757532982163" lon="15.04448326086178"><ele>628.0</ele><time>2026-04-16T17:11:55Z</time></trkpt><trkpt lat="41.177442979724" lon="15.044409385897469"><ele>627.4</ele><time>2026-04-16T17:11:56Z</time></trkpt><trkpt lat="41.17733007422493" lon="15.044311895827914"><ele>626.8</ele><time>2026-04-16T17:11:57Z</time></trkpt><trkpt lat="41.17724773632545" lon="15.044231135271184"><ele>626.2</ele><time>2026-04-16T17:11:58Z</time></trkpt><trkpt lat="41.17718648179232" lon="15.044292553045473"><ele>625.6</ele><time>2026-04-16T17:11:59Z</time></trkpt><trkpt lat="41.17707444876739" lon="15.04422431711674"><ele>625.0</ele><time>2026-04-16T17:12:01Z</time></trkpt><trkpt lat="41.17696809908239" lon="15.044199950459168"><ele>625.0000000000001</ele><time>2026-04-16T17:12:03Z</time></trkpt><trkpt lat="41.176900210300495" lon="15.044217304242046"><ele>625.0</ele><time>2026-04-16T17:12:04Z</time></trkpt><trkpt lat="41.176836855816084" lon="15.044241243290024"><ele>625.0</ele><time>2026-04-16T17:12:05Z</time></trkpt><trkpt lat="41.17677180644369" lon="15.04428159852938"><ele>625.0</ele><time>2026-04-16T17:12:06Z</time></trkpt><trkpt lat="41.1767056154108" lon="15.04431248103196"><ele>625.0</ele><time>2026-04-16T17:12:07Z</time></trkpt><trkpt lat="41.17663992137369" lon="15.04434800167669"><ele>625.0000000000001</ele><time>2026-04-16T17:12:08Z</time></trkpt><trkpt lat="41.1765758208518" lon="15.044395960858987"><ele>625.0</ele><time>2026-04-16T17:12:09Z</time></trkpt><trkpt lat="41.176500871950104" lon="15.044403440628837"><ele>624.2</ele><time>2026-04-16T17:12:10Z</time></trkpt><trkpt lat="41.17643434425982" lon="15.044407361604305"><ele>623.4</ele><time>2026-04-16T17:12:11Z</time></trkpt><trkpt lat="41.176310333843986" lon="15.044416472985572"><ele>622.6</ele><time>2026-04-16T17:12:13Z</time></trkpt><trkpt lat="41.176194462872715" lon="15.044450832456878"><ele>621.8</ele><time>2026-04-16T17:12:15Z</time></trkpt><trkpt lat="41.176081504473316" lon="15.04450206908781"><ele>621.0</ele><time>2026-04-16T17:12:17Z</time></trkpt><trkpt lat="41.17599347225469" lon="15.04457803548737"><ele>621.0</ele><time>2026-04-16T17:12:19Z</time></trkpt><trkpt lat="41.17595174395884" lon="15.044694089576037"><ele>621.0</ele><time>2026-04-16T17:12:20.999Z</time></trkpt><trkpt lat="41.17595025822113" lon="15.044812791325182"><ele>621.0</ele><time>2026-04-16T17:12:22.999Z</time></trkpt><trkpt lat="41.17605221835511" lon="15.044904236980786"><ele>621.0</ele><time>2026-04-16T17:12:24.999Z</time></trkpt><trkpt lat="41.17611609023957" lon="15.044972593136016"><ele>621.0</ele><time>2026-04-16T17:12:25.999Z</time></trkpt><trkpt lat="41.17620126321192" lon="15.045060189533018"><ele>619.3333333333334</ele><time>2026-04-16T17:12:27.999Z</time></trkpt><trkpt lat="41.17622295427088" lon="15.045154255192493"><ele>617.6666666666666</ele><time>2026-04-16T17:12:30.999Z</time></trkpt><trkpt lat="41.17616179070857" lon="15.045237953376416"><ele>616.0</ele><time>2026-04-16T17:12:32.999Z</time></trkpt><trkpt lat="41.176121915892395" lon="15.045316323296728"><ele>614.3333333333333</ele><time>2026-04-16T17:12:33.999Z</time></trkpt><trkpt lat="41.176086725375114" lon="15.045397327633895"><ele>612.6666666666666</ele><time>2026-04-16T17:12:34.999Z</time></trkpt><trkpt lat="41.17605631489182" lon="15.045559381889808"><ele>611.0</ele><time>2026-04-16T17:12:36.999Z</time></trkpt><trkpt lat="41.17605231384612" lon="15.045644721553625"><ele>611.0</ele><time>2026-04-16T17:12:37.999Z</time></trkpt><trkpt lat="41.17607128486861" lon="15.045783522600239"><ele>611.0</ele><time>2026-04-16T17:12:39.999Z</time></trkpt><trkpt lat="41.17608903856786" lon="15.045893784636183"><ele>611.0</ele><time>2026-04-16T17:12:41.999Z</time></trkpt><trkpt lat="41.176105559217596" lon="15.045999239769028"><ele>611.0</ele><time>2026-04-16T17:12:43.999Z</time></trkpt><trkpt lat="41.17617222817077" lon="15.046042876304845"><ele>611.0</ele><time>2026-04-16T17:12:45.999Z</time></trkpt><trkpt lat="41.17618631975401" lon="15.045721712496757"><ele>611.0</ele><time>2026-04-16T17:12:51.999Z</time></trkpt><trkpt lat="41.176108040685456" lon="15.045695209043037"><ele>611.0</ele><time>2026-04-16T17:12:52.999Z</time></trkpt><trkpt lat="41.1760065202382" lon="15.045718605079395"><ele>611.0</ele><time>2026-04-16T17:12:54.999Z</time></trkpt><trkpt lat="41.175952124237206" lon="15.045819540051031"><ele>611.0</ele><time>2026-04-16T17:12:56.999Z</time></trkpt><trkpt lat="41.17588866880805" lon="15.04581826704986"><ele>611.0</ele><time>2026-04-16T17:13:07.999Z</time></trkpt><trkpt lat="41.17591370511414" lon="15.045933430597053"><ele>611.0</ele><time>2026-04-16T17:13:09.999Z</time></trkpt><trkpt lat="41.17585695715348" lon="15.046000123047849"><ele>611.0</ele><time>2026-04-16T17:13:12.999Z</time></trkpt><trkpt lat="41.17580311562669" lon="15.0460633970111"><ele>611.0</ele><time>2026-04-16T17:13:15.999Z</time></trkpt><trkpt lat="41.17573372574113" lon="15.045734134921888"><ele>611.0</ele><time>2026-04-16T17:13:18.999Z</time></trkpt><trkpt lat="41.17567129318164" lon="15.045677927860298"><ele>611.0</ele><time>2026-04-16T17:13:21.999Z</time></trkpt><trkpt lat="41.175528219636014" lon="15.045950579158507"><ele>606.75</ele><time>2026-04-16T17:13:22.999Z</time></trkpt><trkpt lat="41.175447092217695" lon="15.046042434933497"><ele>602.5</ele><time>2026-04-16T17:13:25.998Z</time></trkpt><trkpt lat="41.175419929814694" lon="15.046134190236716"><ele>598.25</ele><time>2026-04-16T17:13:27.998Z</time></trkpt><trkpt lat="41.17535885381826" lon="15.046171737710313"><ele>594.0</ele><time>2026-04-16T17:13:29.998Z</time></trkpt><trkpt lat="41.17501965325275" lon="15.046878775742282"><ele>592.1666666666666</ele><time>2026-04-16T17:13:30.998Z</time></trkpt><trkpt lat="41.175002137433985" lon="15.046995555053162"><ele>590.3333333333334</ele><time>2026-04-16T17:13:31.998Z</time></trkpt><trkpt lat="41.1749829413635" lon="15.047104045258228"><ele>588.5</ele><time>2026-04-16T17:13:32.998Z</time></trkpt><trkpt lat="41.17496570244435" lon="15.04723858802718"><ele>586.6666666666667</ele><time>2026-04-16T17:13:34.998Z</time></trkpt><trkpt lat="41.17495092516636" lon="15.04733633301558"><ele>584.8333333333334</ele><time>2026-04-16T17:13:35.998Z</time></trkpt><trkpt lat="41.17496172392026" lon="15.047461342121878"><ele>583.0</ele><time>2026-04-16T17:13:36.998Z</time></trkpt><trkpt lat="41.17491149748573" lon="15.047533832458916"><ele>583.0</ele><time>2026-04-16T17:13:38.998Z</time></trkpt><trkpt lat="41.17486532709086" lon="15.047592346740315"><ele>583.0</ele><time>2026-04-16T17:13:39.998Z</time></trkpt><trkpt lat="41.174792792799934" lon="15.047696862382002"><ele>583.0</ele><time>2026-04-16T17:13:41.998Z</time></trkpt><trkpt lat="41.174719609239034" lon="15.047781782293418"><ele>583.0</ele><time>2026-04-16T17:13:43.998Z</time></trkpt><trkpt lat="41.17465437309517" lon="15.047874588724223"><ele>583.0</ele><time>2026-04-16T17:13:45.998Z</time></trkpt><trkpt lat="41.17461288036948" lon="15.047960034051949"><ele>583.0</ele><time>2026-04-16T17:13:47.999Z</time></trkpt><trkpt lat="41.174538627787406" lon="15.04805249940264"><ele>577.1666666666667</ele><time>2026-04-16T17:13:50.999Z</time></trkpt><trkpt lat="41.174504267370146" lon="15.048206388532224"><ele>571.3333333333334</ele><time>2026-04-16T17:13:52.999Z</time></trkpt><trkpt lat="41.174524490748695" lon="15.048318086178591"><ele>565.5</ele><time>2026-04-16T17:13:54.999Z</time></trkpt><trkpt lat="41.174479082896546" lon="15.04839012952315"><ele>559.6666666666666</ele><time>2026-04-16T17:13:57.999Z</time></trkpt><trkpt lat="41.17444631271005" lon="15.04848436864065"><ele>553.8333333333333</ele><time>2026-04-16T17:13:59.999Z</time></trkpt><trkpt lat="41.174435162202336" lon="15.048578121981368"><ele>548.0</ele><time>2026-04-16T17:14:01.999Z</time></trkpt><trkpt lat="41.174399356315575" lon="15.048663883986148"><ele>548.0000000000001</ele><time>2026-04-16T17:14:02.999Z</time></trkpt><trkpt lat="41.17439180088113" lon="15.048757712685326"><ele>548.0</ele><time>2026-04-16T17:14:03.999Z</time></trkpt><trkpt lat="41.17439861697371" lon="15.04887129548696"><ele>548.0</ele><time>2026-04-16T17:14:06.999Z</time></trkpt><trkpt lat="41.17432921030109" lon="15.04887665110274"><ele>548.0</ele><time>2026-04-16T17:14:09.999Z</time></trkpt><trkpt lat="41.17425809008625" lon="15.048916795159945"><ele>548.0</ele><time>2026-04-16T17:14:13.999Z</time></trkpt><trkpt lat="41.17419018674298" lon="15.048933426068942"><ele>548.0000000000001</ele><time>2026-04-16T17:14:16.999Z</time></trkpt><trkpt lat="41.17413963943423" lon="15.048987795974535"><ele>548.0</ele><time>2026-04-16T17:14:18.999Z</time></trkpt><trkpt lat="41.174112206568076" lon="15.049076714512573"><ele>547.6666666666666</ele><time>2026-04-16T17:14:20.999Z</time></trkpt><trkpt lat="41.174068796559844" lon="15.049147170030889"><ele>547.3333333333333</ele><time>2026-04-16T17:14:23.999Z</time></trkpt><trkpt lat="41.174007035328714" lon="15.049097198784303"><ele>547.0</ele><time>2026-04-16T17:14:27.999Z</time></trkpt><trkpt lat="41.17394197804159" lon="15.04912379258871"><ele>546.6666666666666</ele><time>2026-04-16T17:14:41.999Z</time></trkpt><trkpt lat="41.17385084708563" lon="15.049154911126251"><ele>546.3333333333334</ele><time>2026-04-16T17:14:44.999Z</time></trkpt><trkpt lat="41.17378350741827" lon="15.049197791709503"><ele>546.0</ele><time>2026-04-16T17:14:46.999Z</time></trkpt><trkpt lat="41.17371393088815" lon="15.049242468480417"><ele>539.6666666666666</ele><time>2026-04-16T17:14:48.999Z</time></trkpt><trkpt lat="41.17364233708214" lon="15.049294151834378"><ele>533.3333333333334</ele><time>2026-04-16T17:14:50.999Z</time></trkpt><trkpt lat="41.173577323011884" lon="15.049314847602565"><ele>527.0</ele><time>2026-04-16T17:14:53.999Z</time></trkpt><trkpt lat="41.17351119758157" lon="15.049360455698558"><ele>520.6666666666667</ele><time>2026-04-16T17:14:56.999Z</time></trkpt><trkpt lat="41.17348844501448" lon="15.049447129627845"><ele>514.3333333333334</ele><time>2026-04-16T17:14:57.999Z</time></trkpt><trkpt lat="41.173510244290995" lon="15.04955829686406"><ele>508.0</ele><time>2026-04-16T17:14:58.999Z</time></trkpt><trkpt lat="41.17353522044729" lon="15.04966219607894"><ele>508.00000000000006</ele><time>2026-04-16T17:14:59.999Z</time></trkpt><trkpt lat="41.17357134820182" lon="15.049773458416983"><ele>508.0</ele><time>2026-04-16T17:15:00.999Z</time></trkpt><trkpt lat="41.17360417315509" lon="15.049880116254968"><ele>508.0</ele><time>2026-04-16T17:15:01.999Z</time></trkpt><trkpt lat="41.173651125530114" lon="15.04997411487941"><ele>508.0</ele><time>2026-04-16T17:15:02.999Z</time></trkpt><trkpt lat="41.17368934912595" lon="15.050054607881668"><ele>508.00000000000006</ele><time>2026-04-16T17:15:03.999Z</time></trkpt><trkpt lat="41.173708807620855" lon="15.050143762141689"><ele>508.0</ele><time>2026-04-16T17:15:06.999Z</time></trkpt><trkpt lat="41.173753630425594" lon="15.050227096941395"><ele>507.33333333333337</ele><time>2026-04-16T17:15:08.999Z</time></trkpt><trkpt lat="41.17369816966453" lon="15.050176920815767"><ele>506.6666666666667</ele><time>2026-04-16T17:15:18.999Z</time></trkpt><trkpt lat="41.173644880914175" lon="15.050297544827178"><ele>506.0</ele><time>2026-04-16T17:15:29.998Z</time></trkpt><trkpt lat="41.17362835623774" lon="15.050409173509271"><ele>505.33333333333337</ele><time>2026-04-16T17:15:31.998Z</time></trkpt><trkpt lat="41.173546745634845" lon="15.050506583207538"><ele>504.6666666666667</ele><time>2026-04-16T17:15:33.998Z</time></trkpt><trkpt lat="41.17350110429563" lon="15.050596096991415"><ele>504.0</ele><time>2026-04-16T17:15:35.998Z</time></trkpt><trkpt lat="41.173482998159415" lon="15.050706660824401"><ele>502.79999999999995</ele><time>2026-04-16T17:15:37.998Z</time></trkpt><trkpt lat="41.173474725474016" lon="15.050857541707655"><ele>501.59999999999997</ele><time>2026-04-16T17:15:39.998Z</time></trkpt><trkpt lat="41.17347377733841" lon="15.05096141161268"><ele>500.4</ele><time>2026-04-16T17:15:40.998Z</time></trkpt><trkpt lat="41.173471538786764" lon="15.051083347057013"><ele>499.2</ele><time>2026-04-16T17:15:41.998Z</time></trkpt><trkpt lat="41.1734621182268" lon="15.051175392688117"><ele>498.0</ele><time>2026-04-16T17:15:42.998Z</time></trkpt><trkpt lat="41.17347447341361" lon="15.051325750316268"><ele>498.0</ele><time>2026-04-16T17:15:44.998Z</time></trkpt><trkpt lat="41.173465880006766" lon="15.051508409954884"><ele>497.99999999999994</ele><time>2026-04-16T17:15:46.998Z</time></trkpt><trkpt lat="41.173454483448346" lon="15.051627082476447"><ele>497.99999999999994</ele><time>2026-04-16T17:15:47.998Z</time></trkpt><trkpt lat="41.17346542876706" lon="15.051731859153389"><ele>498.0</ele><time>2026-04-16T17:15:48.998Z</time></trkpt><trkpt lat="41.17348574771471" lon="15.051836064404977"><ele>498.0</ele><time>2026-04-16T17:15:49.998Z</time></trkpt><trkpt lat="41.173505527697905" lon="15.051957946191324"><ele>497.1666666666667</ele><time>2026-04-16T17:15:50.998Z</time></trkpt><trkpt lat="41.17353205092655" lon="15.052067356173346"><ele>496.33333333333337</ele><time>2026-04-16T17:15:51.998Z</time></trkpt><trkpt lat="41.173571806167985" lon="15.05216966396577"><ele>495.5</ele><time>2026-04-16T17:15:52.998Z</time></trkpt><trkpt lat="41.17359976670299" lon="15.0522471421432"><ele>494.6666666666667</ele><time>2026-04-16T17:15:53.999Z</time></trkpt><trkpt lat="41.173684394616075" lon="15.052350292262233"><ele>493.83333333333337</ele><time>2026-04-16T17:15:55.999Z</time></trkpt><trkpt lat="41.17374637296002" lon="15.052377947356797"><ele>493.0</ele><time>2026-04-16T17:15:56.999Z</time></trkpt><trkpt lat="41.17381550415585" lon="15.052375837706588"><ele>492.0</ele><time>2026-04-16T17:15:57.999Z</time></trkpt><trkpt lat="41.17388389624376" lon="15.05271172904861"><ele>491.0</ele><time>2026-04-16T17:16:09.999Z</time></trkpt><trkpt lat="41.173887094137626" lon="15.052799250504947"><ele>490.0</ele><time>2026-04-16T17:16:10.999Z</time></trkpt><trkpt lat="41.173874081921305" lon="15.052930506814965"><ele>489.0</ele><time>2026-04-16T17:16:12.999Z</time></trkpt><trkpt lat="41.17385633376077" lon="15.053016459036748"><ele>489.0</ele><time>2026-04-16T17:16:13.999Z</time></trkpt><trkpt lat="41.173800858238174" lon="15.05316004739483"><ele>489.0</ele><time>2026-04-16T17:16:15.999Z</time></trkpt><trkpt lat="41.17376813081927" lon="15.053241089510598"><ele>489.0</ele><time>2026-04-16T17:16:16.999Z</time></trkpt><trkpt lat="41.173728469971195" lon="15.053310924118323"><ele>489.0</ele><time>2026-04-16T17:16:17.999Z</time></trkpt><trkpt lat="41.173682268310344" lon="15.053375620194107"><ele>489.0</ele><time>2026-04-16T17:16:18.999Z</time></trkpt><trkpt lat="41.17365818594687" lon="15.053467121814764"><ele>489.0</ele><time>2026-04-16T17:16:19.999Z</time></trkpt><trkpt lat="41.17361259063293" lon="15.053550184986696"><ele>488.1666666666667</ele><time>2026-04-16T17:16:20.999Z</time></trkpt><trkpt lat="41.1735718290744" lon="15.053636793376045"><ele>487.33333333333337</ele><time>2026-04-16T17:16:21.999Z</time></trkpt><trkpt lat="41.17353172124826" lon="15.05371707085674"><ele>486.5</ele><time>2026-04-16T17:16:22.999Z</time></trkpt><trkpt lat="41.17348525084265" lon="15.053795331590543"><ele>485.6666666666667</ele><time>2026-04-16T17:16:23.999Z</time></trkpt><trkpt lat="41.1734485388759" lon="15.053876770458045"><ele>484.83333333333337</ele><time>2026-04-16T17:16:24.999Z</time></trkpt><trkpt lat="41.173413199764184" lon="15.05395589577383"><ele>484.0</ele><time>2026-04-16T17:16:25.999Z</time></trkpt><trkpt lat="41.17337507429138" lon="15.054109360514072"><ele>483.1428571428571</ele><time>2026-04-16T17:16:27.999Z</time></trkpt><trkpt lat="41.17336364562021" lon="15.05420076333387"><ele>482.2857142857142</ele><time>2026-04-16T17:16:28.999Z</time></trkpt><trkpt lat="41.173360070025076" lon="15.054313759816335"><ele>481.42857142857144</ele><time>2026-04-16T17:16:29.999Z</time></trkpt><trkpt lat="41.17334862660942" lon="15.054414368423464"><ele>480.57142857142856</ele><time>2026-04-16T17:16:30.999Z</time></trkpt><trkpt lat="41.17334351725895" lon="15.054515953026229"><ele>479.7142857142857</ele><time>2026-04-16T17:16:31.999Z</time></trkpt><trkpt lat="41.17335032931274" lon="15.054610150301583"><ele>478.8571428571429</ele><time>2026-04-16T17:16:32.999Z</time></trkpt><trkpt lat="41.173385497049594" lon="15.05468719917082"><ele>478.00000000000006</ele><time>2026-04-16T17:16:33.999Z</time></trkpt><trkpt lat="41.17343864569477" lon="15.054736145233724"><ele>478.00000000000006</ele><time>2026-04-16T17:16:34.999Z</time></trkpt><trkpt lat="41.17351459330753" lon="15.054776047792663"><ele>478.0</ele><time>2026-04-16T17:16:35.999Z</time></trkpt><trkpt lat="41.17361107614803" lon="15.054783818259995"><ele>478.0</ele><time>2026-04-16T17:16:36.999Z</time></trkpt><trkpt lat="41.1736732814078" lon="15.054819103100195"><ele>478.0</ele><time>2026-04-16T17:16:37.999Z</time></trkpt><trkpt lat="41.17377318266482" lon="15.05475395160402"><ele>478.00000000000006</ele><time>2026-04-16T17:16:39.999Z</time></trkpt><trkpt lat="41.173815557931036" lon="15.054690413049617"><ele>478.0</ele><time>2026-04-16T17:16:40.999Z</time></trkpt><trkpt lat="41.17385666757536" lon="15.054602489837581"><ele>478.00000000000006</ele><time>2026-04-16T17:16:41.999Z</time></trkpt><trkpt lat="41.17392017184372" lon="15.054533804377344"><ele>478.0</ele><time>2026-04-16T17:16:42.999Z</time></trkpt><trkpt lat="41.17398471843217" lon="15.054473571430426"><ele>478.0</ele><time>2026-04-16T17:16:43.999Z</time></trkpt><trkpt lat="41.174041687458924" lon="15.054410662510376"><ele>478.0</ele><time>2026-04-16T17:16:44.999Z</time></trkpt><trkpt lat="41.1740822873219" lon="15.054341012515192"><ele>478.00000000000006</ele><time>2026-04-16T17:16:45.999Z</time></trkpt><trkpt lat="41.17413988533595" lon="15.054260133329528"><ele>478.0</ele><time>2026-04-16T17:16:46.999Z</time></trkpt><trkpt lat="41.17421105251616" lon="15.054195791063146"><ele>482.4</ele><time>2026-04-16T17:16:47.999Z</time></trkpt><trkpt lat="41.17428058611333" lon="15.054131013987359"><ele>486.79999999999995</ele><time>2026-04-16T17:16:48.999Z</time></trkpt><trkpt lat="41.174366855672375" lon="15.054185032624893"><ele>491.2</ele><time>2026-04-16T17:16:50.999Z</time></trkpt><trkpt lat="41.17439404343918" lon="15.054286073953383"><ele>495.6</ele><time>2026-04-16T17:16:51.999Z</time></trkpt><trkpt lat="41.17441120988322" lon="15.054414633989186"><ele>500.0</ele><time>2026-04-16T17:16:52.999Z</time></trkpt><trkpt lat="41.17447085695687" lon="15.054506328192463"><ele>499.99999999999994</ele><time>2026-04-16T17:16:53.999Z</time></trkpt><trkpt lat="41.17453098485553" lon="15.054608700965517"><ele>500.0</ele><time>2026-04-16T17:16:54.999Z</time></trkpt><trkpt lat="41.174601790922566" lon="15.05468848894717"><ele>500.0</ele><time>2026-04-16T17:16:55.999Z</time></trkpt><trkpt lat="41.174663300259546" lon="15.054763516701335"><ele>500.0</ele><time>2026-04-16T17:16:56.999Z</time></trkpt><trkpt lat="41.17471188392805" lon="15.05481914002428"><ele>499.99999999999994</ele><time>2026-04-16T17:16:57.999Z</time></trkpt><trkpt lat="41.174807077085305" lon="15.054801040261525"><ele>500.0</ele><time>2026-04-16T17:16:59.999Z</time></trkpt><trkpt lat="41.17484810948019" lon="15.054707556580725"><ele>502.49999999999994</ele><time>2026-04-16T17:17:00.999Z</time></trkpt><trkpt lat="41.17488405782409" lon="15.05461139301576"><ele>505.0</ele><time>2026-04-16T17:17:01.999Z</time></trkpt><trkpt lat="41.1749176525958" lon="15.054505172867913"><ele>507.5</ele><time>2026-04-16T17:17:02.999Z</time></trkpt><trkpt lat="41.174968338283946" lon="15.054421751588698"><ele>510.0</ele><time>2026-04-16T17:17:03.999Z</time></trkpt><trkpt lat="41.17503976423561" lon="15.05439413239652"><ele>512.5</ele><time>2026-04-16T17:17:04.999Z</time></trkpt><trkpt lat="41.17510282655242" lon="15.054352976859391"><ele>515.0</ele><time>2026-04-16T17:17:05.999Z</time></trkpt><trkpt lat="41.175157321576286" lon="15.05428446913821"><ele>515.0</ele><time>2026-04-16T17:17:06.999Z</time></trkpt><trkpt lat="41.175180259458344" lon="15.054193925896838"><ele>515.0</ele><time>2026-04-16T17:17:07.999Z</time></trkpt><trkpt lat="41.17516846530671" lon="15.054101115892704"><ele>515.0</ele><time>2026-04-16T17:17:08.999Z</time></trkpt><trkpt lat="41.175269287422154" lon="15.054017945622158"><ele>515.0</ele><time>2026-04-16T17:17:10.999Z</time></trkpt><trkpt lat="41.175357474431046" lon="15.054019451311893"><ele>515.0</ele><time>2026-04-16T17:17:11.999Z</time></trkpt><trkpt lat="41.17542134478882" lon="15.053967592809272"><ele>515.0</ele><time>2026-04-16T17:17:12.999Z</time></trkpt><trkpt lat="41.17547886425163" lon="15.053928047888556"><ele>519.0</ele><time>2026-04-16T17:17:13.999Z</time></trkpt><trkpt lat="41.175572719408585" lon="15.053916626101266"><ele>523.0</ele><time>2026-04-16T17:17:14.999Z</time></trkpt><trkpt lat="41.17566854488618" lon="15.053855868894004"><ele>527.0</ele><time>2026-04-16T17:17:15.999Z</time></trkpt><trkpt lat="41.175746507320824" lon="15.053821808896524"><ele>531.0</ele><time>2026-04-16T17:17:16.999Z</time></trkpt><trkpt lat="41.17583425852072" lon="15.053751731556138"><ele>535.0</ele><time>2026-04-16T17:17:17.999Z</time></trkpt><trkpt lat="41.17590048707053" lon="15.053685263867305"><ele>535.6666666666667</ele><time>2026-04-16T17:17:18.999Z</time></trkpt><trkpt lat="41.17594327733496" lon="15.053603608208146"><ele>536.3333333333334</ele><time>2026-04-16T17:17:19.999Z</time></trkpt><trkpt lat="41.17597752493541" lon="15.053515518791786"><ele>537.0</ele><time>2026-04-16T17:17:20.999Z</time></trkpt><trkpt lat="41.176026018499996" lon="15.053408962443768"><ele>537.6666666666666</ele><time>2026-04-16T17:17:21.999Z</time></trkpt><trkpt lat="41.17609641684369" lon="15.053379342597697"><ele>538.3333333333333</ele><time>2026-04-16T17:17:22.999Z</time></trkpt><trkpt lat="41.176164165141344" lon="15.053320064842872"><ele>539.0</ele><time>2026-04-16T17:17:24.999Z</time></trkpt><trkpt lat="41.17619729805731" lon="15.05318831592019"><ele>539.4</ele><time>2026-04-16T17:17:26.999Z</time></trkpt><trkpt lat="41.17627569790387" lon="15.053200683369745"><ele>539.8</ele><time>2026-04-16T17:17:30.999Z</time></trkpt><trkpt lat="41.176313074338694" lon="15.053090833073433"><ele>540.2</ele><time>2026-04-16T17:17:33.999Z</time></trkpt><trkpt lat="41.176389682382464" lon="15.052953036826745"><ele>540.6</ele><time>2026-04-16T17:17:35.999Z</time></trkpt><trkpt lat="41.17637053549244" lon="15.052846795756375"><ele>541.0</ele><time>2026-04-16T17:17:36.999Z</time></trkpt><trkpt lat="41.17633476736218" lon="15.052740088042851"><ele>541.0</ele><time>2026-04-16T17:17:37.999Z</time></trkpt><trkpt lat="41.17629726107576" lon="15.05262619313859"><ele>541.0</ele><time>2026-04-16T17:17:38.999Z</time></trkpt><trkpt lat="41.176237903791154" lon="15.052438505251049"><ele>541.0</ele><time>2026-04-16T17:17:39.999Z</time></trkpt><trkpt lat="41.176226173950525" lon="15.05230788046474"><ele>541.0</ele><time>2026-04-16T17:17:40.999Z</time></trkpt><trkpt lat="41.176227618960716" lon="15.052167743218213"><ele>542.0</ele><time>2026-04-16T17:17:41.999Z</time></trkpt><trkpt lat="41.17621956621643" lon="15.052013166471976"><ele>543.0</ele><time>2026-04-16T17:17:42.999Z</time></trkpt><trkpt lat="41.17620194253923" lon="15.051903294157144"><ele>544.0</ele><time>2026-04-16T17:17:43.999Z</time></trkpt><trkpt lat="41.176146067462405" lon="15.051789816367025"><ele>545.0</ele><time>2026-04-16T17:17:44.999Z</time></trkpt><trkpt lat="41.176062817692454" lon="15.051688852094612"><ele>546.0</ele><time>2026-04-16T17:17:45.998Z</time></trkpt><trkpt lat="41.175987552693186" lon="15.051563041760666"><ele>548.25</ele><time>2026-04-16T17:17:46.998Z</time></trkpt><trkpt lat="41.17591226174918" lon="15.05141055094326"><ele>550.5</ele><time>2026-04-16T17:17:47.998Z</time></trkpt><trkpt lat="41.175848258454984" lon="15.051244299345214"><ele>552.75</ele><time>2026-04-16T17:17:48.998Z</time></trkpt><trkpt lat="41.175799709593974" lon="15.051109308624664"><ele>555.0</ele><time>2026-04-16T17:17:49.998Z</time></trkpt><trkpt lat="41.175775437099006" lon="15.050998653994297"><ele>555.0</ele><time>2026-04-16T17:17:50.998Z</time></trkpt><trkpt lat="41.17573990060279" lon="15.050918750035136"><ele>555.0</ele><time>2026-04-16T17:17:51.998Z</time></trkpt><trkpt lat="41.1756703973672" lon="15.050852002825378"><ele>555.0</ele><time>2026-04-16T17:17:52.998Z</time></trkpt><trkpt lat="41.17559889598396" lon="15.050765679118062"><ele>555.0</ele><time>2026-04-16T17:17:53.998Z</time></trkpt><trkpt lat="41.17557822828127" lon="15.050674096635339"><ele>555.0</ele><time>2026-04-16T17:17:54.998Z</time></trkpt><trkpt lat="41.17554667060636" lon="15.050599233903224"><ele>555.0</ele><time>2026-04-16T17:17:57.998Z</time></trkpt><trkpt lat="41.1756220255257" lon="15.05054675315991"><ele>557.6</ele><time>2026-04-16T17:17:58.998Z</time></trkpt><trkpt lat="41.17570967270073" lon="15.050404263694773"><ele>560.2</ele><time>2026-04-16T17:18:00.999Z</time></trkpt><trkpt lat="41.17573489792132" lon="15.050322711502442"><ele>562.8</ele><time>2026-04-16T17:18:01.999Z</time></trkpt><trkpt lat="41.17576820760807" lon="15.050251388810599"><ele>565.4</ele><time>2026-04-16T17:18:02.999Z</time></trkpt><trkpt lat="41.1758477514361" lon="15.050123105884275"><ele>568.0</ele><time>2026-04-16T17:18:04.999Z</time></trkpt><trkpt lat="41.17590937995569" lon="15.05006686611338"><ele>568.0</ele><time>2026-04-16T17:18:06Z</time></trkpt><trkpt lat="41.175967549780175" lon="15.04999538015663"><ele>568.0</ele><time>2026-04-16T17:18:07Z</time></trkpt><trkpt lat="41.1760193509851" lon="15.0499217728026"><ele>568.0</ele><time>2026-04-16T17:18:08Z</time></trkpt><trkpt lat="41.17607389735271" lon="15.04985216985201"><ele>568.0</ele><time>2026-04-16T17:18:09Z</time></trkpt><trkpt lat="41.1761345667783" lon="15.049779621661044"><ele>568.0</ele><time>2026-04-16T17:18:10Z</time></trkpt><trkpt lat="41.17619501635001" lon="15.049697393368662"><ele>568.0</ele><time>2026-04-16T17:18:11Z</time></trkpt><trkpt lat="41.1762525448478" lon="15.049604357425848"><ele>568.6666666666667</ele><time>2026-04-16T17:18:12Z</time></trkpt><trkpt lat="41.17629821977509" lon="15.0495254098061"><ele>569.3333333333334</ele><time>2026-04-16T17:18:13Z</time></trkpt><trkpt lat="41.17635181983759" lon="15.04946356143679"><ele>570.0</ele><time>2026-04-16T17:18:14Z</time></trkpt><trkpt lat="41.176415484968274" lon="15.04939474262322"><ele>570.6666666666666</ele><time>2026-04-16T17:18:15Z</time></trkpt><trkpt lat="41.17648393624739" lon="15.049348145592699"><ele>571.3333333333333</ele><time>2026-04-16T17:18:16Z</time></trkpt><trkpt lat="41.176582207916795" lon="15.049338073707833"><ele>572.0</ele><time>2026-04-16T17:18:18Z</time></trkpt><trkpt lat="41.176529448427246" lon="15.049252124568191"><ele>573.8333333333333</ele><time>2026-04-16T17:18:22Z</time></trkpt><trkpt lat="41.17642198659051" lon="15.04925600755894"><ele>575.6666666666666</ele><time>2026-04-16T17:18:24Z</time></trkpt><trkpt lat="41.17634257351814" lon="15.049215292915518"><ele>577.5</ele><time>2026-04-16T17:18:26Z</time></trkpt><trkpt lat="41.17636736194878" lon="15.049105649282392"><ele>579.3333333333334</ele><time>2026-04-16T17:18:28Z</time></trkpt><trkpt lat="41.1764099362083" lon="15.049042193263421"><ele>581.1666666666667</ele><time>2026-04-16T17:18:29Z</time></trkpt><trkpt lat="41.17641323329147" lon="15.048947312931658"><ele>583.0</ele><time>2026-04-16T17:18:30Z</time></trkpt><trkpt lat="41.17638264204153" lon="15.048854637955085"><ele>584.8333333333334</ele><time>2026-04-16T17:18:31Z</time></trkpt><trkpt lat="41.1763470716102" lon="15.048758061129023"><ele>586.6666666666667</ele><time>2026-04-16T17:18:32Z</time></trkpt><trkpt lat="41.176287253649285" lon="15.048663284500913"><ele>588.5</ele><time>2026-04-16T17:18:33Z</time></trkpt><trkpt lat="41.17625376383294" lon="15.048571000698844"><ele>590.3333333333334</ele><time>2026-04-16T17:18:34Z</time></trkpt><trkpt lat="41.17621809686044" lon="15.048465801726246"><ele>592.1666666666666</ele><time>2026-04-16T17:18:34.999Z</time></trkpt><trkpt lat="41.17616182934609" lon="15.048360306549274"><ele>594.0</ele><time>2026-04-16T17:18:35.999Z</time></trkpt><trkpt lat="41.17609753759859" lon="15.048264939929808"><ele>595.8</ele><time>2026-04-16T17:18:36.999Z</time></trkpt><trkpt lat="41.17603803568417" lon="15.048158701433684"><ele>597.5999999999999</ele><time>2026-04-16T17:18:37.999Z</time></trkpt><trkpt lat="41.17596516686171" lon="15.048045307836814"><ele>599.4</ele><time>2026-04-16T17:18:38.999Z</time></trkpt><trkpt lat="41.17590578041009" lon="15.047944564565926"><ele>601.1999999999999</ele><time>2026-04-16T17:18:39.999Z</time></trkpt><trkpt lat="41.17585852351177" lon="15.047864393751652"><ele>603.0</ele><time>2026-04-16T17:18:40.999Z</time></trkpt><trkpt lat="41.17582927684163" lon="15.047712541677324"><ele>603.0</ele><time>2026-04-16T17:18:42.999Z</time></trkpt><trkpt lat="41.17587262881187" lon="15.047600464536494"><ele>603.0</ele><time>2026-04-16T17:18:43.999Z</time></trkpt><trkpt lat="41.17591441987818" lon="15.047500531253693"><ele>603.0</ele><time>2026-04-16T17:18:44.999Z</time></trkpt><trkpt lat="41.1759407166299" lon="15.047391738010884"><ele>603.0</ele><time>2026-04-16T17:18:45.999Z</time></trkpt><trkpt lat="41.1759482250053" lon="15.04728786515651"><ele>603.0</ele><time>2026-04-16T17:18:46.999Z</time></trkpt><trkpt lat="41.1759827664572" lon="15.047195914101446"><ele>603.0</ele><time>2026-04-16T17:18:47.999Z</time></trkpt><trkpt lat="41.17600713149097" lon="15.047083679898442"><ele>603.6666666666666</ele><time>2026-04-16T17:18:48.999Z</time></trkpt><trkpt lat="41.176032376492" lon="15.046965250147968"><ele>604.3333333333334</ele><time>2026-04-16T17:18:49.999Z</time></trkpt><trkpt lat="41.17606141925618" lon="15.046848860880004"><ele>605.0</ele><time>2026-04-16T17:18:50.999Z</time></trkpt><trkpt lat="41.17608785966213" lon="15.046739607676983"><ele>605.6666666666667</ele><time>2026-04-16T17:18:51.999Z</time></trkpt><trkpt lat="41.17611559732328" lon="15.046644554887784"><ele>606.3333333333334</ele><time>2026-04-16T17:18:52.999Z</time></trkpt><trkpt lat="41.17613702806188" lon="15.046539199797872"><ele>607.0</ele><time>2026-04-16T17:18:53.999Z</time></trkpt><trkpt lat="41.17616550045543" lon="15.046398495690795"><ele>607.0</ele><time>2026-04-16T17:18:55.999Z</time></trkpt><trkpt lat="41.1761759297964" lon="15.046289571996542"><ele>607.0</ele><time>2026-04-16T17:18:59.999Z</time></trkpt><trkpt lat="41.176222064635084" lon="15.04618170991579"><ele>607.0</ele><time>2026-04-16T17:19:01.999Z</time></trkpt><trkpt lat="41.176285128802824" lon="15.046112375073792"><ele>607.0</ele><time>2026-04-16T17:19:03.999Z</time></trkpt><trkpt lat="41.17635671439139" lon="15.046112612331482"><ele>607.0</ele><time>2026-04-16T17:19:05.999Z</time></trkpt><trkpt lat="41.17643692211969" lon="15.046116757912902"><ele>607.0</ele><time>2026-04-16T17:19:07.999Z</time></trkpt><trkpt lat="41.17647941589463" lon="15.046010660890397"><ele>606.9999999999999</ele><time>2026-04-16T17:19:09.999Z</time></trkpt><trkpt lat="41.17651537671481" lon="15.045923711992462"><ele>607.0</ele><time>2026-04-16T17:19:11.999Z</time></trkpt><trkpt lat="41.17653378432992" lon="15.045842164908018"><ele>607.0</ele><time>2026-04-16T17:19:14.999Z</time></trkpt><trkpt lat="41.17652017875403" lon="15.045946507243006"><ele>607.0</ele><time>2026-04-16T17:19:48.999Z</time></trkpt><trkpt lat="41.17648427451447" lon="15.046034634557774"><ele>607.0</ele><time>2026-04-16T17:19:50.999Z</time></trkpt><trkpt lat="41.17643595642129" lon="15.046108476742699"><ele>606.9999999999999</ele><time>2026-04-16T17:19:52.999Z</time></trkpt><trkpt lat="41.176356297025535" lon="15.046126498957154"><ele>607.0</ele><time>2026-04-16T17:19:54.999Z</time></trkpt><trkpt lat="41.17629149299197" lon="15.046083297239607"><ele>607.0</ele><time>2026-04-16T17:19:56.999Z</time></trkpt><trkpt lat="41.176232980818696" lon="15.045992290235777"><ele>607.0</ele><time>2026-04-16T17:19:58.999Z</time></trkpt><trkpt lat="41.17617163680731" lon="15.045916961882407"><ele>607.0</ele><time>2026-04-16T17:20:00.999Z</time></trkpt><trkpt lat="41.17615317579412" lon="15.04580451152474"><ele>607.0</ele><time>2026-04-16T17:20:02.999Z</time></trkpt><trkpt lat="41.17620658978262" lon="15.045705657291276"><ele>607.0</ele><time>2026-04-16T17:20:04.999Z</time></trkpt><trkpt lat="41.17624435532588" lon="15.045612192302972"><ele>607.0</ele><time>2026-04-16T17:20:07Z</time></trkpt><trkpt lat="41.17625204574446" lon="15.0455105235157"><ele>607.8000000000001</ele><time>2026-04-16T17:20:09Z</time></trkpt><trkpt lat="41.17624610145603" lon="15.045395104921381"><ele>608.6</ele><time>2026-04-16T17:20:11Z</time></trkpt><trkpt lat="41.17616694799772" lon="15.045403366144757"><ele>609.4000000000001</ele><time>2026-04-16T17:20:13Z</time></trkpt><trkpt lat="41.17619479679014" lon="15.045482123390881"><ele>610.2</ele><time>2026-04-16T17:20:16Z</time></trkpt><trkpt lat="41.176098089948034" lon="15.045597405714513"><ele>611.0</ele><time>2026-04-16T17:21:44.999Z</time></trkpt><trkpt lat="41.176100971446274" lon="15.04572799110068"><ele>611.0</ele><time>2026-04-16T17:21:46.999Z</time></trkpt><trkpt lat="41.17613904210556" lon="15.045805227921887"><ele>611.0</ele><time>2026-04-16T17:21:48.999Z</time></trkpt><trkpt lat="41.176216430249646" lon="15.045786317734134"><ele>611.0</ele><time>2026-04-16T17:21:51.999Z</time></trkpt><trkpt lat="41.17628903830237" lon="15.045748399629243"><ele>611.0</ele><time>2026-04-16T17:21:55.999Z</time></trkpt><trkpt lat="41.176351548617625" lon="15.045674358217076"><ele>611.0</ele><time>2026-04-16T17:21:59.999Z</time></trkpt><trkpt lat="41.17632566380391" lon="15.045594022682721"><ele>611.0</ele><time>2026-04-16T17:22:00.999Z</time></trkpt><trkpt lat="41.17622338299558" lon="15.04564357554994"><ele>611.0</ele><time>2026-04-16T17:22:02.999Z</time></trkpt><trkpt lat="41.176182532437686" lon="15.045708997020698"><ele>611.0</ele><time>2026-04-16T17:22:04.999Z</time></trkpt><trkpt lat="41.17619064359719" lon="15.045792479326922"><ele>611.0</ele><time>2026-04-16T17:22:06.999Z</time></trkpt><trkpt lat="41.17621401911374" lon="15.045896708601218"><ele>611.0</ele><time>2026-04-16T17:22:09.999Z</time></trkpt><trkpt lat="41.17625229997594" lon="15.045967962966213"><ele>611.0</ele><time>2026-04-16T17:22:12.001Z</time></trkpt><trkpt lat="41.176137453105014" lon="15.046270239444258"><ele>607.0</ele><time>2026-04-16T17:22:14.001Z</time></trkpt><trkpt lat="41.17635222948373" lon="15.046015573884684"><ele>607.0</ele><time>2026-04-16T17:22:16.001Z</time></trkpt><trkpt lat="41.1763908153696" lon="15.045946412109071"><ele>607.0</ele><time>2026-04-16T17:22:19.001Z</time></trkpt></trkseg></trk></gpx>